<?xml version="1.0" encoding="UTF-8" standalone="no" ?>
<gpx xmlns="http://www.topografix.com/GPX/1/1" xmlns:xsi="http://www.w3.org/2001/XMLSchema-instance" xsi:schemaLocation="http://www.topografix.com/GPX/1/1 http://www.topografix.com/GPX/1/1/gpx.xsd" version="1.1" creator="VisuGPX - https://www.visugpx.com">
  <metadata>
    <name>RAID TERRES NOIRES 2011 REDUIT</name>
    <desc><![CDATA[RAID TERRES NOIRES 2011  REDUIT
]]></desc>
  </metadata>
  <trk>
    <name><![CDATA[ComplimentsOfGPSBabel]]></name>
    <trkseg>
      <trkpt lat="44.06123" lon="6.28033">
        <ele>734.8728</ele>
        <time>2011-10-06T07:54:12.500Z</time>
      </trkpt>
      <trkpt lat="44.06116" lon="6.28046">
        <ele>736.092</ele>
        <time>2011-10-06T07:54:12.500Z</time>
      </trkpt>
      <trkpt lat="44.06108" lon="6.28058">
        <ele>736.092</ele>
        <time>2011-10-06T07:54:12.500Z</time>
      </trkpt>
      <trkpt lat="44.061" lon="6.28071">
        <ele>736.092</ele>
        <time>2011-10-06T07:54:12.500Z</time>
      </trkpt>
      <trkpt lat="44.06092" lon="6.28083">
        <ele>734.8728</ele>
        <time>2011-10-06T07:54:12.500Z</time>
      </trkpt>
      <trkpt lat="44.06084" lon="6.28094">
        <ele>739.14</ele>
        <time>2011-10-06T07:54:12.500Z</time>
      </trkpt>
      <trkpt lat="44.06077" lon="6.28105">
        <ele>737.0064</ele>
        <time>2011-10-06T07:54:12.500Z</time>
      </trkpt>
      <trkpt lat="44.0607" lon="6.28116">
        <ele>737.9208</ele>
        <time>2011-10-06T07:54:12.500Z</time>
      </trkpt>
      <trkpt lat="44.06065" lon="6.28127">
        <ele>737.9208</ele>
        <time>2011-10-06T07:54:12.500Z</time>
      </trkpt>
      <trkpt lat="44.06059" lon="6.28138">
        <ele>739.14</ele>
        <time>2011-10-06T07:54:12.500Z</time>
      </trkpt>
      <trkpt lat="44.06054" lon="6.28149">
        <ele>739.14</ele>
        <time>2011-10-06T07:54:12.500Z</time>
      </trkpt>
      <trkpt lat="44.06049" lon="6.28159">
        <ele>739.14</ele>
        <time>2011-10-06T07:54:12.500Z</time>
      </trkpt>
      <trkpt lat="44.06042" lon="6.28171">
        <ele>746.1504</ele>
        <time>2011-10-06T07:54:12.500Z</time>
      </trkpt>
      <trkpt lat="44.06037" lon="6.28182">
        <ele>746.1504</ele>
        <time>2011-10-06T07:54:12.500Z</time>
      </trkpt>
      <trkpt lat="44.06032" lon="6.28192">
        <ele>746.1504</ele>
        <time>2011-10-06T07:54:12.500Z</time>
      </trkpt>
      <trkpt lat="44.06026" lon="6.28204">
        <ele>747.0648</ele>
        <time>2011-10-06T07:54:12.500Z</time>
      </trkpt>
      <trkpt lat="44.06021" lon="6.28213">
        <ele>747.9792</ele>
        <time>2011-10-06T07:54:12.500Z</time>
      </trkpt>
      <trkpt lat="44.06016" lon="6.28223">
        <ele>747.9792</ele>
        <time>2011-10-06T07:54:12.500Z</time>
      </trkpt>
      <trkpt lat="44.06011" lon="6.28234">
        <ele>748.8936</ele>
        <time>2011-10-06T07:54:12.500Z</time>
      </trkpt>
      <trkpt lat="44.06006" lon="6.28244">
        <ele>748.8936</ele>
        <time>2011-10-06T07:54:12.500Z</time>
      </trkpt>
      <trkpt lat="44.06" lon="6.28254">
        <ele>751.9416</ele>
        <time>2011-10-06T07:54:12.500Z</time>
      </trkpt>
      <trkpt lat="44.05995" lon="6.28264">
        <ele>750.1128</ele>
        <time>2011-10-06T07:54:12.500Z</time>
      </trkpt>
      <trkpt lat="44.05989" lon="6.28277">
        <ele>751.9416</ele>
        <time>2011-10-06T07:54:12.500Z</time>
      </trkpt>
      <trkpt lat="44.05982" lon="6.2829">
        <ele>752.856</ele>
        <time>2011-10-06T07:54:12.500Z</time>
      </trkpt>
      <trkpt lat="44.05976" lon="6.28301">
        <ele>754.0752</ele>
        <time>2011-10-06T07:54:12.500Z</time>
      </trkpt>
      <trkpt lat="44.05971" lon="6.28312">
        <ele>754.0752</ele>
        <time>2011-10-06T07:54:12.500Z</time>
      </trkpt>
      <trkpt lat="44.05965" lon="6.28324">
        <ele>754.0752</ele>
        <time>2011-10-06T07:54:12.500Z</time>
      </trkpt>
      <trkpt lat="44.05959" lon="6.28336">
        <ele>758.952</ele>
        <time>2011-10-06T07:54:12.500Z</time>
      </trkpt>
      <trkpt lat="44.05953" lon="6.28346">
        <ele>758.0376</ele>
        <time>2011-10-06T07:54:12.500Z</time>
      </trkpt>
      <trkpt lat="44.05948" lon="6.2836">
        <ele>758.0376</ele>
        <time>2011-10-06T07:54:12.500Z</time>
      </trkpt>
      <trkpt lat="44.05945" lon="6.28374">
        <ele>758.952</ele>
        <time>2011-10-06T07:54:12.500Z</time>
      </trkpt>
      <trkpt lat="44.05943" lon="6.28389">
        <ele>758.952</ele>
        <time>2011-10-06T07:54:12.500Z</time>
      </trkpt>
      <trkpt lat="44.0594" lon="6.284">
        <ele>758.952</ele>
        <time>2011-10-06T07:54:12.500Z</time>
      </trkpt>
      <trkpt lat="44.05933" lon="6.28409">
        <ele>758.0376</ele>
        <time>2011-10-06T07:54:12.500Z</time>
      </trkpt>
      <trkpt lat="44.05924" lon="6.28418">
        <ele>758.952</ele>
        <time>2011-10-06T07:54:12.500Z</time>
      </trkpt>
      <trkpt lat="44.05914" lon="6.28426">
        <ele>755.904</ele>
        <time>2011-10-06T07:54:12.500Z</time>
      </trkpt>
      <trkpt lat="44.05905" lon="6.28434">
        <ele>757.1232</ele>
        <time>2011-10-06T07:54:12.500Z</time>
      </trkpt>
      <trkpt lat="44.05897" lon="6.28442">
        <ele>758.0376</ele>
        <time>2011-10-06T07:54:12.500Z</time>
      </trkpt>
      <trkpt lat="44.0589" lon="6.28451">
        <ele>758.952</ele>
        <time>2011-10-06T07:54:12.500Z</time>
      </trkpt>
      <trkpt lat="44.05881" lon="6.28462">
        <ele>759.8664</ele>
        <time>2011-10-06T07:54:12.500Z</time>
      </trkpt>
      <trkpt lat="44.05875" lon="6.28472">
        <ele>759.8664</ele>
        <time>2011-10-06T07:54:12.500Z</time>
      </trkpt>
      <trkpt lat="44.05868" lon="6.28481">
        <ele>759.8664</ele>
        <time>2011-10-06T07:54:12.500Z</time>
      </trkpt>
      <trkpt lat="44.05861" lon="6.28491">
        <ele>759.8664</ele>
        <time>2011-10-06T07:54:12.500Z</time>
      </trkpt>
      <trkpt lat="44.05853" lon="6.285">
        <ele>768.096</ele>
        <time>2011-10-06T07:54:12.500Z</time>
      </trkpt>
      <trkpt lat="44.05843" lon="6.28509">
        <ele>765.9624</ele>
        <time>2011-10-06T07:54:12.500Z</time>
      </trkpt>
      <trkpt lat="44.05833" lon="6.28516">
        <ele>758.952</ele>
        <time>2011-10-06T07:54:12.500Z</time>
      </trkpt>
      <trkpt lat="44.05824" lon="6.28523">
        <ele>759.8664</ele>
        <time>2011-10-06T07:54:12.500Z</time>
      </trkpt>
      <trkpt lat="44.05814" lon="6.28531">
        <ele>761.0856</ele>
        <time>2011-10-06T07:54:12.500Z</time>
      </trkpt>
      <trkpt lat="44.05804" lon="6.28541">
        <ele>762</ele>
        <time>2011-10-06T07:54:12.500Z</time>
      </trkpt>
      <trkpt lat="44.05796" lon="6.28552">
        <ele>762</ele>
        <time>2011-10-06T07:54:12.500Z</time>
      </trkpt>
      <trkpt lat="44.0579" lon="6.28563">
        <ele>762</ele>
        <time>2011-10-06T07:54:12.500Z</time>
      </trkpt>
      <trkpt lat="44.05783" lon="6.28575">
        <ele>762</ele>
        <time>2011-10-06T07:54:12.500Z</time>
      </trkpt>
      <trkpt lat="44.05777" lon="6.28586">
        <ele>765.9624</ele>
        <time>2011-10-06T07:54:12.500Z</time>
      </trkpt>
      <trkpt lat="44.0577" lon="6.28597">
        <ele>765.9624</ele>
        <time>2011-10-06T07:54:12.500Z</time>
      </trkpt>
      <trkpt lat="44.05764" lon="6.28607">
        <ele>765.9624</ele>
        <time>2011-10-06T07:54:12.500Z</time>
      </trkpt>
      <trkpt lat="44.05757" lon="6.28618">
        <ele>766.8768</ele>
        <time>2011-10-06T07:54:12.500Z</time>
      </trkpt>
      <trkpt lat="44.05752" lon="6.28629">
        <ele>766.8768</ele>
        <time>2011-10-06T07:54:12.500Z</time>
      </trkpt>
      <trkpt lat="44.05744" lon="6.28644">
        <ele>766.8768</ele>
        <time>2011-10-06T07:54:12.500Z</time>
      </trkpt>
      <trkpt lat="44.05738" lon="6.28655">
        <ele>766.8768</ele>
        <time>2011-10-06T07:54:12.500Z</time>
      </trkpt>
      <trkpt lat="44.05733" lon="6.28667">
        <ele>766.8768</ele>
        <time>2011-10-06T07:54:12.500Z</time>
      </trkpt>
      <trkpt lat="44.05729" lon="6.28681">
        <ele>769.0104</ele>
        <time>2011-10-06T07:54:12.500Z</time>
      </trkpt>
      <trkpt lat="44.05724" lon="6.28697">
        <ele>769.9248</ele>
        <time>2011-10-06T07:54:12.500Z</time>
      </trkpt>
      <trkpt lat="44.05723" lon="6.28709">
        <ele>769.9248</ele>
        <time>2011-10-06T07:54:12.500Z</time>
      </trkpt>
      <trkpt lat="44.05722" lon="6.28722">
        <ele>771.144</ele>
        <time>2011-10-06T07:54:12.500Z</time>
      </trkpt>
      <trkpt lat="44.05719" lon="6.28734">
        <ele>771.144</ele>
        <time>2011-10-06T07:54:12.500Z</time>
      </trkpt>
      <trkpt lat="44.05716" lon="6.28751">
        <ele>772.9728</ele>
        <time>2011-10-06T07:54:12.500Z</time>
      </trkpt>
      <trkpt lat="44.05713" lon="6.28768">
        <ele>772.9728</ele>
        <time>2011-10-06T07:54:12.500Z</time>
      </trkpt>
      <trkpt lat="44.0571" lon="6.28784">
        <ele>772.9728</ele>
        <time>2011-10-06T07:54:12.500Z</time>
      </trkpt>
      <trkpt lat="44.05707" lon="6.288">
        <ele>772.9728</ele>
        <time>2011-10-06T07:54:12.500Z</time>
      </trkpt>
      <trkpt lat="44.05704" lon="6.28814">
        <ele>772.9728</ele>
        <time>2011-10-06T07:54:12.500Z</time>
      </trkpt>
      <trkpt lat="44.05702" lon="6.28829">
        <ele>772.9728</ele>
        <time>2011-10-06T07:54:12.500Z</time>
      </trkpt>
      <trkpt lat="44.057" lon="6.28842">
        <ele>776.9352</ele>
        <time>2011-10-06T07:54:12.500Z</time>
      </trkpt>
      <trkpt lat="44.05697" lon="6.28855">
        <ele>776.9352</ele>
        <time>2011-10-06T07:54:12.500Z</time>
      </trkpt>
      <trkpt lat="44.05693" lon="6.28868">
        <ele>777.8496</ele>
        <time>2011-10-06T07:54:12.500Z</time>
      </trkpt>
      <trkpt lat="44.05689" lon="6.2888">
        <ele>777.8496</ele>
        <time>2011-10-06T07:54:12.500Z</time>
      </trkpt>
      <trkpt lat="44.05686" lon="6.28892">
        <ele>776.9352</ele>
        <time>2011-10-06T07:54:12.500Z</time>
      </trkpt>
      <trkpt lat="44.05681" lon="6.28903">
        <ele>775.1064</ele>
        <time>2011-10-06T07:54:12.500Z</time>
      </trkpt>
      <trkpt lat="44.05673" lon="6.28912">
        <ele>772.0584</ele>
        <time>2011-10-06T07:54:12.500Z</time>
      </trkpt>
      <trkpt lat="44.05664" lon="6.28921">
        <ele>769.9248</ele>
        <time>2011-10-06T07:54:12.500Z</time>
      </trkpt>
      <trkpt lat="44.05657" lon="6.2893">
        <ele>771.144</ele>
        <time>2011-10-06T07:54:12.500Z</time>
      </trkpt>
      <trkpt lat="44.05649" lon="6.2894">
        <ele>771.144</ele>
        <time>2011-10-06T07:54:12.500Z</time>
      </trkpt>
      <trkpt lat="44.0565" lon="6.28953">
        <ele>772.0584</ele>
        <time>2011-10-06T07:54:12.500Z</time>
      </trkpt>
      <trkpt lat="44.05645" lon="6.28964">
        <ele>772.9728</ele>
        <time>2011-10-06T07:54:12.500Z</time>
      </trkpt>
      <trkpt lat="44.05636" lon="6.28968">
        <ele>772.9728</ele>
        <time>2011-10-06T07:54:12.500Z</time>
      </trkpt>
      <trkpt lat="44.05636" lon="6.28955">
        <ele>772.0584</ele>
        <time>2011-10-06T07:54:12.500Z</time>
      </trkpt>
      <trkpt lat="44.05646" lon="6.28949">
        <ele>772.0584</ele>
        <time>2011-10-06T07:54:12.500Z</time>
      </trkpt>
      <trkpt lat="44.05654" lon="6.28944">
        <ele>772.0584</ele>
        <time>2011-10-06T07:54:12.500Z</time>
      </trkpt>
      <trkpt lat="44.05663" lon="6.28937">
        <ele>771.144</ele>
        <time>2011-10-06T07:54:12.500Z</time>
      </trkpt>
      <trkpt lat="44.05673" lon="6.28933">
        <ele>779.0688</ele>
        <time>2011-10-06T07:54:12.500Z</time>
      </trkpt>
      <trkpt lat="44.05677" lon="6.28946">
        <ele>783.0312</ele>
        <time>2011-10-06T07:54:12.500Z</time>
      </trkpt>
      <trkpt lat="44.05686" lon="6.28941">
        <ele>783.9456</ele>
        <time>2011-10-06T07:54:12.500Z</time>
      </trkpt>
      <trkpt lat="44.05688" lon="6.28928">
        <ele>783.0312</ele>
        <time>2011-10-06T07:54:12.500Z</time>
      </trkpt>
      <trkpt lat="44.05695" lon="6.28918">
        <ele>783.9456</ele>
        <time>2011-10-06T07:54:12.500Z</time>
      </trkpt>
      <trkpt lat="44.05702" lon="6.28907">
        <ele>779.9832</ele>
        <time>2011-10-06T07:54:12.500Z</time>
      </trkpt>
      <trkpt lat="44.05707" lon="6.28894">
        <ele>780.8976</ele>
        <time>2011-10-06T07:54:12.500Z</time>
      </trkpt>
      <trkpt lat="44.05715" lon="6.28883">
        <ele>782.1168</ele>
        <time>2011-10-06T07:54:12.500Z</time>
      </trkpt>
      <trkpt lat="44.0572" lon="6.28872">
        <ele>780.8976</ele>
        <time>2011-10-06T07:54:12.500Z</time>
      </trkpt>
      <trkpt lat="44.05728" lon="6.28868">
        <ele>782.1168</ele>
        <time>2011-10-06T07:54:12.500Z</time>
      </trkpt>
      <trkpt lat="44.05737" lon="6.28864">
        <ele>782.1168</ele>
        <time>2011-10-06T07:54:12.500Z</time>
      </trkpt>
      <trkpt lat="44.05746" lon="6.28864">
        <ele>783.0312</ele>
        <time>2011-10-06T07:54:12.500Z</time>
      </trkpt>
      <trkpt lat="44.05756" lon="6.28862">
        <ele>801.0144</ele>
        <time>2011-10-06T07:54:12.500Z</time>
      </trkpt>
      <trkpt lat="44.05764" lon="6.28857">
        <ele>801.0144</ele>
        <time>2011-10-06T07:54:12.500Z</time>
      </trkpt>
      <trkpt lat="44.05772" lon="6.28853">
        <ele>803.148</ele>
        <time>2011-10-06T07:54:12.500Z</time>
      </trkpt>
      <trkpt lat="44.05782" lon="6.28849">
        <ele>804.9768</ele>
        <time>2011-10-06T07:54:12.500Z</time>
      </trkpt>
      <trkpt lat="44.05791" lon="6.28851">
        <ele>808.0248</ele>
        <time>2011-10-06T07:54:12.500Z</time>
      </trkpt>
      <trkpt lat="44.05799" lon="6.28842">
        <ele>809.8536</ele>
        <time>2011-10-06T07:54:12.500Z</time>
      </trkpt>
      <trkpt lat="44.05806" lon="6.28834">
        <ele>811.9872</ele>
        <time>2011-10-06T07:54:12.500Z</time>
      </trkpt>
      <trkpt lat="44.05814" lon="6.28829">
        <ele>804.9768</ele>
        <time>2011-10-06T07:54:12.500Z</time>
      </trkpt>
      <trkpt lat="44.05823" lon="6.28824">
        <ele>808.0248</ele>
        <time>2011-10-06T07:54:12.500Z</time>
      </trkpt>
      <trkpt lat="44.05832" lon="6.28823">
        <ele>811.0728</ele>
        <time>2011-10-06T07:54:12.500Z</time>
      </trkpt>
      <trkpt lat="44.05841" lon="6.28822">
        <ele>821.1312</ele>
        <time>2011-10-06T07:54:12.500Z</time>
      </trkpt>
      <trkpt lat="44.05848" lon="6.28813">
        <ele>822.0456</ele>
        <time>2011-10-06T07:54:12.500Z</time>
      </trkpt>
      <trkpt lat="44.05855" lon="6.28804">
        <ele>822.0456</ele>
        <time>2011-10-06T07:54:12.500Z</time>
      </trkpt>
      <trkpt lat="44.05863" lon="6.28796">
        <ele>822.0456</ele>
        <time>2011-10-06T07:54:12.500Z</time>
      </trkpt>
      <trkpt lat="44.05873" lon="6.28793">
        <ele>822.96</ele>
        <time>2011-10-06T07:54:12.500Z</time>
      </trkpt>
      <trkpt lat="44.05884" lon="6.28787">
        <ele>823.8744</ele>
        <time>2011-10-06T07:54:12.500Z</time>
      </trkpt>
      <trkpt lat="44.05894" lon="6.28782">
        <ele>825.0936</ele>
        <time>2011-10-06T07:54:12.500Z</time>
      </trkpt>
      <trkpt lat="44.05905" lon="6.28781">
        <ele>826.008</ele>
        <time>2011-10-06T07:54:12.500Z</time>
      </trkpt>
      <trkpt lat="44.05914" lon="6.28776">
        <ele>826.008</ele>
        <time>2011-10-06T07:54:12.500Z</time>
      </trkpt>
      <trkpt lat="44.05922" lon="6.28772">
        <ele>843.0768</ele>
        <time>2011-10-06T07:54:12.500Z</time>
      </trkpt>
      <trkpt lat="44.05928" lon="6.28761">
        <ele>839.1144</ele>
        <time>2011-10-06T07:54:12.500Z</time>
      </trkpt>
      <trkpt lat="44.05934" lon="6.28752">
        <ele>840.9432</ele>
        <time>2011-10-06T07:54:12.500Z</time>
      </trkpt>
      <trkpt lat="44.05941" lon="6.28743">
        <ele>832.104</ele>
        <time>2011-10-06T07:54:12.500Z</time>
      </trkpt>
      <trkpt lat="44.05945" lon="6.28729">
        <ele>833.0184</ele>
        <time>2011-10-06T07:54:12.500Z</time>
      </trkpt>
      <trkpt lat="44.05952" lon="6.2872">
        <ele>833.9328</ele>
        <time>2011-10-06T07:54:12.500Z</time>
      </trkpt>
      <trkpt lat="44.05957" lon="6.28709">
        <ele>833.9328</ele>
        <time>2011-10-06T07:54:12.500Z</time>
      </trkpt>
      <trkpt lat="44.05962" lon="6.28699">
        <ele>833.9328</ele>
        <time>2011-10-06T07:54:12.500Z</time>
      </trkpt>
      <trkpt lat="44.05965" lon="6.28688">
        <ele>833.9328</ele>
        <time>2011-10-06T07:54:12.500Z</time>
      </trkpt>
      <trkpt lat="44.05969" lon="6.28676">
        <ele>835.152</ele>
        <time>2011-10-06T07:54:12.500Z</time>
      </trkpt>
      <trkpt lat="44.05977" lon="6.28668">
        <ele>836.0664</ele>
        <time>2011-10-06T07:54:12.500Z</time>
      </trkpt>
      <trkpt lat="44.05984" lon="6.2866">
        <ele>830.8848</ele>
        <time>2011-10-06T07:54:12.500Z</time>
      </trkpt>
      <trkpt lat="44.0599" lon="6.28649">
        <ele>829.9704</ele>
        <time>2011-10-06T07:54:12.500Z</time>
      </trkpt>
      <trkpt lat="44.05996" lon="6.28637">
        <ele>828.1416</ele>
        <time>2011-10-06T07:54:12.500Z</time>
      </trkpt>
      <trkpt lat="44.06005" lon="6.28632">
        <ele>832.104</ele>
        <time>2011-10-06T07:54:12.500Z</time>
      </trkpt>
      <trkpt lat="44.06015" lon="6.28625">
        <ele>830.8848</ele>
        <time>2011-10-06T07:54:12.500Z</time>
      </trkpt>
      <trkpt lat="44.06026" lon="6.2863">
        <ele>830.8848</ele>
        <time>2011-10-06T07:54:12.500Z</time>
      </trkpt>
      <trkpt lat="44.06033" lon="6.28638">
        <ele>832.104</ele>
        <time>2011-10-06T07:54:12.500Z</time>
      </trkpt>
      <trkpt lat="44.06042" lon="6.28646">
        <ele>832.104</ele>
        <time>2011-10-06T07:54:12.500Z</time>
      </trkpt>
      <trkpt lat="44.06052" lon="6.28656">
        <ele>833.0184</ele>
        <time>2011-10-06T07:54:12.500Z</time>
      </trkpt>
      <trkpt lat="44.06061" lon="6.28666">
        <ele>833.0184</ele>
        <time>2011-10-06T07:54:12.500Z</time>
      </trkpt>
      <trkpt lat="44.06072" lon="6.28674">
        <ele>840.9432</ele>
        <time>2011-10-06T07:54:12.500Z</time>
      </trkpt>
      <trkpt lat="44.06081" lon="6.28686">
        <ele>843.0768</ele>
        <time>2011-10-06T07:54:12.500Z</time>
      </trkpt>
      <trkpt lat="44.0609" lon="6.28697">
        <ele>851.0016</ele>
        <time>2011-10-06T07:54:12.500Z</time>
      </trkpt>
      <trkpt lat="44.061" lon="6.28707">
        <ele>854.0496</ele>
        <time>2011-10-06T07:54:12.500Z</time>
      </trkpt>
      <trkpt lat="44.06111" lon="6.28713">
        <ele>855.8784</ele>
        <time>2011-10-06T07:54:12.500Z</time>
      </trkpt>
      <trkpt lat="44.06122" lon="6.28717">
        <ele>858.012</ele>
        <time>2011-10-06T07:54:12.500Z</time>
      </trkpt>
      <trkpt lat="44.06129" lon="6.28708">
        <ele>857.0976</ele>
        <time>2011-10-06T07:54:12.500Z</time>
      </trkpt>
      <trkpt lat="44.06129" lon="6.28692">
        <ele>854.964</ele>
        <time>2011-10-06T07:54:12.500Z</time>
      </trkpt>
      <trkpt lat="44.06133" lon="6.28679">
        <ele>854.964</ele>
        <time>2011-10-06T07:54:12.500Z</time>
      </trkpt>
      <trkpt lat="44.06136" lon="6.28664">
        <ele>844.9056</ele>
        <time>2011-10-06T07:54:12.500Z</time>
      </trkpt>
      <trkpt lat="44.06141" lon="6.28653">
        <ele>844.9056</ele>
        <time>2011-10-06T07:54:12.500Z</time>
      </trkpt>
      <trkpt lat="44.06147" lon="6.28644">
        <ele>844.9056</ele>
        <time>2011-10-06T07:54:12.500Z</time>
      </trkpt>
      <trkpt lat="44.06149" lon="6.28631">
        <ele>843.0768</ele>
        <time>2011-10-06T07:54:12.500Z</time>
      </trkpt>
      <trkpt lat="44.06154" lon="6.2862">
        <ele>843.0768</ele>
        <time>2011-10-06T07:54:12.500Z</time>
      </trkpt>
      <trkpt lat="44.06164" lon="6.28614">
        <ele>843.0768</ele>
        <time>2011-10-06T07:54:12.500Z</time>
      </trkpt>
      <trkpt lat="44.06171" lon="6.28606">
        <ele>860.1456</ele>
        <time>2011-10-06T07:54:12.500Z</time>
      </trkpt>
      <trkpt lat="44.06178" lon="6.28596">
        <ele>858.012</ele>
        <time>2011-10-06T07:54:12.500Z</time>
      </trkpt>
      <trkpt lat="44.06183" lon="6.28586">
        <ele>858.012</ele>
        <time>2011-10-06T07:54:12.500Z</time>
      </trkpt>
      <trkpt lat="44.06191" lon="6.2858">
        <ele>854.0496</ele>
        <time>2011-10-06T07:54:12.500Z</time>
      </trkpt>
      <trkpt lat="44.06199" lon="6.28574">
        <ele>855.8784</ele>
        <time>2011-10-06T07:54:12.500Z</time>
      </trkpt>
      <trkpt lat="44.06206" lon="6.28567">
        <ele>858.012</ele>
        <time>2011-10-06T07:54:12.500Z</time>
      </trkpt>
      <trkpt lat="44.06214" lon="6.28559">
        <ele>858.9264</ele>
        <time>2011-10-06T07:54:12.500Z</time>
      </trkpt>
      <trkpt lat="44.06221" lon="6.28549">
        <ele>860.1456</ele>
        <time>2011-10-06T07:54:12.500Z</time>
      </trkpt>
      <trkpt lat="44.06225" lon="6.28535">
        <ele>860.1456</ele>
        <time>2011-10-06T07:54:12.500Z</time>
      </trkpt>
      <trkpt lat="44.06222" lon="6.28523">
        <ele>858.9264</ele>
        <time>2011-10-06T07:54:12.500Z</time>
      </trkpt>
      <trkpt lat="44.06223" lon="6.28509">
        <ele>858.9264</ele>
        <time>2011-10-06T07:54:12.500Z</time>
      </trkpt>
      <trkpt lat="44.06225" lon="6.28496">
        <ele>854.0496</ele>
        <time>2011-10-06T07:54:12.500Z</time>
      </trkpt>
      <trkpt lat="44.06226" lon="6.28484">
        <ele>854.0496</ele>
        <time>2011-10-06T07:54:12.500Z</time>
      </trkpt>
      <trkpt lat="44.06231" lon="6.28473">
        <ele>853.1352</ele>
        <time>2011-10-06T07:54:12.500Z</time>
      </trkpt>
      <trkpt lat="44.06236" lon="6.28463">
        <ele>851.916</ele>
        <time>2011-10-06T07:54:12.500Z</time>
      </trkpt>
      <trkpt lat="44.06245" lon="6.28459">
        <ele>851.916</ele>
        <time>2011-10-06T07:54:12.500Z</time>
      </trkpt>
      <trkpt lat="44.06254" lon="6.2846">
        <ele>861.06</ele>
        <time>2011-10-06T07:54:12.500Z</time>
      </trkpt>
      <trkpt lat="44.06263" lon="6.28464">
        <ele>861.9744</ele>
        <time>2011-10-06T07:54:12.500Z</time>
      </trkpt>
      <trkpt lat="44.06271" lon="6.28471">
        <ele>862.8888</ele>
        <time>2011-10-06T07:54:12.500Z</time>
      </trkpt>
      <trkpt lat="44.0628" lon="6.28478">
        <ele>864.108</ele>
        <time>2011-10-06T07:54:12.500Z</time>
      </trkpt>
      <trkpt lat="44.06289" lon="6.28487">
        <ele>865.0224</ele>
        <time>2011-10-06T07:54:12.500Z</time>
      </trkpt>
      <trkpt lat="44.06298" lon="6.28489">
        <ele>865.9368</ele>
        <time>2011-10-06T07:54:12.500Z</time>
      </trkpt>
      <trkpt lat="44.06307" lon="6.28485">
        <ele>866.8512</ele>
        <time>2011-10-06T07:54:12.500Z</time>
      </trkpt>
      <trkpt lat="44.06317" lon="6.28479">
        <ele>868.0704</ele>
        <time>2011-10-06T07:54:12.500Z</time>
      </trkpt>
      <trkpt lat="44.06326" lon="6.28478">
        <ele>868.9848</ele>
        <time>2011-10-06T07:54:12.500Z</time>
      </trkpt>
      <trkpt lat="44.06337" lon="6.28484">
        <ele>878.1288</ele>
        <time>2011-10-06T07:54:12.500Z</time>
      </trkpt>
      <trkpt lat="44.06345" lon="6.28496">
        <ele>879.0432</ele>
        <time>2011-10-06T07:54:12.500Z</time>
      </trkpt>
      <trkpt lat="44.06355" lon="6.28508">
        <ele>893.064</ele>
        <time>2011-10-06T07:54:12.500Z</time>
      </trkpt>
      <trkpt lat="44.06364" lon="6.28508">
        <ele>894.8928</ele>
        <time>2011-10-06T07:54:12.500Z</time>
      </trkpt>
      <trkpt lat="44.06373" lon="6.28498">
        <ele>880.872</ele>
        <time>2011-10-06T07:54:12.500Z</time>
      </trkpt>
      <trkpt lat="44.06379" lon="6.28488">
        <ele>880.872</ele>
        <time>2011-10-06T07:54:12.500Z</time>
      </trkpt>
      <trkpt lat="44.06385" lon="6.28475">
        <ele>880.872</ele>
        <time>2011-10-06T07:54:12.500Z</time>
      </trkpt>
      <trkpt lat="44.06391" lon="6.28462">
        <ele>879.9576</ele>
        <time>2011-10-06T07:54:12.500Z</time>
      </trkpt>
      <trkpt lat="44.06397" lon="6.28451">
        <ele>879.0432</ele>
        <time>2011-10-06T07:54:12.500Z</time>
      </trkpt>
      <trkpt lat="44.06399" lon="6.28438">
        <ele>879.0432</ele>
        <time>2011-10-06T07:54:12.500Z</time>
      </trkpt>
      <trkpt lat="44.06397" lon="6.28425">
        <ele>878.1288</ele>
        <time>2011-10-06T07:54:12.500Z</time>
      </trkpt>
      <trkpt lat="44.06394" lon="6.28412">
        <ele>868.9848</ele>
        <time>2011-10-06T07:54:12.500Z</time>
      </trkpt>
      <trkpt lat="44.06395" lon="6.28399">
        <ele>868.0704</ele>
        <time>2011-10-06T07:54:12.500Z</time>
      </trkpt>
      <trkpt lat="44.06393" lon="6.28386">
        <ele>865.9368</ele>
        <time>2011-10-06T07:54:12.500Z</time>
      </trkpt>
      <trkpt lat="44.06397" lon="6.28374">
        <ele>865.0224</ele>
        <time>2011-10-06T07:54:12.500Z</time>
      </trkpt>
      <trkpt lat="44.06407" lon="6.28372">
        <ele>865.9368</ele>
        <time>2011-10-06T07:54:12.500Z</time>
      </trkpt>
      <trkpt lat="44.06418" lon="6.28371">
        <ele>878.1288</ele>
        <time>2011-10-06T07:54:12.500Z</time>
      </trkpt>
      <trkpt lat="44.06427" lon="6.28366">
        <ele>876.9096</ele>
        <time>2011-10-06T07:54:12.500Z</time>
      </trkpt>
      <trkpt lat="44.06437" lon="6.28364">
        <ele>878.1288</ele>
        <time>2011-10-06T07:54:12.500Z</time>
      </trkpt>
      <trkpt lat="44.06446" lon="6.28364">
        <ele>879.0432</ele>
        <time>2011-10-06T07:54:12.500Z</time>
      </trkpt>
      <trkpt lat="44.06455" lon="6.28363">
        <ele>879.0432</ele>
        <time>2011-10-06T07:54:12.500Z</time>
      </trkpt>
      <trkpt lat="44.06464" lon="6.28357">
        <ele>879.0432</ele>
        <time>2011-10-06T07:54:12.500Z</time>
      </trkpt>
      <trkpt lat="44.06473" lon="6.28353">
        <ele>879.9576</ele>
        <time>2011-10-06T07:54:12.500Z</time>
      </trkpt>
      <trkpt lat="44.06482" lon="6.28347">
        <ele>879.0432</ele>
        <time>2011-10-06T07:54:12.500Z</time>
      </trkpt>
      <trkpt lat="44.06491" lon="6.2834">
        <ele>878.1288</ele>
        <time>2011-10-06T07:54:12.500Z</time>
      </trkpt>
      <trkpt lat="44.065" lon="6.28337">
        <ele>878.1288</ele>
        <time>2011-10-06T07:54:12.500Z</time>
      </trkpt>
      <trkpt lat="44.0651" lon="6.28337">
        <ele>879.0432</ele>
        <time>2011-10-06T07:54:12.500Z</time>
      </trkpt>
      <trkpt lat="44.06518" lon="6.28343">
        <ele>879.9576</ele>
        <time>2011-10-06T07:54:12.500Z</time>
      </trkpt>
      <trkpt lat="44.06524" lon="6.28353">
        <ele>880.872</ele>
        <time>2011-10-06T07:54:12.500Z</time>
      </trkpt>
      <trkpt lat="44.06527" lon="6.28364">
        <ele>883.0056</ele>
        <time>2011-10-06T07:54:12.500Z</time>
      </trkpt>
      <trkpt lat="44.0653" lon="6.28377">
        <ele>883.92</ele>
        <time>2011-10-06T07:54:12.500Z</time>
      </trkpt>
      <trkpt lat="44.06536" lon="6.2839">
        <ele>886.0536</ele>
        <time>2011-10-06T07:54:12.500Z</time>
      </trkpt>
      <trkpt lat="44.06546" lon="6.28398">
        <ele>886.968</ele>
        <time>2011-10-06T07:54:12.500Z</time>
      </trkpt>
      <trkpt lat="44.06557" lon="6.284">
        <ele>886.968</ele>
        <time>2011-10-06T07:54:12.500Z</time>
      </trkpt>
      <trkpt lat="44.06565" lon="6.28407">
        <ele>887.8824</ele>
        <time>2011-10-06T07:54:12.500Z</time>
      </trkpt>
      <trkpt lat="44.0657" lon="6.28417">
        <ele>900.9888</ele>
        <time>2011-10-06T07:54:12.500Z</time>
      </trkpt>
      <trkpt lat="44.06576" lon="6.28432">
        <ele>903.1224</ele>
        <time>2011-10-06T07:54:12.500Z</time>
      </trkpt>
      <trkpt lat="44.06585" lon="6.28442">
        <ele>905.8656</ele>
        <time>2011-10-06T07:54:12.500Z</time>
      </trkpt>
      <trkpt lat="44.06594" lon="6.28452">
        <ele>908.9136</ele>
        <time>2011-10-06T07:54:12.500Z</time>
      </trkpt>
      <trkpt lat="44.06605" lon="6.28455">
        <ele>911.0472</ele>
        <time>2011-10-06T07:54:12.500Z</time>
      </trkpt>
      <trkpt lat="44.06617" lon="6.2845">
        <ele>910.1328</ele>
        <time>2011-10-06T07:54:12.500Z</time>
      </trkpt>
      <trkpt lat="44.06625" lon="6.28443">
        <ele>908.9136</ele>
        <time>2011-10-06T07:54:12.500Z</time>
      </trkpt>
      <trkpt lat="44.06637" lon="6.28437">
        <ele>907.9992</ele>
        <time>2011-10-06T07:54:12.500Z</time>
      </trkpt>
      <trkpt lat="44.06644" lon="6.28429">
        <ele>907.0848</ele>
        <time>2011-10-06T07:54:12.500Z</time>
      </trkpt>
      <trkpt lat="44.06651" lon="6.28418">
        <ele>904.0368</ele>
        <time>2011-10-06T07:54:12.500Z</time>
      </trkpt>
      <trkpt lat="44.06656" lon="6.28407">
        <ele>893.064</ele>
        <time>2011-10-06T07:54:12.500Z</time>
      </trkpt>
      <trkpt lat="44.06664" lon="6.28395">
        <ele>890.9304</ele>
        <time>2011-10-06T07:54:12.500Z</time>
      </trkpt>
      <trkpt lat="44.06673" lon="6.28387">
        <ele>900.0744</ele>
        <time>2011-10-06T07:54:12.500Z</time>
      </trkpt>
      <trkpt lat="44.06681" lon="6.28379">
        <ele>898.8552</ele>
        <time>2011-10-06T07:54:12.500Z</time>
      </trkpt>
      <trkpt lat="44.06689" lon="6.28372">
        <ele>900.0744</ele>
        <time>2011-10-06T07:54:12.500Z</time>
      </trkpt>
      <trkpt lat="44.06699" lon="6.28368">
        <ele>900.0744</ele>
        <time>2011-10-06T07:54:12.500Z</time>
      </trkpt>
      <trkpt lat="44.06704" lon="6.28357">
        <ele>900.0744</ele>
        <time>2011-10-06T07:54:12.500Z</time>
      </trkpt>
      <trkpt lat="44.06708" lon="6.28346">
        <ele>898.8552</ele>
        <time>2011-10-06T07:54:12.500Z</time>
      </trkpt>
      <trkpt lat="44.06712" lon="6.28334">
        <ele>898.8552</ele>
        <time>2011-10-06T07:54:12.500Z</time>
      </trkpt>
      <trkpt lat="44.0672" lon="6.28328">
        <ele>890.016</ele>
        <time>2011-10-06T07:54:12.500Z</time>
      </trkpt>
      <trkpt lat="44.0673" lon="6.28324">
        <ele>893.064</ele>
        <time>2011-10-06T07:54:12.500Z</time>
      </trkpt>
      <trkpt lat="44.06738" lon="6.28317">
        <ele>893.064</ele>
        <time>2011-10-06T07:54:12.500Z</time>
      </trkpt>
      <trkpt lat="44.06738" lon="6.28302">
        <ele>890.016</ele>
        <time>2011-10-06T07:54:12.500Z</time>
      </trkpt>
      <trkpt lat="44.06739" lon="6.28289">
        <ele>889.1016</ele>
        <time>2011-10-06T07:54:12.500Z</time>
      </trkpt>
      <trkpt lat="44.06739" lon="6.28274">
        <ele>887.8824</ele>
        <time>2011-10-06T07:54:12.500Z</time>
      </trkpt>
      <trkpt lat="44.06748" lon="6.28266">
        <ele>887.8824</ele>
        <time>2011-10-06T07:54:12.500Z</time>
      </trkpt>
      <trkpt lat="44.06758" lon="6.28262">
        <ele>892.1496</ele>
        <time>2011-10-06T07:54:12.500Z</time>
      </trkpt>
      <trkpt lat="44.06769" lon="6.28264">
        <ele>892.1496</ele>
        <time>2011-10-06T07:54:12.500Z</time>
      </trkpt>
      <trkpt lat="44.06782" lon="6.28266">
        <ele>892.1496</ele>
        <time>2011-10-06T07:54:12.500Z</time>
      </trkpt>
      <trkpt lat="44.0679" lon="6.28275">
        <ele>893.064</ele>
        <time>2011-10-06T07:54:12.500Z</time>
      </trkpt>
      <trkpt lat="44.068" lon="6.28281">
        <ele>893.064</ele>
        <time>2011-10-06T07:54:12.500Z</time>
      </trkpt>
      <trkpt lat="44.06813" lon="6.28279">
        <ele>892.1496</ele>
        <time>2011-10-06T07:54:12.500Z</time>
      </trkpt>
      <trkpt lat="44.06823" lon="6.28277">
        <ele>890.9304</ele>
        <time>2011-10-06T07:54:12.500Z</time>
      </trkpt>
      <trkpt lat="44.06832" lon="6.2828">
        <ele>890.9304</ele>
        <time>2011-10-06T07:54:12.500Z</time>
      </trkpt>
      <trkpt lat="44.06842" lon="6.28284">
        <ele>882.0912</ele>
        <time>2011-10-06T07:54:12.500Z</time>
      </trkpt>
      <trkpt lat="44.0685" lon="6.28292">
        <ele>883.0056</ele>
        <time>2011-10-06T07:54:12.500Z</time>
      </trkpt>
      <trkpt lat="44.06853" lon="6.28303">
        <ele>885.1392</ele>
        <time>2011-10-06T07:54:12.500Z</time>
      </trkpt>
      <trkpt lat="44.06857" lon="6.28316">
        <ele>886.968</ele>
        <time>2011-10-06T07:54:12.500Z</time>
      </trkpt>
      <trkpt lat="44.06864" lon="6.28327">
        <ele>886.0536</ele>
        <time>2011-10-06T07:54:12.500Z</time>
      </trkpt>
      <trkpt lat="44.06873" lon="6.28335">
        <ele>900.9888</ele>
        <time>2011-10-06T07:54:12.500Z</time>
      </trkpt>
      <trkpt lat="44.06883" lon="6.28342">
        <ele>898.8552</ele>
        <time>2011-10-06T07:54:12.500Z</time>
      </trkpt>
      <trkpt lat="44.06892" lon="6.28351">
        <ele>897.9408</ele>
        <time>2011-10-06T07:54:12.500Z</time>
      </trkpt>
      <trkpt lat="44.06903" lon="6.2836">
        <ele>897.9408</ele>
        <time>2011-10-06T07:54:12.500Z</time>
      </trkpt>
      <trkpt lat="44.06915" lon="6.28366">
        <ele>897.9408</ele>
        <time>2011-10-06T07:54:12.500Z</time>
      </trkpt>
      <trkpt lat="44.06925" lon="6.28368">
        <ele>890.016</ele>
        <time>2011-10-06T07:54:12.500Z</time>
      </trkpt>
      <trkpt lat="44.06933" lon="6.28381">
        <ele>893.064</ele>
        <time>2011-10-06T07:54:12.500Z</time>
      </trkpt>
      <trkpt lat="44.0694" lon="6.28392">
        <ele>894.8928</ele>
        <time>2011-10-06T07:54:12.500Z</time>
      </trkpt>
      <trkpt lat="44.06948" lon="6.28399">
        <ele>894.8928</ele>
        <time>2011-10-06T07:54:12.500Z</time>
      </trkpt>
      <trkpt lat="44.06955" lon="6.28406">
        <ele>896.112</ele>
        <time>2011-10-06T07:54:12.500Z</time>
      </trkpt>
      <trkpt lat="44.06961" lon="6.28416">
        <ele>897.0264</ele>
        <time>2011-10-06T07:54:12.500Z</time>
      </trkpt>
      <trkpt lat="44.06971" lon="6.28412">
        <ele>897.0264</ele>
        <time>2011-10-06T07:54:12.500Z</time>
      </trkpt>
      <trkpt lat="44.06978" lon="6.28397">
        <ele>894.8928</ele>
        <time>2011-10-06T07:54:12.500Z</time>
      </trkpt>
      <trkpt lat="44.06984" lon="6.28386">
        <ele>893.064</ele>
        <time>2011-10-06T07:54:12.500Z</time>
      </trkpt>
      <trkpt lat="44.06993" lon="6.28379">
        <ele>892.1496</ele>
        <time>2011-10-06T07:54:12.500Z</time>
      </trkpt>
      <trkpt lat="44.07001" lon="6.28371">
        <ele>897.0264</ele>
        <time>2011-10-06T07:54:12.500Z</time>
      </trkpt>
      <trkpt lat="44.07011" lon="6.28363">
        <ele>894.8928</ele>
        <time>2011-10-06T07:54:12.500Z</time>
      </trkpt>
      <trkpt lat="44.07021" lon="6.28356">
        <ele>894.8928</ele>
        <time>2011-10-06T07:54:12.500Z</time>
      </trkpt>
      <trkpt lat="44.0703" lon="6.28346">
        <ele>894.8928</ele>
        <time>2011-10-06T07:54:12.500Z</time>
      </trkpt>
      <trkpt lat="44.07034" lon="6.28329">
        <ele>880.872</ele>
        <time>2011-10-06T07:54:12.500Z</time>
      </trkpt>
      <trkpt lat="44.07044" lon="6.28323">
        <ele>883.0056</ele>
        <time>2011-10-06T07:54:12.500Z</time>
      </trkpt>
      <trkpt lat="44.0705" lon="6.28313">
        <ele>883.0056</ele>
        <time>2011-10-06T07:54:12.500Z</time>
      </trkpt>
      <trkpt lat="44.07057" lon="6.28305">
        <ele>883.92</ele>
        <time>2011-10-06T07:54:12.500Z</time>
      </trkpt>
      <trkpt lat="44.07062" lon="6.28293">
        <ele>883.0056</ele>
        <time>2011-10-06T07:54:12.500Z</time>
      </trkpt>
      <trkpt lat="44.07069" lon="6.28283">
        <ele>882.0912</ele>
        <time>2011-10-06T07:54:12.500Z</time>
      </trkpt>
      <trkpt lat="44.07076" lon="6.28274">
        <ele>882.0912</ele>
        <time>2011-10-06T07:54:12.500Z</time>
      </trkpt>
      <trkpt lat="44.07087" lon="6.28273">
        <ele>887.8824</ele>
        <time>2011-10-06T07:54:12.500Z</time>
      </trkpt>
      <trkpt lat="44.07097" lon="6.28274">
        <ele>889.1016</ele>
        <time>2011-10-06T07:54:12.500Z</time>
      </trkpt>
      <trkpt lat="44.07107" lon="6.28273">
        <ele>889.1016</ele>
        <time>2011-10-06T07:54:12.500Z</time>
      </trkpt>
      <trkpt lat="44.07115" lon="6.28279">
        <ele>890.016</ele>
        <time>2011-10-06T07:54:12.500Z</time>
      </trkpt>
      <trkpt lat="44.0712" lon="6.28291">
        <ele>890.9304</ele>
        <time>2011-10-06T07:54:12.500Z</time>
      </trkpt>
      <trkpt lat="44.0713" lon="6.28292">
        <ele>890.9304</ele>
        <time>2011-10-06T07:54:12.500Z</time>
      </trkpt>
      <trkpt lat="44.0714" lon="6.28287">
        <ele>890.9304</ele>
        <time>2011-10-06T07:54:12.500Z</time>
      </trkpt>
      <trkpt lat="44.07148" lon="6.28292">
        <ele>890.9304</ele>
        <time>2011-10-06T07:54:12.500Z</time>
      </trkpt>
      <trkpt lat="44.07157" lon="6.28301">
        <ele>893.064</ele>
        <time>2011-10-06T07:54:12.500Z</time>
      </trkpt>
      <trkpt lat="44.07169" lon="6.28301">
        <ele>897.0264</ele>
        <time>2011-10-06T07:54:12.500Z</time>
      </trkpt>
      <trkpt lat="44.07177" lon="6.28294">
        <ele>894.8928</ele>
        <time>2011-10-06T07:54:12.500Z</time>
      </trkpt>
      <trkpt lat="44.07187" lon="6.2829">
        <ele>894.8928</ele>
        <time>2011-10-06T07:54:12.500Z</time>
      </trkpt>
      <trkpt lat="44.07195" lon="6.28294">
        <ele>896.112</ele>
        <time>2011-10-06T07:54:12.500Z</time>
      </trkpt>
      <trkpt lat="44.07205" lon="6.28292">
        <ele>896.112</ele>
        <time>2011-10-06T07:54:12.500Z</time>
      </trkpt>
      <trkpt lat="44.07214" lon="6.28287">
        <ele>896.112</ele>
        <time>2011-10-06T07:54:12.500Z</time>
      </trkpt>
      <trkpt lat="44.07224" lon="6.2828">
        <ele>894.8928</ele>
        <time>2011-10-06T07:54:12.500Z</time>
      </trkpt>
      <trkpt lat="44.07232" lon="6.28276">
        <ele>894.8928</ele>
        <time>2011-10-06T07:54:12.500Z</time>
      </trkpt>
      <trkpt lat="44.07241" lon="6.28272">
        <ele>893.9784</ele>
        <time>2011-10-06T07:54:12.500Z</time>
      </trkpt>
      <trkpt lat="44.07251" lon="6.28261">
        <ele>894.8928</ele>
        <time>2011-10-06T07:54:12.500Z</time>
      </trkpt>
      <trkpt lat="44.07258" lon="6.28251">
        <ele>893.064</ele>
        <time>2011-10-06T07:54:12.500Z</time>
      </trkpt>
      <trkpt lat="44.07267" lon="6.28249">
        <ele>887.8824</ele>
        <time>2011-10-06T07:54:12.500Z</time>
      </trkpt>
      <trkpt lat="44.07275" lon="6.28243">
        <ele>887.8824</ele>
        <time>2011-10-06T07:54:12.500Z</time>
      </trkpt>
      <trkpt lat="44.07282" lon="6.28233">
        <ele>887.8824</ele>
        <time>2011-10-06T07:54:12.500Z</time>
      </trkpt>
      <trkpt lat="44.07293" lon="6.28238">
        <ele>889.1016</ele>
        <time>2011-10-06T07:54:12.500Z</time>
      </trkpt>
      <trkpt lat="44.07303" lon="6.28236">
        <ele>890.016</ele>
        <time>2011-10-06T07:54:12.500Z</time>
      </trkpt>
      <trkpt lat="44.07313" lon="6.28229">
        <ele>890.9304</ele>
        <time>2011-10-06T07:54:12.500Z</time>
      </trkpt>
      <trkpt lat="44.07326" lon="6.28227">
        <ele>892.1496</ele>
        <time>2011-10-06T07:54:12.500Z</time>
      </trkpt>
      <trkpt lat="44.07338" lon="6.28229">
        <ele>894.8928</ele>
        <time>2011-10-06T07:54:12.500Z</time>
      </trkpt>
      <trkpt lat="44.07347" lon="6.28231">
        <ele>893.9784</ele>
        <time>2011-10-06T07:54:12.500Z</time>
      </trkpt>
      <trkpt lat="44.07357" lon="6.28218">
        <ele>892.1496</ele>
        <time>2011-10-06T07:54:12.500Z</time>
      </trkpt>
      <trkpt lat="44.07366" lon="6.2821">
        <ele>890.016</ele>
        <time>2011-10-06T07:54:12.500Z</time>
      </trkpt>
      <trkpt lat="44.07375" lon="6.28208">
        <ele>890.016</ele>
        <time>2011-10-06T07:54:12.500Z</time>
      </trkpt>
      <trkpt lat="44.07386" lon="6.2821">
        <ele>890.016</ele>
        <time>2011-10-06T07:54:12.500Z</time>
      </trkpt>
      <trkpt lat="44.07393" lon="6.28218">
        <ele>890.9304</ele>
        <time>2011-10-06T07:54:12.500Z</time>
      </trkpt>
      <trkpt lat="44.07401" lon="6.2823">
        <ele>892.1496</ele>
        <time>2011-10-06T07:54:12.500Z</time>
      </trkpt>
      <trkpt lat="44.07409" lon="6.28237">
        <ele>893.064</ele>
        <time>2011-10-06T07:54:12.500Z</time>
      </trkpt>
      <trkpt lat="44.07419" lon="6.28241">
        <ele>890.9304</ele>
        <time>2011-10-06T07:54:12.500Z</time>
      </trkpt>
      <trkpt lat="44.07431" lon="6.28249">
        <ele>889.1016</ele>
        <time>2011-10-06T07:54:12.500Z</time>
      </trkpt>
      <trkpt lat="44.07438" lon="6.28258">
        <ele>900.0744</ele>
        <time>2011-10-06T07:54:12.500Z</time>
      </trkpt>
      <trkpt lat="44.07446" lon="6.28265">
        <ele>900.9888</ele>
        <time>2011-10-06T07:54:12.500Z</time>
      </trkpt>
      <trkpt lat="44.07458" lon="6.28262">
        <ele>900.0744</ele>
        <time>2011-10-06T07:54:12.500Z</time>
      </trkpt>
      <trkpt lat="44.07466" lon="6.28255">
        <ele>897.9408</ele>
        <time>2011-10-06T07:54:12.500Z</time>
      </trkpt>
      <trkpt lat="44.07475" lon="6.28254">
        <ele>896.112</ele>
        <time>2011-10-06T07:54:12.500Z</time>
      </trkpt>
      <trkpt lat="44.07484" lon="6.28253">
        <ele>893.064</ele>
        <time>2011-10-06T07:54:12.500Z</time>
      </trkpt>
      <trkpt lat="44.07497" lon="6.28251">
        <ele>886.968</ele>
        <time>2011-10-06T07:54:12.500Z</time>
      </trkpt>
      <trkpt lat="44.07507" lon="6.28258">
        <ele>890.016</ele>
        <time>2011-10-06T07:54:12.500Z</time>
      </trkpt>
      <trkpt lat="44.07519" lon="6.28263">
        <ele>893.9784</ele>
        <time>2011-10-06T07:54:12.500Z</time>
      </trkpt>
      <trkpt lat="44.07529" lon="6.28262">
        <ele>894.8928</ele>
        <time>2011-10-06T07:54:12.500Z</time>
      </trkpt>
      <trkpt lat="44.0754" lon="6.28261">
        <ele>894.8928</ele>
        <time>2011-10-06T07:54:12.500Z</time>
      </trkpt>
      <trkpt lat="44.07552" lon="6.28258">
        <ele>894.8928</ele>
        <time>2011-10-06T07:54:12.500Z</time>
      </trkpt>
      <trkpt lat="44.07563" lon="6.28255">
        <ele>893.064</ele>
        <time>2011-10-06T07:54:12.500Z</time>
      </trkpt>
      <trkpt lat="44.07574" lon="6.2825">
        <ele>889.1016</ele>
        <time>2011-10-06T07:54:12.500Z</time>
      </trkpt>
      <trkpt lat="44.07583" lon="6.28248">
        <ele>883.0056</ele>
        <time>2011-10-06T07:54:12.500Z</time>
      </trkpt>
      <trkpt lat="44.07592" lon="6.28237">
        <ele>878.1288</ele>
        <time>2011-10-06T07:54:12.500Z</time>
      </trkpt>
      <trkpt lat="44.07602" lon="6.28231">
        <ele>875.0808</ele>
        <time>2011-10-06T07:54:12.500Z</time>
      </trkpt>
      <trkpt lat="44.07611" lon="6.28241">
        <ele>875.0808</ele>
        <time>2011-10-06T07:54:12.500Z</time>
      </trkpt>
      <trkpt lat="44.07618" lon="6.28249">
        <ele>875.0808</ele>
        <time>2011-10-06T07:54:12.500Z</time>
      </trkpt>
      <trkpt lat="44.07629" lon="6.28256">
        <ele>893.064</ele>
        <time>2011-10-06T07:54:12.500Z</time>
      </trkpt>
      <trkpt lat="44.0764" lon="6.28261">
        <ele>892.1496</ele>
        <time>2011-10-06T07:54:12.500Z</time>
      </trkpt>
      <trkpt lat="44.0765" lon="6.28266">
        <ele>892.1496</ele>
        <time>2011-10-06T07:54:12.500Z</time>
      </trkpt>
      <trkpt lat="44.0766" lon="6.28268">
        <ele>890.016</ele>
        <time>2011-10-06T07:54:12.500Z</time>
      </trkpt>
      <trkpt lat="44.07671" lon="6.28264">
        <ele>890.016</ele>
        <time>2011-10-06T07:54:12.500Z</time>
      </trkpt>
      <trkpt lat="44.07682" lon="6.28256">
        <ele>890.9304</ele>
        <time>2011-10-06T07:54:12.500Z</time>
      </trkpt>
      <trkpt lat="44.07694" lon="6.2825">
        <ele>893.9784</ele>
        <time>2011-10-06T07:54:12.500Z</time>
      </trkpt>
      <trkpt lat="44.07706" lon="6.28245">
        <ele>879.0432</ele>
        <time>2011-10-06T07:54:12.500Z</time>
      </trkpt>
      <trkpt lat="44.07719" lon="6.2824">
        <ele>879.9576</ele>
        <time>2011-10-06T07:54:12.500Z</time>
      </trkpt>
      <trkpt lat="44.07728" lon="6.28235">
        <ele>880.872</ele>
        <time>2011-10-06T07:54:12.500Z</time>
      </trkpt>
      <trkpt lat="44.07739" lon="6.28228">
        <ele>882.0912</ele>
        <time>2011-10-06T07:54:12.500Z</time>
      </trkpt>
      <trkpt lat="44.07749" lon="6.28219">
        <ele>880.872</ele>
        <time>2011-10-06T07:54:12.500Z</time>
      </trkpt>
      <trkpt lat="44.07758" lon="6.28207">
        <ele>887.8824</ele>
        <time>2011-10-06T07:54:12.500Z</time>
      </trkpt>
      <trkpt lat="44.07765" lon="6.28195">
        <ele>886.968</ele>
        <time>2011-10-06T07:54:12.500Z</time>
      </trkpt>
      <trkpt lat="44.07769" lon="6.28182">
        <ele>885.1392</ele>
        <time>2011-10-06T07:54:12.500Z</time>
      </trkpt>
      <trkpt lat="44.07775" lon="6.28169">
        <ele>885.1392</ele>
        <time>2011-10-06T07:54:12.500Z</time>
      </trkpt>
      <trkpt lat="44.07784" lon="6.28164">
        <ele>876.9096</ele>
        <time>2011-10-06T07:54:12.500Z</time>
      </trkpt>
      <trkpt lat="44.07793" lon="6.28157">
        <ele>878.1288</ele>
        <time>2011-10-06T07:54:12.500Z</time>
      </trkpt>
      <trkpt lat="44.078" lon="6.28144">
        <ele>876.9096</ele>
        <time>2011-10-06T07:54:12.500Z</time>
      </trkpt>
      <trkpt lat="44.07809" lon="6.28137">
        <ele>876.9096</ele>
        <time>2011-10-06T07:54:12.500Z</time>
      </trkpt>
      <trkpt lat="44.07826" lon="6.28137">
        <ele>878.1288</ele>
        <time>2011-10-06T07:54:12.500Z</time>
      </trkpt>
      <trkpt lat="44.07837" lon="6.28144">
        <ele>879.0432</ele>
        <time>2011-10-06T07:54:12.500Z</time>
      </trkpt>
      <trkpt lat="44.07848" lon="6.28145">
        <ele>879.0432</ele>
        <time>2011-10-06T07:54:12.500Z</time>
      </trkpt>
      <trkpt lat="44.07861" lon="6.28144">
        <ele>876.9096</ele>
        <time>2011-10-06T07:54:12.500Z</time>
      </trkpt>
      <trkpt lat="44.07873" lon="6.28149">
        <ele>875.9952</ele>
        <time>2011-10-06T07:54:12.500Z</time>
      </trkpt>
      <trkpt lat="44.07885" lon="6.28156">
        <ele>875.9952</ele>
        <time>2011-10-06T07:54:12.500Z</time>
      </trkpt>
      <trkpt lat="44.07896" lon="6.28162">
        <ele>876.9096</ele>
        <time>2011-10-06T07:54:12.500Z</time>
      </trkpt>
      <trkpt lat="44.07907" lon="6.28168">
        <ele>883.92</ele>
        <time>2011-10-06T07:54:12.500Z</time>
      </trkpt>
      <trkpt lat="44.07917" lon="6.28173">
        <ele>882.0912</ele>
        <time>2011-10-06T07:54:12.500Z</time>
      </trkpt>
      <trkpt lat="44.07928" lon="6.28171">
        <ele>883.92</ele>
        <time>2011-10-06T07:54:12.500Z</time>
      </trkpt>
      <trkpt lat="44.07936" lon="6.28167">
        <ele>886.0536</ele>
        <time>2011-10-06T07:54:12.500Z</time>
      </trkpt>
      <trkpt lat="44.07945" lon="6.28163">
        <ele>873.8616</ele>
        <time>2011-10-06T07:54:12.500Z</time>
      </trkpt>
      <trkpt lat="44.07952" lon="6.28154">
        <ele>872.9472</ele>
        <time>2011-10-06T07:54:12.500Z</time>
      </trkpt>
      <trkpt lat="44.07961" lon="6.28148">
        <ele>872.9472</ele>
        <time>2011-10-06T07:54:12.500Z</time>
      </trkpt>
      <trkpt lat="44.07973" lon="6.28153">
        <ele>873.8616</ele>
        <time>2011-10-06T07:54:12.500Z</time>
      </trkpt>
      <trkpt lat="44.07982" lon="6.28158">
        <ele>875.0808</ele>
        <time>2011-10-06T07:54:12.500Z</time>
      </trkpt>
      <trkpt lat="44.07994" lon="6.2816">
        <ele>875.9952</ele>
        <time>2011-10-06T07:54:12.500Z</time>
      </trkpt>
      <trkpt lat="44.08005" lon="6.28152">
        <ele>876.9096</ele>
        <time>2011-10-06T07:54:12.500Z</time>
      </trkpt>
      <trkpt lat="44.08017" lon="6.28153">
        <ele>875.9952</ele>
        <time>2011-10-06T07:54:12.500Z</time>
      </trkpt>
      <trkpt lat="44.08027" lon="6.28154">
        <ele>875.9952</ele>
        <time>2011-10-06T07:54:12.500Z</time>
      </trkpt>
      <trkpt lat="44.08039" lon="6.28154">
        <ele>875.9952</ele>
        <time>2011-10-06T07:54:12.500Z</time>
      </trkpt>
      <trkpt lat="44.08052" lon="6.28151">
        <ele>876.9096</ele>
        <time>2011-10-06T07:54:12.500Z</time>
      </trkpt>
      <trkpt lat="44.08061" lon="6.28143">
        <ele>876.9096</ele>
        <time>2011-10-06T07:54:12.500Z</time>
      </trkpt>
      <trkpt lat="44.08069" lon="6.28137">
        <ele>876.9096</ele>
        <time>2011-10-06T07:54:12.500Z</time>
      </trkpt>
      <trkpt lat="44.08079" lon="6.28136">
        <ele>876.9096</ele>
        <time>2011-10-06T07:54:12.500Z</time>
      </trkpt>
      <trkpt lat="44.08086" lon="6.28144">
        <ele>875.0808</ele>
        <time>2011-10-06T07:54:12.500Z</time>
      </trkpt>
      <trkpt lat="44.08085" lon="6.28157">
        <ele>879.0432</ele>
        <time>2011-10-06T07:54:12.500Z</time>
      </trkpt>
      <trkpt lat="44.08083" lon="6.28169">
        <ele>883.92</ele>
        <time>2011-10-06T07:54:12.500Z</time>
      </trkpt>
      <trkpt lat="44.08077" lon="6.28178">
        <ele>887.8824</ele>
        <time>2011-10-06T07:54:12.500Z</time>
      </trkpt>
      <trkpt lat="44.08069" lon="6.28185">
        <ele>890.016</ele>
        <time>2011-10-06T07:54:12.500Z</time>
      </trkpt>
      <trkpt lat="44.08059" lon="6.28187">
        <ele>890.9304</ele>
        <time>2011-10-06T07:54:12.500Z</time>
      </trkpt>
      <trkpt lat="44.08052" lon="6.28194">
        <ele>892.1496</ele>
        <time>2011-10-06T07:54:12.500Z</time>
      </trkpt>
      <trkpt lat="44.08044" lon="6.282">
        <ele>893.064</ele>
        <time>2011-10-06T07:54:12.500Z</time>
      </trkpt>
      <trkpt lat="44.08035" lon="6.28203">
        <ele>893.064</ele>
        <time>2011-10-06T07:54:12.500Z</time>
      </trkpt>
      <trkpt lat="44.0804" lon="6.28213">
        <ele>894.8928</ele>
        <time>2011-10-06T07:54:12.500Z</time>
      </trkpt>
      <trkpt lat="44.08036" lon="6.28224">
        <ele>897.0264</ele>
        <time>2011-10-06T07:54:12.500Z</time>
      </trkpt>
      <trkpt lat="44.08027" lon="6.28227">
        <ele>897.0264</ele>
        <time>2011-10-06T07:54:12.500Z</time>
      </trkpt>
      <trkpt lat="44.08017" lon="6.28224">
        <ele>897.0264</ele>
        <time>2011-10-06T07:54:12.500Z</time>
      </trkpt>
      <trkpt lat="44.08008" lon="6.28227">
        <ele>897.9408</ele>
        <time>2011-10-06T07:54:12.500Z</time>
      </trkpt>
      <trkpt lat="44.08009" lon="6.2824">
        <ele>900.9888</ele>
        <time>2011-10-06T07:54:12.500Z</time>
      </trkpt>
      <trkpt lat="44.08017" lon="6.28246">
        <ele>900.9888</ele>
        <time>2011-10-06T07:54:12.500Z</time>
      </trkpt>
      <trkpt lat="44.08021" lon="6.28257">
        <ele>911.9616</ele>
        <time>2011-10-06T07:54:12.500Z</time>
      </trkpt>
      <trkpt lat="44.08015" lon="6.28266">
        <ele>911.9616</ele>
        <time>2011-10-06T07:54:12.500Z</time>
      </trkpt>
      <trkpt lat="44.08006" lon="6.2827">
        <ele>911.9616</ele>
        <time>2011-10-06T07:54:12.500Z</time>
      </trkpt>
      <trkpt lat="44.08002" lon="6.28281">
        <ele>914.0952</ele>
        <time>2011-10-06T07:54:12.500Z</time>
      </trkpt>
      <trkpt lat="44.07993" lon="6.28286">
        <ele>918.0576</ele>
        <time>2011-10-06T07:54:12.500Z</time>
      </trkpt>
      <trkpt lat="44.07986" lon="6.28293">
        <ele>919.8864</ele>
        <time>2011-10-06T07:54:12.500Z</time>
      </trkpt>
      <trkpt lat="44.07995" lon="6.28296">
        <ele>919.8864</ele>
        <time>2011-10-06T07:54:12.500Z</time>
      </trkpt>
      <trkpt lat="44.08004" lon="6.28299">
        <ele>918.0576</ele>
        <time>2011-10-06T07:54:12.500Z</time>
      </trkpt>
      <trkpt lat="44.07998" lon="6.28308">
        <ele>922.9344</ele>
        <time>2011-10-06T07:54:12.500Z</time>
      </trkpt>
      <trkpt lat="44.07989" lon="6.28314">
        <ele>923.8488</ele>
        <time>2011-10-06T07:54:12.500Z</time>
      </trkpt>
      <trkpt lat="44.07985" lon="6.28327">
        <ele>925.068</ele>
        <time>2011-10-06T07:54:12.500Z</time>
      </trkpt>
      <trkpt lat="44.0798" lon="6.28338">
        <ele>933.9072</ele>
        <time>2011-10-06T07:54:12.500Z</time>
      </trkpt>
      <trkpt lat="44.07976" lon="6.2835">
        <ele>935.1264</ele>
        <time>2011-10-06T07:54:12.500Z</time>
      </trkpt>
      <trkpt lat="44.07976" lon="6.28363">
        <ele>936.0408</ele>
        <time>2011-10-06T07:54:12.500Z</time>
      </trkpt>
      <trkpt lat="44.07973" lon="6.28374">
        <ele>936.9552</ele>
        <time>2011-10-06T07:54:12.500Z</time>
      </trkpt>
      <trkpt lat="44.07971" lon="6.28388">
        <ele>936.9552</ele>
        <time>2011-10-06T07:54:12.500Z</time>
      </trkpt>
      <trkpt lat="44.0797" lon="6.28402">
        <ele>936.9552</ele>
        <time>2011-10-06T07:54:12.500Z</time>
      </trkpt>
      <trkpt lat="44.07969" lon="6.28418">
        <ele>935.1264</ele>
        <time>2011-10-06T07:54:12.500Z</time>
      </trkpt>
      <trkpt lat="44.07967" lon="6.28431">
        <ele>935.1264</ele>
        <time>2011-10-06T07:54:12.500Z</time>
      </trkpt>
      <trkpt lat="44.07964" lon="6.28444">
        <ele>936.0408</ele>
        <time>2011-10-06T07:54:12.500Z</time>
      </trkpt>
      <trkpt lat="44.07962" lon="6.28459">
        <ele>935.1264</ele>
        <time>2011-10-06T07:54:12.500Z</time>
      </trkpt>
      <trkpt lat="44.07955" lon="6.28471">
        <ele>935.1264</ele>
        <time>2011-10-06T07:54:12.500Z</time>
      </trkpt>
      <trkpt lat="44.07949" lon="6.2848">
        <ele>936.0408</ele>
        <time>2011-10-06T07:54:12.500Z</time>
      </trkpt>
      <trkpt lat="44.0794" lon="6.28489">
        <ele>936.9552</ele>
        <time>2011-10-06T07:54:12.500Z</time>
      </trkpt>
      <trkpt lat="44.07932" lon="6.28495">
        <ele>937.8696</ele>
        <time>2011-10-06T07:54:12.500Z</time>
      </trkpt>
      <trkpt lat="44.07922" lon="6.285">
        <ele>936.9552</ele>
        <time>2011-10-06T07:54:12.500Z</time>
      </trkpt>
      <trkpt lat="44.07912" lon="6.28503">
        <ele>940.0032</ele>
        <time>2011-10-06T07:54:12.500Z</time>
      </trkpt>
      <trkpt lat="44.07901" lon="6.28506">
        <ele>939.0888</ele>
        <time>2011-10-06T07:54:12.500Z</time>
      </trkpt>
      <trkpt lat="44.0789" lon="6.28511">
        <ele>939.0888</ele>
        <time>2011-10-06T07:54:12.500Z</time>
      </trkpt>
      <trkpt lat="44.07878" lon="6.28516">
        <ele>939.0888</ele>
        <time>2011-10-06T07:54:12.500Z</time>
      </trkpt>
      <trkpt lat="44.07867" lon="6.28526">
        <ele>939.0888</ele>
        <time>2011-10-06T07:54:12.500Z</time>
      </trkpt>
      <trkpt lat="44.07857" lon="6.28531">
        <ele>940.0032</ele>
        <time>2011-10-06T07:54:12.500Z</time>
      </trkpt>
      <trkpt lat="44.07846" lon="6.28537">
        <ele>940.0032</ele>
        <time>2011-10-06T07:54:12.500Z</time>
      </trkpt>
      <trkpt lat="44.07838" lon="6.28541">
        <ele>939.0888</ele>
        <time>2011-10-06T07:54:12.500Z</time>
      </trkpt>
      <trkpt lat="44.07827" lon="6.28546">
        <ele>950.0616</ele>
        <time>2011-10-06T07:54:12.500Z</time>
      </trkpt>
      <trkpt lat="44.07822" lon="6.28558">
        <ele>947.928</ele>
        <time>2011-10-06T07:54:12.500Z</time>
      </trkpt>
      <trkpt lat="44.07818" lon="6.2857">
        <ele>947.0136</ele>
        <time>2011-10-06T07:54:12.500Z</time>
      </trkpt>
      <trkpt lat="44.07813" lon="6.28582">
        <ele>946.0992</ele>
        <time>2011-10-06T07:54:12.500Z</time>
      </trkpt>
      <trkpt lat="44.07808" lon="6.28593">
        <ele>943.0512</ele>
        <time>2011-10-06T07:54:12.500Z</time>
      </trkpt>
      <trkpt lat="44.07802" lon="6.28607">
        <ele>943.9656</ele>
        <time>2011-10-06T07:54:12.500Z</time>
      </trkpt>
      <trkpt lat="44.07793" lon="6.2862">
        <ele>944.88</ele>
        <time>2011-10-06T07:54:12.500Z</time>
      </trkpt>
      <trkpt lat="44.07785" lon="6.28627">
        <ele>944.88</ele>
        <time>2011-10-06T07:54:12.500Z</time>
      </trkpt>
      <trkpt lat="44.07778" lon="6.2864">
        <ele>946.0992</ele>
        <time>2011-10-06T07:54:12.500Z</time>
      </trkpt>
      <trkpt lat="44.07772" lon="6.28655">
        <ele>946.0992</ele>
        <time>2011-10-06T07:54:12.500Z</time>
      </trkpt>
      <trkpt lat="44.07769" lon="6.28668">
        <ele>942.1368</ele>
        <time>2011-10-06T07:54:12.500Z</time>
      </trkpt>
      <trkpt lat="44.07766" lon="6.2868">
        <ele>940.9176</ele>
        <time>2011-10-06T07:54:12.500Z</time>
      </trkpt>
      <trkpt lat="44.07761" lon="6.28691">
        <ele>940.0032</ele>
        <time>2011-10-06T07:54:12.500Z</time>
      </trkpt>
      <trkpt lat="44.07752" lon="6.287">
        <ele>939.0888</ele>
        <time>2011-10-06T07:54:12.500Z</time>
      </trkpt>
      <trkpt lat="44.07743" lon="6.28703">
        <ele>947.928</ele>
        <time>2011-10-06T07:54:12.500Z</time>
      </trkpt>
      <trkpt lat="44.07734" lon="6.28704">
        <ele>947.928</ele>
        <time>2011-10-06T07:54:12.500Z</time>
      </trkpt>
      <trkpt lat="44.07725" lon="6.28701">
        <ele>949.1472</ele>
        <time>2011-10-06T07:54:12.500Z</time>
      </trkpt>
      <trkpt lat="44.07716" lon="6.28698">
        <ele>950.0616</ele>
        <time>2011-10-06T07:54:12.500Z</time>
      </trkpt>
      <trkpt lat="44.07707" lon="6.28695">
        <ele>950.976</ele>
        <time>2011-10-06T07:54:12.500Z</time>
      </trkpt>
      <trkpt lat="44.07697" lon="6.28696">
        <ele>951.8904</ele>
        <time>2011-10-06T07:54:12.500Z</time>
      </trkpt>
      <trkpt lat="44.07688" lon="6.28698">
        <ele>953.1096</ele>
        <time>2011-10-06T07:54:12.500Z</time>
      </trkpt>
      <trkpt lat="44.07679" lon="6.28699">
        <ele>953.1096</ele>
        <time>2011-10-06T07:54:12.500Z</time>
      </trkpt>
      <trkpt lat="44.07671" lon="6.28695">
        <ele>954.024</ele>
        <time>2011-10-06T07:54:12.500Z</time>
      </trkpt>
      <trkpt lat="44.07662" lon="6.28692">
        <ele>962.8632</ele>
        <time>2011-10-06T07:54:12.500Z</time>
      </trkpt>
      <trkpt lat="44.07655" lon="6.28683">
        <ele>964.0824</ele>
        <time>2011-10-06T07:54:12.500Z</time>
      </trkpt>
      <trkpt lat="44.07647" lon="6.2868">
        <ele>964.0824</ele>
        <time>2011-10-06T07:54:12.500Z</time>
      </trkpt>
      <trkpt lat="44.07638" lon="6.28682">
        <ele>964.0824</ele>
        <time>2011-10-06T07:54:12.500Z</time>
      </trkpt>
      <trkpt lat="44.07627" lon="6.28682">
        <ele>964.9968</ele>
        <time>2011-10-06T07:54:12.500Z</time>
      </trkpt>
      <trkpt lat="44.07618" lon="6.28688">
        <ele>965.9112</ele>
        <time>2011-10-06T07:54:12.500Z</time>
      </trkpt>
      <trkpt lat="44.07609" lon="6.2869">
        <ele>965.9112</ele>
        <time>2011-10-06T07:54:12.500Z</time>
      </trkpt>
      <trkpt lat="44.07601" lon="6.28695">
        <ele>967.1304</ele>
        <time>2011-10-06T07:54:12.500Z</time>
      </trkpt>
      <trkpt lat="44.07592" lon="6.28699">
        <ele>967.1304</ele>
        <time>2011-10-06T07:54:12.500Z</time>
      </trkpt>
      <trkpt lat="44.07583" lon="6.28705">
        <ele>974.1408</ele>
        <time>2011-10-06T07:54:12.500Z</time>
      </trkpt>
      <trkpt lat="44.07575" lon="6.28708">
        <ele>974.1408</ele>
        <time>2011-10-06T07:54:12.500Z</time>
      </trkpt>
      <trkpt lat="44.07566" lon="6.28708">
        <ele>974.1408</ele>
        <time>2011-10-06T07:54:12.500Z</time>
      </trkpt>
      <trkpt lat="44.07557" lon="6.28715">
        <ele>974.1408</ele>
        <time>2011-10-06T07:54:12.500Z</time>
      </trkpt>
      <trkpt lat="44.07548" lon="6.28722">
        <ele>974.1408</ele>
        <time>2011-10-06T07:54:12.500Z</time>
      </trkpt>
      <trkpt lat="44.07539" lon="6.2873">
        <ele>975.0552</ele>
        <time>2011-10-06T07:54:12.500Z</time>
      </trkpt>
      <trkpt lat="44.07528" lon="6.28736">
        <ele>975.0552</ele>
        <time>2011-10-06T07:54:12.500Z</time>
      </trkpt>
      <trkpt lat="44.07519" lon="6.2874">
        <ele>975.9696</ele>
        <time>2011-10-06T07:54:12.500Z</time>
      </trkpt>
      <trkpt lat="44.07511" lon="6.28748">
        <ele>975.9696</ele>
        <time>2011-10-06T07:54:12.500Z</time>
      </trkpt>
      <trkpt lat="44.07506" lon="6.28762">
        <ele>969.8736</ele>
        <time>2011-10-06T07:54:12.500Z</time>
      </trkpt>
      <trkpt lat="44.07499" lon="6.28775">
        <ele>975.0552</ele>
        <time>2011-10-06T07:54:12.500Z</time>
      </trkpt>
      <trkpt lat="44.07494" lon="6.28788">
        <ele>972.9216</ele>
        <time>2011-10-06T07:54:12.500Z</time>
      </trkpt>
      <trkpt lat="44.07489" lon="6.28798">
        <ele>972.0072</ele>
        <time>2011-10-06T07:54:12.500Z</time>
      </trkpt>
      <trkpt lat="44.07484" lon="6.28809">
        <ele>971.0928</ele>
        <time>2011-10-06T07:54:12.500Z</time>
      </trkpt>
      <trkpt lat="44.07477" lon="6.28818">
        <ele>971.0928</ele>
        <time>2011-10-06T07:54:12.500Z</time>
      </trkpt>
      <trkpt lat="44.0747" lon="6.28828">
        <ele>971.0928</ele>
        <time>2011-10-06T07:54:12.500Z</time>
      </trkpt>
      <trkpt lat="44.07458" lon="6.28833">
        <ele>972.0072</ele>
        <time>2011-10-06T07:54:12.500Z</time>
      </trkpt>
      <trkpt lat="44.07448" lon="6.28838">
        <ele>961.9488</ele>
        <time>2011-10-06T07:54:12.500Z</time>
      </trkpt>
      <trkpt lat="44.07439" lon="6.28841">
        <ele>964.0824</ele>
        <time>2011-10-06T07:54:12.500Z</time>
      </trkpt>
      <trkpt lat="44.07429" lon="6.2884">
        <ele>965.9112</ele>
        <time>2011-10-06T07:54:12.500Z</time>
      </trkpt>
      <trkpt lat="44.0742" lon="6.28836">
        <ele>969.8736</ele>
        <time>2011-10-06T07:54:12.500Z</time>
      </trkpt>
      <trkpt lat="44.07409" lon="6.28833">
        <ele>975.0552</ele>
        <time>2011-10-06T07:54:12.500Z</time>
      </trkpt>
      <trkpt lat="44.07399" lon="6.28832">
        <ele>978.1032</ele>
        <time>2011-10-06T07:54:12.500Z</time>
      </trkpt>
      <trkpt lat="44.07389" lon="6.28833">
        <ele>979.0176</ele>
        <time>2011-10-06T07:54:12.500Z</time>
      </trkpt>
      <trkpt lat="44.07378" lon="6.28835">
        <ele>968.9592</ele>
        <time>2011-10-06T07:54:12.500Z</time>
      </trkpt>
      <trkpt lat="44.07368" lon="6.28841">
        <ele>968.9592</ele>
        <time>2011-10-06T07:54:12.500Z</time>
      </trkpt>
      <trkpt lat="44.07359" lon="6.28844">
        <ele>969.8736</ele>
        <time>2011-10-06T07:54:12.500Z</time>
      </trkpt>
      <trkpt lat="44.07351" lon="6.28848">
        <ele>969.8736</ele>
        <time>2011-10-06T07:54:12.500Z</time>
      </trkpt>
      <trkpt lat="44.0734" lon="6.2885">
        <ele>971.0928</ele>
        <time>2011-10-06T07:54:12.500Z</time>
      </trkpt>
      <trkpt lat="44.0733" lon="6.28851">
        <ele>975.0552</ele>
        <time>2011-10-06T07:54:12.500Z</time>
      </trkpt>
      <trkpt lat="44.0732" lon="6.28855">
        <ele>975.0552</ele>
        <time>2011-10-06T07:54:12.500Z</time>
      </trkpt>
      <trkpt lat="44.0731" lon="6.28857">
        <ele>975.0552</ele>
        <time>2011-10-06T07:54:12.500Z</time>
      </trkpt>
      <trkpt lat="44.07298" lon="6.28861">
        <ele>975.0552</ele>
        <time>2011-10-06T07:54:12.500Z</time>
      </trkpt>
      <trkpt lat="44.07287" lon="6.28865">
        <ele>975.0552</ele>
        <time>2011-10-06T07:54:12.500Z</time>
      </trkpt>
      <trkpt lat="44.07275" lon="6.28868">
        <ele>975.9696</ele>
        <time>2011-10-06T07:54:12.500Z</time>
      </trkpt>
      <trkpt lat="44.07263" lon="6.28869">
        <ele>975.9696</ele>
        <time>2011-10-06T07:54:12.500Z</time>
      </trkpt>
      <trkpt lat="44.07253" lon="6.28878">
        <ele>975.0552</ele>
        <time>2011-10-06T07:54:12.500Z</time>
      </trkpt>
      <trkpt lat="44.07247" lon="6.28888">
        <ele>979.0176</ele>
        <time>2011-10-06T07:54:12.500Z</time>
      </trkpt>
      <trkpt lat="44.07238" lon="6.28897">
        <ele>978.1032</ele>
        <time>2011-10-06T07:54:12.500Z</time>
      </trkpt>
      <trkpt lat="44.07228" lon="6.28902">
        <ele>978.1032</ele>
        <time>2011-10-06T07:54:12.500Z</time>
      </trkpt>
      <trkpt lat="44.07218" lon="6.28904">
        <ele>979.0176</ele>
        <time>2011-10-06T07:54:12.500Z</time>
      </trkpt>
      <trkpt lat="44.07209" lon="6.28909">
        <ele>979.932</ele>
        <time>2011-10-06T07:54:12.500Z</time>
      </trkpt>
      <trkpt lat="44.07199" lon="6.28911">
        <ele>979.932</ele>
        <time>2011-10-06T07:54:12.500Z</time>
      </trkpt>
      <trkpt lat="44.0719" lon="6.28906">
        <ele>981.1512</ele>
        <time>2011-10-06T07:54:12.500Z</time>
      </trkpt>
      <trkpt lat="44.07181" lon="6.28902">
        <ele>981.1512</ele>
        <time>2011-10-06T07:54:12.500Z</time>
      </trkpt>
      <trkpt lat="44.07171" lon="6.28898">
        <ele>981.1512</ele>
        <time>2011-10-06T07:54:12.500Z</time>
      </trkpt>
      <trkpt lat="44.07161" lon="6.28892">
        <ele>989.076</ele>
        <time>2011-10-06T07:54:12.500Z</time>
      </trkpt>
      <trkpt lat="44.07151" lon="6.28894">
        <ele>989.076</ele>
        <time>2011-10-06T07:54:12.500Z</time>
      </trkpt>
      <trkpt lat="44.07143" lon="6.28903">
        <ele>989.076</ele>
        <time>2011-10-06T07:54:12.500Z</time>
      </trkpt>
      <trkpt lat="44.07134" lon="6.28909">
        <ele>989.9904</ele>
        <time>2011-10-06T07:54:12.500Z</time>
      </trkpt>
      <trkpt lat="44.07123" lon="6.28911">
        <ele>992.124</ele>
        <time>2011-10-06T07:54:12.500Z</time>
      </trkpt>
      <trkpt lat="44.07115" lon="6.28924">
        <ele>981.1512</ele>
        <time>2011-10-06T07:54:12.500Z</time>
      </trkpt>
      <trkpt lat="44.07108" lon="6.28938">
        <ele>979.932</ele>
        <time>2011-10-06T07:54:12.500Z</time>
      </trkpt>
      <trkpt lat="44.07103" lon="6.28951">
        <ele>979.0176</ele>
        <time>2011-10-06T07:54:12.500Z</time>
      </trkpt>
      <trkpt lat="44.07098" lon="6.28966">
        <ele>976.884</ele>
        <time>2011-10-06T07:54:12.500Z</time>
      </trkpt>
      <trkpt lat="44.07092" lon="6.28982">
        <ele>975.9696</ele>
        <time>2011-10-06T07:54:12.500Z</time>
      </trkpt>
      <trkpt lat="44.07087" lon="6.28993">
        <ele>975.0552</ele>
        <time>2011-10-06T07:54:12.500Z</time>
      </trkpt>
      <trkpt lat="44.07078" lon="6.29003">
        <ele>975.0552</ele>
        <time>2011-10-06T07:54:12.500Z</time>
      </trkpt>
      <trkpt lat="44.07069" lon="6.2901">
        <ele>975.9696</ele>
        <time>2011-10-06T07:54:12.500Z</time>
      </trkpt>
      <trkpt lat="44.07062" lon="6.29021">
        <ele>975.9696</ele>
        <time>2011-10-06T07:54:12.500Z</time>
      </trkpt>
      <trkpt lat="44.07057" lon="6.29034">
        <ele>975.0552</ele>
        <time>2011-10-06T07:54:12.500Z</time>
      </trkpt>
      <trkpt lat="44.07058" lon="6.29047">
        <ele>972.9216</ele>
        <time>2011-10-06T07:54:12.500Z</time>
      </trkpt>
      <trkpt lat="44.0706" lon="6.29061">
        <ele>971.0928</ele>
        <time>2011-10-06T07:54:12.500Z</time>
      </trkpt>
      <trkpt lat="44.07061" lon="6.29076">
        <ele>968.0448</ele>
        <time>2011-10-06T07:54:12.500Z</time>
      </trkpt>
      <trkpt lat="44.07058" lon="6.29092">
        <ele>958.9008</ele>
        <time>2011-10-06T07:54:12.500Z</time>
      </trkpt>
      <trkpt lat="44.07052" lon="6.29105">
        <ele>960.12</ele>
        <time>2011-10-06T07:54:12.500Z</time>
      </trkpt>
      <trkpt lat="44.07043" lon="6.29111">
        <ele>960.12</ele>
        <time>2011-10-06T07:54:12.500Z</time>
      </trkpt>
      <trkpt lat="44.07034" lon="6.29117">
        <ele>961.0344</ele>
        <time>2011-10-06T07:54:12.500Z</time>
      </trkpt>
      <trkpt lat="44.07025" lon="6.29127">
        <ele>961.0344</ele>
        <time>2011-10-06T07:54:12.500Z</time>
      </trkpt>
      <trkpt lat="44.07019" lon="6.29138">
        <ele>960.12</ele>
        <time>2011-10-06T07:54:12.500Z</time>
      </trkpt>
      <trkpt lat="44.07007" lon="6.29146">
        <ele>960.12</ele>
        <time>2011-10-06T07:54:12.500Z</time>
      </trkpt>
      <trkpt lat="44.06999" lon="6.29153">
        <ele>964.0824</ele>
        <time>2011-10-06T07:54:12.500Z</time>
      </trkpt>
      <trkpt lat="44.06989" lon="6.2916">
        <ele>962.8632</ele>
        <time>2011-10-06T07:54:12.500Z</time>
      </trkpt>
      <trkpt lat="44.06977" lon="6.29167">
        <ele>964.9968</ele>
        <time>2011-10-06T07:54:12.500Z</time>
      </trkpt>
      <trkpt lat="44.06966" lon="6.29167">
        <ele>954.024</ele>
        <time>2011-10-06T07:54:12.500Z</time>
      </trkpt>
      <trkpt lat="44.06956" lon="6.29163">
        <ele>967.1304</ele>
        <time>2011-10-06T07:54:12.500Z</time>
      </trkpt>
      <trkpt lat="44.06948" lon="6.29157">
        <ele>967.1304</ele>
        <time>2011-10-06T07:54:12.500Z</time>
      </trkpt>
      <trkpt lat="44.06939" lon="6.2916">
        <ele>965.9112</ele>
        <time>2011-10-06T07:54:12.500Z</time>
      </trkpt>
      <trkpt lat="44.06934" lon="6.29176">
        <ele>955.8528</ele>
        <time>2011-10-06T07:54:12.500Z</time>
      </trkpt>
      <trkpt lat="44.06926" lon="6.29188">
        <ele>954.9384</ele>
        <time>2011-10-06T07:54:12.500Z</time>
      </trkpt>
      <trkpt lat="44.06918" lon="6.29197">
        <ele>953.1096</ele>
        <time>2011-10-06T07:54:12.500Z</time>
      </trkpt>
      <trkpt lat="44.06909" lon="6.29203">
        <ele>954.024</ele>
        <time>2011-10-06T07:54:12.500Z</time>
      </trkpt>
      <trkpt lat="44.06901" lon="6.29207">
        <ele>954.024</ele>
        <time>2011-10-06T07:54:12.500Z</time>
      </trkpt>
      <trkpt lat="44.06889" lon="6.29211">
        <ele>953.1096</ele>
        <time>2011-10-06T07:54:12.500Z</time>
      </trkpt>
      <trkpt lat="44.06878" lon="6.29215">
        <ele>953.1096</ele>
        <time>2011-10-06T07:54:12.500Z</time>
      </trkpt>
      <trkpt lat="44.06868" lon="6.2922">
        <ele>953.1096</ele>
        <time>2011-10-06T07:54:12.500Z</time>
      </trkpt>
      <trkpt lat="44.06861" lon="6.29228">
        <ele>951.8904</ele>
        <time>2011-10-06T07:54:12.500Z</time>
      </trkpt>
      <trkpt lat="44.06851" lon="6.29235">
        <ele>950.0616</ele>
        <time>2011-10-06T07:54:12.500Z</time>
      </trkpt>
      <trkpt lat="44.06842" lon="6.29239">
        <ele>947.928</ele>
        <time>2011-10-06T07:54:12.500Z</time>
      </trkpt>
      <trkpt lat="44.06834" lon="6.29247">
        <ele>944.88</ele>
        <time>2011-10-06T07:54:12.500Z</time>
      </trkpt>
      <trkpt lat="44.06824" lon="6.29251">
        <ele>942.1368</ele>
        <time>2011-10-06T07:54:12.500Z</time>
      </trkpt>
      <trkpt lat="44.06813" lon="6.29252">
        <ele>940.0032</ele>
        <time>2011-10-06T07:54:12.500Z</time>
      </trkpt>
      <trkpt lat="44.06804" lon="6.29251">
        <ele>940.0032</ele>
        <time>2011-10-06T07:54:12.500Z</time>
      </trkpt>
      <trkpt lat="44.06794" lon="6.29253">
        <ele>940.0032</ele>
        <time>2011-10-06T07:54:12.500Z</time>
      </trkpt>
      <trkpt lat="44.06782" lon="6.29258">
        <ele>940.0032</ele>
        <time>2011-10-06T07:54:12.500Z</time>
      </trkpt>
      <trkpt lat="44.06773" lon="6.29259">
        <ele>940.0032</ele>
        <time>2011-10-06T07:54:12.500Z</time>
      </trkpt>
      <trkpt lat="44.06761" lon="6.29262">
        <ele>942.1368</ele>
        <time>2011-10-06T07:54:12.500Z</time>
      </trkpt>
      <trkpt lat="44.06751" lon="6.29267">
        <ele>940.9176</ele>
        <time>2011-10-06T07:54:12.500Z</time>
      </trkpt>
      <trkpt lat="44.06743" lon="6.29273">
        <ele>943.0512</ele>
        <time>2011-10-06T07:54:12.500Z</time>
      </trkpt>
      <trkpt lat="44.06734" lon="6.29279">
        <ele>943.0512</ele>
        <time>2011-10-06T07:54:12.500Z</time>
      </trkpt>
      <trkpt lat="44.06725" lon="6.29286">
        <ele>942.1368</ele>
        <time>2011-10-06T07:54:12.500Z</time>
      </trkpt>
      <trkpt lat="44.06719" lon="6.29295">
        <ele>942.1368</ele>
        <time>2011-10-06T07:54:12.500Z</time>
      </trkpt>
      <trkpt lat="44.06711" lon="6.29306">
        <ele>940.9176</ele>
        <time>2011-10-06T07:54:12.500Z</time>
      </trkpt>
      <trkpt lat="44.06704" lon="6.29316">
        <ele>940.9176</ele>
        <time>2011-10-06T07:54:12.500Z</time>
      </trkpt>
      <trkpt lat="44.06696" lon="6.29325">
        <ele>940.9176</ele>
        <time>2011-10-06T07:54:12.500Z</time>
      </trkpt>
      <trkpt lat="44.067" lon="6.29337">
        <ele>932.0784</ele>
        <time>2011-10-06T07:54:12.500Z</time>
      </trkpt>
      <trkpt lat="44.06704" lon="6.29351">
        <ele>929.9448</ele>
        <time>2011-10-06T07:54:12.500Z</time>
      </trkpt>
      <trkpt lat="44.06703" lon="6.29364">
        <ele>929.0304</ele>
        <time>2011-10-06T07:54:12.500Z</time>
      </trkpt>
      <trkpt lat="44.06695" lon="6.29377">
        <ele>928.116</ele>
        <time>2011-10-06T07:54:12.500Z</time>
      </trkpt>
      <trkpt lat="44.06685" lon="6.29386">
        <ele>928.116</ele>
        <time>2011-10-06T07:54:12.500Z</time>
      </trkpt>
      <trkpt lat="44.06675" lon="6.29397">
        <ele>925.9824</ele>
        <time>2011-10-06T07:54:12.500Z</time>
      </trkpt>
      <trkpt lat="44.06667" lon="6.29406">
        <ele>925.068</ele>
        <time>2011-10-06T07:54:12.500Z</time>
      </trkpt>
      <trkpt lat="44.0666" lon="6.29413">
        <ele>925.068</ele>
        <time>2011-10-06T07:54:12.500Z</time>
      </trkpt>
      <trkpt lat="44.06654" lon="6.29425">
        <ele>922.02</ele>
        <time>2011-10-06T07:54:12.500Z</time>
      </trkpt>
      <trkpt lat="44.06648" lon="6.29438">
        <ele>921.1056</ele>
        <time>2011-10-06T07:54:12.500Z</time>
      </trkpt>
      <trkpt lat="44.06642" lon="6.29448">
        <ele>919.8864</ele>
        <time>2011-10-06T07:54:12.500Z</time>
      </trkpt>
      <trkpt lat="44.06637" lon="6.29465">
        <ele>918.972</ele>
        <time>2011-10-06T07:54:12.500Z</time>
      </trkpt>
      <trkpt lat="44.06633" lon="6.29477">
        <ele>918.972</ele>
        <time>2011-10-06T07:54:12.500Z</time>
      </trkpt>
      <trkpt lat="44.0663" lon="6.2949">
        <ele>918.0576</ele>
        <time>2011-10-06T07:54:12.500Z</time>
      </trkpt>
      <trkpt lat="44.06629" lon="6.29503">
        <ele>918.0576</ele>
        <time>2011-10-06T07:54:12.500Z</time>
      </trkpt>
      <trkpt lat="44.06625" lon="6.29516">
        <ele>918.0576</ele>
        <time>2011-10-06T07:54:12.500Z</time>
      </trkpt>
      <trkpt lat="44.06622" lon="6.29528">
        <ele>918.0576</ele>
        <time>2011-10-06T07:54:12.500Z</time>
      </trkpt>
      <trkpt lat="44.06621" lon="6.2954">
        <ele>918.972</ele>
        <time>2011-10-06T07:54:12.500Z</time>
      </trkpt>
      <trkpt lat="44.06615" lon="6.29552">
        <ele>918.972</ele>
        <time>2011-10-06T07:54:12.500Z</time>
      </trkpt>
      <trkpt lat="44.06607" lon="6.29564">
        <ele>918.0576</ele>
        <time>2011-10-06T07:54:12.500Z</time>
      </trkpt>
      <trkpt lat="44.066" lon="6.29577">
        <ele>918.0576</ele>
        <time>2011-10-06T07:54:12.500Z</time>
      </trkpt>
      <trkpt lat="44.06594" lon="6.29591">
        <ele>921.1056</ele>
        <time>2011-10-06T07:54:12.500Z</time>
      </trkpt>
      <trkpt lat="44.0659" lon="6.29602">
        <ele>923.8488</ele>
        <time>2011-10-06T07:54:12.500Z</time>
      </trkpt>
      <trkpt lat="44.06584" lon="6.29614">
        <ele>925.9824</ele>
        <time>2011-10-06T07:54:12.500Z</time>
      </trkpt>
      <trkpt lat="44.06579" lon="6.29625">
        <ele>912.876</ele>
        <time>2011-10-06T07:54:12.500Z</time>
      </trkpt>
      <trkpt lat="44.06575" lon="6.29637">
        <ele>914.0952</ele>
        <time>2011-10-06T07:54:12.500Z</time>
      </trkpt>
      <trkpt lat="44.06571" lon="6.29649">
        <ele>915.924</ele>
        <time>2011-10-06T07:54:12.500Z</time>
      </trkpt>
      <trkpt lat="44.06566" lon="6.29659">
        <ele>917.1432</ele>
        <time>2011-10-06T07:54:12.500Z</time>
      </trkpt>
      <trkpt lat="44.06564" lon="6.29671">
        <ele>923.8488</ele>
        <time>2011-10-06T07:54:12.500Z</time>
      </trkpt>
      <trkpt lat="44.0656" lon="6.29687">
        <ele>923.8488</ele>
        <time>2011-10-06T07:54:12.500Z</time>
      </trkpt>
      <trkpt lat="44.06556" lon="6.29698">
        <ele>923.8488</ele>
        <time>2011-10-06T07:54:12.500Z</time>
      </trkpt>
      <trkpt lat="44.0655" lon="6.29709">
        <ele>923.8488</ele>
        <time>2011-10-06T07:54:12.500Z</time>
      </trkpt>
      <trkpt lat="44.06546" lon="6.29722">
        <ele>925.068</ele>
        <time>2011-10-06T07:54:12.500Z</time>
      </trkpt>
      <trkpt lat="44.06543" lon="6.29734">
        <ele>925.068</ele>
        <time>2011-10-06T07:54:12.500Z</time>
      </trkpt>
      <trkpt lat="44.06537" lon="6.29744">
        <ele>923.8488</ele>
        <time>2011-10-06T07:54:12.500Z</time>
      </trkpt>
      <trkpt lat="44.06539" lon="6.29758">
        <ele>936.0408</ele>
        <time>2011-10-06T07:54:12.500Z</time>
      </trkpt>
      <trkpt lat="44.06532" lon="6.29767">
        <ele>935.1264</ele>
        <time>2011-10-06T07:54:12.500Z</time>
      </trkpt>
      <trkpt lat="44.06521" lon="6.29769">
        <ele>932.9928</ele>
        <time>2011-10-06T07:54:12.500Z</time>
      </trkpt>
      <trkpt lat="44.06518" lon="6.29782">
        <ele>933.9072</ele>
        <time>2011-10-06T07:54:12.500Z</time>
      </trkpt>
      <trkpt lat="44.06514" lon="6.29794">
        <ele>935.1264</ele>
        <time>2011-10-06T07:54:12.500Z</time>
      </trkpt>
      <trkpt lat="44.0651" lon="6.29806">
        <ele>936.0408</ele>
        <time>2011-10-06T07:54:12.500Z</time>
      </trkpt>
      <trkpt lat="44.06511" lon="6.29819">
        <ele>936.0408</ele>
        <time>2011-10-06T07:54:12.500Z</time>
      </trkpt>
      <trkpt lat="44.06506" lon="6.2983">
        <ele>935.1264</ele>
        <time>2011-10-06T07:54:12.500Z</time>
      </trkpt>
      <trkpt lat="44.06504" lon="6.29843">
        <ele>940.0032</ele>
        <time>2011-10-06T07:54:12.500Z</time>
      </trkpt>
      <trkpt lat="44.06497" lon="6.29854">
        <ele>929.9448</ele>
        <time>2011-10-06T07:54:12.500Z</time>
      </trkpt>
      <trkpt lat="44.0649" lon="6.29865">
        <ele>929.0304</ele>
        <time>2011-10-06T07:54:12.500Z</time>
      </trkpt>
      <trkpt lat="44.06488" lon="6.29876">
        <ele>929.0304</ele>
        <time>2011-10-06T07:54:12.500Z</time>
      </trkpt>
      <trkpt lat="44.06486" lon="6.29891">
        <ele>930.8592</ele>
        <time>2011-10-06T07:54:12.500Z</time>
      </trkpt>
      <trkpt lat="44.06488" lon="6.29904">
        <ele>933.9072</ele>
        <time>2011-10-06T07:54:12.500Z</time>
      </trkpt>
      <trkpt lat="44.06494" lon="6.29914">
        <ele>939.0888</ele>
        <time>2011-10-06T07:54:12.500Z</time>
      </trkpt>
      <trkpt lat="44.06491" lon="6.29926">
        <ele>937.8696</ele>
        <time>2011-10-06T07:54:12.500Z</time>
      </trkpt>
      <trkpt lat="44.06493" lon="6.29938">
        <ele>936.9552</ele>
        <time>2011-10-06T07:54:12.500Z</time>
      </trkpt>
      <trkpt lat="44.06486" lon="6.29947">
        <ele>935.1264</ele>
        <time>2011-10-06T07:54:12.500Z</time>
      </trkpt>
      <trkpt lat="44.0648" lon="6.29957">
        <ele>933.9072</ele>
        <time>2011-10-06T07:54:12.500Z</time>
      </trkpt>
      <trkpt lat="44.06478" lon="6.29969">
        <ele>933.9072</ele>
        <time>2011-10-06T07:54:12.500Z</time>
      </trkpt>
      <trkpt lat="44.06478" lon="6.29983">
        <ele>936.0408</ele>
        <time>2011-10-06T07:54:12.500Z</time>
      </trkpt>
      <trkpt lat="44.06482" lon="6.29998">
        <ele>937.8696</ele>
        <time>2011-10-06T07:54:12.500Z</time>
      </trkpt>
      <trkpt lat="44.06488" lon="6.3001">
        <ele>940.0032</ele>
        <time>2011-10-06T07:54:12.500Z</time>
      </trkpt>
      <trkpt lat="44.0649" lon="6.30022">
        <ele>940.0032</ele>
        <time>2011-10-06T07:54:12.500Z</time>
      </trkpt>
      <trkpt lat="44.06491" lon="6.30034">
        <ele>939.0888</ele>
        <time>2011-10-06T07:54:12.500Z</time>
      </trkpt>
      <trkpt lat="44.06493" lon="6.30046">
        <ele>939.0888</ele>
        <time>2011-10-06T07:54:12.500Z</time>
      </trkpt>
      <trkpt lat="44.06497" lon="6.30059">
        <ele>940.9176</ele>
        <time>2011-10-06T07:54:12.500Z</time>
      </trkpt>
      <trkpt lat="44.06495" lon="6.3007">
        <ele>942.1368</ele>
        <time>2011-10-06T07:54:12.500Z</time>
      </trkpt>
      <trkpt lat="44.065" lon="6.3008">
        <ele>949.1472</ele>
        <time>2011-10-06T07:54:12.500Z</time>
      </trkpt>
      <trkpt lat="44.06497" lon="6.30092">
        <ele>944.88</ele>
        <time>2011-10-06T07:54:12.500Z</time>
      </trkpt>
      <trkpt lat="44.06495" lon="6.30104">
        <ele>943.9656</ele>
        <time>2011-10-06T07:54:12.500Z</time>
      </trkpt>
      <trkpt lat="44.06498" lon="6.30118">
        <ele>943.9656</ele>
        <time>2011-10-06T07:54:12.500Z</time>
      </trkpt>
      <trkpt lat="44.06494" lon="6.3013">
        <ele>943.9656</ele>
        <time>2011-10-06T07:54:12.500Z</time>
      </trkpt>
      <trkpt lat="44.06489" lon="6.3014">
        <ele>943.9656</ele>
        <time>2011-10-06T07:54:12.500Z</time>
      </trkpt>
      <trkpt lat="44.06489" lon="6.30153">
        <ele>946.0992</ele>
        <time>2011-10-06T07:54:12.500Z</time>
      </trkpt>
      <trkpt lat="44.06485" lon="6.30165">
        <ele>946.0992</ele>
        <time>2011-10-06T07:54:12.500Z</time>
      </trkpt>
      <trkpt lat="44.0648" lon="6.30179">
        <ele>947.928</ele>
        <time>2011-10-06T07:54:12.500Z</time>
      </trkpt>
      <trkpt lat="44.06476" lon="6.30194">
        <ele>947.0136</ele>
        <time>2011-10-06T07:54:12.500Z</time>
      </trkpt>
      <trkpt lat="44.06474" lon="6.30206">
        <ele>947.0136</ele>
        <time>2011-10-06T07:54:12.500Z</time>
      </trkpt>
      <trkpt lat="44.06469" lon="6.30219">
        <ele>947.0136</ele>
        <time>2011-10-06T07:54:12.500Z</time>
      </trkpt>
      <trkpt lat="44.06462" lon="6.30228">
        <ele>947.0136</ele>
        <time>2011-10-06T07:54:12.500Z</time>
      </trkpt>
      <trkpt lat="44.06456" lon="6.30238">
        <ele>946.0992</ele>
        <time>2011-10-06T07:54:12.500Z</time>
      </trkpt>
      <trkpt lat="44.06451" lon="6.30248">
        <ele>946.0992</ele>
        <time>2011-10-06T07:54:12.500Z</time>
      </trkpt>
      <trkpt lat="44.06451" lon="6.30263">
        <ele>947.928</ele>
        <time>2011-10-06T07:54:12.500Z</time>
      </trkpt>
      <trkpt lat="44.06454" lon="6.30275">
        <ele>949.1472</ele>
        <time>2011-10-06T07:54:12.500Z</time>
      </trkpt>
      <trkpt lat="44.06462" lon="6.30282">
        <ele>949.1472</ele>
        <time>2011-10-06T07:54:12.500Z</time>
      </trkpt>
      <trkpt lat="44.0647" lon="6.30287">
        <ele>950.0616</ele>
        <time>2011-10-06T07:54:12.500Z</time>
      </trkpt>
      <trkpt lat="44.0648" lon="6.30291">
        <ele>950.976</ele>
        <time>2011-10-06T07:54:12.500Z</time>
      </trkpt>
      <trkpt lat="44.06485" lon="6.30302">
        <ele>950.976</ele>
        <time>2011-10-06T07:54:12.500Z</time>
      </trkpt>
      <trkpt lat="44.06488" lon="6.30314">
        <ele>951.8904</ele>
        <time>2011-10-06T07:54:12.500Z</time>
      </trkpt>
      <trkpt lat="44.06498" lon="6.30311">
        <ele>951.8904</ele>
        <time>2011-10-06T07:54:12.500Z</time>
      </trkpt>
      <trkpt lat="44.06507" lon="6.30311">
        <ele>957.072</ele>
        <time>2011-10-06T07:54:12.500Z</time>
      </trkpt>
      <trkpt lat="44.06517" lon="6.30313">
        <ele>957.072</ele>
        <time>2011-10-06T07:54:12.500Z</time>
      </trkpt>
      <trkpt lat="44.06526" lon="6.30309">
        <ele>957.9864</ele>
        <time>2011-10-06T07:54:12.500Z</time>
      </trkpt>
      <trkpt lat="44.06532" lon="6.30299">
        <ele>957.9864</ele>
        <time>2011-10-06T07:54:12.500Z</time>
      </trkpt>
      <trkpt lat="44.06538" lon="6.30289">
        <ele>957.9864</ele>
        <time>2011-10-06T07:54:12.500Z</time>
      </trkpt>
      <trkpt lat="44.06548" lon="6.30284">
        <ele>958.9008</ele>
        <time>2011-10-06T07:54:12.500Z</time>
      </trkpt>
      <trkpt lat="44.06557" lon="6.30282">
        <ele>958.9008</ele>
        <time>2011-10-06T07:54:12.500Z</time>
      </trkpt>
      <trkpt lat="44.06565" lon="6.30275">
        <ele>960.12</ele>
        <time>2011-10-06T07:54:12.500Z</time>
      </trkpt>
      <trkpt lat="44.06572" lon="6.30266">
        <ele>961.0344</ele>
        <time>2011-10-06T07:54:12.500Z</time>
      </trkpt>
      <trkpt lat="44.06579" lon="6.30276">
        <ele>961.0344</ele>
        <time>2011-10-06T07:54:12.500Z</time>
      </trkpt>
      <trkpt lat="44.06581" lon="6.30288">
        <ele>960.12</ele>
        <time>2011-10-06T07:54:12.500Z</time>
      </trkpt>
      <trkpt lat="44.06585" lon="6.30301">
        <ele>960.12</ele>
        <time>2011-10-06T07:54:12.500Z</time>
      </trkpt>
      <trkpt lat="44.0659" lon="6.30311">
        <ele>960.12</ele>
        <time>2011-10-06T07:54:12.500Z</time>
      </trkpt>
      <trkpt lat="44.06599" lon="6.30314">
        <ele>960.12</ele>
        <time>2011-10-06T07:54:12.500Z</time>
      </trkpt>
      <trkpt lat="44.06609" lon="6.30312">
        <ele>958.9008</ele>
        <time>2011-10-06T07:54:12.500Z</time>
      </trkpt>
      <trkpt lat="44.06621" lon="6.3031">
        <ele>958.9008</ele>
        <time>2011-10-06T07:54:12.500Z</time>
      </trkpt>
      <trkpt lat="44.06635" lon="6.30307">
        <ele>958.9008</ele>
        <time>2011-10-06T07:54:12.500Z</time>
      </trkpt>
      <trkpt lat="44.06645" lon="6.30301">
        <ele>957.9864</ele>
        <time>2011-10-06T07:54:12.500Z</time>
      </trkpt>
      <trkpt lat="44.06655" lon="6.30303">
        <ele>957.9864</ele>
        <time>2011-10-06T07:54:12.500Z</time>
      </trkpt>
      <trkpt lat="44.06657" lon="6.30318">
        <ele>955.8528</ele>
        <time>2011-10-06T07:54:12.500Z</time>
      </trkpt>
      <trkpt lat="44.0666" lon="6.3033">
        <ele>954.9384</ele>
        <time>2011-10-06T07:54:12.500Z</time>
      </trkpt>
      <trkpt lat="44.06663" lon="6.30342">
        <ele>954.024</ele>
        <time>2011-10-06T07:54:12.500Z</time>
      </trkpt>
      <trkpt lat="44.06656" lon="6.30351">
        <ele>954.9384</ele>
        <time>2011-10-06T07:54:12.500Z</time>
      </trkpt>
      <trkpt lat="44.06649" lon="6.3036">
        <ele>955.8528</ele>
        <time>2011-10-06T07:54:12.500Z</time>
      </trkpt>
      <trkpt lat="44.06641" lon="6.30369">
        <ele>957.072</ele>
        <time>2011-10-06T07:54:12.500Z</time>
      </trkpt>
      <trkpt lat="44.06633" lon="6.30375">
        <ele>957.072</ele>
        <time>2011-10-06T07:54:12.500Z</time>
      </trkpt>
      <trkpt lat="44.06624" lon="6.30382">
        <ele>957.072</ele>
        <time>2011-10-06T07:54:12.500Z</time>
      </trkpt>
      <trkpt lat="44.06616" lon="6.30394">
        <ele>957.9864</ele>
        <time>2011-10-06T07:54:12.500Z</time>
      </trkpt>
      <trkpt lat="44.06609" lon="6.30404">
        <ele>957.9864</ele>
        <time>2011-10-06T07:54:12.500Z</time>
      </trkpt>
      <trkpt lat="44.06603" lon="6.30414">
        <ele>958.9008</ele>
        <time>2011-10-06T07:54:12.500Z</time>
      </trkpt>
      <trkpt lat="44.06598" lon="6.30424">
        <ele>960.12</ele>
        <time>2011-10-06T07:54:12.500Z</time>
      </trkpt>
      <trkpt lat="44.06592" lon="6.30435">
        <ele>960.12</ele>
        <time>2011-10-06T07:54:12.500Z</time>
      </trkpt>
      <trkpt lat="44.0659" lon="6.30448">
        <ele>960.12</ele>
        <time>2011-10-06T07:54:12.500Z</time>
      </trkpt>
      <trkpt lat="44.06591" lon="6.30462">
        <ele>961.0344</ele>
        <time>2011-10-06T07:54:12.500Z</time>
      </trkpt>
      <trkpt lat="44.06595" lon="6.30475">
        <ele>961.0344</ele>
        <time>2011-10-06T07:54:12.500Z</time>
      </trkpt>
      <trkpt lat="44.06599" lon="6.30486">
        <ele>961.0344</ele>
        <time>2011-10-06T07:54:12.500Z</time>
      </trkpt>
      <trkpt lat="44.06602" lon="6.30499">
        <ele>961.0344</ele>
        <time>2011-10-06T07:54:12.500Z</time>
      </trkpt>
      <trkpt lat="44.06603" lon="6.30511">
        <ele>964.0824</ele>
        <time>2011-10-06T07:54:12.500Z</time>
      </trkpt>
      <trkpt lat="44.06602" lon="6.30524">
        <ele>964.0824</ele>
        <time>2011-10-06T07:54:12.500Z</time>
      </trkpt>
      <trkpt lat="44.06598" lon="6.30537">
        <ele>964.9968</ele>
        <time>2011-10-06T07:54:12.500Z</time>
      </trkpt>
      <trkpt lat="44.06593" lon="6.30548">
        <ele>965.9112</ele>
        <time>2011-10-06T07:54:12.500Z</time>
      </trkpt>
      <trkpt lat="44.06587" lon="6.30561">
        <ele>967.1304</ele>
        <time>2011-10-06T07:54:12.500Z</time>
      </trkpt>
      <trkpt lat="44.06581" lon="6.30573">
        <ele>968.9592</ele>
        <time>2011-10-06T07:54:12.500Z</time>
      </trkpt>
      <trkpt lat="44.06576" lon="6.30584">
        <ele>972.0072</ele>
        <time>2011-10-06T07:54:12.500Z</time>
      </trkpt>
      <trkpt lat="44.06571" lon="6.30594">
        <ele>974.1408</ele>
        <time>2011-10-06T07:54:12.500Z</time>
      </trkpt>
      <trkpt lat="44.06565" lon="6.30606">
        <ele>975.0552</ele>
        <time>2011-10-06T07:54:12.500Z</time>
      </trkpt>
      <trkpt lat="44.06557" lon="6.30616">
        <ele>975.9696</ele>
        <time>2011-10-06T07:54:12.500Z</time>
      </trkpt>
      <trkpt lat="44.06548" lon="6.30619">
        <ele>975.9696</ele>
        <time>2011-10-06T07:54:12.500Z</time>
      </trkpt>
      <trkpt lat="44.06539" lon="6.30623">
        <ele>975.9696</ele>
        <time>2011-10-06T07:54:12.500Z</time>
      </trkpt>
      <trkpt lat="44.0653" lon="6.30625">
        <ele>975.9696</ele>
        <time>2011-10-06T07:54:12.500Z</time>
      </trkpt>
      <trkpt lat="44.06522" lon="6.30633">
        <ele>976.884</ele>
        <time>2011-10-06T07:54:12.500Z</time>
      </trkpt>
      <trkpt lat="44.06524" lon="6.30645">
        <ele>978.1032</ele>
        <time>2011-10-06T07:54:12.500Z</time>
      </trkpt>
      <trkpt lat="44.06532" lon="6.30652">
        <ele>978.1032</ele>
        <time>2011-10-06T07:54:12.500Z</time>
      </trkpt>
      <trkpt lat="44.06542" lon="6.30655">
        <ele>979.0176</ele>
        <time>2011-10-06T07:54:12.500Z</time>
      </trkpt>
      <trkpt lat="44.06552" lon="6.3066">
        <ele>979.932</ele>
        <time>2011-10-06T07:54:12.500Z</time>
      </trkpt>
      <trkpt lat="44.06561" lon="6.30664">
        <ele>981.1512</ele>
        <time>2011-10-06T07:54:12.500Z</time>
      </trkpt>
      <trkpt lat="44.06571" lon="6.30669">
        <ele>989.076</ele>
        <time>2011-10-06T07:54:12.500Z</time>
      </trkpt>
      <trkpt lat="44.06581" lon="6.30672">
        <ele>987.8568</ele>
        <time>2011-10-06T07:54:12.500Z</time>
      </trkpt>
      <trkpt lat="44.06589" lon="6.30679">
        <ele>986.028</ele>
        <time>2011-10-06T07:54:12.500Z</time>
      </trkpt>
      <trkpt lat="44.06588" lon="6.30692">
        <ele>986.9424</ele>
        <time>2011-10-06T07:54:12.500Z</time>
      </trkpt>
      <trkpt lat="44.06578" lon="6.30692">
        <ele>992.124</ele>
        <time>2011-10-06T07:54:12.500Z</time>
      </trkpt>
      <trkpt lat="44.0657" lon="6.30687">
        <ele>990.9048</ele>
        <time>2011-10-06T07:54:12.500Z</time>
      </trkpt>
      <trkpt lat="44.06561" lon="6.30686">
        <ele>992.124</ele>
        <time>2011-10-06T07:54:12.500Z</time>
      </trkpt>
      <trkpt lat="44.06551" lon="6.30686">
        <ele>992.124</ele>
        <time>2011-10-06T07:54:12.500Z</time>
      </trkpt>
      <trkpt lat="44.06541" lon="6.30687">
        <ele>992.124</ele>
        <time>2011-10-06T07:54:12.500Z</time>
      </trkpt>
      <trkpt lat="44.0653" lon="6.3069">
        <ele>992.124</ele>
        <time>2011-10-06T07:54:12.500Z</time>
      </trkpt>
      <trkpt lat="44.06521" lon="6.30697">
        <ele>992.124</ele>
        <time>2011-10-06T07:54:12.500Z</time>
      </trkpt>
      <trkpt lat="44.06514" lon="6.30707">
        <ele>993.9528</ele>
        <time>2011-10-06T07:54:12.500Z</time>
      </trkpt>
      <trkpt lat="44.06509" lon="6.30717">
        <ele>994.8672</ele>
        <time>2011-10-06T07:54:12.500Z</time>
      </trkpt>
      <trkpt lat="44.06503" lon="6.30728">
        <ele>997.9152</ele>
        <time>2011-10-06T07:54:12.500Z</time>
      </trkpt>
      <trkpt lat="44.06499" lon="6.3074">
        <ele>997.9152</ele>
        <time>2011-10-06T07:54:12.500Z</time>
      </trkpt>
      <trkpt lat="44.06497" lon="6.30754">
        <ele>1004.9256</ele>
        <time>2011-10-06T07:54:12.500Z</time>
      </trkpt>
      <trkpt lat="44.06496" lon="6.30766">
        <ele>1006.1448</ele>
        <time>2011-10-06T07:54:12.500Z</time>
      </trkpt>
      <trkpt lat="44.06492" lon="6.30778">
        <ele>1007.9736</ele>
        <time>2011-10-06T07:54:12.500Z</time>
      </trkpt>
      <trkpt lat="44.06483" lon="6.30782">
        <ele>1007.9736</ele>
        <time>2011-10-06T07:54:12.500Z</time>
      </trkpt>
      <trkpt lat="44.06474" lon="6.3078">
        <ele>1007.0592</ele>
        <time>2011-10-06T07:54:12.500Z</time>
      </trkpt>
      <trkpt lat="44.06465" lon="6.30784">
        <ele>1007.0592</ele>
        <time>2011-10-06T07:54:12.500Z</time>
      </trkpt>
      <trkpt lat="44.06455" lon="6.30789">
        <ele>1007.0592</ele>
        <time>2011-10-06T07:54:12.500Z</time>
      </trkpt>
      <trkpt lat="44.06446" lon="6.30795">
        <ele>1007.0592</ele>
        <time>2011-10-06T07:54:12.500Z</time>
      </trkpt>
      <trkpt lat="44.06439" lon="6.30804">
        <ele>1007.0592</ele>
        <time>2011-10-06T07:54:12.500Z</time>
      </trkpt>
      <trkpt lat="44.06432" lon="6.30815">
        <ele>1007.9736</ele>
        <time>2011-10-06T07:54:12.500Z</time>
      </trkpt>
      <trkpt lat="44.0643" lon="6.30827">
        <ele>1008.888</ele>
        <time>2011-10-06T07:54:12.500Z</time>
      </trkpt>
      <trkpt lat="44.06426" lon="6.30839">
        <ele>1014.0696</ele>
        <time>2011-10-06T07:54:12.500Z</time>
      </trkpt>
      <trkpt lat="44.0642" lon="6.30851">
        <ele>1015.8984</ele>
        <time>2011-10-06T07:54:12.500Z</time>
      </trkpt>
      <trkpt lat="44.06414" lon="6.30862">
        <ele>1006.1448</ele>
        <time>2011-10-06T07:54:12.500Z</time>
      </trkpt>
      <trkpt lat="44.0641" lon="6.30875">
        <ele>1006.1448</ele>
        <time>2011-10-06T07:54:12.500Z</time>
      </trkpt>
      <trkpt lat="44.06414" lon="6.30889">
        <ele>1007.0592</ele>
        <time>2011-10-06T07:54:12.500Z</time>
      </trkpt>
      <trkpt lat="44.06422" lon="6.30897">
        <ele>1018.032</ele>
        <time>2011-10-06T07:54:12.500Z</time>
      </trkpt>
      <trkpt lat="44.0643" lon="6.30903">
        <ele>1018.9464</ele>
        <time>2011-10-06T07:54:12.500Z</time>
      </trkpt>
      <trkpt lat="44.06438" lon="6.30909">
        <ele>1018.9464</ele>
        <time>2011-10-06T07:54:12.500Z</time>
      </trkpt>
      <trkpt lat="44.06445" lon="6.30916">
        <ele>1021.08</ele>
        <time>2011-10-06T07:54:12.500Z</time>
      </trkpt>
      <trkpt lat="44.06453" lon="6.30927">
        <ele>1019.8608</ele>
        <time>2011-10-06T07:54:12.500Z</time>
      </trkpt>
      <trkpt lat="44.0646" lon="6.30939">
        <ele>1019.8608</ele>
        <time>2011-10-06T07:54:12.500Z</time>
      </trkpt>
      <trkpt lat="44.06467" lon="6.30949">
        <ele>1021.08</ele>
        <time>2011-10-06T07:54:12.500Z</time>
      </trkpt>
      <trkpt lat="44.06476" lon="6.30954">
        <ele>1021.08</ele>
        <time>2011-10-06T07:54:12.500Z</time>
      </trkpt>
      <trkpt lat="44.06486" lon="6.30955">
        <ele>1021.9944</ele>
        <time>2011-10-06T07:54:12.500Z</time>
      </trkpt>
      <trkpt lat="44.06496" lon="6.30957">
        <ele>1021.9944</ele>
        <time>2011-10-06T07:54:12.500Z</time>
      </trkpt>
      <trkpt lat="44.06506" lon="6.30957">
        <ele>1028.0904</ele>
        <time>2011-10-06T07:54:12.500Z</time>
      </trkpt>
      <trkpt lat="44.06516" lon="6.30956">
        <ele>1028.0904</ele>
        <time>2011-10-06T07:54:12.500Z</time>
      </trkpt>
      <trkpt lat="44.06526" lon="6.30955">
        <ele>1029.0048</ele>
        <time>2011-10-06T07:54:12.500Z</time>
      </trkpt>
      <trkpt lat="44.06535" lon="6.30952">
        <ele>1029.0048</ele>
        <time>2011-10-06T07:54:12.500Z</time>
      </trkpt>
      <trkpt lat="44.06545" lon="6.30952">
        <ele>1029.0048</ele>
        <time>2011-10-06T07:54:12.500Z</time>
      </trkpt>
      <trkpt lat="44.06556" lon="6.30956">
        <ele>1029.0048</ele>
        <time>2011-10-06T07:54:12.500Z</time>
      </trkpt>
      <trkpt lat="44.06567" lon="6.3096">
        <ele>1029.0048</ele>
        <time>2011-10-06T07:54:12.500Z</time>
      </trkpt>
      <trkpt lat="44.06576" lon="6.30966">
        <ele>1029.0048</ele>
        <time>2011-10-06T07:54:12.500Z</time>
      </trkpt>
      <trkpt lat="44.06583" lon="6.30973">
        <ele>1028.0904</ele>
        <time>2011-10-06T07:54:12.500Z</time>
      </trkpt>
      <trkpt lat="44.06592" lon="6.30977">
        <ele>1025.0424</ele>
        <time>2011-10-06T07:54:12.500Z</time>
      </trkpt>
      <trkpt lat="44.066" lon="6.30987">
        <ele>1025.0424</ele>
        <time>2011-10-06T07:54:12.500Z</time>
      </trkpt>
      <trkpt lat="44.06608" lon="6.30996">
        <ele>1024.128</ele>
        <time>2011-10-06T07:54:12.500Z</time>
      </trkpt>
      <trkpt lat="44.06617" lon="6.31004">
        <ele>1025.9568</ele>
        <time>2011-10-06T07:54:12.500Z</time>
      </trkpt>
      <trkpt lat="44.06626" lon="6.31013">
        <ele>1025.9568</ele>
        <time>2011-10-06T07:54:12.500Z</time>
      </trkpt>
      <trkpt lat="44.06636" lon="6.31023">
        <ele>1025.9568</ele>
        <time>2011-10-06T07:54:12.500Z</time>
      </trkpt>
      <trkpt lat="44.06645" lon="6.31032">
        <ele>1025.9568</ele>
        <time>2011-10-06T07:54:12.500Z</time>
      </trkpt>
      <trkpt lat="44.06655" lon="6.31042">
        <ele>1025.9568</ele>
        <time>2011-10-06T07:54:12.500Z</time>
      </trkpt>
      <trkpt lat="44.06664" lon="6.31052">
        <ele>1026.8712</ele>
        <time>2011-10-06T07:54:12.500Z</time>
      </trkpt>
      <trkpt lat="44.06673" lon="6.31059">
        <ele>1022.9088</ele>
        <time>2011-10-06T07:54:12.500Z</time>
      </trkpt>
      <trkpt lat="44.06681" lon="6.31066">
        <ele>1022.9088</ele>
        <time>2011-10-06T07:54:12.500Z</time>
      </trkpt>
      <trkpt lat="44.06688" lon="6.31073">
        <ele>1022.9088</ele>
        <time>2011-10-06T07:54:12.500Z</time>
      </trkpt>
      <trkpt lat="44.06694" lon="6.31084">
        <ele>1028.0904</ele>
        <time>2011-10-06T07:54:12.500Z</time>
      </trkpt>
      <trkpt lat="44.06702" lon="6.31096">
        <ele>1028.0904</ele>
        <time>2011-10-06T07:54:12.500Z</time>
      </trkpt>
      <trkpt lat="44.06712" lon="6.31108">
        <ele>1026.8712</ele>
        <time>2011-10-06T07:54:12.500Z</time>
      </trkpt>
      <trkpt lat="44.06722" lon="6.31121">
        <ele>1028.0904</ele>
        <time>2011-10-06T07:54:12.500Z</time>
      </trkpt>
      <trkpt lat="44.0673" lon="6.31139">
        <ele>1028.0904</ele>
        <time>2011-10-06T07:54:12.500Z</time>
      </trkpt>
      <trkpt lat="44.06736" lon="6.31158">
        <ele>1028.0904</ele>
        <time>2011-10-06T07:54:12.500Z</time>
      </trkpt>
      <trkpt lat="44.06745" lon="6.31173">
        <ele>1031.1384</ele>
        <time>2011-10-06T07:54:12.500Z</time>
      </trkpt>
      <trkpt lat="44.06756" lon="6.31179">
        <ele>1032.9672</ele>
        <time>2011-10-06T07:54:12.500Z</time>
      </trkpt>
      <trkpt lat="44.06767" lon="6.3118">
        <ele>1033.8816</ele>
        <time>2011-10-06T07:54:12.500Z</time>
      </trkpt>
      <trkpt lat="44.06776" lon="6.31179">
        <ele>1035.1008</ele>
        <time>2011-10-06T07:54:12.500Z</time>
      </trkpt>
      <trkpt lat="44.06787" lon="6.31177">
        <ele>1036.0152</ele>
        <time>2011-10-06T07:54:12.500Z</time>
      </trkpt>
      <trkpt lat="44.06797" lon="6.31174">
        <ele>1036.9296</ele>
        <time>2011-10-06T07:54:12.500Z</time>
      </trkpt>
      <trkpt lat="44.06806" lon="6.31166">
        <ele>1029.0048</ele>
        <time>2011-10-06T07:54:12.500Z</time>
      </trkpt>
      <trkpt lat="44.0681" lon="6.31153">
        <ele>1029.0048</ele>
        <time>2011-10-06T07:54:12.500Z</time>
      </trkpt>
      <trkpt lat="44.06812" lon="6.31139">
        <ele>1028.0904</ele>
        <time>2011-10-06T07:54:12.500Z</time>
      </trkpt>
      <trkpt lat="44.06812" lon="6.31124">
        <ele>1026.8712</ele>
        <time>2011-10-06T07:54:12.500Z</time>
      </trkpt>
      <trkpt lat="44.06814" lon="6.31111">
        <ele>1025.9568</ele>
        <time>2011-10-06T07:54:12.500Z</time>
      </trkpt>
      <trkpt lat="44.06822" lon="6.31104">
        <ele>1025.9568</ele>
        <time>2011-10-06T07:54:12.500Z</time>
      </trkpt>
      <trkpt lat="44.0683" lon="6.3111">
        <ele>1025.9568</ele>
        <time>2011-10-06T07:54:12.500Z</time>
      </trkpt>
      <trkpt lat="44.06837" lon="6.3112">
        <ele>1029.0048</ele>
        <time>2011-10-06T07:54:12.500Z</time>
      </trkpt>
      <trkpt lat="44.06842" lon="6.31132">
        <ele>1029.9192</ele>
        <time>2011-10-06T07:54:12.500Z</time>
      </trkpt>
      <trkpt lat="44.06846" lon="6.31143">
        <ele>1031.1384</ele>
        <time>2011-10-06T07:54:12.500Z</time>
      </trkpt>
      <trkpt lat="44.06849" lon="6.31155">
        <ele>1032.0528</ele>
        <time>2011-10-06T07:54:12.500Z</time>
      </trkpt>
      <trkpt lat="44.06853" lon="6.31167">
        <ele>1039.0632</ele>
        <time>2011-10-06T07:54:12.500Z</time>
      </trkpt>
      <trkpt lat="44.0686" lon="6.31177">
        <ele>1039.9776</ele>
        <time>2011-10-06T07:54:12.500Z</time>
      </trkpt>
      <trkpt lat="44.0687" lon="6.31185">
        <ele>1040.892</ele>
        <time>2011-10-06T07:54:12.500Z</time>
      </trkpt>
      <trkpt lat="44.06879" lon="6.31191">
        <ele>1042.1112</ele>
        <time>2011-10-06T07:54:12.500Z</time>
      </trkpt>
      <trkpt lat="44.06888" lon="6.31198">
        <ele>1042.1112</ele>
        <time>2011-10-06T07:54:12.500Z</time>
      </trkpt>
      <trkpt lat="44.06898" lon="6.312">
        <ele>1042.1112</ele>
        <time>2011-10-06T07:54:12.500Z</time>
      </trkpt>
      <trkpt lat="44.06909" lon="6.31204">
        <ele>1043.0256</ele>
        <time>2011-10-06T07:54:12.500Z</time>
      </trkpt>
      <trkpt lat="44.06919" lon="6.31206">
        <ele>1042.1112</ele>
        <time>2011-10-06T07:54:12.500Z</time>
      </trkpt>
      <trkpt lat="44.06929" lon="6.31207">
        <ele>1042.1112</ele>
        <time>2011-10-06T07:54:12.500Z</time>
      </trkpt>
      <trkpt lat="44.06938" lon="6.31207">
        <ele>1040.892</ele>
        <time>2011-10-06T07:54:12.500Z</time>
      </trkpt>
      <trkpt lat="44.06948" lon="6.31207">
        <ele>1040.892</ele>
        <time>2011-10-06T07:54:12.500Z</time>
      </trkpt>
      <trkpt lat="44.06958" lon="6.31208">
        <ele>1040.892</ele>
        <time>2011-10-06T07:54:12.500Z</time>
      </trkpt>
      <trkpt lat="44.06967" lon="6.31208">
        <ele>1040.892</ele>
        <time>2011-10-06T07:54:12.500Z</time>
      </trkpt>
      <trkpt lat="44.06975" lon="6.31213">
        <ele>1040.892</ele>
        <time>2011-10-06T07:54:12.500Z</time>
      </trkpt>
      <trkpt lat="44.06982" lon="6.31223">
        <ele>1042.1112</ele>
        <time>2011-10-06T07:54:12.500Z</time>
      </trkpt>
      <trkpt lat="44.06982" lon="6.31236">
        <ele>1043.0256</ele>
        <time>2011-10-06T07:54:12.500Z</time>
      </trkpt>
      <trkpt lat="44.06977" lon="6.31248">
        <ele>1043.0256</ele>
        <time>2011-10-06T07:54:12.500Z</time>
      </trkpt>
      <trkpt lat="44.06972" lon="6.31261">
        <ele>1050.9504</ele>
        <time>2011-10-06T07:54:12.500Z</time>
      </trkpt>
      <trkpt lat="44.06969" lon="6.31274">
        <ele>1051.8648</ele>
        <time>2011-10-06T07:54:12.500Z</time>
      </trkpt>
      <trkpt lat="44.06973" lon="6.31288">
        <ele>1053.084</ele>
        <time>2011-10-06T07:54:12.500Z</time>
      </trkpt>
      <trkpt lat="44.06978" lon="6.313">
        <ele>1053.9984</ele>
        <time>2011-10-06T07:54:12.500Z</time>
      </trkpt>
      <trkpt lat="44.06987" lon="6.31308">
        <ele>1053.9984</ele>
        <time>2011-10-06T07:54:12.500Z</time>
      </trkpt>
      <trkpt lat="44.06994" lon="6.31318">
        <ele>1054.9128</ele>
        <time>2011-10-06T07:54:12.500Z</time>
      </trkpt>
      <trkpt lat="44.06999" lon="6.31328">
        <ele>1056.132</ele>
        <time>2011-10-06T07:54:12.500Z</time>
      </trkpt>
      <trkpt lat="44.07004" lon="6.31338">
        <ele>1057.0464</ele>
        <time>2011-10-06T07:54:12.500Z</time>
      </trkpt>
      <trkpt lat="44.07011" lon="6.31347">
        <ele>1057.0464</ele>
        <time>2011-10-06T07:54:12.500Z</time>
      </trkpt>
      <trkpt lat="44.07019" lon="6.31357">
        <ele>1057.9608</ele>
        <time>2011-10-06T07:54:12.500Z</time>
      </trkpt>
      <trkpt lat="44.07025" lon="6.31366">
        <ele>1057.9608</ele>
        <time>2011-10-06T07:54:12.500Z</time>
      </trkpt>
      <trkpt lat="44.07031" lon="6.31376">
        <ele>1058.8752</ele>
        <time>2011-10-06T07:54:12.500Z</time>
      </trkpt>
      <trkpt lat="44.07037" lon="6.31387">
        <ele>1058.8752</ele>
        <time>2011-10-06T07:54:12.500Z</time>
      </trkpt>
      <trkpt lat="44.07041" lon="6.31399">
        <ele>1060.0944</ele>
        <time>2011-10-06T07:54:12.500Z</time>
      </trkpt>
      <trkpt lat="44.07042" lon="6.31413">
        <ele>1061.0088</ele>
        <time>2011-10-06T07:54:12.500Z</time>
      </trkpt>
      <trkpt lat="44.07043" lon="6.31426">
        <ele>1068.9336</ele>
        <time>2011-10-06T07:54:12.500Z</time>
      </trkpt>
      <trkpt lat="44.07047" lon="6.31438">
        <ele>1069.848</ele>
        <time>2011-10-06T07:54:12.500Z</time>
      </trkpt>
      <trkpt lat="44.07054" lon="6.31448">
        <ele>1069.848</ele>
        <time>2011-10-06T07:54:12.500Z</time>
      </trkpt>
      <trkpt lat="44.07061" lon="6.31456">
        <ele>1071.0672</ele>
        <time>2011-10-06T07:54:12.500Z</time>
      </trkpt>
      <trkpt lat="44.07068" lon="6.31463">
        <ele>1071.0672</ele>
        <time>2011-10-06T07:54:12.500Z</time>
      </trkpt>
      <trkpt lat="44.07076" lon="6.3147">
        <ele>1071.9816</ele>
        <time>2011-10-06T07:54:12.500Z</time>
      </trkpt>
      <trkpt lat="44.07085" lon="6.31475">
        <ele>1071.9816</ele>
        <time>2011-10-06T07:54:12.500Z</time>
      </trkpt>
      <trkpt lat="44.07096" lon="6.31478">
        <ele>1071.9816</ele>
        <time>2011-10-06T07:54:12.500Z</time>
      </trkpt>
      <trkpt lat="44.07106" lon="6.31477">
        <ele>1071.9816</ele>
        <time>2011-10-06T07:54:12.500Z</time>
      </trkpt>
      <trkpt lat="44.07115" lon="6.31476">
        <ele>1071.9816</ele>
        <time>2011-10-06T07:54:12.500Z</time>
      </trkpt>
      <trkpt lat="44.07124" lon="6.31478">
        <ele>1071.9816</ele>
        <time>2011-10-06T07:54:12.500Z</time>
      </trkpt>
      <trkpt lat="44.07135" lon="6.31479">
        <ele>1072.896</ele>
        <time>2011-10-06T07:54:12.500Z</time>
      </trkpt>
      <trkpt lat="44.07145" lon="6.31476">
        <ele>1072.896</ele>
        <time>2011-10-06T07:54:12.500Z</time>
      </trkpt>
      <trkpt lat="44.07153" lon="6.3147">
        <ele>1071.9816</ele>
        <time>2011-10-06T07:54:12.500Z</time>
      </trkpt>
      <trkpt lat="44.07162" lon="6.31464">
        <ele>1071.9816</ele>
        <time>2011-10-06T07:54:12.500Z</time>
      </trkpt>
      <trkpt lat="44.0717" lon="6.31473">
        <ele>1076.8584</ele>
        <time>2011-10-06T07:54:12.500Z</time>
      </trkpt>
      <trkpt lat="44.07165" lon="6.31484">
        <ele>1075.0296</ele>
        <time>2011-10-06T07:54:12.500Z</time>
      </trkpt>
      <trkpt lat="44.07157" lon="6.31488">
        <ele>1075.0296</ele>
        <time>2011-10-06T07:54:12.500Z</time>
      </trkpt>
      <trkpt lat="44.07148" lon="6.31493">
        <ele>1075.0296</ele>
        <time>2011-10-06T07:54:12.500Z</time>
      </trkpt>
      <trkpt lat="44.07138" lon="6.31499">
        <ele>1074.1152</ele>
        <time>2011-10-06T07:54:12.500Z</time>
      </trkpt>
      <trkpt lat="44.0713" lon="6.31505">
        <ele>1083.8688</ele>
        <time>2011-10-06T07:54:12.500Z</time>
      </trkpt>
      <trkpt lat="44.07122" lon="6.31511">
        <ele>1083.8688</ele>
        <time>2011-10-06T07:54:12.500Z</time>
      </trkpt>
      <trkpt lat="44.07113" lon="6.31518">
        <ele>1085.088</ele>
        <time>2011-10-06T07:54:12.500Z</time>
      </trkpt>
      <trkpt lat="44.07105" lon="6.31524">
        <ele>1085.088</ele>
        <time>2011-10-06T07:54:12.500Z</time>
      </trkpt>
      <trkpt lat="44.07096" lon="6.31529">
        <ele>1085.088</ele>
        <time>2011-10-06T07:54:12.500Z</time>
      </trkpt>
      <trkpt lat="44.07087" lon="6.31534">
        <ele>1086.0024</ele>
        <time>2011-10-06T07:54:12.500Z</time>
      </trkpt>
      <trkpt lat="44.07077" lon="6.31535">
        <ele>1088.136</ele>
        <time>2011-10-06T07:54:12.500Z</time>
      </trkpt>
      <trkpt lat="44.07067" lon="6.31535">
        <ele>1088.136</ele>
        <time>2011-10-06T07:54:12.500Z</time>
      </trkpt>
      <trkpt lat="44.07057" lon="6.31534">
        <ele>1088.136</ele>
        <time>2011-10-06T07:54:12.500Z</time>
      </trkpt>
      <trkpt lat="44.07046" lon="6.31531">
        <ele>1088.136</ele>
        <time>2011-10-06T07:54:12.500Z</time>
      </trkpt>
      <trkpt lat="44.07037" lon="6.3153">
        <ele>1088.136</ele>
        <time>2011-10-06T07:54:12.500Z</time>
      </trkpt>
      <trkpt lat="44.07027" lon="6.31529">
        <ele>1088.136</ele>
        <time>2011-10-06T07:54:12.500Z</time>
      </trkpt>
      <trkpt lat="44.07017" lon="6.31529">
        <ele>1088.136</ele>
        <time>2011-10-06T07:54:12.500Z</time>
      </trkpt>
      <trkpt lat="44.07007" lon="6.31533">
        <ele>1089.0504</ele>
        <time>2011-10-06T07:54:12.500Z</time>
      </trkpt>
      <trkpt lat="44.06998" lon="6.31538">
        <ele>1092.0984</ele>
        <time>2011-10-06T07:54:12.500Z</time>
      </trkpt>
      <trkpt lat="44.06989" lon="6.31544">
        <ele>1093.0128</ele>
        <time>2011-10-06T07:54:12.500Z</time>
      </trkpt>
      <trkpt lat="44.06982" lon="6.31551">
        <ele>1093.9272</ele>
        <time>2011-10-06T07:54:12.500Z</time>
      </trkpt>
      <trkpt lat="44.06974" lon="6.31558">
        <ele>1095.1464</ele>
        <time>2011-10-06T07:54:12.500Z</time>
      </trkpt>
      <trkpt lat="44.06964" lon="6.31563">
        <ele>1095.1464</ele>
        <time>2011-10-06T07:54:12.500Z</time>
      </trkpt>
      <trkpt lat="44.06955" lon="6.31568">
        <ele>1096.0608</ele>
        <time>2011-10-06T07:54:12.500Z</time>
      </trkpt>
      <trkpt lat="44.06945" lon="6.3157">
        <ele>1096.0608</ele>
        <time>2011-10-06T07:54:12.500Z</time>
      </trkpt>
      <trkpt lat="44.06934" lon="6.31572">
        <ele>1096.9752</ele>
        <time>2011-10-06T07:54:12.500Z</time>
      </trkpt>
      <trkpt lat="44.06923" lon="6.3157">
        <ele>1097.8896</ele>
        <time>2011-10-06T07:54:12.500Z</time>
      </trkpt>
      <trkpt lat="44.06914" lon="6.31566">
        <ele>1097.8896</ele>
        <time>2011-10-06T07:54:12.500Z</time>
      </trkpt>
      <trkpt lat="44.06905" lon="6.31561">
        <ele>1097.8896</ele>
        <time>2011-10-06T07:54:12.500Z</time>
      </trkpt>
      <trkpt lat="44.06896" lon="6.31556">
        <ele>1096.9752</ele>
        <time>2011-10-06T07:54:12.500Z</time>
      </trkpt>
      <trkpt lat="44.06885" lon="6.31553">
        <ele>1096.9752</ele>
        <time>2011-10-06T07:54:12.500Z</time>
      </trkpt>
      <trkpt lat="44.06875" lon="6.31549">
        <ele>1096.9752</ele>
        <time>2011-10-06T07:54:12.500Z</time>
      </trkpt>
      <trkpt lat="44.06866" lon="6.31547">
        <ele>1096.9752</ele>
        <time>2011-10-06T07:54:12.500Z</time>
      </trkpt>
      <trkpt lat="44.06859" lon="6.31554">
        <ele>1097.8896</ele>
        <time>2011-10-06T07:54:12.500Z</time>
      </trkpt>
      <trkpt lat="44.06858" lon="6.31568">
        <ele>1099.1088</ele>
        <time>2011-10-06T07:54:12.500Z</time>
      </trkpt>
      <trkpt lat="44.06859" lon="6.31581">
        <ele>1099.1088</ele>
        <time>2011-10-06T07:54:12.500Z</time>
      </trkpt>
      <trkpt lat="44.06858" lon="6.31596">
        <ele>1107.0336</ele>
        <time>2011-10-06T07:54:12.500Z</time>
      </trkpt>
      <trkpt lat="44.06853" lon="6.31606">
        <ele>1107.948</ele>
        <time>2011-10-06T07:54:12.500Z</time>
      </trkpt>
      <trkpt lat="44.06846" lon="6.31617">
        <ele>1108.8624</ele>
        <time>2011-10-06T07:54:12.500Z</time>
      </trkpt>
      <trkpt lat="44.06837" lon="6.31623">
        <ele>1110.0816</ele>
        <time>2011-10-06T07:54:12.500Z</time>
      </trkpt>
      <trkpt lat="44.06827" lon="6.31624">
        <ele>1107.948</ele>
        <time>2011-10-06T07:54:12.500Z</time>
      </trkpt>
      <trkpt lat="44.06817" lon="6.31623">
        <ele>1107.948</ele>
        <time>2011-10-06T07:54:12.500Z</time>
      </trkpt>
      <trkpt lat="44.06807" lon="6.31624">
        <ele>1107.948</ele>
        <time>2011-10-06T07:54:12.500Z</time>
      </trkpt>
      <trkpt lat="44.06798" lon="6.31628">
        <ele>1107.948</ele>
        <time>2011-10-06T07:54:12.500Z</time>
      </trkpt>
      <trkpt lat="44.06791" lon="6.31638">
        <ele>1107.948</ele>
        <time>2011-10-06T07:54:12.500Z</time>
      </trkpt>
      <trkpt lat="44.06785" lon="6.31648">
        <ele>1108.8624</ele>
        <time>2011-10-06T07:54:12.500Z</time>
      </trkpt>
      <trkpt lat="44.06778" lon="6.31658">
        <ele>1110.0816</ele>
        <time>2011-10-06T07:54:12.500Z</time>
      </trkpt>
      <trkpt lat="44.06771" lon="6.31667">
        <ele>1110.0816</ele>
        <time>2011-10-06T07:54:12.500Z</time>
      </trkpt>
      <trkpt lat="44.06763" lon="6.31676">
        <ele>1117.092</ele>
        <time>2011-10-06T07:54:12.500Z</time>
      </trkpt>
      <trkpt lat="44.06757" lon="6.31686">
        <ele>1118.9208</ele>
        <time>2011-10-06T07:54:12.500Z</time>
      </trkpt>
      <trkpt lat="44.06751" lon="6.31696">
        <ele>1120.14</ele>
        <time>2011-10-06T07:54:12.500Z</time>
      </trkpt>
      <trkpt lat="44.06744" lon="6.31705">
        <ele>1118.9208</ele>
        <time>2011-10-06T07:54:12.500Z</time>
      </trkpt>
      <trkpt lat="44.06738" lon="6.31714">
        <ele>1120.14</ele>
        <time>2011-10-06T07:54:12.500Z</time>
      </trkpt>
      <trkpt lat="44.06732" lon="6.31724">
        <ele>1121.0544</ele>
        <time>2011-10-06T07:54:12.500Z</time>
      </trkpt>
      <trkpt lat="44.06728" lon="6.31735">
        <ele>1121.9688</ele>
        <time>2011-10-06T07:54:12.500Z</time>
      </trkpt>
      <trkpt lat="44.06724" lon="6.31747">
        <ele>1121.9688</ele>
        <time>2011-10-06T07:54:12.500Z</time>
      </trkpt>
      <trkpt lat="44.06721" lon="6.31759">
        <ele>1129.8936</ele>
        <time>2011-10-06T07:54:12.500Z</time>
      </trkpt>
      <trkpt lat="44.06717" lon="6.31771">
        <ele>1131.1128</ele>
        <time>2011-10-06T07:54:12.500Z</time>
      </trkpt>
      <trkpt lat="44.06716" lon="6.31783">
        <ele>1131.1128</ele>
        <time>2011-10-06T07:54:12.500Z</time>
      </trkpt>
      <trkpt lat="44.06715" lon="6.31796">
        <ele>1132.0272</ele>
        <time>2011-10-06T07:54:12.500Z</time>
      </trkpt>
      <trkpt lat="44.0671" lon="6.31807">
        <ele>1132.9416</ele>
        <time>2011-10-06T07:54:12.500Z</time>
      </trkpt>
      <trkpt lat="44.06703" lon="6.31816">
        <ele>1132.9416</ele>
        <time>2011-10-06T07:54:12.500Z</time>
      </trkpt>
      <trkpt lat="44.06697" lon="6.31825">
        <ele>1132.9416</ele>
        <time>2011-10-06T07:54:12.500Z</time>
      </trkpt>
      <trkpt lat="44.06695" lon="6.31837">
        <ele>1142.0856</ele>
        <time>2011-10-06T07:54:12.500Z</time>
      </trkpt>
      <trkpt lat="44.067" lon="6.31849">
        <ele>1143</ele>
        <time>2011-10-06T07:54:12.500Z</time>
      </trkpt>
      <trkpt lat="44.06709" lon="6.31853">
        <ele>1143.9144</ele>
        <time>2011-10-06T07:54:12.500Z</time>
      </trkpt>
      <trkpt lat="44.06718" lon="6.31851">
        <ele>1143.9144</ele>
        <time>2011-10-06T07:54:12.500Z</time>
      </trkpt>
      <trkpt lat="44.06727" lon="6.31845">
        <ele>1143.9144</ele>
        <time>2011-10-06T07:54:12.500Z</time>
      </trkpt>
      <trkpt lat="44.06736" lon="6.31841">
        <ele>1143.9144</ele>
        <time>2011-10-06T07:54:12.500Z</time>
      </trkpt>
      <trkpt lat="44.06744" lon="6.31835">
        <ele>1143</ele>
        <time>2011-10-06T07:54:12.500Z</time>
      </trkpt>
      <trkpt lat="44.06752" lon="6.31827">
        <ele>1140.8664</ele>
        <time>2011-10-06T07:54:12.500Z</time>
      </trkpt>
      <trkpt lat="44.06759" lon="6.31817">
        <ele>1139.952</ele>
        <time>2011-10-06T07:54:12.500Z</time>
      </trkpt>
      <trkpt lat="44.06767" lon="6.31809">
        <ele>1139.0376</ele>
        <time>2011-10-06T07:54:12.500Z</time>
      </trkpt>
      <trkpt lat="44.06774" lon="6.31802">
        <ele>1139.0376</ele>
        <time>2011-10-06T07:54:12.500Z</time>
      </trkpt>
      <trkpt lat="44.06783" lon="6.31799">
        <ele>1139.0376</ele>
        <time>2011-10-06T07:54:12.500Z</time>
      </trkpt>
      <trkpt lat="44.06792" lon="6.318">
        <ele>1139.0376</ele>
        <time>2011-10-06T07:54:12.500Z</time>
      </trkpt>
      <trkpt lat="44.06801" lon="6.31802">
        <ele>1139.952</ele>
        <time>2011-10-06T07:54:12.500Z</time>
      </trkpt>
      <trkpt lat="44.06809" lon="6.31806">
        <ele>1140.8664</ele>
        <time>2011-10-06T07:54:12.500Z</time>
      </trkpt>
      <trkpt lat="44.06818" lon="6.31811">
        <ele>1142.0856</ele>
        <time>2011-10-06T07:54:12.500Z</time>
      </trkpt>
      <trkpt lat="44.06828" lon="6.31818">
        <ele>1145.1336</ele>
        <time>2011-10-06T07:54:12.500Z</time>
      </trkpt>
      <trkpt lat="44.06837" lon="6.31824">
        <ele>1149.096</ele>
        <time>2011-10-06T07:54:12.500Z</time>
      </trkpt>
      <trkpt lat="44.06845" lon="6.31827">
        <ele>1149.096</ele>
        <time>2011-10-06T07:54:12.500Z</time>
      </trkpt>
      <trkpt lat="44.06854" lon="6.31829">
        <ele>1147.8768</ele>
        <time>2011-10-06T07:54:12.500Z</time>
      </trkpt>
      <trkpt lat="44.06852" lon="6.31842">
        <ele>1157.9352</ele>
        <time>2011-10-06T07:54:12.500Z</time>
      </trkpt>
      <trkpt lat="44.06842" lon="6.31844">
        <ele>1157.0208</ele>
        <time>2011-10-06T07:54:12.500Z</time>
      </trkpt>
      <trkpt lat="44.06834" lon="6.31851">
        <ele>1157.0208</ele>
        <time>2011-10-06T07:54:12.500Z</time>
      </trkpt>
      <trkpt lat="44.06826" lon="6.31856">
        <ele>1153.9728</ele>
        <time>2011-10-06T07:54:12.500Z</time>
      </trkpt>
      <trkpt lat="44.06818" lon="6.31864">
        <ele>1153.9728</ele>
        <time>2011-10-06T07:54:12.500Z</time>
      </trkpt>
      <trkpt lat="44.06811" lon="6.31873">
        <ele>1154.8872</ele>
        <time>2011-10-06T07:54:12.500Z</time>
      </trkpt>
      <trkpt lat="44.06804" lon="6.31882">
        <ele>1156.1064</ele>
        <time>2011-10-06T07:54:12.500Z</time>
      </trkpt>
      <trkpt lat="44.06796" lon="6.31891">
        <ele>1156.1064</ele>
        <time>2011-10-06T07:54:12.500Z</time>
      </trkpt>
      <trkpt lat="44.0679" lon="6.31901">
        <ele>1156.1064</ele>
        <time>2011-10-06T07:54:12.500Z</time>
      </trkpt>
      <trkpt lat="44.06782" lon="6.3191">
        <ele>1156.1064</ele>
        <time>2011-10-06T07:54:12.500Z</time>
      </trkpt>
      <trkpt lat="44.06776" lon="6.3192">
        <ele>1164.9456</ele>
        <time>2011-10-06T07:54:12.500Z</time>
      </trkpt>
      <trkpt lat="44.06772" lon="6.31931">
        <ele>1164.9456</ele>
        <time>2011-10-06T07:54:12.500Z</time>
      </trkpt>
      <trkpt lat="44.06767" lon="6.31941">
        <ele>1165.86</ele>
        <time>2011-10-06T07:54:12.500Z</time>
      </trkpt>
      <trkpt lat="44.06762" lon="6.31952">
        <ele>1167.9936</ele>
        <time>2011-10-06T07:54:12.500Z</time>
      </trkpt>
      <trkpt lat="44.06753" lon="6.31959">
        <ele>1167.9936</ele>
        <time>2011-10-06T07:54:12.500Z</time>
      </trkpt>
      <trkpt lat="44.06758" lon="6.31969">
        <ele>1170.1272</ele>
        <time>2011-10-06T07:54:12.500Z</time>
      </trkpt>
      <trkpt lat="44.06767" lon="6.31969">
        <ele>1170.1272</ele>
        <time>2011-10-06T07:54:12.500Z</time>
      </trkpt>
      <trkpt lat="44.06777" lon="6.31971">
        <ele>1171.0416</ele>
        <time>2011-10-06T07:54:12.500Z</time>
      </trkpt>
      <trkpt lat="44.06786" lon="6.31977">
        <ele>1171.956</ele>
        <time>2011-10-06T07:54:12.500Z</time>
      </trkpt>
      <trkpt lat="44.06793" lon="6.31987">
        <ele>1172.8704</ele>
        <time>2011-10-06T07:54:12.500Z</time>
      </trkpt>
      <trkpt lat="44.06798" lon="6.31997">
        <ele>1174.0896</ele>
        <time>2011-10-06T07:54:12.500Z</time>
      </trkpt>
      <trkpt lat="44.06806" lon="6.32003">
        <ele>1185.0624</ele>
        <time>2011-10-06T07:54:12.500Z</time>
      </trkpt>
      <trkpt lat="44.06815" lon="6.32003">
        <ele>1185.0624</ele>
        <time>2011-10-06T07:54:12.500Z</time>
      </trkpt>
      <trkpt lat="44.06824" lon="6.32007">
        <ele>1185.0624</ele>
        <time>2011-10-06T07:54:12.500Z</time>
      </trkpt>
      <trkpt lat="44.06833" lon="6.32011">
        <ele>1185.0624</ele>
        <time>2011-10-06T07:54:12.500Z</time>
      </trkpt>
      <trkpt lat="44.06842" lon="6.32012">
        <ele>1189.9392</ele>
        <time>2011-10-06T07:54:12.500Z</time>
      </trkpt>
      <trkpt lat="44.06852" lon="6.32011">
        <ele>1190.8536</ele>
        <time>2011-10-06T07:54:12.500Z</time>
      </trkpt>
      <trkpt lat="44.06861" lon="6.32008">
        <ele>1192.0728</ele>
        <time>2011-10-06T07:54:12.500Z</time>
      </trkpt>
      <trkpt lat="44.0687" lon="6.32006">
        <ele>1192.9872</ele>
        <time>2011-10-06T07:54:12.500Z</time>
      </trkpt>
      <trkpt lat="44.06879" lon="6.32004">
        <ele>1193.9016</ele>
        <time>2011-10-06T07:54:12.500Z</time>
      </trkpt>
      <trkpt lat="44.06888" lon="6.32003">
        <ele>1193.9016</ele>
        <time>2011-10-06T07:54:12.500Z</time>
      </trkpt>
      <trkpt lat="44.06898" lon="6.32002">
        <ele>1193.9016</ele>
        <time>2011-10-06T07:54:12.500Z</time>
      </trkpt>
      <trkpt lat="44.06908" lon="6.32003">
        <ele>1192.9872</ele>
        <time>2011-10-06T07:54:12.500Z</time>
      </trkpt>
      <trkpt lat="44.06916" lon="6.32011">
        <ele>1192.9872</ele>
        <time>2011-10-06T07:54:12.500Z</time>
      </trkpt>
      <trkpt lat="44.06923" lon="6.32017">
        <ele>1192.9872</ele>
        <time>2011-10-06T07:54:12.500Z</time>
      </trkpt>
      <trkpt lat="44.06932" lon="6.32024">
        <ele>1193.9016</ele>
        <time>2011-10-06T07:54:12.500Z</time>
      </trkpt>
      <trkpt lat="44.0694" lon="6.32032">
        <ele>1195.1208</ele>
        <time>2011-10-06T07:54:12.500Z</time>
      </trkpt>
      <trkpt lat="44.06946" lon="6.32041">
        <ele>1195.1208</ele>
        <time>2011-10-06T07:54:12.500Z</time>
      </trkpt>
      <trkpt lat="44.06951" lon="6.32052">
        <ele>1196.0352</ele>
        <time>2011-10-06T07:54:12.500Z</time>
      </trkpt>
      <trkpt lat="44.06956" lon="6.32064">
        <ele>1196.9496</ele>
        <time>2011-10-06T07:54:12.500Z</time>
      </trkpt>
      <trkpt lat="44.06962" lon="6.32074">
        <ele>1196.9496</ele>
        <time>2011-10-06T07:54:12.500Z</time>
      </trkpt>
      <trkpt lat="44.06971" lon="6.32082">
        <ele>1196.9496</ele>
        <time>2011-10-06T07:54:12.500Z</time>
      </trkpt>
      <trkpt lat="44.06978" lon="6.32091">
        <ele>1203.96</ele>
        <time>2011-10-06T07:54:12.500Z</time>
      </trkpt>
      <trkpt lat="44.0698" lon="6.32103">
        <ele>1203.96</ele>
        <time>2011-10-06T07:54:12.500Z</time>
      </trkpt>
      <trkpt lat="44.06975" lon="6.32115">
        <ele>1206.0936</ele>
        <time>2011-10-06T07:54:12.500Z</time>
      </trkpt>
      <trkpt lat="44.06971" lon="6.32126">
        <ele>1207.008</ele>
        <time>2011-10-06T07:54:12.500Z</time>
      </trkpt>
      <trkpt lat="44.06965" lon="6.32136">
        <ele>1207.9224</ele>
        <time>2011-10-06T07:54:12.500Z</time>
      </trkpt>
      <trkpt lat="44.06956" lon="6.32143">
        <ele>1209.1416</ele>
        <time>2011-10-06T07:54:12.500Z</time>
      </trkpt>
      <trkpt lat="44.06947" lon="6.32146">
        <ele>1210.056</ele>
        <time>2011-10-06T07:54:12.500Z</time>
      </trkpt>
      <trkpt lat="44.06938" lon="6.32146">
        <ele>1210.9704</ele>
        <time>2011-10-06T07:54:12.500Z</time>
      </trkpt>
      <trkpt lat="44.06928" lon="6.32145">
        <ele>1210.9704</ele>
        <time>2011-10-06T07:54:12.500Z</time>
      </trkpt>
      <trkpt lat="44.0692" lon="6.32141">
        <ele>1210.9704</ele>
        <time>2011-10-06T07:54:12.500Z</time>
      </trkpt>
      <trkpt lat="44.06911" lon="6.32136">
        <ele>1214.0184</ele>
        <time>2011-10-06T07:54:12.500Z</time>
      </trkpt>
      <trkpt lat="44.06903" lon="6.32129">
        <ele>1214.0184</ele>
        <time>2011-10-06T07:54:12.500Z</time>
      </trkpt>
      <trkpt lat="44.06894" lon="6.32126">
        <ele>1213.104</ele>
        <time>2011-10-06T07:54:12.500Z</time>
      </trkpt>
      <trkpt lat="44.06883" lon="6.32123">
        <ele>1213.104</ele>
        <time>2011-10-06T07:54:12.500Z</time>
      </trkpt>
      <trkpt lat="44.06874" lon="6.32126">
        <ele>1213.104</ele>
        <time>2011-10-06T07:54:12.500Z</time>
      </trkpt>
      <trkpt lat="44.06865" lon="6.32128">
        <ele>1214.0184</ele>
        <time>2011-10-06T07:54:12.500Z</time>
      </trkpt>
      <trkpt lat="44.06855" lon="6.32132">
        <ele>1214.0184</ele>
        <time>2011-10-06T07:54:12.500Z</time>
      </trkpt>
      <trkpt lat="44.06845" lon="6.32139">
        <ele>1214.9328</ele>
        <time>2011-10-06T07:54:12.500Z</time>
      </trkpt>
      <trkpt lat="44.06839" lon="6.32149">
        <ele>1217.0664</ele>
        <time>2011-10-06T07:54:12.500Z</time>
      </trkpt>
      <trkpt lat="44.06831" lon="6.32159">
        <ele>1217.0664</ele>
        <time>2011-10-06T07:54:12.500Z</time>
      </trkpt>
      <trkpt lat="44.06824" lon="6.32166">
        <ele>1216.152</ele>
        <time>2011-10-06T07:54:12.500Z</time>
      </trkpt>
      <trkpt lat="44.06817" lon="6.32175">
        <ele>1220.1144</ele>
        <time>2011-10-06T07:54:12.500Z</time>
      </trkpt>
      <trkpt lat="44.06815" lon="6.32188">
        <ele>1220.1144</ele>
        <time>2011-10-06T07:54:12.500Z</time>
      </trkpt>
      <trkpt lat="44.06817" lon="6.32199">
        <ele>1221.0288</ele>
        <time>2011-10-06T07:54:12.500Z</time>
      </trkpt>
      <trkpt lat="44.06817" lon="6.32213">
        <ele>1221.9432</ele>
        <time>2011-10-06T07:54:12.500Z</time>
      </trkpt>
      <trkpt lat="44.06812" lon="6.32224">
        <ele>1222.8576</ele>
        <time>2011-10-06T07:54:12.500Z</time>
      </trkpt>
      <trkpt lat="44.06806" lon="6.32234">
        <ele>1222.8576</ele>
        <time>2011-10-06T07:54:12.500Z</time>
      </trkpt>
      <trkpt lat="44.06802" lon="6.32245">
        <ele>1222.8576</ele>
        <time>2011-10-06T07:54:12.500Z</time>
      </trkpt>
      <trkpt lat="44.06798" lon="6.32258">
        <ele>1231.0872</ele>
        <time>2011-10-06T07:54:12.500Z</time>
      </trkpt>
      <trkpt lat="44.06795" lon="6.32271">
        <ele>1231.0872</ele>
        <time>2011-10-06T07:54:12.500Z</time>
      </trkpt>
      <trkpt lat="44.06795" lon="6.32285">
        <ele>1232.0016</ele>
        <time>2011-10-06T07:54:12.500Z</time>
      </trkpt>
      <trkpt lat="44.06795" lon="6.32298">
        <ele>1232.916</ele>
        <time>2011-10-06T07:54:12.500Z</time>
      </trkpt>
      <trkpt lat="44.06797" lon="6.32312">
        <ele>1234.1352</ele>
        <time>2011-10-06T07:54:12.500Z</time>
      </trkpt>
      <trkpt lat="44.06799" lon="6.32325">
        <ele>1235.0496</ele>
        <time>2011-10-06T07:54:12.500Z</time>
      </trkpt>
      <trkpt lat="44.06804" lon="6.32336">
        <ele>1242.06</ele>
        <time>2011-10-06T07:54:12.500Z</time>
      </trkpt>
      <trkpt lat="44.06806" lon="6.32348">
        <ele>1242.9744</ele>
        <time>2011-10-06T07:54:12.500Z</time>
      </trkpt>
      <trkpt lat="44.06806" lon="6.32362">
        <ele>1243.8888</ele>
        <time>2011-10-06T07:54:12.500Z</time>
      </trkpt>
      <trkpt lat="44.06806" lon="6.32375">
        <ele>1243.8888</ele>
        <time>2011-10-06T07:54:12.500Z</time>
      </trkpt>
      <trkpt lat="44.06806" lon="6.32388">
        <ele>1245.108</ele>
        <time>2011-10-06T07:54:12.500Z</time>
      </trkpt>
      <trkpt lat="44.06805" lon="6.32401">
        <ele>1246.0224</ele>
        <time>2011-10-06T07:54:12.500Z</time>
      </trkpt>
      <trkpt lat="44.06802" lon="6.32413">
        <ele>1246.9368</ele>
        <time>2011-10-06T07:54:12.500Z</time>
      </trkpt>
      <trkpt lat="44.06798" lon="6.32424">
        <ele>1254.8616</ele>
        <time>2011-10-06T07:54:12.500Z</time>
      </trkpt>
      <trkpt lat="44.06792" lon="6.32435">
        <ele>1254.8616</ele>
        <time>2011-10-06T07:54:12.500Z</time>
      </trkpt>
      <trkpt lat="44.06791" lon="6.32447">
        <ele>1256.0808</ele>
        <time>2011-10-06T07:54:12.500Z</time>
      </trkpt>
      <trkpt lat="44.06795" lon="6.32458">
        <ele>1256.9952</ele>
        <time>2011-10-06T07:54:12.500Z</time>
      </trkpt>
      <trkpt lat="44.06804" lon="6.32462">
        <ele>1257.9096</ele>
        <time>2011-10-06T07:54:12.500Z</time>
      </trkpt>
      <trkpt lat="44.06813" lon="6.32462">
        <ele>1257.9096</ele>
        <time>2011-10-06T07:54:12.500Z</time>
      </trkpt>
      <trkpt lat="44.06822" lon="6.32464">
        <ele>1259.1288</ele>
        <time>2011-10-06T07:54:12.500Z</time>
      </trkpt>
      <trkpt lat="44.06832" lon="6.32464">
        <ele>1259.1288</ele>
        <time>2011-10-06T07:54:12.500Z</time>
      </trkpt>
      <trkpt lat="44.06841" lon="6.32465">
        <ele>1260.0432</ele>
        <time>2011-10-06T07:54:12.500Z</time>
      </trkpt>
      <trkpt lat="44.0685" lon="6.3247">
        <ele>1260.0432</ele>
        <time>2011-10-06T07:54:12.500Z</time>
      </trkpt>
      <trkpt lat="44.06858" lon="6.32476">
        <ele>1260.9576</ele>
        <time>2011-10-06T07:54:12.500Z</time>
      </trkpt>
      <trkpt lat="44.06864" lon="6.32486">
        <ele>1260.9576</ele>
        <time>2011-10-06T07:54:12.500Z</time>
      </trkpt>
      <trkpt lat="44.06871" lon="6.32497">
        <ele>1260.9576</ele>
        <time>2011-10-06T07:54:12.500Z</time>
      </trkpt>
      <trkpt lat="44.06878" lon="6.32506">
        <ele>1271.9304</ele>
        <time>2011-10-06T07:54:12.500Z</time>
      </trkpt>
      <trkpt lat="44.06887" lon="6.32511">
        <ele>1271.9304</ele>
        <time>2011-10-06T07:54:12.500Z</time>
      </trkpt>
      <trkpt lat="44.06896" lon="6.32515">
        <ele>1271.9304</ele>
        <time>2011-10-06T07:54:12.500Z</time>
      </trkpt>
      <trkpt lat="44.06905" lon="6.32515">
        <ele>1271.016</ele>
        <time>2011-10-06T07:54:12.500Z</time>
      </trkpt>
      <trkpt lat="44.06915" lon="6.32515">
        <ele>1270.1016</ele>
        <time>2011-10-06T07:54:12.500Z</time>
      </trkpt>
      <trkpt lat="44.06925" lon="6.32514">
        <ele>1267.968</ele>
        <time>2011-10-06T07:54:12.500Z</time>
      </trkpt>
      <trkpt lat="44.06935" lon="6.32512">
        <ele>1268.8824</ele>
        <time>2011-10-06T07:54:12.500Z</time>
      </trkpt>
      <trkpt lat="44.06944" lon="6.32513">
        <ele>1268.8824</ele>
        <time>2011-10-06T07:54:12.500Z</time>
      </trkpt>
      <trkpt lat="44.06954" lon="6.32518">
        <ele>1270.1016</ele>
        <time>2011-10-06T07:54:12.500Z</time>
      </trkpt>
      <trkpt lat="44.06962" lon="6.32526">
        <ele>1270.1016</ele>
        <time>2011-10-06T07:54:12.500Z</time>
      </trkpt>
      <trkpt lat="44.06967" lon="6.32536">
        <ele>1271.016</ele>
        <time>2011-10-06T07:54:12.500Z</time>
      </trkpt>
      <trkpt lat="44.06971" lon="6.32548">
        <ele>1271.9304</ele>
        <time>2011-10-06T07:54:12.500Z</time>
      </trkpt>
      <trkpt lat="44.06973" lon="6.3256">
        <ele>1273.1496</ele>
        <time>2011-10-06T07:54:12.500Z</time>
      </trkpt>
      <trkpt lat="44.06976" lon="6.32573">
        <ele>1274.064</ele>
        <time>2011-10-06T07:54:12.500Z</time>
      </trkpt>
      <trkpt lat="44.06978" lon="6.32586">
        <ele>1284.1224</ele>
        <time>2011-10-06T07:54:12.500Z</time>
      </trkpt>
      <trkpt lat="44.0698" lon="6.326">
        <ele>1285.0368</ele>
        <time>2011-10-06T07:54:12.500Z</time>
      </trkpt>
      <trkpt lat="44.06983" lon="6.32613">
        <ele>1286.8656</ele>
        <time>2011-10-06T07:54:12.500Z</time>
      </trkpt>
      <trkpt lat="44.06988" lon="6.32623">
        <ele>1288.0848</ele>
        <time>2011-10-06T07:54:12.500Z</time>
      </trkpt>
      <trkpt lat="44.06993" lon="6.32635">
        <ele>1289.9136</ele>
        <time>2011-10-06T07:54:12.500Z</time>
      </trkpt>
      <trkpt lat="44.06998" lon="6.32645">
        <ele>1291.1328</ele>
        <time>2011-10-06T07:54:12.500Z</time>
      </trkpt>
      <trkpt lat="44.07005" lon="6.32653">
        <ele>1288.0848</ele>
        <time>2011-10-06T07:54:12.500Z</time>
      </trkpt>
      <trkpt lat="44.07014" lon="6.32661">
        <ele>1288.0848</ele>
        <time>2011-10-06T07:54:12.500Z</time>
      </trkpt>
      <trkpt lat="44.07023" lon="6.32664">
        <ele>1285.9512</ele>
        <time>2011-10-06T07:54:12.500Z</time>
      </trkpt>
      <trkpt lat="44.07034" lon="6.32664">
        <ele>1285.0368</ele>
        <time>2011-10-06T07:54:12.500Z</time>
      </trkpt>
      <trkpt lat="44.07043" lon="6.32663">
        <ele>1284.1224</ele>
        <time>2011-10-06T07:54:12.500Z</time>
      </trkpt>
      <trkpt lat="44.07054" lon="6.32663">
        <ele>1284.1224</ele>
        <time>2011-10-06T07:54:12.500Z</time>
      </trkpt>
      <trkpt lat="44.07063" lon="6.32663">
        <ele>1284.1224</ele>
        <time>2011-10-06T07:54:12.500Z</time>
      </trkpt>
      <trkpt lat="44.07072" lon="6.32661">
        <ele>1285.0368</ele>
        <time>2011-10-06T07:54:12.500Z</time>
      </trkpt>
      <trkpt lat="44.07083" lon="6.32661">
        <ele>1285.9512</ele>
        <time>2011-10-06T07:54:12.500Z</time>
      </trkpt>
      <trkpt lat="44.07094" lon="6.32665">
        <ele>1282.9032</ele>
        <time>2011-10-06T07:54:12.500Z</time>
      </trkpt>
      <trkpt lat="44.07102" lon="6.32671">
        <ele>1289.9136</ele>
        <time>2011-10-06T07:54:12.500Z</time>
      </trkpt>
      <trkpt lat="44.07111" lon="6.32679">
        <ele>1291.1328</ele>
        <time>2011-10-06T07:54:12.500Z</time>
      </trkpt>
      <trkpt lat="44.07119" lon="6.32689">
        <ele>1291.1328</ele>
        <time>2011-10-06T07:54:12.500Z</time>
      </trkpt>
      <trkpt lat="44.07127" lon="6.32697">
        <ele>1292.0472</ele>
        <time>2011-10-06T07:54:12.500Z</time>
      </trkpt>
      <trkpt lat="44.07135" lon="6.32706">
        <ele>1292.0472</ele>
        <time>2011-10-06T07:54:12.500Z</time>
      </trkpt>
      <trkpt lat="44.07142" lon="6.32714">
        <ele>1292.9616</ele>
        <time>2011-10-06T07:54:12.500Z</time>
      </trkpt>
      <trkpt lat="44.07149" lon="6.32721">
        <ele>1293.876</ele>
        <time>2011-10-06T07:54:12.500Z</time>
      </trkpt>
      <trkpt lat="44.07157" lon="6.32729">
        <ele>1295.0952</ele>
        <time>2011-10-06T07:54:12.500Z</time>
      </trkpt>
      <trkpt lat="44.07165" lon="6.32737">
        <ele>1296.0096</ele>
        <time>2011-10-06T07:54:12.500Z</time>
      </trkpt>
      <trkpt lat="44.07173" lon="6.32744">
        <ele>1292.9616</ele>
        <time>2011-10-06T07:54:12.500Z</time>
      </trkpt>
      <trkpt lat="44.07182" lon="6.3275">
        <ele>1291.1328</ele>
        <time>2011-10-06T07:54:12.500Z</time>
      </trkpt>
      <trkpt lat="44.07191" lon="6.32756">
        <ele>1300.8864</ele>
        <time>2011-10-06T07:54:12.500Z</time>
      </trkpt>
      <trkpt lat="44.07199" lon="6.32763">
        <ele>1300.8864</ele>
        <time>2011-10-06T07:54:12.500Z</time>
      </trkpt>
      <trkpt lat="44.07206" lon="6.32772">
        <ele>1302.1056</ele>
        <time>2011-10-06T07:54:12.500Z</time>
      </trkpt>
      <trkpt lat="44.07211" lon="6.32781">
        <ele>1303.02</ele>
        <time>2011-10-06T07:54:12.500Z</time>
      </trkpt>
      <trkpt lat="44.07217" lon="6.32791">
        <ele>1303.9344</ele>
        <time>2011-10-06T07:54:12.500Z</time>
      </trkpt>
      <trkpt lat="44.07224" lon="6.32798">
        <ele>1303.9344</ele>
        <time>2011-10-06T07:54:12.500Z</time>
      </trkpt>
      <trkpt lat="44.07233" lon="6.32801">
        <ele>1303.9344</ele>
        <time>2011-10-06T07:54:12.500Z</time>
      </trkpt>
      <trkpt lat="44.07241" lon="6.32806">
        <ele>1304.8488</ele>
        <time>2011-10-06T07:54:12.500Z</time>
      </trkpt>
      <trkpt lat="44.07249" lon="6.32815">
        <ele>1306.068</ele>
        <time>2011-10-06T07:54:12.500Z</time>
      </trkpt>
      <trkpt lat="44.07256" lon="6.32824">
        <ele>1304.8488</ele>
        <time>2011-10-06T07:54:12.500Z</time>
      </trkpt>
      <trkpt lat="44.07264" lon="6.32831">
        <ele>1303.9344</ele>
        <time>2011-10-06T07:54:12.500Z</time>
      </trkpt>
      <trkpt lat="44.07274" lon="6.32836">
        <ele>1316.1264</ele>
        <time>2011-10-06T07:54:12.500Z</time>
      </trkpt>
      <trkpt lat="44.07284" lon="6.32837">
        <ele>1317.0408</ele>
        <time>2011-10-06T07:54:12.500Z</time>
      </trkpt>
      <trkpt lat="44.07295" lon="6.32837">
        <ele>1317.0408</ele>
        <time>2011-10-06T07:54:12.500Z</time>
      </trkpt>
      <trkpt lat="44.07305" lon="6.3284">
        <ele>1316.1264</ele>
        <time>2011-10-06T07:54:12.500Z</time>
      </trkpt>
      <trkpt lat="44.07315" lon="6.32843">
        <ele>1313.9928</ele>
        <time>2011-10-06T07:54:12.500Z</time>
      </trkpt>
      <trkpt lat="44.07324" lon="6.32849">
        <ele>1313.0784</ele>
        <time>2011-10-06T07:54:12.500Z</time>
      </trkpt>
      <trkpt lat="44.07332" lon="6.32855">
        <ele>1314.9072</ele>
        <time>2011-10-06T07:54:12.500Z</time>
      </trkpt>
      <trkpt lat="44.07341" lon="6.32862">
        <ele>1313.0784</ele>
        <time>2011-10-06T07:54:12.500Z</time>
      </trkpt>
      <trkpt lat="44.07349" lon="6.32869">
        <ele>1313.9928</ele>
        <time>2011-10-06T07:54:12.500Z</time>
      </trkpt>
      <trkpt lat="44.07357" lon="6.32874">
        <ele>1314.9072</ele>
        <time>2011-10-06T07:54:12.500Z</time>
      </trkpt>
      <trkpt lat="44.07365" lon="6.32882">
        <ele>1316.1264</ele>
        <time>2011-10-06T07:54:12.500Z</time>
      </trkpt>
      <trkpt lat="44.0737" lon="6.32894">
        <ele>1317.0408</ele>
        <time>2011-10-06T07:54:12.500Z</time>
      </trkpt>
      <trkpt lat="44.07372" lon="6.32905">
        <ele>1317.9552</ele>
        <time>2011-10-06T07:54:12.500Z</time>
      </trkpt>
      <trkpt lat="44.07377" lon="6.32916">
        <ele>1317.9552</ele>
        <time>2011-10-06T07:54:12.500Z</time>
      </trkpt>
      <trkpt lat="44.07385" lon="6.32924">
        <ele>1332.8904</ele>
        <time>2011-10-06T07:54:12.500Z</time>
      </trkpt>
      <trkpt lat="44.07394" lon="6.3293">
        <ele>1331.0616</ele>
        <time>2011-10-06T07:54:12.500Z</time>
      </trkpt>
      <trkpt lat="44.07403" lon="6.32934">
        <ele>1330.1472</ele>
        <time>2011-10-06T07:54:12.500Z</time>
      </trkpt>
      <trkpt lat="44.07412" lon="6.3294">
        <ele>1331.0616</ele>
        <time>2011-10-06T07:54:12.500Z</time>
      </trkpt>
      <trkpt lat="44.0742" lon="6.32948">
        <ele>1323.1368</ele>
        <time>2011-10-06T07:54:12.500Z</time>
      </trkpt>
      <trkpt lat="44.07426" lon="6.32957">
        <ele>1324.0512</ele>
        <time>2011-10-06T07:54:12.500Z</time>
      </trkpt>
      <trkpt lat="44.07432" lon="6.32968">
        <ele>1325.88</ele>
        <time>2011-10-06T07:54:12.500Z</time>
      </trkpt>
      <trkpt lat="44.07438" lon="6.32979">
        <ele>1328.0136</ele>
        <time>2011-10-06T07:54:12.500Z</time>
      </trkpt>
      <trkpt lat="44.07445" lon="6.32989">
        <ele>1328.0136</ele>
        <time>2011-10-06T07:54:12.500Z</time>
      </trkpt>
      <trkpt lat="44.07451" lon="6.33">
        <ele>1327.0992</ele>
        <time>2011-10-06T07:54:12.500Z</time>
      </trkpt>
      <trkpt lat="44.07458" lon="6.3301">
        <ele>1341.12</ele>
        <time>2011-10-06T07:54:12.500Z</time>
      </trkpt>
      <trkpt lat="44.07465" lon="6.33019">
        <ele>1339.9008</ele>
        <time>2011-10-06T07:54:12.500Z</time>
      </trkpt>
      <trkpt lat="44.07472" lon="6.33028">
        <ele>1339.9008</ele>
        <time>2011-10-06T07:54:12.500Z</time>
      </trkpt>
      <trkpt lat="44.07479" lon="6.33039">
        <ele>1341.12</ele>
        <time>2011-10-06T07:54:12.500Z</time>
      </trkpt>
      <trkpt lat="44.07486" lon="6.33047">
        <ele>1342.0344</ele>
        <time>2011-10-06T07:54:12.500Z</time>
      </trkpt>
      <trkpt lat="44.07493" lon="6.33057">
        <ele>1342.0344</ele>
        <time>2011-10-06T07:54:12.500Z</time>
      </trkpt>
      <trkpt lat="44.07499" lon="6.33067">
        <ele>1342.9488</ele>
        <time>2011-10-06T07:54:12.500Z</time>
      </trkpt>
      <trkpt lat="44.07508" lon="6.33072">
        <ele>1335.024</ele>
        <time>2011-10-06T07:54:12.500Z</time>
      </trkpt>
      <trkpt lat="44.07517" lon="6.33076">
        <ele>1332.8904</ele>
        <time>2011-10-06T07:54:12.500Z</time>
      </trkpt>
      <trkpt lat="44.07526" lon="6.33078">
        <ele>1331.0616</ele>
        <time>2011-10-06T07:54:12.500Z</time>
      </trkpt>
      <trkpt lat="44.07535" lon="6.33081">
        <ele>1328.928</ele>
        <time>2011-10-06T07:54:12.500Z</time>
      </trkpt>
      <trkpt lat="44.07545" lon="6.33087">
        <ele>1345.0824</ele>
        <time>2011-10-06T07:54:12.500Z</time>
      </trkpt>
      <trkpt lat="44.07552" lon="6.33093">
        <ele>1343.8632</ele>
        <time>2011-10-06T07:54:12.500Z</time>
      </trkpt>
      <trkpt lat="44.07561" lon="6.331">
        <ele>1342.9488</ele>
        <time>2011-10-06T07:54:12.500Z</time>
      </trkpt>
      <trkpt lat="44.07569" lon="6.33108">
        <ele>1343.8632</ele>
        <time>2011-10-06T07:54:12.500Z</time>
      </trkpt>
      <trkpt lat="44.07576" lon="6.33116">
        <ele>1345.0824</ele>
        <time>2011-10-06T07:54:12.500Z</time>
      </trkpt>
      <trkpt lat="44.07567" lon="6.33116">
        <ele>1345.9968</ele>
        <time>2011-10-06T07:54:12.500Z</time>
      </trkpt>
      <trkpt lat="44.07557" lon="6.33113">
        <ele>1346.9112</ele>
        <time>2011-10-06T07:54:12.500Z</time>
      </trkpt>
      <trkpt lat="44.07548" lon="6.3311">
        <ele>1346.9112</ele>
        <time>2011-10-06T07:54:12.500Z</time>
      </trkpt>
      <trkpt lat="44.07539" lon="6.33109">
        <ele>1348.1304</ele>
        <time>2011-10-06T07:54:12.500Z</time>
      </trkpt>
      <trkpt lat="44.0753" lon="6.33109">
        <ele>1349.0448</ele>
        <time>2011-10-06T07:54:12.500Z</time>
      </trkpt>
      <trkpt lat="44.07519" lon="6.33107">
        <ele>1349.0448</ele>
        <time>2011-10-06T07:54:12.500Z</time>
      </trkpt>
      <trkpt lat="44.0751" lon="6.33104">
        <ele>1348.1304</ele>
        <time>2011-10-06T07:54:12.500Z</time>
      </trkpt>
      <trkpt lat="44.07501" lon="6.33106">
        <ele>1349.0448</ele>
        <time>2011-10-06T07:54:12.500Z</time>
      </trkpt>
      <trkpt lat="44.07492" lon="6.3311">
        <ele>1363.98</ele>
        <time>2011-10-06T07:54:12.500Z</time>
      </trkpt>
      <trkpt lat="44.07482" lon="6.33109">
        <ele>1366.1136</ele>
        <time>2011-10-06T07:54:12.500Z</time>
      </trkpt>
      <trkpt lat="44.07475" lon="6.33103">
        <ele>1366.1136</ele>
        <time>2011-10-06T07:54:12.500Z</time>
      </trkpt>
      <trkpt lat="44.07466" lon="6.33098">
        <ele>1367.028</ele>
        <time>2011-10-06T07:54:12.500Z</time>
      </trkpt>
      <trkpt lat="44.07456" lon="6.33094">
        <ele>1368.8568</ele>
        <time>2011-10-06T07:54:12.500Z</time>
      </trkpt>
      <trkpt lat="44.07447" lon="6.33089">
        <ele>1370.9904</ele>
        <time>2011-10-06T07:54:12.500Z</time>
      </trkpt>
      <trkpt lat="44.07439" lon="6.33081">
        <ele>1356.0552</ele>
        <time>2011-10-06T07:54:12.500Z</time>
      </trkpt>
      <trkpt lat="44.07432" lon="6.33072">
        <ele>1356.9696</ele>
        <time>2011-10-06T07:54:12.500Z</time>
      </trkpt>
      <trkpt lat="44.07425" lon="6.33064">
        <ele>1356.9696</ele>
        <time>2011-10-06T07:54:12.500Z</time>
      </trkpt>
      <trkpt lat="44.07416" lon="6.33058">
        <ele>1368.8568</ele>
        <time>2011-10-06T07:54:12.500Z</time>
      </trkpt>
      <trkpt lat="44.07408" lon="6.33053">
        <ele>1367.9424</ele>
        <time>2011-10-06T07:54:12.500Z</time>
      </trkpt>
      <trkpt lat="44.07414" lon="6.33064">
        <ele>1370.076</ele>
        <time>2011-10-06T07:54:12.500Z</time>
      </trkpt>
      <trkpt lat="44.0742" lon="6.33073">
        <ele>1363.0656</ele>
        <time>2011-10-06T07:54:12.500Z</time>
      </trkpt>
      <trkpt lat="44.07426" lon="6.33084">
        <ele>1371.9048</ele>
        <time>2011-10-06T07:54:12.500Z</time>
      </trkpt>
      <trkpt lat="44.07431" lon="6.33096">
        <ele>1373.124</ele>
        <time>2011-10-06T07:54:12.500Z</time>
      </trkpt>
      <trkpt lat="44.07436" lon="6.33108">
        <ele>1374.0384</ele>
        <time>2011-10-06T07:54:12.500Z</time>
      </trkpt>
      <trkpt lat="44.07442" lon="6.33118">
        <ele>1374.9528</ele>
        <time>2011-10-06T07:54:12.500Z</time>
      </trkpt>
      <trkpt lat="44.07448" lon="6.33128">
        <ele>1377.0864</ele>
        <time>2011-10-06T07:54:12.500Z</time>
      </trkpt>
      <trkpt lat="44.07455" lon="6.33136">
        <ele>1377.0864</ele>
        <time>2011-10-06T07:54:12.500Z</time>
      </trkpt>
      <trkpt lat="44.07462" lon="6.33144">
        <ele>1377.0864</ele>
        <time>2011-10-06T07:54:12.500Z</time>
      </trkpt>
      <trkpt lat="44.0747" lon="6.33151">
        <ele>1377.0864</ele>
        <time>2011-10-06T07:54:12.500Z</time>
      </trkpt>
      <trkpt lat="44.07478" lon="6.33158">
        <ele>1377.0864</ele>
        <time>2011-10-06T07:54:12.500Z</time>
      </trkpt>
      <trkpt lat="44.07487" lon="6.33165">
        <ele>1377.0864</ele>
        <time>2011-10-06T07:54:12.500Z</time>
      </trkpt>
      <trkpt lat="44.07495" lon="6.33172">
        <ele>1385.9256</ele>
        <time>2011-10-06T07:54:12.500Z</time>
      </trkpt>
      <trkpt lat="44.07502" lon="6.33179">
        <ele>1380.1344</ele>
        <time>2011-10-06T07:54:12.500Z</time>
      </trkpt>
      <trkpt lat="44.07509" lon="6.33188">
        <ele>1381.0488</ele>
        <time>2011-10-06T07:54:12.500Z</time>
      </trkpt>
      <trkpt lat="44.07516" lon="6.33196">
        <ele>1381.9632</ele>
        <time>2011-10-06T07:54:12.500Z</time>
      </trkpt>
      <trkpt lat="44.07522" lon="6.33205">
        <ele>1384.0968</ele>
        <time>2011-10-06T07:54:12.500Z</time>
      </trkpt>
      <trkpt lat="44.07527" lon="6.33216">
        <ele>1385.0112</ele>
        <time>2011-10-06T07:54:12.500Z</time>
      </trkpt>
      <trkpt lat="44.07534" lon="6.33224">
        <ele>1385.9256</ele>
        <time>2011-10-06T07:54:12.500Z</time>
      </trkpt>
      <trkpt lat="44.07543" lon="6.33231">
        <ele>1385.0112</ele>
        <time>2011-10-06T07:54:12.500Z</time>
      </trkpt>
      <trkpt lat="44.07549" lon="6.3324">
        <ele>1385.0112</ele>
        <time>2011-10-06T07:54:12.500Z</time>
      </trkpt>
      <trkpt lat="44.07557" lon="6.33247">
        <ele>1384.0968</ele>
        <time>2011-10-06T07:54:12.500Z</time>
      </trkpt>
      <trkpt lat="44.07566" lon="6.33252">
        <ele>1399.032</ele>
        <time>2011-10-06T07:54:12.500Z</time>
      </trkpt>
      <trkpt lat="44.07574" lon="6.33259">
        <ele>1396.8984</ele>
        <time>2011-10-06T07:54:12.500Z</time>
      </trkpt>
      <trkpt lat="44.07582" lon="6.33266">
        <ele>1398.1176</ele>
        <time>2011-10-06T07:54:12.500Z</time>
      </trkpt>
      <trkpt lat="44.0759" lon="6.33272">
        <ele>1391.1072</ele>
        <time>2011-10-06T07:54:12.500Z</time>
      </trkpt>
      <trkpt lat="44.07597" lon="6.33279">
        <ele>1392.936</ele>
        <time>2011-10-06T07:54:12.500Z</time>
      </trkpt>
      <trkpt lat="44.07602" lon="6.33289">
        <ele>1395.0696</ele>
        <time>2011-10-06T07:54:12.500Z</time>
      </trkpt>
      <trkpt lat="44.0761" lon="6.33297">
        <ele>1396.8984</ele>
        <time>2011-10-06T07:54:12.500Z</time>
      </trkpt>
      <trkpt lat="44.07618" lon="6.33302">
        <ele>1396.8984</ele>
        <time>2011-10-06T07:54:12.500Z</time>
      </trkpt>
      <trkpt lat="44.07627" lon="6.33308">
        <ele>1396.8984</ele>
        <time>2011-10-06T07:54:12.500Z</time>
      </trkpt>
      <trkpt lat="44.07634" lon="6.33316">
        <ele>1398.1176</ele>
        <time>2011-10-06T07:54:12.500Z</time>
      </trkpt>
      <trkpt lat="44.07641" lon="6.33323">
        <ele>1398.1176</ele>
        <time>2011-10-06T07:54:12.500Z</time>
      </trkpt>
      <trkpt lat="44.07648" lon="6.33331">
        <ele>1399.032</ele>
        <time>2011-10-06T07:54:12.500Z</time>
      </trkpt>
      <trkpt lat="44.07656" lon="6.33337">
        <ele>1413.0528</ele>
        <time>2011-10-06T07:54:12.500Z</time>
      </trkpt>
      <trkpt lat="44.07664" lon="6.33344">
        <ele>1413.0528</ele>
        <time>2011-10-06T07:54:12.500Z</time>
      </trkpt>
      <trkpt lat="44.07671" lon="6.33351">
        <ele>1409.0904</ele>
        <time>2011-10-06T07:54:12.500Z</time>
      </trkpt>
      <trkpt lat="44.07679" lon="6.33358">
        <ele>1410.9192</ele>
        <time>2011-10-06T07:54:12.500Z</time>
      </trkpt>
      <trkpt lat="44.07687" lon="6.33363">
        <ele>1413.0528</ele>
        <time>2011-10-06T07:54:12.500Z</time>
      </trkpt>
      <trkpt lat="44.07695" lon="6.33368">
        <ele>1413.0528</ele>
        <time>2011-10-06T07:54:12.500Z</time>
      </trkpt>
      <trkpt lat="44.07704" lon="6.33373">
        <ele>1413.9672</ele>
        <time>2011-10-06T07:54:12.500Z</time>
      </trkpt>
      <trkpt lat="44.07712" lon="6.33379">
        <ele>1413.9672</ele>
        <time>2011-10-06T07:54:12.500Z</time>
      </trkpt>
      <trkpt lat="44.07721" lon="6.33384">
        <ele>1414.8816</ele>
        <time>2011-10-06T07:54:12.500Z</time>
      </trkpt>
      <trkpt lat="44.0773" lon="6.3339">
        <ele>1416.1008</ele>
        <time>2011-10-06T07:54:12.500Z</time>
      </trkpt>
      <trkpt lat="44.07738" lon="6.33397">
        <ele>1417.9296</ele>
        <time>2011-10-06T07:54:12.500Z</time>
      </trkpt>
      <trkpt lat="44.07747" lon="6.33403">
        <ele>1420.0632</ele>
        <time>2011-10-06T07:54:12.500Z</time>
      </trkpt>
      <trkpt lat="44.07756" lon="6.33408">
        <ele>1417.0152</ele>
        <time>2011-10-06T07:54:12.500Z</time>
      </trkpt>
      <trkpt lat="44.07763" lon="6.33415">
        <ele>1416.1008</ele>
        <time>2011-10-06T07:54:12.500Z</time>
      </trkpt>
      <trkpt lat="44.07772" lon="6.3342">
        <ele>1431.036</ele>
        <time>2011-10-06T07:54:12.500Z</time>
      </trkpt>
      <trkpt lat="44.0778" lon="6.33426">
        <ele>1431.9504</ele>
        <time>2011-10-06T07:54:12.500Z</time>
      </trkpt>
      <trkpt lat="44.07789" lon="6.33433">
        <ele>1432.8648</ele>
        <time>2011-10-06T07:54:12.500Z</time>
      </trkpt>
      <trkpt lat="44.07798" lon="6.33436">
        <ele>1432.8648</ele>
        <time>2011-10-06T07:54:12.500Z</time>
      </trkpt>
      <trkpt lat="44.07806" lon="6.33441">
        <ele>1432.8648</ele>
        <time>2011-10-06T07:54:12.500Z</time>
      </trkpt>
      <trkpt lat="44.07816" lon="6.33445">
        <ele>1432.8648</ele>
        <time>2011-10-06T07:54:12.500Z</time>
      </trkpt>
      <trkpt lat="44.07826" lon="6.33449">
        <ele>1432.8648</ele>
        <time>2011-10-06T07:54:12.500Z</time>
      </trkpt>
      <trkpt lat="44.07834" lon="6.33454">
        <ele>1430.1216</ele>
        <time>2011-10-06T07:54:12.500Z</time>
      </trkpt>
      <trkpt lat="44.07844" lon="6.33459">
        <ele>1431.036</ele>
        <time>2011-10-06T07:54:12.500Z</time>
      </trkpt>
      <trkpt lat="44.07852" lon="6.33464">
        <ele>1432.8648</ele>
        <time>2011-10-06T07:54:12.500Z</time>
      </trkpt>
      <trkpt lat="44.07861" lon="6.33468">
        <ele>1432.8648</ele>
        <time>2011-10-06T07:54:12.500Z</time>
      </trkpt>
      <trkpt lat="44.0787" lon="6.33474">
        <ele>1434.084</ele>
        <time>2011-10-06T07:54:12.500Z</time>
      </trkpt>
      <trkpt lat="44.07879" lon="6.33477">
        <ele>1434.084</ele>
        <time>2011-10-06T07:54:12.500Z</time>
      </trkpt>
      <trkpt lat="44.07888" lon="6.33477">
        <ele>1434.084</ele>
        <time>2011-10-06T07:54:12.500Z</time>
      </trkpt>
      <trkpt lat="44.07897" lon="6.33479">
        <ele>1434.9984</ele>
        <time>2011-10-06T07:54:12.500Z</time>
      </trkpt>
      <trkpt lat="44.07907" lon="6.33482">
        <ele>1435.9128</ele>
        <time>2011-10-06T07:54:12.500Z</time>
      </trkpt>
      <trkpt lat="44.07915" lon="6.33487">
        <ele>1438.0464</ele>
        <time>2011-10-06T07:54:12.500Z</time>
      </trkpt>
      <trkpt lat="44.07923" lon="6.33492">
        <ele>1438.0464</ele>
        <time>2011-10-06T07:54:12.500Z</time>
      </trkpt>
      <trkpt lat="44.07932" lon="6.33496">
        <ele>1435.9128</ele>
        <time>2011-10-06T07:54:12.500Z</time>
      </trkpt>
      <trkpt lat="44.07942" lon="6.33498">
        <ele>1434.084</ele>
        <time>2011-10-06T07:54:12.500Z</time>
      </trkpt>
      <trkpt lat="44.07952" lon="6.33501">
        <ele>1455.1152</ele>
        <time>2011-10-06T07:54:12.500Z</time>
      </trkpt>
      <trkpt lat="44.07962" lon="6.33503">
        <ele>1456.0296</ele>
        <time>2011-10-06T07:54:12.500Z</time>
      </trkpt>
      <trkpt lat="44.07971" lon="6.33506">
        <ele>1455.1152</ele>
        <time>2011-10-06T07:54:12.500Z</time>
      </trkpt>
      <trkpt lat="44.0798" lon="6.3351">
        <ele>1453.896</ele>
        <time>2011-10-06T07:54:12.500Z</time>
      </trkpt>
      <trkpt lat="44.07989" lon="6.33514">
        <ele>1452.9816</ele>
        <time>2011-10-06T07:54:12.500Z</time>
      </trkpt>
      <trkpt lat="44.07999" lon="6.33516">
        <ele>1452.9816</ele>
        <time>2011-10-06T07:54:12.500Z</time>
      </trkpt>
      <trkpt lat="44.08008" lon="6.33518">
        <ele>1449.0192</ele>
        <time>2011-10-06T07:54:12.500Z</time>
      </trkpt>
      <trkpt lat="44.08017" lon="6.3352">
        <ele>1449.9336</ele>
        <time>2011-10-06T07:54:12.500Z</time>
      </trkpt>
      <trkpt lat="44.08027" lon="6.33523">
        <ele>1450.848</ele>
        <time>2011-10-06T07:54:12.500Z</time>
      </trkpt>
      <trkpt lat="44.08022" lon="6.33533">
        <ele>1453.896</ele>
        <time>2011-10-06T07:54:12.500Z</time>
      </trkpt>
      <trkpt lat="44.08012" lon="6.33535">
        <ele>1455.1152</ele>
        <time>2011-10-06T07:54:12.500Z</time>
      </trkpt>
      <trkpt lat="44.08003" lon="6.3354">
        <ele>1456.0296</ele>
        <time>2011-10-06T07:54:12.500Z</time>
      </trkpt>
      <trkpt lat="44.07996" lon="6.33547">
        <ele>1464.8688</ele>
        <time>2011-10-06T07:54:12.500Z</time>
      </trkpt>
      <trkpt lat="44.07987" lon="6.33549">
        <ele>1466.088</ele>
        <time>2011-10-06T07:54:12.500Z</time>
      </trkpt>
      <trkpt lat="44.07978" lon="6.33552">
        <ele>1466.088</ele>
        <time>2011-10-06T07:54:12.500Z</time>
      </trkpt>
      <trkpt lat="44.07969" lon="6.33556">
        <ele>1467.0024</ele>
        <time>2011-10-06T07:54:12.500Z</time>
      </trkpt>
      <trkpt lat="44.0796" lon="6.33558">
        <ele>1467.0024</ele>
        <time>2011-10-06T07:54:12.500Z</time>
      </trkpt>
      <trkpt lat="44.07952" lon="6.33563">
        <ele>1467.9168</ele>
        <time>2011-10-06T07:54:12.500Z</time>
      </trkpt>
      <trkpt lat="44.07943" lon="6.33567">
        <ele>1470.0504</ele>
        <time>2011-10-06T07:54:12.500Z</time>
      </trkpt>
      <trkpt lat="44.07935" lon="6.3357">
        <ele>1471.8792</ele>
        <time>2011-10-06T07:54:12.500Z</time>
      </trkpt>
      <trkpt lat="44.07926" lon="6.33573">
        <ele>1474.9272</ele>
        <time>2011-10-06T07:54:12.500Z</time>
      </trkpt>
      <trkpt lat="44.07917" lon="6.33576">
        <ele>1477.9752</ele>
        <time>2011-10-06T07:54:12.500Z</time>
      </trkpt>
      <trkpt lat="44.07908" lon="6.33578">
        <ele>1478.8896</ele>
        <time>2011-10-06T07:54:12.500Z</time>
      </trkpt>
      <trkpt lat="44.07899" lon="6.33579">
        <ele>1477.0608</ele>
        <time>2011-10-06T07:54:12.500Z</time>
      </trkpt>
      <trkpt lat="44.07905" lon="6.33589">
        <ele>1494.1296</ele>
        <time>2011-10-06T07:54:12.500Z</time>
      </trkpt>
      <trkpt lat="44.07913" lon="6.33595">
        <ele>1494.1296</ele>
        <time>2011-10-06T07:54:12.500Z</time>
      </trkpt>
      <trkpt lat="44.07921" lon="6.33601">
        <ele>1495.044</ele>
        <time>2011-10-06T07:54:12.500Z</time>
      </trkpt>
      <trkpt lat="44.0793" lon="6.33602">
        <ele>1495.9584</ele>
        <time>2011-10-06T07:54:12.500Z</time>
      </trkpt>
      <trkpt lat="44.0794" lon="6.33604">
        <ele>1498.092</ele>
        <time>2011-10-06T07:54:12.500Z</time>
      </trkpt>
      <trkpt lat="44.0795" lon="6.33607">
        <ele>1499.0064</ele>
        <time>2011-10-06T07:54:12.500Z</time>
      </trkpt>
      <trkpt lat="44.0796" lon="6.3361">
        <ele>1499.9208</ele>
        <time>2011-10-06T07:54:12.500Z</time>
      </trkpt>
      <trkpt lat="44.07969" lon="6.33612">
        <ele>1499.9208</ele>
        <time>2011-10-06T07:54:12.500Z</time>
      </trkpt>
      <trkpt lat="44.07977" lon="6.33616">
        <ele>1501.14</ele>
        <time>2011-10-06T07:54:12.500Z</time>
      </trkpt>
      <trkpt lat="44.07986" lon="6.3362">
        <ele>1502.0544</ele>
        <time>2011-10-06T07:54:12.500Z</time>
      </trkpt>
      <trkpt lat="44.07995" lon="6.33621">
        <ele>1502.0544</ele>
        <time>2011-10-06T07:54:12.500Z</time>
      </trkpt>
      <trkpt lat="44.08003" lon="6.33625">
        <ele>1496.8728</ele>
        <time>2011-10-06T07:54:12.500Z</time>
      </trkpt>
      <trkpt lat="44.08012" lon="6.33629">
        <ele>1496.8728</ele>
        <time>2011-10-06T07:54:12.500Z</time>
      </trkpt>
      <trkpt lat="44.0802" lon="6.33632">
        <ele>1498.092</ele>
        <time>2011-10-06T07:54:12.500Z</time>
      </trkpt>
      <trkpt lat="44.0803" lon="6.33635">
        <ele>1496.8728</ele>
        <time>2011-10-06T07:54:12.500Z</time>
      </trkpt>
      <trkpt lat="44.08038" lon="6.33642">
        <ele>1498.092</ele>
        <time>2011-10-06T07:54:12.500Z</time>
      </trkpt>
      <trkpt lat="44.08046" lon="6.33648">
        <ele>1498.092</ele>
        <time>2011-10-06T07:54:12.500Z</time>
      </trkpt>
      <trkpt lat="44.08054" lon="6.33655">
        <ele>1499.0064</ele>
        <time>2011-10-06T07:54:12.500Z</time>
      </trkpt>
      <trkpt lat="44.08046" lon="6.33663">
        <ele>1499.9208</ele>
        <time>2011-10-06T07:54:12.500Z</time>
      </trkpt>
      <trkpt lat="44.08037" lon="6.33662">
        <ele>1501.14</ele>
        <time>2011-10-06T07:54:12.500Z</time>
      </trkpt>
      <trkpt lat="44.08028" lon="6.33662">
        <ele>1503.8832</ele>
        <time>2011-10-06T07:54:12.500Z</time>
      </trkpt>
      <trkpt lat="44.08018" lon="6.33661">
        <ele>1506.9312</ele>
        <time>2011-10-06T07:54:12.500Z</time>
      </trkpt>
      <trkpt lat="44.08009" lon="6.33663">
        <ele>1513.0272</ele>
        <time>2011-10-06T07:54:12.500Z</time>
      </trkpt>
      <trkpt lat="44.08" lon="6.33667">
        <ele>1523.0856</ele>
        <time>2011-10-06T07:54:12.500Z</time>
      </trkpt>
      <trkpt lat="44.0799" lon="6.3367">
        <ele>1530.096</ele>
        <time>2011-10-06T07:54:12.500Z</time>
      </trkpt>
      <trkpt lat="44.0798" lon="6.33669">
        <ele>1534.9728</ele>
        <time>2011-10-06T07:54:12.500Z</time>
      </trkpt>
      <trkpt lat="44.07971" lon="6.33672">
        <ele>1537.1064</ele>
        <time>2011-10-06T07:54:12.500Z</time>
      </trkpt>
      <trkpt lat="44.0796" lon="6.33673">
        <ele>1538.9352</ele>
        <time>2011-10-06T07:54:12.500Z</time>
      </trkpt>
      <trkpt lat="44.07951" lon="6.33673">
        <ele>1538.9352</ele>
        <time>2011-10-06T07:54:12.500Z</time>
      </trkpt>
      <trkpt lat="44.07941" lon="6.33674">
        <ele>1538.0208</ele>
        <time>2011-10-06T07:54:12.500Z</time>
      </trkpt>
      <trkpt lat="44.07932" lon="6.33676">
        <ele>1535.8872</ele>
        <time>2011-10-06T07:54:12.500Z</time>
      </trkpt>
      <trkpt lat="44.07923" lon="6.33679">
        <ele>1534.9728</ele>
        <time>2011-10-06T07:54:12.500Z</time>
      </trkpt>
      <trkpt lat="44.07913" lon="6.33677">
        <ele>1534.9728</ele>
        <time>2011-10-06T07:54:12.500Z</time>
      </trkpt>
      <trkpt lat="44.07904" lon="6.33674">
        <ele>1538.0208</ele>
        <time>2011-10-06T07:54:12.500Z</time>
      </trkpt>
      <trkpt lat="44.07895" lon="6.33676">
        <ele>1541.0688</ele>
        <time>2011-10-06T07:54:12.500Z</time>
      </trkpt>
      <trkpt lat="44.07885" lon="6.33676">
        <ele>1544.1168</ele>
        <time>2011-10-06T07:54:12.500Z</time>
      </trkpt>
      <trkpt lat="44.07875" lon="6.33674">
        <ele>1545.0312</ele>
        <time>2011-10-06T07:54:12.500Z</time>
      </trkpt>
      <trkpt lat="44.07866" lon="6.33673">
        <ele>1545.0312</ele>
        <time>2011-10-06T07:54:12.500Z</time>
      </trkpt>
      <trkpt lat="44.07857" lon="6.33673">
        <ele>1544.1168</ele>
        <time>2011-10-06T07:54:12.500Z</time>
      </trkpt>
      <trkpt lat="44.07847" lon="6.33671">
        <ele>1541.0688</ele>
        <time>2011-10-06T07:54:12.500Z</time>
      </trkpt>
      <trkpt lat="44.07837" lon="6.33669">
        <ele>1537.1064</ele>
        <time>2011-10-06T07:54:12.500Z</time>
      </trkpt>
      <trkpt lat="44.07828" lon="6.33668">
        <ele>1541.0688</ele>
        <time>2011-10-06T07:54:12.500Z</time>
      </trkpt>
      <trkpt lat="44.07818" lon="6.33669">
        <ele>1548.0792</ele>
        <time>2011-10-06T07:54:12.500Z</time>
      </trkpt>
      <trkpt lat="44.07827" lon="6.33674">
        <ele>1544.1168</ele>
        <time>2011-10-06T07:54:12.500Z</time>
      </trkpt>
      <trkpt lat="44.07835" lon="6.33682">
        <ele>1542.8976</ele>
        <time>2011-10-06T07:54:12.500Z</time>
      </trkpt>
      <trkpt lat="44.07843" lon="6.33685">
        <ele>1545.0312</ele>
        <time>2011-10-06T07:54:12.500Z</time>
      </trkpt>
      <trkpt lat="44.07852" lon="6.33688">
        <ele>1546.86</ele>
        <time>2011-10-06T07:54:12.500Z</time>
      </trkpt>
      <trkpt lat="44.07861" lon="6.33693">
        <ele>1548.9936</ele>
        <time>2011-10-06T07:54:12.500Z</time>
      </trkpt>
      <trkpt lat="44.07868" lon="6.337">
        <ele>1549.908</ele>
        <time>2011-10-06T07:54:12.500Z</time>
      </trkpt>
      <trkpt lat="44.07877" lon="6.33707">
        <ele>1552.0416</ele>
        <time>2011-10-06T07:54:12.500Z</time>
      </trkpt>
      <trkpt lat="44.07886" lon="6.33712">
        <ele>1552.956</ele>
        <time>2011-10-06T07:54:12.500Z</time>
      </trkpt>
      <trkpt lat="44.07896" lon="6.33715">
        <ele>1552.956</ele>
        <time>2011-10-06T07:54:12.500Z</time>
      </trkpt>
      <trkpt lat="44.07905" lon="6.33717">
        <ele>1553.8704</ele>
        <time>2011-10-06T07:54:12.500Z</time>
      </trkpt>
      <trkpt lat="44.07913" lon="6.33724">
        <ele>1556.9184</ele>
        <time>2011-10-06T07:54:12.500Z</time>
      </trkpt>
      <trkpt lat="44.07922" lon="6.33726">
        <ele>1555.0896</ele>
        <time>2011-10-06T07:54:12.500Z</time>
      </trkpt>
      <trkpt lat="44.0793" lon="6.3373">
        <ele>1555.0896</ele>
        <time>2011-10-06T07:54:12.500Z</time>
      </trkpt>
      <trkpt lat="44.0794" lon="6.33732">
        <ele>1553.8704</ele>
        <time>2011-10-06T07:54:12.500Z</time>
      </trkpt>
      <trkpt lat="44.07949" lon="6.33734">
        <ele>1553.8704</ele>
        <time>2011-10-06T07:54:12.500Z</time>
      </trkpt>
      <trkpt lat="44.07958" lon="6.33735">
        <ele>1553.8704</ele>
        <time>2011-10-06T07:54:12.500Z</time>
      </trkpt>
      <trkpt lat="44.07968" lon="6.33736">
        <ele>1553.8704</ele>
        <time>2011-10-06T07:54:12.500Z</time>
      </trkpt>
      <trkpt lat="44.07976" lon="6.3374">
        <ele>1556.004</ele>
        <time>2011-10-06T07:54:12.500Z</time>
      </trkpt>
      <trkpt lat="44.07986" lon="6.33745">
        <ele>1559.9664</ele>
        <time>2011-10-06T07:54:12.500Z</time>
      </trkpt>
      <trkpt lat="44.07994" lon="6.33751">
        <ele>1577.0352</ele>
        <time>2011-10-06T07:54:12.500Z</time>
      </trkpt>
      <trkpt lat="44.08003" lon="6.33756">
        <ele>1574.9016</ele>
        <time>2011-10-06T07:54:12.500Z</time>
      </trkpt>
      <trkpt lat="44.08011" lon="6.33761">
        <ele>1578.864</ele>
        <time>2011-10-06T07:54:12.500Z</time>
      </trkpt>
      <trkpt lat="44.0802" lon="6.33766">
        <ele>1581.912</ele>
        <time>2011-10-06T07:54:12.500Z</time>
      </trkpt>
      <trkpt lat="44.08028" lon="6.3377">
        <ele>1583.1312</ele>
        <time>2011-10-06T07:54:12.500Z</time>
      </trkpt>
      <trkpt lat="44.08021" lon="6.33778">
        <ele>1585.8744</ele>
        <time>2011-10-06T07:54:12.500Z</time>
      </trkpt>
      <trkpt lat="44.08011" lon="6.33779">
        <ele>1587.0936</ele>
        <time>2011-10-06T07:54:12.500Z</time>
      </trkpt>
      <trkpt lat="44.08002" lon="6.33782">
        <ele>1588.008</ele>
        <time>2011-10-06T07:54:12.500Z</time>
      </trkpt>
      <trkpt lat="44.07993" lon="6.33782">
        <ele>1595.9328</ele>
        <time>2011-10-06T07:54:12.500Z</time>
      </trkpt>
      <trkpt lat="44.07984" lon="6.33782">
        <ele>1595.9328</ele>
        <time>2011-10-06T07:54:12.500Z</time>
      </trkpt>
      <trkpt lat="44.07976" lon="6.33787">
        <ele>1598.9808</ele>
        <time>2011-10-06T07:54:12.500Z</time>
      </trkpt>
      <trkpt lat="44.07967" lon="6.3379">
        <ele>1599.8952</ele>
        <time>2011-10-06T07:54:12.500Z</time>
      </trkpt>
      <trkpt lat="44.07957" lon="6.3379">
        <ele>1599.8952</ele>
        <time>2011-10-06T07:54:12.500Z</time>
      </trkpt>
      <trkpt lat="44.07948" lon="6.33793">
        <ele>1602.0288</ele>
        <time>2011-10-06T07:54:12.500Z</time>
      </trkpt>
      <trkpt lat="44.07939" lon="6.33796">
        <ele>1602.9432</ele>
        <time>2011-10-06T07:54:12.500Z</time>
      </trkpt>
      <trkpt lat="44.07932" lon="6.33804">
        <ele>1606.9056</ele>
        <time>2011-10-06T07:54:12.500Z</time>
      </trkpt>
      <trkpt lat="44.07923" lon="6.33806">
        <ele>1609.0392</ele>
        <time>2011-10-06T07:54:12.500Z</time>
      </trkpt>
      <trkpt lat="44.07914" lon="6.33798">
        <ele>1605.9912</ele>
        <time>2011-10-06T07:54:12.500Z</time>
      </trkpt>
      <trkpt lat="44.07905" lon="6.33797">
        <ele>1605.0768</ele>
        <time>2011-10-06T07:54:12.500Z</time>
      </trkpt>
      <trkpt lat="44.07896" lon="6.33797">
        <ele>1605.0768</ele>
        <time>2011-10-06T07:54:12.500Z</time>
      </trkpt>
      <trkpt lat="44.07888" lon="6.33804">
        <ele>1606.9056</ele>
        <time>2011-10-06T07:54:12.500Z</time>
      </trkpt>
      <trkpt lat="44.07881" lon="6.33811">
        <ele>1609.0392</ele>
        <time>2011-10-06T07:54:12.500Z</time>
      </trkpt>
      <trkpt lat="44.07872" lon="6.33814">
        <ele>1609.9536</ele>
        <time>2011-10-06T07:54:12.500Z</time>
      </trkpt>
      <trkpt lat="44.07866" lon="6.33824">
        <ele>1613.0016</ele>
        <time>2011-10-06T07:54:12.500Z</time>
      </trkpt>
      <trkpt lat="44.07875" lon="6.33828">
        <ele>1613.0016</ele>
        <time>2011-10-06T07:54:12.500Z</time>
      </trkpt>
      <trkpt lat="44.07884" lon="6.33829">
        <ele>1613.916</ele>
        <time>2011-10-06T07:54:12.500Z</time>
      </trkpt>
      <trkpt lat="44.07892" lon="6.33825">
        <ele>1615.1352</ele>
        <time>2011-10-06T07:54:12.500Z</time>
      </trkpt>
      <trkpt lat="44.07901" lon="6.33829">
        <ele>1620.012</ele>
        <time>2011-10-06T07:54:12.500Z</time>
      </trkpt>
      <trkpt lat="44.07894" lon="6.33838">
        <ele>1644.0912</ele>
        <time>2011-10-06T07:54:12.500Z</time>
      </trkpt>
      <trkpt lat="44.07886" lon="6.33847">
        <ele>1647.1392</ele>
        <time>2011-10-06T07:54:12.500Z</time>
      </trkpt>
      <trkpt lat="44.07877" lon="6.33846">
        <ele>1647.1392</ele>
        <time>2011-10-06T07:54:12.500Z</time>
      </trkpt>
      <trkpt lat="44.07885" lon="6.33853">
        <ele>1648.0536</ele>
        <time>2011-10-06T07:54:12.500Z</time>
      </trkpt>
      <trkpt lat="44.07891" lon="6.33863">
        <ele>1649.8824</ele>
        <time>2011-10-06T07:54:12.500Z</time>
      </trkpt>
      <trkpt lat="44.079" lon="6.33862">
        <ele>1648.968</ele>
        <time>2011-10-06T07:54:12.500Z</time>
      </trkpt>
      <trkpt lat="44.07905" lon="6.33851">
        <ele>1645.0056</ele>
        <time>2011-10-06T07:54:12.500Z</time>
      </trkpt>
      <trkpt lat="44.07913" lon="6.33846">
        <ele>1641.9576</ele>
        <time>2011-10-06T07:54:12.500Z</time>
      </trkpt>
      <trkpt lat="44.07921" lon="6.33852">
        <ele>1644.0912</ele>
        <time>2011-10-06T07:54:12.500Z</time>
      </trkpt>
      <trkpt lat="44.07929" lon="6.33857">
        <ele>1645.92</ele>
        <time>2011-10-06T07:54:12.500Z</time>
      </trkpt>
      <trkpt lat="44.07938" lon="6.3386">
        <ele>1647.1392</ele>
        <time>2011-10-06T07:54:12.500Z</time>
      </trkpt>
      <trkpt lat="44.07947" lon="6.33863">
        <ele>1648.0536</ele>
        <time>2011-10-06T07:54:12.500Z</time>
      </trkpt>
      <trkpt lat="44.07956" lon="6.3386">
        <ele>1648.0536</ele>
        <time>2011-10-06T07:54:12.500Z</time>
      </trkpt>
      <trkpt lat="44.07964" lon="6.33864">
        <ele>1648.0536</ele>
        <time>2011-10-06T07:54:12.500Z</time>
      </trkpt>
      <trkpt lat="44.07969" lon="6.33875">
        <ele>1651.1016</ele>
        <time>2011-10-06T07:54:12.500Z</time>
      </trkpt>
      <trkpt lat="44.07978" lon="6.33876">
        <ele>1651.1016</ele>
        <time>2011-10-06T07:54:12.500Z</time>
      </trkpt>
      <trkpt lat="44.07987" lon="6.33875">
        <ele>1649.8824</ele>
        <time>2011-10-06T07:54:12.500Z</time>
      </trkpt>
      <trkpt lat="44.07995" lon="6.33868">
        <ele>1648.0536</ele>
        <time>2011-10-06T07:54:12.500Z</time>
      </trkpt>
      <trkpt lat="44.08004" lon="6.3387">
        <ele>1641.0432</ele>
        <time>2011-10-06T07:54:12.500Z</time>
      </trkpt>
      <trkpt lat="44.08013" lon="6.3387">
        <ele>1641.0432</ele>
        <time>2011-10-06T07:54:12.500Z</time>
      </trkpt>
      <trkpt lat="44.08023" lon="6.33872">
        <ele>1640.1288</ele>
        <time>2011-10-06T07:54:12.500Z</time>
      </trkpt>
      <trkpt lat="44.08032" lon="6.33876">
        <ele>1641.0432</ele>
        <time>2011-10-06T07:54:12.500Z</time>
      </trkpt>
      <trkpt lat="44.08041" lon="6.33879">
        <ele>1640.1288</ele>
        <time>2011-10-06T07:54:12.500Z</time>
      </trkpt>
      <trkpt lat="44.0805" lon="6.33882">
        <ele>1640.1288</ele>
        <time>2011-10-06T07:54:12.500Z</time>
      </trkpt>
      <trkpt lat="44.08059" lon="6.33881">
        <ele>1637.9952</ele>
        <time>2011-10-06T07:54:12.500Z</time>
      </trkpt>
      <trkpt lat="44.08066" lon="6.33888">
        <ele>1640.1288</ele>
        <time>2011-10-06T07:54:12.500Z</time>
      </trkpt>
      <trkpt lat="44.08074" lon="6.33895">
        <ele>1641.9576</ele>
        <time>2011-10-06T07:54:12.500Z</time>
      </trkpt>
      <trkpt lat="44.08083" lon="6.33901">
        <ele>1642.872</ele>
        <time>2011-10-06T07:54:12.500Z</time>
      </trkpt>
      <trkpt lat="44.08092" lon="6.33905">
        <ele>1635.8616</ele>
        <time>2011-10-06T07:54:12.500Z</time>
      </trkpt>
      <trkpt lat="44.08101" lon="6.33906">
        <ele>1631.8992</ele>
        <time>2011-10-06T07:54:12.500Z</time>
      </trkpt>
      <trkpt lat="44.08109" lon="6.3391">
        <ele>1630.0704</ele>
        <time>2011-10-06T07:54:12.500Z</time>
      </trkpt>
      <trkpt lat="44.08109" lon="6.33922">
        <ele>1645.0056</ele>
        <time>2011-10-06T07:54:12.500Z</time>
      </trkpt>
      <trkpt lat="44.08099" lon="6.33931">
        <ele>1645.92</ele>
        <time>2011-10-06T07:54:12.500Z</time>
      </trkpt>
      <trkpt lat="44.08092" lon="6.33938">
        <ele>1645.92</ele>
        <time>2011-10-06T07:54:12.500Z</time>
      </trkpt>
      <trkpt lat="44.081" lon="6.33943">
        <ele>1645.0056</ele>
        <time>2011-10-06T07:54:12.500Z</time>
      </trkpt>
      <trkpt lat="44.0811" lon="6.33944">
        <ele>1645.0056</ele>
        <time>2011-10-06T07:54:12.500Z</time>
      </trkpt>
      <trkpt lat="44.08122" lon="6.33946">
        <ele>1644.0912</ele>
        <time>2011-10-06T07:54:12.500Z</time>
      </trkpt>
      <trkpt lat="44.08133" lon="6.33948">
        <ele>1642.872</ele>
        <time>2011-10-06T07:54:12.500Z</time>
      </trkpt>
      <trkpt lat="44.08144" lon="6.33952">
        <ele>1641.9576</ele>
        <time>2011-10-06T07:54:12.500Z</time>
      </trkpt>
      <trkpt lat="44.08154" lon="6.33956">
        <ele>1641.9576</ele>
        <time>2011-10-06T07:54:12.500Z</time>
      </trkpt>
      <trkpt lat="44.08163" lon="6.33958">
        <ele>1641.0432</ele>
        <time>2011-10-06T07:54:12.500Z</time>
      </trkpt>
      <trkpt lat="44.08175" lon="6.33962">
        <ele>1634.9472</ele>
        <time>2011-10-06T07:54:12.500Z</time>
      </trkpt>
      <trkpt lat="44.08184" lon="6.33962">
        <ele>1634.9472</ele>
        <time>2011-10-06T07:54:12.500Z</time>
      </trkpt>
      <trkpt lat="44.08193" lon="6.33967">
        <ele>1634.9472</ele>
        <time>2011-10-06T07:54:12.500Z</time>
      </trkpt>
      <trkpt lat="44.08204" lon="6.33973">
        <ele>1634.9472</ele>
        <time>2011-10-06T07:54:12.500Z</time>
      </trkpt>
      <trkpt lat="44.08217" lon="6.33975">
        <ele>1634.9472</ele>
        <time>2011-10-06T07:54:12.500Z</time>
      </trkpt>
      <trkpt lat="44.08227" lon="6.33982">
        <ele>1634.9472</ele>
        <time>2011-10-06T07:54:12.500Z</time>
      </trkpt>
      <trkpt lat="44.08234" lon="6.3399">
        <ele>1637.0808</ele>
        <time>2011-10-06T07:54:12.500Z</time>
      </trkpt>
      <trkpt lat="44.08241" lon="6.33999">
        <ele>1638.9096</ele>
        <time>2011-10-06T07:54:12.500Z</time>
      </trkpt>
      <trkpt lat="44.08231" lon="6.34001">
        <ele>1635.8616</ele>
        <time>2011-10-06T07:54:12.500Z</time>
      </trkpt>
      <trkpt lat="44.08222" lon="6.34003">
        <ele>1634.9472</ele>
        <time>2011-10-06T07:54:12.500Z</time>
      </trkpt>
      <trkpt lat="44.08212" lon="6.34007">
        <ele>1634.9472</ele>
        <time>2011-10-06T07:54:12.500Z</time>
      </trkpt>
      <trkpt lat="44.08202" lon="6.34011">
        <ele>1634.9472</ele>
        <time>2011-10-06T07:54:12.500Z</time>
      </trkpt>
      <trkpt lat="44.08194" lon="6.34016">
        <ele>1634.9472</ele>
        <time>2011-10-06T07:54:12.500Z</time>
      </trkpt>
      <trkpt lat="44.08201" lon="6.34027">
        <ele>1633.1184</ele>
        <time>2011-10-06T07:54:12.500Z</time>
      </trkpt>
      <trkpt lat="44.08206" lon="6.34037">
        <ele>1631.8992</ele>
        <time>2011-10-06T07:54:12.500Z</time>
      </trkpt>
      <trkpt lat="44.08214" lon="6.34044">
        <ele>1630.9848</ele>
        <time>2011-10-06T07:54:12.500Z</time>
      </trkpt>
      <trkpt lat="44.08224" lon="6.34047">
        <ele>1630.0704</ele>
        <time>2011-10-06T07:54:12.500Z</time>
      </trkpt>
      <trkpt lat="44.08233" lon="6.34053">
        <ele>1628.8512</ele>
        <time>2011-10-06T07:54:12.500Z</time>
      </trkpt>
      <trkpt lat="44.08239" lon="6.34066">
        <ele>1626.108</ele>
        <time>2011-10-06T07:54:12.500Z</time>
      </trkpt>
      <trkpt lat="44.08246" lon="6.34076">
        <ele>1623.06</ele>
        <time>2011-10-06T07:54:12.500Z</time>
      </trkpt>
      <trkpt lat="44.08255" lon="6.34087">
        <ele>1617.8784</ele>
        <time>2011-10-06T07:54:12.500Z</time>
      </trkpt>
      <trkpt lat="44.08261" lon="6.34097">
        <ele>1615.1352</ele>
        <time>2011-10-06T07:54:12.500Z</time>
      </trkpt>
      <trkpt lat="44.0827" lon="6.34101">
        <ele>1613.0016</ele>
        <time>2011-10-06T07:54:12.500Z</time>
      </trkpt>
      <trkpt lat="44.08281" lon="6.34102">
        <ele>1613.0016</ele>
        <time>2011-10-06T07:54:12.500Z</time>
      </trkpt>
      <trkpt lat="44.08291" lon="6.34103">
        <ele>1613.0016</ele>
        <time>2011-10-06T07:54:12.500Z</time>
      </trkpt>
      <trkpt lat="44.08303" lon="6.34104">
        <ele>1613.0016</ele>
        <time>2011-10-06T07:54:12.500Z</time>
      </trkpt>
      <trkpt lat="44.08313" lon="6.34104">
        <ele>1615.1352</ele>
        <time>2011-10-06T07:54:12.500Z</time>
      </trkpt>
      <trkpt lat="44.08323" lon="6.34105">
        <ele>1615.1352</ele>
        <time>2011-10-06T07:54:12.500Z</time>
      </trkpt>
      <trkpt lat="44.08333" lon="6.34106">
        <ele>1616.0496</ele>
        <time>2011-10-06T07:54:12.500Z</time>
      </trkpt>
      <trkpt lat="44.08343" lon="6.34106">
        <ele>1616.964</ele>
        <time>2011-10-06T07:54:12.500Z</time>
      </trkpt>
      <trkpt lat="44.08355" lon="6.34108">
        <ele>1616.0496</ele>
        <time>2011-10-06T07:54:12.500Z</time>
      </trkpt>
      <trkpt lat="44.08366" lon="6.34109">
        <ele>1615.1352</ele>
        <time>2011-10-06T07:54:12.500Z</time>
      </trkpt>
      <trkpt lat="44.08376" lon="6.3411">
        <ele>1615.1352</ele>
        <time>2011-10-06T07:54:12.500Z</time>
      </trkpt>
      <trkpt lat="44.08387" lon="6.34111">
        <ele>1615.1352</ele>
        <time>2011-10-06T07:54:12.500Z</time>
      </trkpt>
      <trkpt lat="44.08397" lon="6.34113">
        <ele>1615.1352</ele>
        <time>2011-10-06T07:54:12.500Z</time>
      </trkpt>
      <trkpt lat="44.08408" lon="6.34113">
        <ele>1616.0496</ele>
        <time>2011-10-06T07:54:12.500Z</time>
      </trkpt>
      <trkpt lat="44.08417" lon="6.34114">
        <ele>1616.0496</ele>
        <time>2011-10-06T07:54:12.500Z</time>
      </trkpt>
      <trkpt lat="44.08426" lon="6.34115">
        <ele>1615.1352</ele>
        <time>2011-10-06T07:54:12.500Z</time>
      </trkpt>
      <trkpt lat="44.08436" lon="6.34117">
        <ele>1613.916</ele>
        <time>2011-10-06T07:54:12.500Z</time>
      </trkpt>
      <trkpt lat="44.08445" lon="6.34119">
        <ele>1613.916</ele>
        <time>2011-10-06T07:54:12.500Z</time>
      </trkpt>
      <trkpt lat="44.08454" lon="6.34119">
        <ele>1613.0016</ele>
        <time>2011-10-06T07:54:12.500Z</time>
      </trkpt>
      <trkpt lat="44.08463" lon="6.34121">
        <ele>1613.0016</ele>
        <time>2011-10-06T07:54:12.500Z</time>
      </trkpt>
      <trkpt lat="44.08472" lon="6.3412">
        <ele>1613.0016</ele>
        <time>2011-10-06T07:54:12.500Z</time>
      </trkpt>
      <trkpt lat="44.08481" lon="6.34118">
        <ele>1613.916</ele>
        <time>2011-10-06T07:54:12.500Z</time>
      </trkpt>
      <trkpt lat="44.0849" lon="6.34117">
        <ele>1613.916</ele>
        <time>2011-10-06T07:54:12.500Z</time>
      </trkpt>
      <trkpt lat="44.085" lon="6.34117">
        <ele>1615.1352</ele>
        <time>2011-10-06T07:54:12.500Z</time>
      </trkpt>
      <trkpt lat="44.08511" lon="6.34117">
        <ele>1615.1352</ele>
        <time>2011-10-06T07:54:12.500Z</time>
      </trkpt>
      <trkpt lat="44.0852" lon="6.34117">
        <ele>1613.916</ele>
        <time>2011-10-06T07:54:12.500Z</time>
      </trkpt>
      <trkpt lat="44.08529" lon="6.34119">
        <ele>1613.916</ele>
        <time>2011-10-06T07:54:12.500Z</time>
      </trkpt>
      <trkpt lat="44.08539" lon="6.34119">
        <ele>1613.916</ele>
        <time>2011-10-06T07:54:12.500Z</time>
      </trkpt>
      <trkpt lat="44.08548" lon="6.3412">
        <ele>1613.916</ele>
        <time>2011-10-06T07:54:12.500Z</time>
      </trkpt>
      <trkpt lat="44.08557" lon="6.3412">
        <ele>1613.916</ele>
        <time>2011-10-06T07:54:12.500Z</time>
      </trkpt>
      <trkpt lat="44.08567" lon="6.34119">
        <ele>1613.916</ele>
        <time>2011-10-06T07:54:12.500Z</time>
      </trkpt>
      <trkpt lat="44.08576" lon="6.34118">
        <ele>1615.1352</ele>
        <time>2011-10-06T07:54:12.500Z</time>
      </trkpt>
      <trkpt lat="44.08585" lon="6.34118">
        <ele>1616.964</ele>
        <time>2011-10-06T07:54:12.500Z</time>
      </trkpt>
      <trkpt lat="44.08594" lon="6.34119">
        <ele>1616.0496</ele>
        <time>2011-10-06T07:54:12.500Z</time>
      </trkpt>
      <trkpt lat="44.08605" lon="6.34119">
        <ele>1616.0496</ele>
        <time>2011-10-06T07:54:12.500Z</time>
      </trkpt>
      <trkpt lat="44.08614" lon="6.34119">
        <ele>1616.0496</ele>
        <time>2011-10-06T07:54:12.500Z</time>
      </trkpt>
      <trkpt lat="44.08623" lon="6.34122">
        <ele>1616.0496</ele>
        <time>2011-10-06T07:54:12.500Z</time>
      </trkpt>
      <trkpt lat="44.08634" lon="6.34123">
        <ele>1616.0496</ele>
        <time>2011-10-06T07:54:12.500Z</time>
      </trkpt>
      <trkpt lat="44.08644" lon="6.34124">
        <ele>1616.0496</ele>
        <time>2011-10-06T07:54:12.500Z</time>
      </trkpt>
      <trkpt lat="44.08654" lon="6.34124">
        <ele>1616.0496</ele>
        <time>2011-10-06T07:54:12.600Z</time>
      </trkpt>
      <trkpt lat="44.08664" lon="6.34124">
        <ele>1616.964</ele>
        <time>2011-10-06T07:54:12.600Z</time>
      </trkpt>
      <trkpt lat="44.08674" lon="6.34124">
        <ele>1619.0976</ele>
        <time>2011-10-06T07:54:12.600Z</time>
      </trkpt>
      <trkpt lat="44.08685" lon="6.34122">
        <ele>1619.0976</ele>
        <time>2011-10-06T07:54:12.600Z</time>
      </trkpt>
      <trkpt lat="44.08696" lon="6.34121">
        <ele>1620.012</ele>
        <time>2011-10-06T07:54:12.600Z</time>
      </trkpt>
      <trkpt lat="44.08706" lon="6.34118">
        <ele>1620.012</ele>
        <time>2011-10-06T07:54:12.600Z</time>
      </trkpt>
      <trkpt lat="44.08717" lon="6.34116">
        <ele>1620.9264</ele>
        <time>2011-10-06T07:54:12.600Z</time>
      </trkpt>
      <trkpt lat="44.08728" lon="6.34115">
        <ele>1620.9264</ele>
        <time>2011-10-06T07:54:12.600Z</time>
      </trkpt>
      <trkpt lat="44.08737" lon="6.34114">
        <ele>1622.1456</ele>
        <time>2011-10-06T07:54:12.600Z</time>
      </trkpt>
      <trkpt lat="44.08748" lon="6.34113">
        <ele>1623.06</ele>
        <time>2011-10-06T07:54:12.600Z</time>
      </trkpt>
      <trkpt lat="44.08758" lon="6.34112">
        <ele>1623.06</ele>
        <time>2011-10-06T07:54:12.600Z</time>
      </trkpt>
      <trkpt lat="44.08769" lon="6.34111">
        <ele>1623.06</ele>
        <time>2011-10-06T07:54:12.600Z</time>
      </trkpt>
      <trkpt lat="44.08778" lon="6.34109">
        <ele>1623.06</ele>
        <time>2011-10-06T07:54:12.600Z</time>
      </trkpt>
      <trkpt lat="44.08788" lon="6.34109">
        <ele>1622.1456</ele>
        <time>2011-10-06T07:54:12.600Z</time>
      </trkpt>
      <trkpt lat="44.08798" lon="6.34108">
        <ele>1622.1456</ele>
        <time>2011-10-06T07:54:12.600Z</time>
      </trkpt>
      <trkpt lat="44.08807" lon="6.34108">
        <ele>1623.06</ele>
        <time>2011-10-06T07:54:12.600Z</time>
      </trkpt>
      <trkpt lat="44.08817" lon="6.34107">
        <ele>1623.06</ele>
        <time>2011-10-06T07:54:12.600Z</time>
      </trkpt>
      <trkpt lat="44.08826" lon="6.34106">
        <ele>1623.9744</ele>
        <time>2011-10-06T07:54:12.600Z</time>
      </trkpt>
      <trkpt lat="44.08836" lon="6.34105">
        <ele>1623.9744</ele>
        <time>2011-10-06T07:54:12.600Z</time>
      </trkpt>
      <trkpt lat="44.08845" lon="6.34103">
        <ele>1623.9744</ele>
        <time>2011-10-06T07:54:12.600Z</time>
      </trkpt>
      <trkpt lat="44.08856" lon="6.34101">
        <ele>1623.9744</ele>
        <time>2011-10-06T07:54:12.600Z</time>
      </trkpt>
      <trkpt lat="44.08866" lon="6.34099">
        <ele>1623.06</ele>
        <time>2011-10-06T07:54:12.600Z</time>
      </trkpt>
      <trkpt lat="44.08876" lon="6.34097">
        <ele>1623.06</ele>
        <time>2011-10-06T07:54:12.600Z</time>
      </trkpt>
      <trkpt lat="44.08886" lon="6.34097">
        <ele>1623.06</ele>
        <time>2011-10-06T07:54:12.600Z</time>
      </trkpt>
      <trkpt lat="44.08895" lon="6.34096">
        <ele>1623.9744</ele>
        <time>2011-10-06T07:54:12.600Z</time>
      </trkpt>
      <trkpt lat="44.08904" lon="6.34095">
        <ele>1626.108</ele>
        <time>2011-10-06T07:54:12.600Z</time>
      </trkpt>
      <trkpt lat="44.08914" lon="6.34095">
        <ele>1627.9368</ele>
        <time>2011-10-06T07:54:12.600Z</time>
      </trkpt>
      <trkpt lat="44.08924" lon="6.34093">
        <ele>1627.0224</ele>
        <time>2011-10-06T07:54:12.600Z</time>
      </trkpt>
      <trkpt lat="44.08933" lon="6.34092">
        <ele>1624.8888</ele>
        <time>2011-10-06T07:54:12.600Z</time>
      </trkpt>
      <trkpt lat="44.08943" lon="6.34091">
        <ele>1623.9744</ele>
        <time>2011-10-06T07:54:12.600Z</time>
      </trkpt>
      <trkpt lat="44.08954" lon="6.34091">
        <ele>1623.06</ele>
        <time>2011-10-06T07:54:12.600Z</time>
      </trkpt>
      <trkpt lat="44.08964" lon="6.34089">
        <ele>1623.06</ele>
        <time>2011-10-06T07:54:12.600Z</time>
      </trkpt>
      <trkpt lat="44.08974" lon="6.34089">
        <ele>1623.9744</ele>
        <time>2011-10-06T07:54:12.600Z</time>
      </trkpt>
      <trkpt lat="44.08983" lon="6.34088">
        <ele>1626.108</ele>
        <time>2011-10-06T07:54:12.600Z</time>
      </trkpt>
      <trkpt lat="44.08992" lon="6.34088">
        <ele>1628.8512</ele>
        <time>2011-10-06T07:54:12.600Z</time>
      </trkpt>
      <trkpt lat="44.09002" lon="6.34089">
        <ele>1630.0704</ele>
        <time>2011-10-06T07:54:12.600Z</time>
      </trkpt>
      <trkpt lat="44.09013" lon="6.34089">
        <ele>1626.108</ele>
        <time>2011-10-06T07:54:12.600Z</time>
      </trkpt>
      <trkpt lat="44.09025" lon="6.3409">
        <ele>1623.06</ele>
        <time>2011-10-06T07:54:12.600Z</time>
      </trkpt>
      <trkpt lat="44.09035" lon="6.34091">
        <ele>1622.1456</ele>
        <time>2011-10-06T07:54:12.600Z</time>
      </trkpt>
      <trkpt lat="44.09047" lon="6.34094">
        <ele>1620.9264</ele>
        <time>2011-10-06T07:54:12.600Z</time>
      </trkpt>
      <trkpt lat="44.09058" lon="6.34092">
        <ele>1622.1456</ele>
        <time>2011-10-06T07:54:12.600Z</time>
      </trkpt>
      <trkpt lat="44.09069" lon="6.34091">
        <ele>1623.9744</ele>
        <time>2011-10-06T07:54:12.600Z</time>
      </trkpt>
      <trkpt lat="44.09082" lon="6.34088">
        <ele>1627.0224</ele>
        <time>2011-10-06T07:54:12.600Z</time>
      </trkpt>
      <trkpt lat="44.09093" lon="6.34088">
        <ele>1624.8888</ele>
        <time>2011-10-06T07:54:12.600Z</time>
      </trkpt>
      <trkpt lat="44.09104" lon="6.34088">
        <ele>1620.9264</ele>
        <time>2011-10-06T07:54:12.600Z</time>
      </trkpt>
      <trkpt lat="44.09115" lon="6.34087">
        <ele>1620.012</ele>
        <time>2011-10-06T07:54:12.600Z</time>
      </trkpt>
      <trkpt lat="44.09124" lon="6.3409">
        <ele>1619.0976</ele>
        <time>2011-10-06T07:54:12.600Z</time>
      </trkpt>
      <trkpt lat="44.09134" lon="6.34092">
        <ele>1617.8784</ele>
        <time>2011-10-06T07:54:12.600Z</time>
      </trkpt>
      <trkpt lat="44.09144" lon="6.34094">
        <ele>1617.8784</ele>
        <time>2011-10-06T07:54:12.600Z</time>
      </trkpt>
      <trkpt lat="44.09155" lon="6.34097">
        <ele>1617.8784</ele>
        <time>2011-10-06T07:54:12.600Z</time>
      </trkpt>
      <trkpt lat="44.09165" lon="6.34097">
        <ele>1619.0976</ele>
        <time>2011-10-06T07:54:12.600Z</time>
      </trkpt>
      <trkpt lat="44.09174" lon="6.34098">
        <ele>1619.0976</ele>
        <time>2011-10-06T07:54:12.600Z</time>
      </trkpt>
      <trkpt lat="44.09185" lon="6.34098">
        <ele>1619.0976</ele>
        <time>2011-10-06T07:54:12.600Z</time>
      </trkpt>
      <trkpt lat="44.09195" lon="6.34097">
        <ele>1619.0976</ele>
        <time>2011-10-06T07:54:12.600Z</time>
      </trkpt>
      <trkpt lat="44.09205" lon="6.34099">
        <ele>1619.0976</ele>
        <time>2011-10-06T07:54:12.600Z</time>
      </trkpt>
      <trkpt lat="44.09214" lon="6.34103">
        <ele>1619.0976</ele>
        <time>2011-10-06T07:54:12.600Z</time>
      </trkpt>
      <trkpt lat="44.09225" lon="6.34106">
        <ele>1619.0976</ele>
        <time>2011-10-06T07:54:12.600Z</time>
      </trkpt>
      <trkpt lat="44.09235" lon="6.34107">
        <ele>1620.012</ele>
        <time>2011-10-06T07:54:12.600Z</time>
      </trkpt>
      <trkpt lat="44.09246" lon="6.3411">
        <ele>1620.012</ele>
        <time>2011-10-06T07:54:12.600Z</time>
      </trkpt>
      <trkpt lat="44.09255" lon="6.34111">
        <ele>1623.06</ele>
        <time>2011-10-06T07:54:12.600Z</time>
      </trkpt>
      <trkpt lat="44.09266" lon="6.34113">
        <ele>1623.06</ele>
        <time>2011-10-06T07:54:12.600Z</time>
      </trkpt>
      <trkpt lat="44.09275" lon="6.34115">
        <ele>1622.1456</ele>
        <time>2011-10-06T07:54:12.600Z</time>
      </trkpt>
      <trkpt lat="44.09284" lon="6.34118">
        <ele>1622.1456</ele>
        <time>2011-10-06T07:54:12.600Z</time>
      </trkpt>
      <trkpt lat="44.09295" lon="6.34122">
        <ele>1622.1456</ele>
        <time>2011-10-06T07:54:12.600Z</time>
      </trkpt>
      <trkpt lat="44.09305" lon="6.34125">
        <ele>1622.1456</ele>
        <time>2011-10-06T07:54:12.600Z</time>
      </trkpt>
      <trkpt lat="44.09314" lon="6.34129">
        <ele>1622.1456</ele>
        <time>2011-10-06T07:54:12.600Z</time>
      </trkpt>
      <trkpt lat="44.09323" lon="6.34132">
        <ele>1622.1456</ele>
        <time>2011-10-06T07:54:12.600Z</time>
      </trkpt>
      <trkpt lat="44.09331" lon="6.34138">
        <ele>1622.1456</ele>
        <time>2011-10-06T07:54:12.600Z</time>
      </trkpt>
      <trkpt lat="44.0934" lon="6.34144">
        <ele>1623.9744</ele>
        <time>2011-10-06T07:54:12.600Z</time>
      </trkpt>
      <trkpt lat="44.09348" lon="6.34149">
        <ele>1623.9744</ele>
        <time>2011-10-06T07:54:12.600Z</time>
      </trkpt>
      <trkpt lat="44.09357" lon="6.34155">
        <ele>1624.8888</ele>
        <time>2011-10-06T07:54:12.600Z</time>
      </trkpt>
      <trkpt lat="44.09368" lon="6.3416">
        <ele>1624.8888</ele>
        <time>2011-10-06T07:54:12.600Z</time>
      </trkpt>
      <trkpt lat="44.09378" lon="6.34165">
        <ele>1626.108</ele>
        <time>2011-10-06T07:54:12.600Z</time>
      </trkpt>
      <trkpt lat="44.09389" lon="6.34169">
        <ele>1620.9264</ele>
        <time>2011-10-06T07:54:12.600Z</time>
      </trkpt>
      <trkpt lat="44.09399" lon="6.34175">
        <ele>1623.06</ele>
        <time>2011-10-06T07:54:12.600Z</time>
      </trkpt>
      <trkpt lat="44.09407" lon="6.34181">
        <ele>1623.9744</ele>
        <time>2011-10-06T07:54:12.600Z</time>
      </trkpt>
      <trkpt lat="44.09416" lon="6.34188">
        <ele>1622.1456</ele>
        <time>2011-10-06T07:54:12.600Z</time>
      </trkpt>
      <trkpt lat="44.09425" lon="6.34195">
        <ele>1627.9368</ele>
        <time>2011-10-06T07:54:12.600Z</time>
      </trkpt>
      <trkpt lat="44.09433" lon="6.34201">
        <ele>1627.0224</ele>
        <time>2011-10-06T07:54:12.600Z</time>
      </trkpt>
      <trkpt lat="44.09445" lon="6.34208">
        <ele>1627.0224</ele>
        <time>2011-10-06T07:54:12.600Z</time>
      </trkpt>
      <trkpt lat="44.09456" lon="6.34214">
        <ele>1627.0224</ele>
        <time>2011-10-06T07:54:12.600Z</time>
      </trkpt>
      <trkpt lat="44.09467" lon="6.34221">
        <ele>1627.0224</ele>
        <time>2011-10-06T07:54:12.600Z</time>
      </trkpt>
      <trkpt lat="44.09476" lon="6.34228">
        <ele>1627.0224</ele>
        <time>2011-10-06T07:54:12.600Z</time>
      </trkpt>
      <trkpt lat="44.09486" lon="6.34234">
        <ele>1627.0224</ele>
        <time>2011-10-06T07:54:12.600Z</time>
      </trkpt>
      <trkpt lat="44.09494" lon="6.34238">
        <ele>1626.108</ele>
        <time>2011-10-06T07:54:12.600Z</time>
      </trkpt>
      <trkpt lat="44.09505" lon="6.34247">
        <ele>1627.9368</ele>
        <time>2011-10-06T07:54:12.600Z</time>
      </trkpt>
      <trkpt lat="44.09513" lon="6.34257">
        <ele>1626.108</ele>
        <time>2011-10-06T07:54:12.600Z</time>
      </trkpt>
      <trkpt lat="44.09519" lon="6.34266">
        <ele>1626.108</ele>
        <time>2011-10-06T07:54:12.600Z</time>
      </trkpt>
      <trkpt lat="44.09529" lon="6.34274">
        <ele>1626.108</ele>
        <time>2011-10-06T07:54:12.600Z</time>
      </trkpt>
      <trkpt lat="44.09538" lon="6.34278">
        <ele>1627.0224</ele>
        <time>2011-10-06T07:54:12.600Z</time>
      </trkpt>
      <trkpt lat="44.09549" lon="6.34286">
        <ele>1627.9368</ele>
        <time>2011-10-06T07:54:12.600Z</time>
      </trkpt>
      <trkpt lat="44.09559" lon="6.34296">
        <ele>1627.9368</ele>
        <time>2011-10-06T07:54:12.600Z</time>
      </trkpt>
      <trkpt lat="44.09565" lon="6.34309">
        <ele>1627.9368</ele>
        <time>2011-10-06T07:54:12.600Z</time>
      </trkpt>
      <trkpt lat="44.09568" lon="6.34322">
        <ele>1627.9368</ele>
        <time>2011-10-06T07:54:12.600Z</time>
      </trkpt>
      <trkpt lat="44.09563" lon="6.34336">
        <ele>1623.06</ele>
        <time>2011-10-06T07:54:12.600Z</time>
      </trkpt>
      <trkpt lat="44.0956" lon="6.34347">
        <ele>1622.1456</ele>
        <time>2011-10-06T07:54:12.600Z</time>
      </trkpt>
      <trkpt lat="44.09554" lon="6.34364">
        <ele>1620.9264</ele>
        <time>2011-10-06T07:54:12.600Z</time>
      </trkpt>
      <trkpt lat="44.09549" lon="6.34376">
        <ele>1620.012</ele>
        <time>2011-10-06T07:54:12.600Z</time>
      </trkpt>
      <trkpt lat="44.09543" lon="6.34387">
        <ele>1619.0976</ele>
        <time>2011-10-06T07:54:12.600Z</time>
      </trkpt>
      <trkpt lat="44.09539" lon="6.34398">
        <ele>1617.8784</ele>
        <time>2011-10-06T07:54:12.600Z</time>
      </trkpt>
      <trkpt lat="44.09535" lon="6.3441">
        <ele>1616.964</ele>
        <time>2011-10-06T07:54:12.600Z</time>
      </trkpt>
      <trkpt lat="44.09531" lon="6.34426">
        <ele>1617.8784</ele>
        <time>2011-10-06T07:54:12.600Z</time>
      </trkpt>
      <trkpt lat="44.09527" lon="6.34441">
        <ele>1617.8784</ele>
        <time>2011-10-06T07:54:12.600Z</time>
      </trkpt>
      <trkpt lat="44.09523" lon="6.34456">
        <ele>1619.0976</ele>
        <time>2011-10-06T07:54:12.600Z</time>
      </trkpt>
      <trkpt lat="44.09519" lon="6.34468">
        <ele>1617.8784</ele>
        <time>2011-10-06T07:54:12.600Z</time>
      </trkpt>
      <trkpt lat="44.09517" lon="6.3448">
        <ele>1616.964</ele>
        <time>2011-10-06T07:54:12.600Z</time>
      </trkpt>
      <trkpt lat="44.09514" lon="6.34494">
        <ele>1613.916</ele>
        <time>2011-10-06T07:54:12.600Z</time>
      </trkpt>
      <trkpt lat="44.09511" lon="6.34508">
        <ele>1615.1352</ele>
        <time>2011-10-06T07:54:12.600Z</time>
      </trkpt>
      <trkpt lat="44.09508" lon="6.34522">
        <ele>1619.0976</ele>
        <time>2011-10-06T07:54:12.600Z</time>
      </trkpt>
      <trkpt lat="44.09505" lon="6.34538">
        <ele>1620.9264</ele>
        <time>2011-10-06T07:54:12.600Z</time>
      </trkpt>
      <trkpt lat="44.09501" lon="6.34551">
        <ele>1620.9264</ele>
        <time>2011-10-06T07:54:12.600Z</time>
      </trkpt>
      <trkpt lat="44.09496" lon="6.34568">
        <ele>1599.8952</ele>
        <time>2011-10-06T07:54:12.600Z</time>
      </trkpt>
      <trkpt lat="44.09492" lon="6.34582">
        <ele>1603.8576</ele>
        <time>2011-10-06T07:54:12.600Z</time>
      </trkpt>
      <trkpt lat="44.09488" lon="6.34595">
        <ele>1599.8952</ele>
        <time>2011-10-06T07:54:12.600Z</time>
      </trkpt>
      <trkpt lat="44.09483" lon="6.34609">
        <ele>1595.9328</ele>
        <time>2011-10-06T07:54:12.600Z</time>
      </trkpt>
      <trkpt lat="44.09479" lon="6.34622">
        <ele>1594.104</ele>
        <time>2011-10-06T07:54:12.600Z</time>
      </trkpt>
      <trkpt lat="44.09474" lon="6.34636">
        <ele>1592.8848</ele>
        <time>2011-10-06T07:54:12.600Z</time>
      </trkpt>
      <trkpt lat="44.09469" lon="6.34651">
        <ele>1592.8848</ele>
        <time>2011-10-06T07:54:12.600Z</time>
      </trkpt>
      <trkpt lat="44.09465" lon="6.34662">
        <ele>1591.056</ele>
        <time>2011-10-06T07:54:12.600Z</time>
      </trkpt>
      <trkpt lat="44.09462" lon="6.34674">
        <ele>1591.9704</ele>
        <time>2011-10-06T07:54:12.600Z</time>
      </trkpt>
      <trkpt lat="44.09459" lon="6.34688">
        <ele>1591.056</ele>
        <time>2011-10-06T07:54:12.600Z</time>
      </trkpt>
      <trkpt lat="44.09455" lon="6.34699">
        <ele>1590.1416</ele>
        <time>2011-10-06T07:54:12.600Z</time>
      </trkpt>
      <trkpt lat="44.0945" lon="6.34712">
        <ele>1588.9224</ele>
        <time>2011-10-06T07:54:12.600Z</time>
      </trkpt>
      <trkpt lat="44.09444" lon="6.34728">
        <ele>1587.0936</ele>
        <time>2011-10-06T07:54:12.600Z</time>
      </trkpt>
      <trkpt lat="44.09441" lon="6.3474">
        <ele>1584.96</ele>
        <time>2011-10-06T07:54:12.600Z</time>
      </trkpt>
      <trkpt lat="44.09437" lon="6.34753">
        <ele>1584.96</ele>
        <time>2011-10-06T07:54:12.600Z</time>
      </trkpt>
      <trkpt lat="44.09433" lon="6.34766">
        <ele>1584.96</ele>
        <time>2011-10-06T07:54:12.600Z</time>
      </trkpt>
      <trkpt lat="44.09429" lon="6.34777">
        <ele>1585.8744</ele>
        <time>2011-10-06T07:54:12.600Z</time>
      </trkpt>
      <trkpt lat="44.09427" lon="6.34791">
        <ele>1587.0936</ele>
        <time>2011-10-06T07:54:12.600Z</time>
      </trkpt>
      <trkpt lat="44.09424" lon="6.34805">
        <ele>1585.8744</ele>
        <time>2011-10-06T07:54:12.600Z</time>
      </trkpt>
      <trkpt lat="44.09422" lon="6.3482">
        <ele>1583.1312</ele>
        <time>2011-10-06T07:54:12.600Z</time>
      </trkpt>
      <trkpt lat="44.09422" lon="6.34832">
        <ele>1577.9496</ele>
        <time>2011-10-06T07:54:12.600Z</time>
      </trkpt>
      <trkpt lat="44.09426" lon="6.34844">
        <ele>1581.912</ele>
        <time>2011-10-06T07:54:12.600Z</time>
      </trkpt>
      <trkpt lat="44.09426" lon="6.34857">
        <ele>1584.0456</ele>
        <time>2011-10-06T07:54:12.600Z</time>
      </trkpt>
      <trkpt lat="44.09424" lon="6.34872">
        <ele>1584.96</ele>
        <time>2011-10-06T07:54:12.600Z</time>
      </trkpt>
      <trkpt lat="44.09422" lon="6.34885">
        <ele>1583.1312</ele>
        <time>2011-10-06T07:54:12.600Z</time>
      </trkpt>
      <trkpt lat="44.09423" lon="6.34901">
        <ele>1578.864</ele>
        <time>2011-10-06T07:54:12.600Z</time>
      </trkpt>
      <trkpt lat="44.09423" lon="6.34913">
        <ele>1573.0728</ele>
        <time>2011-10-06T07:54:12.600Z</time>
      </trkpt>
      <trkpt lat="44.09424" lon="6.34929">
        <ele>1574.9016</ele>
        <time>2011-10-06T07:54:12.600Z</time>
      </trkpt>
      <trkpt lat="44.09424" lon="6.34943">
        <ele>1578.864</ele>
        <time>2011-10-06T07:54:12.600Z</time>
      </trkpt>
      <trkpt lat="44.09431" lon="6.34951">
        <ele>1580.9976</ele>
        <time>2011-10-06T07:54:12.600Z</time>
      </trkpt>
      <trkpt lat="44.09431" lon="6.34964">
        <ele>1580.0832</ele>
        <time>2011-10-06T07:54:12.600Z</time>
      </trkpt>
      <trkpt lat="44.09429" lon="6.34977">
        <ele>1577.0352</ele>
        <time>2011-10-06T07:54:12.600Z</time>
      </trkpt>
      <trkpt lat="44.09426" lon="6.34992">
        <ele>1570.0248</ele>
        <time>2011-10-06T07:54:12.600Z</time>
      </trkpt>
      <trkpt lat="44.09421" lon="6.35007">
        <ele>1565.148</ele>
        <time>2011-10-06T07:54:12.600Z</time>
      </trkpt>
      <trkpt lat="44.09422" lon="6.35053">
        <ele>1573.9872</ele>
        <time>2011-10-06T07:54:12.600Z</time>
      </trkpt>
      <trkpt lat="44.09419" lon="6.35067">
        <ele>1569.1104</ele>
        <time>2011-10-06T07:54:12.600Z</time>
      </trkpt>
      <trkpt lat="44.09411" lon="6.35076">
        <ele>1548.9936</ele>
        <time>2011-10-06T07:54:12.600Z</time>
      </trkpt>
      <trkpt lat="44.09404" lon="6.35086">
        <ele>1545.9456</ele>
        <time>2011-10-06T07:54:12.600Z</time>
      </trkpt>
      <trkpt lat="44.09403" lon="6.35102">
        <ele>1541.9832</ele>
        <time>2011-10-06T07:54:12.600Z</time>
      </trkpt>
      <trkpt lat="44.09404" lon="6.35117">
        <ele>1539.8496</ele>
        <time>2011-10-06T07:54:12.600Z</time>
      </trkpt>
      <trkpt lat="44.09404" lon="6.3513">
        <ele>1539.8496</ele>
        <time>2011-10-06T07:54:12.600Z</time>
      </trkpt>
      <trkpt lat="44.09405" lon="6.35147">
        <ele>1542.8976</ele>
        <time>2011-10-06T07:54:12.600Z</time>
      </trkpt>
      <trkpt lat="44.09405" lon="6.35161">
        <ele>1548.0792</ele>
        <time>2011-10-06T07:54:12.600Z</time>
      </trkpt>
      <trkpt lat="44.09407" lon="6.35178">
        <ele>1544.1168</ele>
        <time>2011-10-06T07:54:12.600Z</time>
      </trkpt>
      <trkpt lat="44.09407" lon="6.35192">
        <ele>1538.0208</ele>
        <time>2011-10-06T07:54:12.600Z</time>
      </trkpt>
      <trkpt lat="44.09408" lon="6.35205">
        <ele>1535.8872</ele>
        <time>2011-10-06T07:54:12.600Z</time>
      </trkpt>
      <trkpt lat="44.09405" lon="6.35219">
        <ele>1534.9728</ele>
        <time>2011-10-06T07:54:12.600Z</time>
      </trkpt>
      <trkpt lat="44.09404" lon="6.35234">
        <ele>1537.1064</ele>
        <time>2011-10-06T07:54:12.600Z</time>
      </trkpt>
      <trkpt lat="44.09405" lon="6.3525">
        <ele>1541.0688</ele>
        <time>2011-10-06T07:54:12.600Z</time>
      </trkpt>
      <trkpt lat="44.09403" lon="6.35266">
        <ele>1531.0104</ele>
        <time>2011-10-06T07:54:12.600Z</time>
      </trkpt>
      <trkpt lat="44.09405" lon="6.35281">
        <ele>1526.1336</ele>
        <time>2011-10-06T07:54:12.600Z</time>
      </trkpt>
      <trkpt lat="44.09409" lon="6.35298">
        <ele>1524.9144</ele>
        <time>2011-10-06T07:54:12.600Z</time>
      </trkpt>
      <trkpt lat="44.09414" lon="6.35308">
        <ele>1527.048</ele>
        <time>2011-10-06T07:54:12.600Z</time>
      </trkpt>
      <trkpt lat="44.09418" lon="6.3532">
        <ele>1555.0896</ele>
        <time>2011-10-06T07:54:12.600Z</time>
      </trkpt>
      <trkpt lat="44.09423" lon="6.35332">
        <ele>1548.9936</ele>
        <time>2011-10-06T07:54:12.600Z</time>
      </trkpt>
      <trkpt lat="44.09426" lon="6.35344">
        <ele>1553.8704</ele>
        <time>2011-10-06T07:54:12.600Z</time>
      </trkpt>
      <trkpt lat="44.09427" lon="6.35357">
        <ele>1559.9664</ele>
        <time>2011-10-06T07:54:12.600Z</time>
      </trkpt>
      <trkpt lat="44.09422" lon="6.3537">
        <ele>1562.1</ele>
        <time>2011-10-06T07:54:12.600Z</time>
      </trkpt>
      <trkpt lat="44.09415" lon="6.35377">
        <ele>1524</ele>
        <time>2011-10-06T07:54:12.600Z</time>
      </trkpt>
      <trkpt lat="44.09408" lon="6.3539">
        <ele>1524.9144</ele>
        <time>2011-10-06T07:54:12.600Z</time>
      </trkpt>
      <trkpt lat="44.094" lon="6.35405">
        <ele>1526.1336</ele>
        <time>2011-10-06T07:54:12.600Z</time>
      </trkpt>
      <trkpt lat="44.09391" lon="6.35419">
        <ele>1527.9624</ele>
        <time>2011-10-06T07:54:12.600Z</time>
      </trkpt>
      <trkpt lat="44.09385" lon="6.35436">
        <ele>1524.9144</ele>
        <time>2011-10-06T07:54:12.600Z</time>
      </trkpt>
      <trkpt lat="44.09382" lon="6.35448">
        <ele>1524</ele>
        <time>2011-10-06T07:54:12.600Z</time>
      </trkpt>
      <trkpt lat="44.09377" lon="6.3546">
        <ele>1523.0856</ele>
        <time>2011-10-06T07:54:12.600Z</time>
      </trkpt>
      <trkpt lat="44.09372" lon="6.35472">
        <ele>1523.0856</ele>
        <time>2011-10-06T07:54:12.600Z</time>
      </trkpt>
      <trkpt lat="44.09368" lon="6.35485">
        <ele>1521.8664</ele>
        <time>2011-10-06T07:54:12.600Z</time>
      </trkpt>
      <trkpt lat="44.09364" lon="6.35498">
        <ele>1520.0376</ele>
        <time>2011-10-06T07:54:12.600Z</time>
      </trkpt>
      <trkpt lat="44.09358" lon="6.35512">
        <ele>1527.9624</ele>
        <time>2011-10-06T07:54:12.600Z</time>
      </trkpt>
      <trkpt lat="44.09352" lon="6.35525">
        <ele>1528.8768</ele>
        <time>2011-10-06T07:54:12.600Z</time>
      </trkpt>
      <trkpt lat="44.09346" lon="6.35539">
        <ele>1531.0104</ele>
        <time>2011-10-06T07:54:12.600Z</time>
      </trkpt>
      <trkpt lat="44.09337" lon="6.35552">
        <ele>1531.0104</ele>
        <time>2011-10-06T07:54:12.600Z</time>
      </trkpt>
      <trkpt lat="44.09329" lon="6.35564">
        <ele>1505.1024</ele>
        <time>2011-10-06T07:54:12.600Z</time>
      </trkpt>
      <trkpt lat="44.09323" lon="6.35574">
        <ele>1508.1504</ele>
        <time>2011-10-06T07:54:12.600Z</time>
      </trkpt>
      <trkpt lat="44.09317" lon="6.35586">
        <ele>1516.0752</ele>
        <time>2011-10-06T07:54:12.600Z</time>
      </trkpt>
      <trkpt lat="44.09311" lon="6.35597">
        <ele>1513.0272</ele>
        <time>2011-10-06T07:54:12.600Z</time>
      </trkpt>
      <trkpt lat="44.09306" lon="6.35607">
        <ele>1512.1128</ele>
        <time>2011-10-06T07:54:12.600Z</time>
      </trkpt>
      <trkpt lat="44.093" lon="6.35619">
        <ele>1510.8936</ele>
        <time>2011-10-06T07:54:12.600Z</time>
      </trkpt>
      <trkpt lat="44.09293" lon="6.35631">
        <ele>1510.8936</ele>
        <time>2011-10-06T07:54:12.600Z</time>
      </trkpt>
      <trkpt lat="44.09287" lon="6.35641">
        <ele>1510.8936</ele>
        <time>2011-10-06T07:54:12.600Z</time>
      </trkpt>
      <trkpt lat="44.09281" lon="6.35653">
        <ele>1509.9792</ele>
        <time>2011-10-06T07:54:12.600Z</time>
      </trkpt>
      <trkpt lat="44.09277" lon="6.35667">
        <ele>1517.904</ele>
        <time>2011-10-06T07:54:12.600Z</time>
      </trkpt>
      <trkpt lat="44.09271" lon="6.35679">
        <ele>1516.9896</ele>
        <time>2011-10-06T07:54:12.600Z</time>
      </trkpt>
      <trkpt lat="44.09266" lon="6.35697">
        <ele>1520.0376</ele>
        <time>2011-10-06T07:54:12.600Z</time>
      </trkpt>
      <trkpt lat="44.09261" lon="6.35711">
        <ele>1520.952</ele>
        <time>2011-10-06T07:54:12.600Z</time>
      </trkpt>
      <trkpt lat="44.09257" lon="6.35723">
        <ele>1520.952</ele>
        <time>2011-10-06T07:54:12.600Z</time>
      </trkpt>
      <trkpt lat="44.09253" lon="6.35738">
        <ele>1519.1232</ele>
        <time>2011-10-06T07:54:12.600Z</time>
      </trkpt>
      <trkpt lat="44.09249" lon="6.35751">
        <ele>1513.0272</ele>
        <time>2011-10-06T07:54:12.600Z</time>
      </trkpt>
      <trkpt lat="44.09245" lon="6.35765">
        <ele>1506.0168</ele>
        <time>2011-10-06T07:54:12.600Z</time>
      </trkpt>
      <trkpt lat="44.09239" lon="6.35777">
        <ele>1502.9688</ele>
        <time>2011-10-06T07:54:12.600Z</time>
      </trkpt>
      <trkpt lat="44.09233" lon="6.35789">
        <ele>1502.0544</ele>
        <time>2011-10-06T07:54:12.600Z</time>
      </trkpt>
      <trkpt lat="44.09227" lon="6.35801">
        <ele>1502.0544</ele>
        <time>2011-10-06T07:54:12.600Z</time>
      </trkpt>
      <trkpt lat="44.09224" lon="6.35814">
        <ele>1502.0544</ele>
        <time>2011-10-06T07:54:12.600Z</time>
      </trkpt>
      <trkpt lat="44.09219" lon="6.35829">
        <ele>1502.0544</ele>
        <time>2011-10-06T07:54:12.600Z</time>
      </trkpt>
      <trkpt lat="44.09215" lon="6.35842">
        <ele>1503.8832</ele>
        <time>2011-10-06T07:54:12.600Z</time>
      </trkpt>
      <trkpt lat="44.09212" lon="6.35855">
        <ele>1502.0544</ele>
        <time>2011-10-06T07:54:12.600Z</time>
      </trkpt>
      <trkpt lat="44.09211" lon="6.35868">
        <ele>1502.0544</ele>
        <time>2011-10-06T07:54:12.600Z</time>
      </trkpt>
      <trkpt lat="44.09213" lon="6.35884">
        <ele>1502.9688</ele>
        <time>2011-10-06T07:54:12.600Z</time>
      </trkpt>
      <trkpt lat="44.09213" lon="6.35897">
        <ele>1502.9688</ele>
        <time>2011-10-06T07:54:12.600Z</time>
      </trkpt>
      <trkpt lat="44.09213" lon="6.35911">
        <ele>1502.9688</ele>
        <time>2011-10-06T07:54:12.600Z</time>
      </trkpt>
      <trkpt lat="44.09213" lon="6.35926">
        <ele>1506.0168</ele>
        <time>2011-10-06T07:54:12.600Z</time>
      </trkpt>
      <trkpt lat="44.09211" lon="6.3594">
        <ele>1506.0168</ele>
        <time>2011-10-06T07:54:12.600Z</time>
      </trkpt>
      <trkpt lat="44.09205" lon="6.35952">
        <ele>1505.1024</ele>
        <time>2011-10-06T07:54:12.600Z</time>
      </trkpt>
      <trkpt lat="44.09198" lon="6.35966">
        <ele>1502.9688</ele>
        <time>2011-10-06T07:54:12.600Z</time>
      </trkpt>
      <trkpt lat="44.09191" lon="6.35977">
        <ele>1501.14</ele>
        <time>2011-10-06T07:54:12.600Z</time>
      </trkpt>
      <trkpt lat="44.09189" lon="6.35991">
        <ele>1499.0064</ele>
        <time>2011-10-06T07:54:12.600Z</time>
      </trkpt>
      <trkpt lat="44.09186" lon="6.36008">
        <ele>1501.14</ele>
        <time>2011-10-06T07:54:12.600Z</time>
      </trkpt>
      <trkpt lat="44.09181" lon="6.36022">
        <ele>1502.9688</ele>
        <time>2011-10-06T07:54:12.600Z</time>
      </trkpt>
      <trkpt lat="44.09177" lon="6.36034">
        <ele>1503.8832</ele>
        <time>2011-10-06T07:54:12.600Z</time>
      </trkpt>
      <trkpt lat="44.09173" lon="6.36048">
        <ele>1503.8832</ele>
        <time>2011-10-06T07:54:12.600Z</time>
      </trkpt>
      <trkpt lat="44.09169" lon="6.36061">
        <ele>1502.0544</ele>
        <time>2011-10-06T07:54:12.600Z</time>
      </trkpt>
      <trkpt lat="44.09167" lon="6.36076">
        <ele>1496.8728</ele>
        <time>2011-10-06T07:54:12.600Z</time>
      </trkpt>
      <trkpt lat="44.09167" lon="6.36089">
        <ele>1488.0336</ele>
        <time>2011-10-06T07:54:12.600Z</time>
      </trkpt>
      <trkpt lat="44.09171" lon="6.36102">
        <ele>1505.1024</ele>
        <time>2011-10-06T07:54:12.600Z</time>
      </trkpt>
      <trkpt lat="44.09176" lon="6.36113">
        <ele>1509.0648</ele>
        <time>2011-10-06T07:54:12.600Z</time>
      </trkpt>
      <trkpt lat="44.09178" lon="6.36126">
        <ele>1509.9792</ele>
        <time>2011-10-06T07:54:12.600Z</time>
      </trkpt>
      <trkpt lat="44.0918" lon="6.3614">
        <ele>1509.9792</ele>
        <time>2011-10-06T07:54:12.600Z</time>
      </trkpt>
      <trkpt lat="44.09181" lon="6.36154">
        <ele>1508.1504</ele>
        <time>2011-10-06T07:54:12.600Z</time>
      </trkpt>
      <trkpt lat="44.09183" lon="6.36166">
        <ele>1506.9312</ele>
        <time>2011-10-06T07:54:12.600Z</time>
      </trkpt>
      <trkpt lat="44.09182" lon="6.36179">
        <ele>1509.9792</ele>
        <time>2011-10-06T07:54:12.600Z</time>
      </trkpt>
      <trkpt lat="44.09178" lon="6.36191">
        <ele>1510.8936</ele>
        <time>2011-10-06T07:54:12.600Z</time>
      </trkpt>
      <trkpt lat="44.09174" lon="6.36203">
        <ele>1512.1128</ele>
        <time>2011-10-06T07:54:12.600Z</time>
      </trkpt>
      <trkpt lat="44.09172" lon="6.36216">
        <ele>1512.1128</ele>
        <time>2011-10-06T07:54:12.600Z</time>
      </trkpt>
      <trkpt lat="44.09173" lon="6.36229">
        <ele>1509.9792</ele>
        <time>2011-10-06T07:54:12.600Z</time>
      </trkpt>
      <trkpt lat="44.09175" lon="6.36242">
        <ele>1506.9312</ele>
        <time>2011-10-06T07:54:12.600Z</time>
      </trkpt>
      <trkpt lat="44.09178" lon="6.36254">
        <ele>1506.9312</ele>
        <time>2011-10-06T07:54:12.600Z</time>
      </trkpt>
      <trkpt lat="44.09181" lon="6.36267">
        <ele>1510.8936</ele>
        <time>2011-10-06T07:54:12.600Z</time>
      </trkpt>
      <trkpt lat="44.09185" lon="6.36279">
        <ele>1513.0272</ele>
        <time>2011-10-06T07:54:12.600Z</time>
      </trkpt>
      <trkpt lat="44.09188" lon="6.3629">
        <ele>1513.9416</ele>
        <time>2011-10-06T07:54:12.600Z</time>
      </trkpt>
      <trkpt lat="44.09191" lon="6.36303">
        <ele>1513.9416</ele>
        <time>2011-10-06T07:54:12.600Z</time>
      </trkpt>
      <trkpt lat="44.09195" lon="6.36315">
        <ele>1513.9416</ele>
        <time>2011-10-06T07:54:12.600Z</time>
      </trkpt>
      <trkpt lat="44.09201" lon="6.36326">
        <ele>1514.856</ele>
        <time>2011-10-06T07:54:12.600Z</time>
      </trkpt>
      <trkpt lat="44.09208" lon="6.36335">
        <ele>1513.9416</ele>
        <time>2011-10-06T07:54:12.600Z</time>
      </trkpt>
      <trkpt lat="44.09215" lon="6.36345">
        <ele>1516.0752</ele>
        <time>2011-10-06T07:54:12.600Z</time>
      </trkpt>
      <trkpt lat="44.09222" lon="6.36354">
        <ele>1516.9896</ele>
        <time>2011-10-06T07:54:12.600Z</time>
      </trkpt>
      <trkpt lat="44.09228" lon="6.36364">
        <ele>1516.9896</ele>
        <time>2011-10-06T07:54:12.600Z</time>
      </trkpt>
      <trkpt lat="44.09234" lon="6.36374">
        <ele>1516.9896</ele>
        <time>2011-10-06T07:54:12.600Z</time>
      </trkpt>
      <trkpt lat="44.09238" lon="6.36385">
        <ele>1517.904</ele>
        <time>2011-10-06T07:54:12.600Z</time>
      </trkpt>
      <trkpt lat="44.09241" lon="6.36397">
        <ele>1519.1232</ele>
        <time>2011-10-06T07:54:12.600Z</time>
      </trkpt>
      <trkpt lat="44.09242" lon="6.3641">
        <ele>1520.952</ele>
        <time>2011-10-06T07:54:12.600Z</time>
      </trkpt>
      <trkpt lat="44.09243" lon="6.36423">
        <ele>1520.0376</ele>
        <time>2011-10-06T07:54:12.600Z</time>
      </trkpt>
      <trkpt lat="44.09244" lon="6.36436">
        <ele>1516.9896</ele>
        <time>2011-10-06T07:54:12.600Z</time>
      </trkpt>
      <trkpt lat="44.09247" lon="6.36448">
        <ele>1516.0752</ele>
        <time>2011-10-06T07:54:12.600Z</time>
      </trkpt>
      <trkpt lat="44.0925" lon="6.36461">
        <ele>1535.8872</ele>
        <time>2011-10-06T07:54:12.600Z</time>
      </trkpt>
      <trkpt lat="44.09252" lon="6.36473">
        <ele>1534.9728</ele>
        <time>2011-10-06T07:54:12.600Z</time>
      </trkpt>
      <trkpt lat="44.09253" lon="6.36487">
        <ele>1533.144</ele>
        <time>2011-10-06T07:54:12.600Z</time>
      </trkpt>
      <trkpt lat="44.09256" lon="6.365">
        <ele>1530.096</ele>
        <time>2011-10-06T07:54:12.600Z</time>
      </trkpt>
      <trkpt lat="44.09259" lon="6.36511">
        <ele>1533.144</ele>
        <time>2011-10-06T07:54:12.600Z</time>
      </trkpt>
      <trkpt lat="44.09262" lon="6.36524">
        <ele>1534.9728</ele>
        <time>2011-10-06T07:54:12.600Z</time>
      </trkpt>
      <trkpt lat="44.09264" lon="6.36536">
        <ele>1535.8872</ele>
        <time>2011-10-06T07:54:12.600Z</time>
      </trkpt>
      <trkpt lat="44.09266" lon="6.3655">
        <ele>1535.8872</ele>
        <time>2011-10-06T07:54:12.600Z</time>
      </trkpt>
      <trkpt lat="44.09267" lon="6.36562">
        <ele>1534.9728</ele>
        <time>2011-10-06T07:54:12.600Z</time>
      </trkpt>
      <trkpt lat="44.09267" lon="6.36575">
        <ele>1534.0584</ele>
        <time>2011-10-06T07:54:12.600Z</time>
      </trkpt>
      <trkpt lat="44.09268" lon="6.36588">
        <ele>1531.9248</ele>
        <time>2011-10-06T07:54:12.600Z</time>
      </trkpt>
      <trkpt lat="44.0927" lon="6.36601">
        <ele>1533.144</ele>
        <time>2011-10-06T07:54:12.600Z</time>
      </trkpt>
      <trkpt lat="44.0927" lon="6.36614">
        <ele>1534.0584</ele>
        <time>2011-10-06T07:54:12.600Z</time>
      </trkpt>
      <trkpt lat="44.09268" lon="6.36627">
        <ele>1534.0584</ele>
        <time>2011-10-06T07:54:12.600Z</time>
      </trkpt>
      <trkpt lat="44.09262" lon="6.3664">
        <ele>1534.0584</ele>
        <time>2011-10-06T07:54:12.600Z</time>
      </trkpt>
      <trkpt lat="44.09259" lon="6.36652">
        <ele>1534.0584</ele>
        <time>2011-10-06T07:54:12.600Z</time>
      </trkpt>
      <trkpt lat="44.09261" lon="6.36664">
        <ele>1534.0584</ele>
        <time>2011-10-06T07:54:12.600Z</time>
      </trkpt>
      <trkpt lat="44.0927" lon="6.3667">
        <ele>1531.0104</ele>
        <time>2011-10-06T07:54:12.600Z</time>
      </trkpt>
      <trkpt lat="44.09278" lon="6.36664">
        <ele>1534.9728</ele>
        <time>2011-10-06T07:54:12.600Z</time>
      </trkpt>
      <trkpt lat="44.09285" lon="6.36656">
        <ele>1534.9728</ele>
        <time>2011-10-06T07:54:12.600Z</time>
      </trkpt>
      <trkpt lat="44.09293" lon="6.36646">
        <ele>1534.9728</ele>
        <time>2011-10-06T07:54:12.600Z</time>
      </trkpt>
      <trkpt lat="44.093" lon="6.36637">
        <ele>1535.8872</ele>
        <time>2011-10-06T07:54:12.600Z</time>
      </trkpt>
      <trkpt lat="44.09306" lon="6.36626">
        <ele>1537.1064</ele>
        <time>2011-10-06T07:54:12.600Z</time>
      </trkpt>
      <trkpt lat="44.09314" lon="6.36619">
        <ele>1538.0208</ele>
        <time>2011-10-06T07:54:12.600Z</time>
      </trkpt>
      <trkpt lat="44.09322" lon="6.3661">
        <ele>1538.9352</ele>
        <time>2011-10-06T07:54:12.600Z</time>
      </trkpt>
      <trkpt lat="44.0933" lon="6.36599">
        <ele>1541.9832</ele>
        <time>2011-10-06T07:54:12.600Z</time>
      </trkpt>
      <trkpt lat="44.09338" lon="6.36588">
        <ele>1545.0312</ele>
        <time>2011-10-06T07:54:12.600Z</time>
      </trkpt>
      <trkpt lat="44.09347" lon="6.36578">
        <ele>1548.0792</ele>
        <time>2011-10-06T07:54:12.600Z</time>
      </trkpt>
      <trkpt lat="44.09354" lon="6.36571">
        <ele>1548.0792</ele>
        <time>2011-10-06T07:54:12.600Z</time>
      </trkpt>
      <trkpt lat="44.09362" lon="6.3656">
        <ele>1548.0792</ele>
        <time>2011-10-06T07:54:12.600Z</time>
      </trkpt>
      <trkpt lat="44.09371" lon="6.3655">
        <ele>1548.0792</ele>
        <time>2011-10-06T07:54:12.600Z</time>
      </trkpt>
      <trkpt lat="44.0938" lon="6.36541">
        <ele>1548.0792</ele>
        <time>2011-10-06T07:54:12.600Z</time>
      </trkpt>
      <trkpt lat="44.09387" lon="6.36534">
        <ele>1548.0792</ele>
        <time>2011-10-06T07:54:12.600Z</time>
      </trkpt>
      <trkpt lat="44.09394" lon="6.36526">
        <ele>1548.9936</ele>
        <time>2011-10-06T07:54:12.600Z</time>
      </trkpt>
      <trkpt lat="44.09402" lon="6.36518">
        <ele>1549.908</ele>
        <time>2011-10-06T07:54:12.600Z</time>
      </trkpt>
      <trkpt lat="44.09409" lon="6.3651">
        <ele>1551.1272</ele>
        <time>2011-10-06T07:54:12.600Z</time>
      </trkpt>
      <trkpt lat="44.09417" lon="6.36502">
        <ele>1552.0416</ele>
        <time>2011-10-06T07:54:12.600Z</time>
      </trkpt>
      <trkpt lat="44.09424" lon="6.36493">
        <ele>1552.956</ele>
        <time>2011-10-06T07:54:12.600Z</time>
      </trkpt>
      <trkpt lat="44.09431" lon="6.36484">
        <ele>1553.8704</ele>
        <time>2011-10-06T07:54:12.600Z</time>
      </trkpt>
      <trkpt lat="44.09442" lon="6.3647">
        <ele>1553.8704</ele>
        <time>2011-10-06T07:54:12.600Z</time>
      </trkpt>
      <trkpt lat="44.09449" lon="6.3646">
        <ele>1555.0896</ele>
        <time>2011-10-06T07:54:12.600Z</time>
      </trkpt>
      <trkpt lat="44.09457" lon="6.36449">
        <ele>1555.0896</ele>
        <time>2011-10-06T07:54:12.600Z</time>
      </trkpt>
      <trkpt lat="44.09463" lon="6.36439">
        <ele>1555.0896</ele>
        <time>2011-10-06T07:54:12.600Z</time>
      </trkpt>
      <trkpt lat="44.0947" lon="6.36429">
        <ele>1555.0896</ele>
        <time>2011-10-06T07:54:12.600Z</time>
      </trkpt>
      <trkpt lat="44.09477" lon="6.3642">
        <ele>1553.8704</ele>
        <time>2011-10-06T07:54:12.600Z</time>
      </trkpt>
      <trkpt lat="44.09483" lon="6.36412">
        <ele>1563.9288</ele>
        <time>2011-10-06T07:54:12.600Z</time>
      </trkpt>
      <trkpt lat="44.0949" lon="6.36403">
        <ele>1563.9288</ele>
        <time>2011-10-06T07:54:12.600Z</time>
      </trkpt>
      <trkpt lat="44.09499" lon="6.36394">
        <ele>1566.9768</ele>
        <time>2011-10-06T07:54:12.600Z</time>
      </trkpt>
      <trkpt lat="44.09507" lon="6.36385">
        <ele>1558.1376</ele>
        <time>2011-10-06T07:54:12.600Z</time>
      </trkpt>
      <trkpt lat="44.09514" lon="6.36377">
        <ele>1559.052</ele>
        <time>2011-10-06T07:54:12.600Z</time>
      </trkpt>
      <trkpt lat="44.09522" lon="6.36367">
        <ele>1560.8808</ele>
        <time>2011-10-06T07:54:12.600Z</time>
      </trkpt>
      <trkpt lat="44.09527" lon="6.36356">
        <ele>1563.0144</ele>
        <time>2011-10-06T07:54:12.600Z</time>
      </trkpt>
      <trkpt lat="44.09528" lon="6.36341">
        <ele>1566.0624</ele>
        <time>2011-10-06T07:54:12.600Z</time>
      </trkpt>
      <trkpt lat="44.09532" lon="6.36327">
        <ele>1583.1312</ele>
        <time>2011-10-06T07:54:12.600Z</time>
      </trkpt>
      <trkpt lat="44.0954" lon="6.36318">
        <ele>1583.1312</ele>
        <time>2011-10-06T07:54:12.600Z</time>
      </trkpt>
      <trkpt lat="44.09548" lon="6.36309">
        <ele>1581.912</ele>
        <time>2011-10-06T07:54:12.600Z</time>
      </trkpt>
      <trkpt lat="44.09556" lon="6.36303">
        <ele>1581.912</ele>
        <time>2011-10-06T07:54:12.600Z</time>
      </trkpt>
      <trkpt lat="44.09565" lon="6.36297">
        <ele>1581.912</ele>
        <time>2011-10-06T07:54:12.600Z</time>
      </trkpt>
      <trkpt lat="44.09574" lon="6.36294">
        <ele>1580.9976</ele>
        <time>2011-10-06T07:54:12.600Z</time>
      </trkpt>
      <trkpt lat="44.09584" lon="6.36293">
        <ele>1566.9768</ele>
        <time>2011-10-06T07:54:12.600Z</time>
      </trkpt>
      <trkpt lat="44.09593" lon="6.36296">
        <ele>1566.0624</ele>
        <time>2011-10-06T07:54:12.600Z</time>
      </trkpt>
      <trkpt lat="44.09603" lon="6.36296">
        <ele>1566.0624</ele>
        <time>2011-10-06T07:54:12.600Z</time>
      </trkpt>
      <trkpt lat="44.09612" lon="6.36291">
        <ele>1566.0624</ele>
        <time>2011-10-06T07:54:12.600Z</time>
      </trkpt>
      <trkpt lat="44.09622" lon="6.36286">
        <ele>1566.0624</ele>
        <time>2011-10-06T07:54:12.600Z</time>
      </trkpt>
      <trkpt lat="44.09631" lon="6.36279">
        <ele>1566.0624</ele>
        <time>2011-10-06T07:54:12.600Z</time>
      </trkpt>
      <trkpt lat="44.09639" lon="6.3627">
        <ele>1566.9768</ele>
        <time>2011-10-06T07:54:12.600Z</time>
      </trkpt>
      <trkpt lat="44.09646" lon="6.36261">
        <ele>1566.9768</ele>
        <time>2011-10-06T07:54:12.600Z</time>
      </trkpt>
      <trkpt lat="44.09655" lon="6.36254">
        <ele>1567.8912</ele>
        <time>2011-10-06T07:54:12.600Z</time>
      </trkpt>
      <trkpt lat="44.09664" lon="6.3625">
        <ele>1571.8536</ele>
        <time>2011-10-06T07:54:12.600Z</time>
      </trkpt>
      <trkpt lat="44.09673" lon="6.36244">
        <ele>1571.8536</ele>
        <time>2011-10-06T07:54:12.600Z</time>
      </trkpt>
      <trkpt lat="44.09681" lon="6.36237">
        <ele>1573.0728</ele>
        <time>2011-10-06T07:54:12.600Z</time>
      </trkpt>
      <trkpt lat="44.09687" lon="6.36226">
        <ele>1574.9016</ele>
        <time>2011-10-06T07:54:12.600Z</time>
      </trkpt>
      <trkpt lat="44.09693" lon="6.36216">
        <ele>1576.1208</ele>
        <time>2011-10-06T07:54:12.600Z</time>
      </trkpt>
      <trkpt lat="44.097" lon="6.36208">
        <ele>1577.0352</ele>
        <time>2011-10-06T07:54:12.600Z</time>
      </trkpt>
      <trkpt lat="44.09708" lon="6.36203">
        <ele>1577.0352</ele>
        <time>2011-10-06T07:54:12.600Z</time>
      </trkpt>
      <trkpt lat="44.09719" lon="6.36203">
        <ele>1576.1208</ele>
        <time>2011-10-06T07:54:12.600Z</time>
      </trkpt>
      <trkpt lat="44.09728" lon="6.362">
        <ele>1576.1208</ele>
        <time>2011-10-06T07:54:12.600Z</time>
      </trkpt>
      <trkpt lat="44.09737" lon="6.36192">
        <ele>1577.9496</ele>
        <time>2011-10-06T07:54:12.600Z</time>
      </trkpt>
      <trkpt lat="44.09745" lon="6.36185">
        <ele>1578.864</ele>
        <time>2011-10-06T07:54:12.600Z</time>
      </trkpt>
      <trkpt lat="44.09751" lon="6.36175">
        <ele>1577.9496</ele>
        <time>2011-10-06T07:54:12.600Z</time>
      </trkpt>
      <trkpt lat="44.09758" lon="6.36167">
        <ele>1577.9496</ele>
        <time>2011-10-06T07:54:12.600Z</time>
      </trkpt>
      <trkpt lat="44.09765" lon="6.36156">
        <ele>1587.0936</ele>
        <time>2011-10-06T07:54:12.600Z</time>
      </trkpt>
      <trkpt lat="44.09773" lon="6.36147">
        <ele>1588.008</ele>
        <time>2011-10-06T07:54:12.600Z</time>
      </trkpt>
      <trkpt lat="44.0978" lon="6.36141">
        <ele>1588.9224</ele>
        <time>2011-10-06T07:54:12.600Z</time>
      </trkpt>
      <trkpt lat="44.09789" lon="6.36137">
        <ele>1588.9224</ele>
        <time>2011-10-06T07:54:12.600Z</time>
      </trkpt>
      <trkpt lat="44.09798" lon="6.3613">
        <ele>1588.9224</ele>
        <time>2011-10-06T07:54:12.600Z</time>
      </trkpt>
      <trkpt lat="44.09806" lon="6.36126">
        <ele>1588.9224</ele>
        <time>2011-10-06T07:54:12.600Z</time>
      </trkpt>
      <trkpt lat="44.09815" lon="6.3612">
        <ele>1590.1416</ele>
        <time>2011-10-06T07:54:12.600Z</time>
      </trkpt>
      <trkpt lat="44.09824" lon="6.36115">
        <ele>1590.1416</ele>
        <time>2011-10-06T07:54:12.600Z</time>
      </trkpt>
      <trkpt lat="44.09831" lon="6.36109">
        <ele>1591.056</ele>
        <time>2011-10-06T07:54:12.600Z</time>
      </trkpt>
      <trkpt lat="44.09839" lon="6.36102">
        <ele>1588.008</ele>
        <time>2011-10-06T07:54:12.600Z</time>
      </trkpt>
      <trkpt lat="44.09846" lon="6.36095">
        <ele>1588.9224</ele>
        <time>2011-10-06T07:54:12.600Z</time>
      </trkpt>
      <trkpt lat="44.09855" lon="6.36089">
        <ele>1588.008</ele>
        <time>2011-10-06T07:54:12.600Z</time>
      </trkpt>
      <trkpt lat="44.09863" lon="6.36083">
        <ele>1602.0288</ele>
        <time>2011-10-06T07:54:12.600Z</time>
      </trkpt>
      <trkpt lat="44.09871" lon="6.36076">
        <ele>1602.9432</ele>
        <time>2011-10-06T07:54:12.600Z</time>
      </trkpt>
      <trkpt lat="44.09879" lon="6.36068">
        <ele>1602.9432</ele>
        <time>2011-10-06T07:54:12.600Z</time>
      </trkpt>
      <trkpt lat="44.09887" lon="6.36061">
        <ele>1602.9432</ele>
        <time>2011-10-06T07:54:12.600Z</time>
      </trkpt>
      <trkpt lat="44.09896" lon="6.36055">
        <ele>1603.8576</ele>
        <time>2011-10-06T07:54:12.600Z</time>
      </trkpt>
      <trkpt lat="44.09905" lon="6.36049">
        <ele>1603.8576</ele>
        <time>2011-10-06T07:54:12.600Z</time>
      </trkpt>
      <trkpt lat="44.09913" lon="6.36043">
        <ele>1605.9912</ele>
        <time>2011-10-06T07:54:12.600Z</time>
      </trkpt>
      <trkpt lat="44.09922" lon="6.36039">
        <ele>1601.1144</ele>
        <time>2011-10-06T07:54:12.600Z</time>
      </trkpt>
      <trkpt lat="44.09932" lon="6.36038">
        <ele>1601.1144</ele>
        <time>2011-10-06T07:54:12.600Z</time>
      </trkpt>
      <trkpt lat="44.09941" lon="6.36041">
        <ele>1599.8952</ele>
        <time>2011-10-06T07:54:12.600Z</time>
      </trkpt>
      <trkpt lat="44.09951" lon="6.36041">
        <ele>1598.9808</ele>
        <time>2011-10-06T07:54:12.600Z</time>
      </trkpt>
      <trkpt lat="44.0996" lon="6.36039">
        <ele>1598.9808</ele>
        <time>2011-10-06T07:54:12.600Z</time>
      </trkpt>
      <trkpt lat="44.09969" lon="6.36034">
        <ele>1598.9808</ele>
        <time>2011-10-06T07:54:12.600Z</time>
      </trkpt>
      <trkpt lat="44.09976" lon="6.36027">
        <ele>1599.8952</ele>
        <time>2011-10-06T07:54:12.600Z</time>
      </trkpt>
      <trkpt lat="44.09982" lon="6.36016">
        <ele>1601.1144</ele>
        <time>2011-10-06T07:54:12.600Z</time>
      </trkpt>
      <trkpt lat="44.09987" lon="6.36005">
        <ele>1602.0288</ele>
        <time>2011-10-06T07:54:12.600Z</time>
      </trkpt>
      <trkpt lat="44.09992" lon="6.35993">
        <ele>1610.868</ele>
        <time>2011-10-06T07:54:12.600Z</time>
      </trkpt>
      <trkpt lat="44.1" lon="6.35985">
        <ele>1606.9056</ele>
        <time>2011-10-06T07:54:12.600Z</time>
      </trkpt>
      <trkpt lat="44.10006" lon="6.35975">
        <ele>1608.1248</ele>
        <time>2011-10-06T07:54:12.600Z</time>
      </trkpt>
      <trkpt lat="44.10011" lon="6.35965">
        <ele>1609.9536</ele>
        <time>2011-10-06T07:54:12.600Z</time>
      </trkpt>
      <trkpt lat="44.10019" lon="6.35956">
        <ele>1610.868</ele>
        <time>2011-10-06T07:54:12.600Z</time>
      </trkpt>
      <trkpt lat="44.10028" lon="6.35949">
        <ele>1612.0872</ele>
        <time>2011-10-06T07:54:12.600Z</time>
      </trkpt>
      <trkpt lat="44.10036" lon="6.35942">
        <ele>1612.0872</ele>
        <time>2011-10-06T07:54:12.600Z</time>
      </trkpt>
      <trkpt lat="44.10045" lon="6.35936">
        <ele>1612.0872</ele>
        <time>2011-10-06T07:54:12.600Z</time>
      </trkpt>
      <trkpt lat="44.10053" lon="6.3593">
        <ele>1612.0872</ele>
        <time>2011-10-06T07:54:12.600Z</time>
      </trkpt>
      <trkpt lat="44.10061" lon="6.35922">
        <ele>1612.0872</ele>
        <time>2011-10-06T07:54:12.600Z</time>
      </trkpt>
      <trkpt lat="44.10067" lon="6.35911">
        <ele>1624.8888</ele>
        <time>2011-10-06T07:54:12.600Z</time>
      </trkpt>
      <trkpt lat="44.10074" lon="6.35901">
        <ele>1626.108</ele>
        <time>2011-10-06T07:54:12.600Z</time>
      </trkpt>
      <trkpt lat="44.10081" lon="6.35892">
        <ele>1627.9368</ele>
        <time>2011-10-06T07:54:12.600Z</time>
      </trkpt>
      <trkpt lat="44.10089" lon="6.35885">
        <ele>1624.8888</ele>
        <time>2011-10-06T07:54:12.600Z</time>
      </trkpt>
      <trkpt lat="44.10098" lon="6.35877">
        <ele>1627.9368</ele>
        <time>2011-10-06T07:54:12.600Z</time>
      </trkpt>
      <trkpt lat="44.10107" lon="6.35877">
        <ele>1627.0224</ele>
        <time>2011-10-06T07:54:12.600Z</time>
      </trkpt>
      <trkpt lat="44.10116" lon="6.3588">
        <ele>1627.0224</ele>
        <time>2011-10-06T07:54:12.600Z</time>
      </trkpt>
      <trkpt lat="44.10126" lon="6.3588">
        <ele>1627.0224</ele>
        <time>2011-10-06T07:54:12.600Z</time>
      </trkpt>
      <trkpt lat="44.10135" lon="6.35876">
        <ele>1627.0224</ele>
        <time>2011-10-06T07:54:12.600Z</time>
      </trkpt>
      <trkpt lat="44.10143" lon="6.3587">
        <ele>1627.9368</ele>
        <time>2011-10-06T07:54:12.600Z</time>
      </trkpt>
      <trkpt lat="44.10152" lon="6.35864">
        <ele>1628.8512</ele>
        <time>2011-10-06T07:54:12.600Z</time>
      </trkpt>
      <trkpt lat="44.10161" lon="6.35859">
        <ele>1630.9848</ele>
        <time>2011-10-06T07:54:12.600Z</time>
      </trkpt>
      <trkpt lat="44.1017" lon="6.35856">
        <ele>1630.9848</ele>
        <time>2011-10-06T07:54:12.600Z</time>
      </trkpt>
      <trkpt lat="44.10179" lon="6.35854">
        <ele>1631.8992</ele>
        <time>2011-10-06T07:54:12.600Z</time>
      </trkpt>
      <trkpt lat="44.10187" lon="6.35848">
        <ele>1631.8992</ele>
        <time>2011-10-06T07:54:12.600Z</time>
      </trkpt>
      <trkpt lat="44.10193" lon="6.35837">
        <ele>1633.1184</ele>
        <time>2011-10-06T07:54:12.600Z</time>
      </trkpt>
      <trkpt lat="44.102" lon="6.35828">
        <ele>1648.0536</ele>
        <time>2011-10-06T07:54:12.600Z</time>
      </trkpt>
      <trkpt lat="44.10209" lon="6.35825">
        <ele>1648.968</ele>
        <time>2011-10-06T07:54:12.600Z</time>
      </trkpt>
      <trkpt lat="44.10219" lon="6.35823">
        <ele>1648.968</ele>
        <time>2011-10-06T07:54:12.600Z</time>
      </trkpt>
      <trkpt lat="44.10228" lon="6.35824">
        <ele>1648.0536</ele>
        <time>2011-10-06T07:54:12.600Z</time>
      </trkpt>
      <trkpt lat="44.10237" lon="6.35825">
        <ele>1647.1392</ele>
        <time>2011-10-06T07:54:12.600Z</time>
      </trkpt>
      <trkpt lat="44.10247" lon="6.35826">
        <ele>1645.0056</ele>
        <time>2011-10-06T07:54:12.600Z</time>
      </trkpt>
      <trkpt lat="44.10257" lon="6.35829">
        <ele>1645.0056</ele>
        <time>2011-10-06T07:54:12.600Z</time>
      </trkpt>
      <trkpt lat="44.10267" lon="6.35828">
        <ele>1647.1392</ele>
        <time>2011-10-06T07:54:12.600Z</time>
      </trkpt>
      <trkpt lat="44.10276" lon="6.35825">
        <ele>1648.0536</ele>
        <time>2011-10-06T07:54:12.600Z</time>
      </trkpt>
      <trkpt lat="44.10287" lon="6.35823">
        <ele>1648.0536</ele>
        <time>2011-10-06T07:54:12.600Z</time>
      </trkpt>
      <trkpt lat="44.10295" lon="6.35819">
        <ele>1648.0536</ele>
        <time>2011-10-06T07:54:12.600Z</time>
      </trkpt>
      <trkpt lat="44.10302" lon="6.35811">
        <ele>1648.0536</ele>
        <time>2011-10-06T07:54:12.600Z</time>
      </trkpt>
      <trkpt lat="44.1031" lon="6.35806">
        <ele>1648.968</ele>
        <time>2011-10-06T07:54:12.600Z</time>
      </trkpt>
      <trkpt lat="44.10319" lon="6.35801">
        <ele>1648.968</ele>
        <time>2011-10-06T07:54:12.600Z</time>
      </trkpt>
      <trkpt lat="44.10328" lon="6.35796">
        <ele>1649.8824</ele>
        <time>2011-10-06T07:54:12.600Z</time>
      </trkpt>
      <trkpt lat="44.10338" lon="6.35793">
        <ele>1648.968</ele>
        <time>2011-10-06T07:54:12.600Z</time>
      </trkpt>
      <trkpt lat="44.10347" lon="6.35788">
        <ele>1649.8824</ele>
        <time>2011-10-06T07:54:12.600Z</time>
      </trkpt>
      <trkpt lat="44.10355" lon="6.35781">
        <ele>1652.016</ele>
        <time>2011-10-06T07:54:12.600Z</time>
      </trkpt>
      <trkpt lat="44.10362" lon="6.35774">
        <ele>1652.016</ele>
        <time>2011-10-06T07:54:12.600Z</time>
      </trkpt>
      <trkpt lat="44.10369" lon="6.35767">
        <ele>1652.9304</ele>
        <time>2011-10-06T07:54:12.600Z</time>
      </trkpt>
      <trkpt lat="44.10378" lon="6.35763">
        <ele>1652.9304</ele>
        <time>2011-10-06T07:54:12.600Z</time>
      </trkpt>
      <trkpt lat="44.10387" lon="6.35758">
        <ele>1652.9304</ele>
        <time>2011-10-06T07:54:12.600Z</time>
      </trkpt>
      <trkpt lat="44.10395" lon="6.35752">
        <ele>1654.1496</ele>
        <time>2011-10-06T07:54:12.600Z</time>
      </trkpt>
      <trkpt lat="44.10402" lon="6.35746">
        <ele>1666.0368</ele>
        <time>2011-10-06T07:54:12.600Z</time>
      </trkpt>
      <trkpt lat="44.10411" lon="6.35741">
        <ele>1663.9032</ele>
        <time>2011-10-06T07:54:12.600Z</time>
      </trkpt>
      <trkpt lat="44.1042" lon="6.35735">
        <ele>1666.9512</ele>
        <time>2011-10-06T07:54:12.600Z</time>
      </trkpt>
      <trkpt lat="44.10426" lon="6.35725">
        <ele>1670.9136</ele>
        <time>2011-10-06T07:54:12.600Z</time>
      </trkpt>
      <trkpt lat="44.10433" lon="6.35718">
        <ele>1673.9616</ele>
        <time>2011-10-06T07:54:12.600Z</time>
      </trkpt>
      <trkpt lat="44.10442" lon="6.35713">
        <ele>1674.876</ele>
        <time>2011-10-06T07:54:12.600Z</time>
      </trkpt>
      <trkpt lat="44.10451" lon="6.35708">
        <ele>1677.0096</ele>
        <time>2011-10-06T07:54:12.600Z</time>
      </trkpt>
      <trkpt lat="44.1046" lon="6.3571">
        <ele>1677.0096</ele>
        <time>2011-10-06T07:54:12.600Z</time>
      </trkpt>
      <trkpt lat="44.10469" lon="6.35715">
        <ele>1676.0952</ele>
        <time>2011-10-06T07:54:12.600Z</time>
      </trkpt>
      <trkpt lat="44.10479" lon="6.3572">
        <ele>1676.0952</ele>
        <time>2011-10-06T07:54:12.600Z</time>
      </trkpt>
      <trkpt lat="44.10487" lon="6.35726">
        <ele>1674.876</ele>
        <time>2011-10-06T07:54:12.600Z</time>
      </trkpt>
      <trkpt lat="44.10495" lon="6.35732">
        <ele>1673.9616</ele>
        <time>2011-10-06T07:54:12.600Z</time>
      </trkpt>
      <trkpt lat="44.10503" lon="6.35741">
        <ele>1674.876</ele>
        <time>2011-10-06T07:54:12.600Z</time>
      </trkpt>
      <trkpt lat="44.1051" lon="6.3575">
        <ele>1669.9992</ele>
        <time>2011-10-06T07:54:12.600Z</time>
      </trkpt>
      <trkpt lat="44.10518" lon="6.3576">
        <ele>1669.9992</ele>
        <time>2011-10-06T07:54:12.600Z</time>
      </trkpt>
      <trkpt lat="44.10526" lon="6.35769">
        <ele>1669.9992</ele>
        <time>2011-10-06T07:54:12.600Z</time>
      </trkpt>
      <trkpt lat="44.10534" lon="6.35776">
        <ele>1669.9992</ele>
        <time>2011-10-06T07:54:12.600Z</time>
      </trkpt>
      <trkpt lat="44.10542" lon="6.35784">
        <ele>1669.9992</ele>
        <time>2011-10-06T07:54:12.600Z</time>
      </trkpt>
      <trkpt lat="44.1055" lon="6.35793">
        <ele>1669.9992</ele>
        <time>2011-10-06T07:54:12.600Z</time>
      </trkpt>
      <trkpt lat="44.10557" lon="6.35801">
        <ele>1669.9992</ele>
        <time>2011-10-06T07:54:12.600Z</time>
      </trkpt>
      <trkpt lat="44.10565" lon="6.3581">
        <ele>1669.0848</ele>
        <time>2011-10-06T07:54:12.600Z</time>
      </trkpt>
      <trkpt lat="44.10573" lon="6.35822">
        <ele>1669.0848</ele>
        <time>2011-10-06T07:54:12.600Z</time>
      </trkpt>
      <trkpt lat="44.1058" lon="6.35832">
        <ele>1669.9992</ele>
        <time>2011-10-06T07:54:12.600Z</time>
      </trkpt>
      <trkpt lat="44.1059" lon="6.35832">
        <ele>1669.9992</ele>
        <time>2011-10-06T07:54:12.600Z</time>
      </trkpt>
      <trkpt lat="44.106" lon="6.35829">
        <ele>1670.9136</ele>
        <time>2011-10-06T07:54:12.600Z</time>
      </trkpt>
      <trkpt lat="44.10611" lon="6.3583">
        <ele>1670.9136</ele>
        <time>2011-10-06T07:54:12.600Z</time>
      </trkpt>
      <trkpt lat="44.10623" lon="6.35829">
        <ele>1669.9992</ele>
        <time>2011-10-06T07:54:12.600Z</time>
      </trkpt>
      <trkpt lat="44.10635" lon="6.35826">
        <ele>1669.0848</ele>
        <time>2011-10-06T07:54:12.600Z</time>
      </trkpt>
      <trkpt lat="44.10645" lon="6.35829">
        <ele>1667.8656</ele>
        <time>2011-10-06T07:54:12.600Z</time>
      </trkpt>
      <trkpt lat="44.10657" lon="6.35833">
        <ele>1666.0368</ele>
        <time>2011-10-06T07:54:12.600Z</time>
      </trkpt>
      <trkpt lat="44.10666" lon="6.35841">
        <ele>1663.9032</ele>
        <time>2011-10-06T07:54:12.600Z</time>
      </trkpt>
      <trkpt lat="44.10677" lon="6.35837">
        <ele>1663.9032</ele>
        <time>2011-10-06T07:54:12.600Z</time>
      </trkpt>
      <trkpt lat="44.10688" lon="6.35833">
        <ele>1660.8552</ele>
        <time>2011-10-06T07:54:12.600Z</time>
      </trkpt>
      <trkpt lat="44.10699" lon="6.35832">
        <ele>1659.9408</ele>
        <time>2011-10-06T07:54:12.600Z</time>
      </trkpt>
      <trkpt lat="44.10704" lon="6.35821">
        <ele>1659.0264</ele>
        <time>2011-10-06T07:54:12.600Z</time>
      </trkpt>
      <trkpt lat="44.10711" lon="6.35811">
        <ele>1659.0264</ele>
        <time>2011-10-06T07:54:12.600Z</time>
      </trkpt>
      <trkpt lat="44.10722" lon="6.35799">
        <ele>1658.112</ele>
        <time>2011-10-06T07:54:12.600Z</time>
      </trkpt>
      <trkpt lat="44.10732" lon="6.35785">
        <ele>1655.9784</ele>
        <time>2011-10-06T07:54:12.600Z</time>
      </trkpt>
      <trkpt lat="44.10742" lon="6.35774">
        <ele>1652.9304</ele>
        <time>2011-10-06T07:54:12.600Z</time>
      </trkpt>
      <trkpt lat="44.1075" lon="6.35762">
        <ele>1648.968</ele>
        <time>2011-10-06T07:54:12.600Z</time>
      </trkpt>
      <trkpt lat="44.10757" lon="6.35752">
        <ele>1645.0056</ele>
        <time>2011-10-06T07:54:12.600Z</time>
      </trkpt>
      <trkpt lat="44.10764" lon="6.35742">
        <ele>1635.8616</ele>
        <time>2011-10-06T07:54:12.600Z</time>
      </trkpt>
      <trkpt lat="44.10771" lon="6.35732">
        <ele>1633.1184</ele>
        <time>2011-10-06T07:54:12.600Z</time>
      </trkpt>
      <trkpt lat="44.10778" lon="6.35724">
        <ele>1630.9848</ele>
        <time>2011-10-06T07:54:12.600Z</time>
      </trkpt>
      <trkpt lat="44.10786" lon="6.35713">
        <ele>1628.8512</ele>
        <time>2011-10-06T07:54:12.600Z</time>
      </trkpt>
      <trkpt lat="44.10793" lon="6.35704">
        <ele>1627.0224</ele>
        <time>2011-10-06T07:54:12.600Z</time>
      </trkpt>
      <trkpt lat="44.10802" lon="6.35693">
        <ele>1623.06</ele>
        <time>2011-10-06T07:54:12.600Z</time>
      </trkpt>
      <trkpt lat="44.1081" lon="6.35685">
        <ele>1619.0976</ele>
        <time>2011-10-06T07:54:12.600Z</time>
      </trkpt>
      <trkpt lat="44.10817" lon="6.35676">
        <ele>1613.0016</ele>
        <time>2011-10-06T07:54:12.600Z</time>
      </trkpt>
      <trkpt lat="44.10822" lon="6.3569">
        <ele>1616.964</ele>
        <time>2011-10-06T07:54:12.600Z</time>
      </trkpt>
      <trkpt lat="44.10828" lon="6.35701">
        <ele>1620.012</ele>
        <time>2011-10-06T07:54:12.600Z</time>
      </trkpt>
      <trkpt lat="44.10837" lon="6.35711">
        <ele>1608.1248</ele>
        <time>2011-10-06T07:54:12.600Z</time>
      </trkpt>
      <trkpt lat="44.10844" lon="6.35717">
        <ele>1609.0392</ele>
        <time>2011-10-06T07:54:12.600Z</time>
      </trkpt>
      <trkpt lat="44.10853" lon="6.35726">
        <ele>1610.868</ele>
        <time>2011-10-06T07:54:12.600Z</time>
      </trkpt>
      <trkpt lat="44.10863" lon="6.35728">
        <ele>1609.9536</ele>
        <time>2011-10-06T07:54:12.600Z</time>
      </trkpt>
      <trkpt lat="44.10856" lon="6.35717">
        <ele>1608.1248</ele>
        <time>2011-10-06T07:54:12.600Z</time>
      </trkpt>
      <trkpt lat="44.1085" lon="6.35706">
        <ele>1605.0768</ele>
        <time>2011-10-06T07:54:12.600Z</time>
      </trkpt>
      <trkpt lat="44.10842" lon="6.35696">
        <ele>1602.9432</ele>
        <time>2011-10-06T07:54:12.600Z</time>
      </trkpt>
      <trkpt lat="44.10837" lon="6.35684">
        <ele>1599.8952</ele>
        <time>2011-10-06T07:54:12.600Z</time>
      </trkpt>
      <trkpt lat="44.10845" lon="6.35692">
        <ele>1602.0288</ele>
        <time>2011-10-06T07:54:12.600Z</time>
      </trkpt>
      <trkpt lat="44.10855" lon="6.35699">
        <ele>1602.9432</ele>
        <time>2011-10-06T07:54:12.600Z</time>
      </trkpt>
      <trkpt lat="44.10866" lon="6.35701">
        <ele>1602.0288</ele>
        <time>2011-10-06T07:54:12.600Z</time>
      </trkpt>
      <trkpt lat="44.10875" lon="6.35695">
        <ele>1599.8952</ele>
        <time>2011-10-06T07:54:12.600Z</time>
      </trkpt>
      <trkpt lat="44.10885" lon="6.35692">
        <ele>1597.152</ele>
        <time>2011-10-06T07:54:12.600Z</time>
      </trkpt>
      <trkpt lat="44.10894" lon="6.35694">
        <ele>1595.9328</ele>
        <time>2011-10-06T07:54:12.600Z</time>
      </trkpt>
      <trkpt lat="44.10888" lon="6.35684">
        <ele>1594.104</ele>
        <time>2011-10-06T07:54:12.600Z</time>
      </trkpt>
      <trkpt lat="44.10879" lon="6.35679">
        <ele>1595.9328</ele>
        <time>2011-10-06T07:54:12.600Z</time>
      </trkpt>
      <trkpt lat="44.10871" lon="6.3567">
        <ele>1595.9328</ele>
        <time>2011-10-06T07:54:12.600Z</time>
      </trkpt>
      <trkpt lat="44.10864" lon="6.35662">
        <ele>1574.9016</ele>
        <time>2011-10-06T07:54:12.600Z</time>
      </trkpt>
      <trkpt lat="44.10855" lon="6.3566">
        <ele>1578.864</ele>
        <time>2011-10-06T07:54:12.600Z</time>
      </trkpt>
      <trkpt lat="44.10857" lon="6.35648">
        <ele>1574.9016</ele>
        <time>2011-10-06T07:54:12.600Z</time>
      </trkpt>
      <trkpt lat="44.10866" lon="6.35653">
        <ele>1573.0728</ele>
        <time>2011-10-06T07:54:12.600Z</time>
      </trkpt>
      <trkpt lat="44.10878" lon="6.35653">
        <ele>1570.9392</ele>
        <time>2011-10-06T07:54:12.600Z</time>
      </trkpt>
      <trkpt lat="44.10887" lon="6.35649">
        <ele>1569.1104</ele>
        <time>2011-10-06T07:54:12.600Z</time>
      </trkpt>
      <trkpt lat="44.10878" lon="6.35645">
        <ele>1570.0248</ele>
        <time>2011-10-06T07:54:12.600Z</time>
      </trkpt>
      <trkpt lat="44.10868" lon="6.35643">
        <ele>1570.9392</ele>
        <time>2011-10-06T07:54:12.600Z</time>
      </trkpt>
      <trkpt lat="44.10858" lon="6.35636">
        <ele>1571.8536</ele>
        <time>2011-10-06T07:54:12.600Z</time>
      </trkpt>
      <trkpt lat="44.1085" lon="6.35633">
        <ele>1573.0728</ele>
        <time>2011-10-06T07:54:12.600Z</time>
      </trkpt>
      <trkpt lat="44.10841" lon="6.35631">
        <ele>1573.0728</ele>
        <time>2011-10-06T07:54:12.600Z</time>
      </trkpt>
      <trkpt lat="44.1084" lon="6.35618">
        <ele>1570.0248</ele>
        <time>2011-10-06T07:54:12.600Z</time>
      </trkpt>
      <trkpt lat="44.10839" lon="6.35606">
        <ele>1569.1104</ele>
        <time>2011-10-06T07:54:12.600Z</time>
      </trkpt>
      <trkpt lat="44.10846" lon="6.35599">
        <ele>1567.8912</ele>
        <time>2011-10-06T07:54:12.600Z</time>
      </trkpt>
      <trkpt lat="44.10856" lon="6.35597">
        <ele>1566.0624</ele>
        <time>2011-10-06T07:54:12.600Z</time>
      </trkpt>
      <trkpt lat="44.10866" lon="6.35599">
        <ele>1563.9288</ele>
        <time>2011-10-06T07:54:12.600Z</time>
      </trkpt>
      <trkpt lat="44.10877" lon="6.35599">
        <ele>1560.8808</ele>
        <time>2011-10-06T07:54:12.600Z</time>
      </trkpt>
      <trkpt lat="44.1089" lon="6.35595">
        <ele>1556.004</ele>
        <time>2011-10-06T07:54:12.600Z</time>
      </trkpt>
      <trkpt lat="44.109" lon="6.3559">
        <ele>1549.908</ele>
        <time>2011-10-06T07:54:12.600Z</time>
      </trkpt>
      <trkpt lat="44.10909" lon="6.35585">
        <ele>1541.0688</ele>
        <time>2011-10-06T07:54:12.600Z</time>
      </trkpt>
      <trkpt lat="44.10919" lon="6.3558">
        <ele>1528.8768</ele>
        <time>2011-10-06T07:54:12.600Z</time>
      </trkpt>
      <trkpt lat="44.10931" lon="6.35574">
        <ele>1521.8664</ele>
        <time>2011-10-06T07:54:12.600Z</time>
      </trkpt>
      <trkpt lat="44.10944" lon="6.35574">
        <ele>1517.904</ele>
        <time>2011-10-06T07:54:12.600Z</time>
      </trkpt>
      <trkpt lat="44.10956" lon="6.35574">
        <ele>1516.0752</ele>
        <time>2011-10-06T07:54:12.600Z</time>
      </trkpt>
      <trkpt lat="44.10964" lon="6.35578">
        <ele>1514.856</ele>
        <time>2011-10-06T07:54:12.600Z</time>
      </trkpt>
      <trkpt lat="44.10956" lon="6.35568">
        <ele>1514.856</ele>
        <time>2011-10-06T07:54:12.600Z</time>
      </trkpt>
      <trkpt lat="44.10948" lon="6.35559">
        <ele>1514.856</ele>
        <time>2011-10-06T07:54:12.600Z</time>
      </trkpt>
      <trkpt lat="44.1094" lon="6.35554">
        <ele>1514.856</ele>
        <time>2011-10-06T07:54:12.600Z</time>
      </trkpt>
      <trkpt lat="44.10928" lon="6.35555">
        <ele>1516.9896</ele>
        <time>2011-10-06T07:54:12.600Z</time>
      </trkpt>
      <trkpt lat="44.10918" lon="6.35555">
        <ele>1516.9896</ele>
        <time>2011-10-06T07:54:12.600Z</time>
      </trkpt>
      <trkpt lat="44.10911" lon="6.35546">
        <ele>1534.0584</ele>
        <time>2011-10-06T07:54:12.600Z</time>
      </trkpt>
      <trkpt lat="44.10922" lon="6.35538">
        <ele>1513.0272</ele>
        <time>2011-10-06T07:54:12.600Z</time>
      </trkpt>
      <trkpt lat="44.10922" lon="6.35525">
        <ele>1510.8936</ele>
        <time>2011-10-06T07:54:12.600Z</time>
      </trkpt>
      <trkpt lat="44.10929" lon="6.35517">
        <ele>1509.0648</ele>
        <time>2011-10-06T07:54:12.600Z</time>
      </trkpt>
      <trkpt lat="44.10938" lon="6.35511">
        <ele>1508.1504</ele>
        <time>2011-10-06T07:54:12.600Z</time>
      </trkpt>
      <trkpt lat="44.10947" lon="6.35505">
        <ele>1506.9312</ele>
        <time>2011-10-06T07:54:12.600Z</time>
      </trkpt>
      <trkpt lat="44.10955" lon="6.35499">
        <ele>1488.0336</ele>
        <time>2011-10-06T07:54:12.600Z</time>
      </trkpt>
      <trkpt lat="44.10964" lon="6.35493">
        <ele>1484.9856</ele>
        <time>2011-10-06T07:54:12.600Z</time>
      </trkpt>
      <trkpt lat="44.10953" lon="6.35493">
        <ele>1488.0336</ele>
        <time>2011-10-06T07:54:12.600Z</time>
      </trkpt>
      <trkpt lat="44.10944" lon="6.35496">
        <ele>1491.0816</ele>
        <time>2011-10-06T07:54:12.600Z</time>
      </trkpt>
      <trkpt lat="44.10933" lon="6.35496">
        <ele>1495.044</ele>
        <time>2011-10-06T07:54:12.600Z</time>
      </trkpt>
      <trkpt lat="44.10924" lon="6.35493">
        <ele>1499.0064</ele>
        <time>2011-10-06T07:54:12.600Z</time>
      </trkpt>
      <trkpt lat="44.10922" lon="6.3548">
        <ele>1494.1296</ele>
        <time>2011-10-06T07:54:12.600Z</time>
      </trkpt>
      <trkpt lat="44.10924" lon="6.35463">
        <ele>1488.0336</ele>
        <time>2011-10-06T07:54:12.600Z</time>
      </trkpt>
      <trkpt lat="44.10925" lon="6.35446">
        <ele>1484.9856</ele>
        <time>2011-10-06T07:54:12.600Z</time>
      </trkpt>
      <trkpt lat="44.10926" lon="6.35431">
        <ele>1484.0712</ele>
        <time>2011-10-06T07:54:12.600Z</time>
      </trkpt>
      <trkpt lat="44.10928" lon="6.35418">
        <ele>1482.852</ele>
        <time>2011-10-06T07:54:12.600Z</time>
      </trkpt>
      <trkpt lat="44.10931" lon="6.35404">
        <ele>1470.9648</ele>
        <time>2011-10-06T07:54:12.600Z</time>
      </trkpt>
      <trkpt lat="44.10929" lon="6.35391">
        <ele>1467.9168</ele>
        <time>2011-10-06T07:54:12.600Z</time>
      </trkpt>
      <trkpt lat="44.10933" lon="6.35407">
        <ele>1470.9648</ele>
        <time>2011-10-06T07:54:12.600Z</time>
      </trkpt>
      <trkpt lat="44.10936" lon="6.3542">
        <ele>1481.9376</ele>
        <time>2011-10-06T07:54:12.600Z</time>
      </trkpt>
      <trkpt lat="44.10939" lon="6.35432">
        <ele>1481.9376</ele>
        <time>2011-10-06T07:54:12.600Z</time>
      </trkpt>
      <trkpt lat="44.10949" lon="6.35442">
        <ele>1481.0232</ele>
        <time>2011-10-06T07:54:12.600Z</time>
      </trkpt>
      <trkpt lat="44.10958" lon="6.35443">
        <ele>1480.1088</ele>
        <time>2011-10-06T07:54:12.600Z</time>
      </trkpt>
      <trkpt lat="44.10969" lon="6.35432">
        <ele>1474.9272</ele>
        <time>2011-10-06T07:54:12.600Z</time>
      </trkpt>
      <trkpt lat="44.1098" lon="6.35426">
        <ele>1470.0504</ele>
        <time>2011-10-06T07:54:12.600Z</time>
      </trkpt>
      <trkpt lat="44.10991" lon="6.35422">
        <ele>1463.04</ele>
        <time>2011-10-06T07:54:12.600Z</time>
      </trkpt>
      <trkpt lat="44.11002" lon="6.35422">
        <ele>1453.896</ele>
        <time>2011-10-06T07:54:12.600Z</time>
      </trkpt>
      <trkpt lat="44.10991" lon="6.35419">
        <ele>1462.1256</ele>
        <time>2011-10-06T07:54:12.600Z</time>
      </trkpt>
      <trkpt lat="44.10978" lon="6.35415">
        <ele>1457.8584</ele>
        <time>2011-10-06T07:54:12.600Z</time>
      </trkpt>
      <trkpt lat="44.1097" lon="6.35406">
        <ele>1459.0776</ele>
        <time>2011-10-06T07:54:12.600Z</time>
      </trkpt>
      <trkpt lat="44.10964" lon="6.35397">
        <ele>1459.992</ele>
        <time>2011-10-06T07:54:12.600Z</time>
      </trkpt>
      <trkpt lat="44.10964" lon="6.35382">
        <ele>1459.0776</ele>
        <time>2011-10-06T07:54:12.600Z</time>
      </trkpt>
      <trkpt lat="44.10969" lon="6.35368">
        <ele>1456.0296</ele>
        <time>2011-10-06T07:54:12.600Z</time>
      </trkpt>
      <trkpt lat="44.10975" lon="6.35356">
        <ele>1452.0672</ele>
        <time>2011-10-06T07:54:12.600Z</time>
      </trkpt>
      <trkpt lat="44.10974" lon="6.35342">
        <ele>1449.9336</ele>
        <time>2011-10-06T07:54:12.600Z</time>
      </trkpt>
      <trkpt lat="44.10971" lon="6.35329">
        <ele>1439.8752</ele>
        <time>2011-10-06T07:54:12.600Z</time>
      </trkpt>
      <trkpt lat="44.10967" lon="6.35316">
        <ele>1439.8752</ele>
        <time>2011-10-06T07:54:12.600Z</time>
      </trkpt>
      <trkpt lat="44.1096" lon="6.35307">
        <ele>1441.0944</ele>
        <time>2011-10-06T07:54:12.600Z</time>
      </trkpt>
      <trkpt lat="44.10952" lon="6.35291">
        <ele>1441.0944</ele>
        <time>2011-10-06T07:54:12.600Z</time>
      </trkpt>
      <trkpt lat="44.10949" lon="6.35272">
        <ele>1439.8752</ele>
        <time>2011-10-06T07:54:12.600Z</time>
      </trkpt>
      <trkpt lat="44.1095" lon="6.35254">
        <ele>1439.8752</ele>
        <time>2011-10-06T07:54:12.600Z</time>
      </trkpt>
      <trkpt lat="44.10953" lon="6.35235">
        <ele>1428.9024</ele>
        <time>2011-10-06T07:54:12.600Z</time>
      </trkpt>
      <trkpt lat="44.10955" lon="6.35218">
        <ele>1425.8544</ele>
        <time>2011-10-06T07:54:12.600Z</time>
      </trkpt>
      <trkpt lat="44.10956" lon="6.35201">
        <ele>1424.94</ele>
        <time>2011-10-06T07:54:12.600Z</time>
      </trkpt>
      <trkpt lat="44.10956" lon="6.35181">
        <ele>1424.0256</ele>
        <time>2011-10-06T07:54:12.600Z</time>
      </trkpt>
      <trkpt lat="44.10956" lon="6.35166">
        <ele>1414.8816</ele>
        <time>2011-10-06T07:54:12.600Z</time>
      </trkpt>
      <trkpt lat="44.10955" lon="6.35151">
        <ele>1413.9672</ele>
        <time>2011-10-06T07:54:12.600Z</time>
      </trkpt>
      <trkpt lat="44.10953" lon="6.35137">
        <ele>1413.0528</ele>
        <time>2011-10-06T07:54:12.600Z</time>
      </trkpt>
      <trkpt lat="44.1095" lon="6.35118">
        <ele>1412.1384</ele>
        <time>2011-10-06T07:54:12.600Z</time>
      </trkpt>
      <trkpt lat="44.10945" lon="6.35103">
        <ele>1412.1384</ele>
        <time>2011-10-06T07:54:12.600Z</time>
      </trkpt>
      <trkpt lat="44.10942" lon="6.35086">
        <ele>1413.0528</ele>
        <time>2011-10-06T07:54:12.600Z</time>
      </trkpt>
      <trkpt lat="44.10938" lon="6.35073">
        <ele>1403.9088</ele>
        <time>2011-10-06T07:54:12.600Z</time>
      </trkpt>
      <trkpt lat="44.10934" lon="6.35059">
        <ele>1400.8608</ele>
        <time>2011-10-06T07:54:12.600Z</time>
      </trkpt>
      <trkpt lat="44.10931" lon="6.35044">
        <ele>1399.032</ele>
        <time>2011-10-06T07:54:12.600Z</time>
      </trkpt>
      <trkpt lat="44.10928" lon="6.3503">
        <ele>1396.8984</ele>
        <time>2011-10-06T07:54:12.600Z</time>
      </trkpt>
      <trkpt lat="44.10925" lon="6.35015">
        <ele>1396.8984</ele>
        <time>2011-10-06T07:54:12.600Z</time>
      </trkpt>
      <trkpt lat="44.10923" lon="6.34999">
        <ele>1395.0696</ele>
        <time>2011-10-06T07:54:12.600Z</time>
      </trkpt>
      <trkpt lat="44.1092" lon="6.34984">
        <ele>1388.0592</ele>
        <time>2011-10-06T07:54:12.600Z</time>
      </trkpt>
      <trkpt lat="44.10916" lon="6.34971">
        <ele>1403.9088</ele>
        <time>2011-10-06T07:54:12.600Z</time>
      </trkpt>
      <trkpt lat="44.1091" lon="6.34957">
        <ele>1402.9944</ele>
        <time>2011-10-06T07:54:12.600Z</time>
      </trkpt>
      <trkpt lat="44.10906" lon="6.34943">
        <ele>1399.032</ele>
        <time>2011-10-06T07:54:12.600Z</time>
      </trkpt>
      <trkpt lat="44.10905" lon="6.3493">
        <ele>1395.0696</ele>
        <time>2011-10-06T07:54:12.600Z</time>
      </trkpt>
      <trkpt lat="44.10902" lon="6.34916">
        <ele>1384.0968</ele>
        <time>2011-10-06T07:54:12.600Z</time>
      </trkpt>
      <trkpt lat="44.109" lon="6.34901">
        <ele>1384.0968</ele>
        <time>2011-10-06T07:54:12.600Z</time>
      </trkpt>
      <trkpt lat="44.10898" lon="6.34883">
        <ele>1384.0968</ele>
        <time>2011-10-06T07:54:12.600Z</time>
      </trkpt>
      <trkpt lat="44.10896" lon="6.34868">
        <ele>1381.9632</ele>
        <time>2011-10-06T07:54:12.600Z</time>
      </trkpt>
      <trkpt lat="44.10894" lon="6.34856">
        <ele>1380.1344</ele>
        <time>2011-10-06T07:54:12.600Z</time>
      </trkpt>
      <trkpt lat="44.10892" lon="6.34842">
        <ele>1378.0008</ele>
        <time>2011-10-06T07:54:12.600Z</time>
      </trkpt>
      <trkpt lat="44.1089" lon="6.3483">
        <ele>1367.028</ele>
        <time>2011-10-06T07:54:12.600Z</time>
      </trkpt>
      <trkpt lat="44.10889" lon="6.34811">
        <ele>1367.028</ele>
        <time>2011-10-06T07:54:12.600Z</time>
      </trkpt>
      <trkpt lat="44.10888" lon="6.34787">
        <ele>1364.8944</ele>
        <time>2011-10-06T07:54:12.600Z</time>
      </trkpt>
      <trkpt lat="44.10888" lon="6.34765">
        <ele>1362.1512</ele>
        <time>2011-10-06T07:54:12.600Z</time>
      </trkpt>
      <trkpt lat="44.10885" lon="6.34744">
        <ele>1349.9592</ele>
        <time>2011-10-06T07:54:12.600Z</time>
      </trkpt>
      <trkpt lat="44.10877" lon="6.34724">
        <ele>1349.9592</ele>
        <time>2011-10-06T07:54:12.600Z</time>
      </trkpt>
      <trkpt lat="44.10868" lon="6.34706">
        <ele>1349.0448</ele>
        <time>2011-10-06T07:54:12.600Z</time>
      </trkpt>
      <trkpt lat="44.1086" lon="6.34688">
        <ele>1349.0448</ele>
        <time>2011-10-06T07:54:12.600Z</time>
      </trkpt>
      <trkpt lat="44.10852" lon="6.34666">
        <ele>1342.0344</ele>
        <time>2011-10-06T07:54:12.600Z</time>
      </trkpt>
      <trkpt lat="44.10847" lon="6.34645">
        <ele>1338.9864</ele>
        <time>2011-10-06T07:54:12.600Z</time>
      </trkpt>
      <trkpt lat="44.10843" lon="6.34624">
        <ele>1335.024</ele>
        <time>2011-10-06T07:54:12.600Z</time>
      </trkpt>
      <trkpt lat="44.10841" lon="6.34601">
        <ele>1334.1096</ele>
        <time>2011-10-06T07:54:12.600Z</time>
      </trkpt>
      <trkpt lat="44.10841" lon="6.34588">
        <ele>1335.024</ele>
        <time>2011-10-06T07:54:12.600Z</time>
      </trkpt>
      <trkpt lat="44.10841" lon="6.34575">
        <ele>1330.1472</ele>
        <time>2011-10-06T07:54:12.600Z</time>
      </trkpt>
      <trkpt lat="44.10841" lon="6.34562">
        <ele>1324.9656</ele>
        <time>2011-10-06T07:54:12.600Z</time>
      </trkpt>
      <trkpt lat="44.10841" lon="6.34549">
        <ele>1321.9176</ele>
        <time>2011-10-06T07:54:12.600Z</time>
      </trkpt>
      <trkpt lat="44.10839" lon="6.34526">
        <ele>1321.0032</ele>
        <time>2011-10-06T07:54:12.600Z</time>
      </trkpt>
      <trkpt lat="44.10837" lon="6.34506">
        <ele>1323.1368</ele>
        <time>2011-10-06T07:54:12.600Z</time>
      </trkpt>
      <trkpt lat="44.10835" lon="6.34486">
        <ele>1317.0408</ele>
        <time>2011-10-06T07:54:12.600Z</time>
      </trkpt>
      <trkpt lat="44.10835" lon="6.34461">
        <ele>1310.9448</ele>
        <time>2011-10-06T07:54:12.600Z</time>
      </trkpt>
      <trkpt lat="44.10835" lon="6.34448">
        <ele>1310.0304</ele>
        <time>2011-10-06T07:54:12.600Z</time>
      </trkpt>
      <trkpt lat="44.10835" lon="6.34435">
        <ele>1309.116</ele>
        <time>2011-10-06T07:54:12.600Z</time>
      </trkpt>
      <trkpt lat="44.10834" lon="6.34413">
        <ele>1309.116</ele>
        <time>2011-10-06T07:54:12.600Z</time>
      </trkpt>
      <trkpt lat="44.10833" lon="6.34392">
        <ele>1300.8864</ele>
        <time>2011-10-06T07:54:12.600Z</time>
      </trkpt>
      <trkpt lat="44.10833" lon="6.34377">
        <ele>1313.0784</ele>
        <time>2011-10-06T07:54:12.600Z</time>
      </trkpt>
      <trkpt lat="44.10831" lon="6.34364">
        <ele>1310.9448</ele>
        <time>2011-10-06T07:54:12.600Z</time>
      </trkpt>
      <trkpt lat="44.10826" lon="6.34348">
        <ele>1306.9824</ele>
        <time>2011-10-06T07:54:12.600Z</time>
      </trkpt>
      <trkpt lat="44.10821" lon="6.34333">
        <ele>1298.1432</ele>
        <time>2011-10-06T07:54:12.600Z</time>
      </trkpt>
      <trkpt lat="44.10817" lon="6.34316">
        <ele>1296.924</ele>
        <time>2011-10-06T07:54:12.600Z</time>
      </trkpt>
      <trkpt lat="44.10815" lon="6.34304">
        <ele>1296.0096</ele>
        <time>2011-10-06T07:54:12.600Z</time>
      </trkpt>
      <trkpt lat="44.10811" lon="6.34291">
        <ele>1293.876</ele>
        <time>2011-10-06T07:54:12.600Z</time>
      </trkpt>
      <trkpt lat="44.10807" lon="6.34279">
        <ele>1292.0472</ele>
        <time>2011-10-06T07:54:12.600Z</time>
      </trkpt>
      <trkpt lat="44.10816" lon="6.34274">
        <ele>1288.9992</ele>
        <time>2011-10-06T07:54:12.600Z</time>
      </trkpt>
      <trkpt lat="44.10826" lon="6.34279">
        <ele>1289.9136</ele>
        <time>2011-10-06T07:54:12.600Z</time>
      </trkpt>
      <trkpt lat="44.10839" lon="6.34283">
        <ele>1278.0264</ele>
        <time>2011-10-06T07:54:12.600Z</time>
      </trkpt>
      <trkpt lat="44.10852" lon="6.34286">
        <ele>1278.0264</ele>
        <time>2011-10-06T07:54:12.600Z</time>
      </trkpt>
      <trkpt lat="44.10863" lon="6.34291">
        <ele>1278.0264</ele>
        <time>2011-10-06T07:54:12.600Z</time>
      </trkpt>
      <trkpt lat="44.10872" lon="6.34289">
        <ele>1277.112</ele>
        <time>2011-10-06T07:54:12.600Z</time>
      </trkpt>
      <trkpt lat="44.10866" lon="6.34277">
        <ele>1275.8928</ele>
        <time>2011-10-06T07:54:12.600Z</time>
      </trkpt>
      <trkpt lat="44.10857" lon="6.34268">
        <ele>1275.8928</ele>
        <time>2011-10-06T07:54:12.600Z</time>
      </trkpt>
      <trkpt lat="44.1085" lon="6.34261">
        <ele>1274.9784</ele>
        <time>2011-10-06T07:54:12.600Z</time>
      </trkpt>
      <trkpt lat="44.10843" lon="6.34253">
        <ele>1274.9784</ele>
        <time>2011-10-06T07:54:12.600Z</time>
      </trkpt>
      <trkpt lat="44.10835" lon="6.34247">
        <ele>1271.016</ele>
        <time>2011-10-06T07:54:12.600Z</time>
      </trkpt>
      <trkpt lat="44.10824" lon="6.34243">
        <ele>1271.9304</ele>
        <time>2011-10-06T07:54:12.600Z</time>
      </trkpt>
      <trkpt lat="44.10815" lon="6.34243">
        <ele>1271.016</ele>
        <time>2011-10-06T07:54:12.600Z</time>
      </trkpt>
      <trkpt lat="44.10804" lon="6.3424">
        <ele>1271.9304</ele>
        <time>2011-10-06T07:54:12.600Z</time>
      </trkpt>
      <trkpt lat="44.10795" lon="6.34237">
        <ele>1271.9304</ele>
        <time>2011-10-06T07:54:12.600Z</time>
      </trkpt>
      <trkpt lat="44.10784" lon="6.34232">
        <ele>1273.1496</ele>
        <time>2011-10-06T07:54:12.600Z</time>
      </trkpt>
      <trkpt lat="44.10775" lon="6.34227">
        <ele>1274.064</ele>
        <time>2011-10-06T07:54:12.600Z</time>
      </trkpt>
      <trkpt lat="44.10766" lon="6.34221">
        <ele>1274.064</ele>
        <time>2011-10-06T07:54:12.600Z</time>
      </trkpt>
      <trkpt lat="44.10755" lon="6.34215">
        <ele>1274.064</ele>
        <time>2011-10-06T07:54:12.600Z</time>
      </trkpt>
      <trkpt lat="44.10745" lon="6.3421">
        <ele>1279.8552</ele>
        <time>2011-10-06T07:54:12.600Z</time>
      </trkpt>
      <trkpt lat="44.10734" lon="6.34203">
        <ele>1278.9408</ele>
        <time>2011-10-06T07:54:12.600Z</time>
      </trkpt>
      <trkpt lat="44.10723" lon="6.34195">
        <ele>1278.0264</ele>
        <time>2011-10-06T07:54:12.600Z</time>
      </trkpt>
      <trkpt lat="44.10713" lon="6.34186">
        <ele>1277.112</ele>
        <time>2011-10-06T07:54:12.600Z</time>
      </trkpt>
      <trkpt lat="44.10704" lon="6.34178">
        <ele>1275.8928</ele>
        <time>2011-10-06T07:54:12.600Z</time>
      </trkpt>
      <trkpt lat="44.10694" lon="6.34169">
        <ele>1274.064</ele>
        <time>2011-10-06T07:54:12.600Z</time>
      </trkpt>
      <trkpt lat="44.10683" lon="6.34159">
        <ele>1257.9096</ele>
        <time>2011-10-06T07:54:12.600Z</time>
      </trkpt>
      <trkpt lat="44.10674" lon="6.3415">
        <ele>1257.9096</ele>
        <time>2011-10-06T07:54:12.600Z</time>
      </trkpt>
      <trkpt lat="44.10665" lon="6.34151">
        <ele>1254.8616</ele>
        <time>2011-10-06T07:54:12.600Z</time>
      </trkpt>
      <trkpt lat="44.10661" lon="6.34166">
        <ele>1260.9576</ele>
        <time>2011-10-06T07:54:12.600Z</time>
      </trkpt>
      <trkpt lat="44.10657" lon="6.34178">
        <ele>1270.1016</ele>
        <time>2011-10-06T07:54:12.600Z</time>
      </trkpt>
      <trkpt lat="44.10651" lon="6.3419">
        <ele>1273.1496</ele>
        <time>2011-10-06T07:54:12.600Z</time>
      </trkpt>
      <trkpt lat="44.10644" lon="6.34197">
        <ele>1274.064</ele>
        <time>2011-10-06T07:54:12.600Z</time>
      </trkpt>
      <trkpt lat="44.10635" lon="6.34194">
        <ele>1273.1496</ele>
        <time>2011-10-06T07:54:12.600Z</time>
      </trkpt>
      <trkpt lat="44.10626" lon="6.34188">
        <ele>1271.016</ele>
        <time>2011-10-06T07:54:12.600Z</time>
      </trkpt>
      <trkpt lat="44.10613" lon="6.34194">
        <ele>1271.016</ele>
        <time>2011-10-06T07:54:12.600Z</time>
      </trkpt>
      <trkpt lat="44.10604" lon="6.34198">
        <ele>1270.1016</ele>
        <time>2011-10-06T07:54:12.600Z</time>
      </trkpt>
      <trkpt lat="44.10595" lon="6.34194">
        <ele>1267.968</ele>
        <time>2011-10-06T07:54:12.600Z</time>
      </trkpt>
      <trkpt lat="44.10585" lon="6.34194">
        <ele>1266.1392</ele>
        <time>2011-10-06T07:54:12.600Z</time>
      </trkpt>
      <trkpt lat="44.10574" lon="6.34194">
        <ele>1260.0432</ele>
        <time>2011-10-06T07:54:12.600Z</time>
      </trkpt>
      <trkpt lat="44.10562" lon="6.3419">
        <ele>1260.0432</ele>
        <time>2011-10-06T07:54:12.600Z</time>
      </trkpt>
      <trkpt lat="44.10553" lon="6.34191">
        <ele>1260.0432</ele>
        <time>2011-10-06T07:54:12.600Z</time>
      </trkpt>
      <trkpt lat="44.10561" lon="6.34182">
        <ele>1257.9096</ele>
        <time>2011-10-06T07:54:12.600Z</time>
      </trkpt>
      <trkpt lat="44.10572" lon="6.34179">
        <ele>1256.0808</ele>
        <time>2011-10-06T07:54:12.600Z</time>
      </trkpt>
      <trkpt lat="44.10582" lon="6.34175">
        <ele>1253.0328</ele>
        <time>2011-10-06T07:54:12.600Z</time>
      </trkpt>
      <trkpt lat="44.10591" lon="6.34169">
        <ele>1256.0808</ele>
        <time>2011-10-06T07:54:12.600Z</time>
      </trkpt>
      <trkpt lat="44.106" lon="6.34165">
        <ele>1246.9368</ele>
        <time>2011-10-06T07:54:12.600Z</time>
      </trkpt>
      <trkpt lat="44.10606" lon="6.34156">
        <ele>1246.0224</ele>
        <time>2011-10-06T07:54:12.600Z</time>
      </trkpt>
      <trkpt lat="44.10613" lon="6.34147">
        <ele>1245.108</ele>
        <time>2011-10-06T07:54:12.600Z</time>
      </trkpt>
      <trkpt lat="44.10622" lon="6.34144">
        <ele>1245.108</ele>
        <time>2011-10-06T07:54:12.600Z</time>
      </trkpt>
      <trkpt lat="44.10613" lon="6.34141">
        <ele>1243.8888</ele>
        <time>2011-10-06T07:54:12.600Z</time>
      </trkpt>
      <trkpt lat="44.10604" lon="6.34146">
        <ele>1243.8888</ele>
        <time>2011-10-06T07:54:12.600Z</time>
      </trkpt>
      <trkpt lat="44.10593" lon="6.34149">
        <ele>1245.108</ele>
        <time>2011-10-06T07:54:12.600Z</time>
      </trkpt>
      <trkpt lat="44.10582" lon="6.34144">
        <ele>1239.9264</ele>
        <time>2011-10-06T07:54:12.600Z</time>
      </trkpt>
      <trkpt lat="44.10569" lon="6.34137">
        <ele>1238.0976</ele>
        <time>2011-10-06T07:54:12.600Z</time>
      </trkpt>
      <trkpt lat="44.1056" lon="6.34135">
        <ele>1236.8784</ele>
        <time>2011-10-06T07:54:12.600Z</time>
      </trkpt>
      <trkpt lat="44.10568" lon="6.34123">
        <ele>1235.0496</ele>
        <time>2011-10-06T07:54:12.600Z</time>
      </trkpt>
      <trkpt lat="44.10577" lon="6.34118">
        <ele>1232.916</ele>
        <time>2011-10-06T07:54:12.600Z</time>
      </trkpt>
      <trkpt lat="44.10585" lon="6.34113">
        <ele>1235.964</ele>
        <time>2011-10-06T07:54:12.600Z</time>
      </trkpt>
      <trkpt lat="44.10594" lon="6.34106">
        <ele>1235.0496</ele>
        <time>2011-10-06T07:54:12.600Z</time>
      </trkpt>
      <trkpt lat="44.10582" lon="6.34104">
        <ele>1228.9536</ele>
        <time>2011-10-06T07:54:12.600Z</time>
      </trkpt>
      <trkpt lat="44.1057" lon="6.34103">
        <ele>1229.868</ele>
        <time>2011-10-06T07:54:12.600Z</time>
      </trkpt>
      <trkpt lat="44.10561" lon="6.34099">
        <ele>1229.868</ele>
        <time>2011-10-06T07:54:12.600Z</time>
      </trkpt>
      <trkpt lat="44.10552" lon="6.34096">
        <ele>1231.0872</ele>
        <time>2011-10-06T07:54:12.600Z</time>
      </trkpt>
      <trkpt lat="44.10547" lon="6.34085">
        <ele>1229.868</ele>
        <time>2011-10-06T07:54:12.600Z</time>
      </trkpt>
      <trkpt lat="44.10551" lon="6.34071">
        <ele>1217.0664</ele>
        <time>2011-10-06T07:54:12.600Z</time>
      </trkpt>
      <trkpt lat="44.10542" lon="6.34062">
        <ele>1217.0664</ele>
        <time>2011-10-06T07:54:12.600Z</time>
      </trkpt>
      <trkpt lat="44.10533" lon="6.34061">
        <ele>1217.0664</ele>
        <time>2011-10-06T07:54:12.600Z</time>
      </trkpt>
      <trkpt lat="44.10528" lon="6.34049">
        <ele>1216.152</ele>
        <time>2011-10-06T07:54:12.600Z</time>
      </trkpt>
      <trkpt lat="44.10521" lon="6.34038">
        <ele>1216.152</ele>
        <time>2011-10-06T07:54:12.600Z</time>
      </trkpt>
      <trkpt lat="44.10516" lon="6.34027">
        <ele>1214.9328</ele>
        <time>2011-10-06T07:54:12.600Z</time>
      </trkpt>
      <trkpt lat="44.10519" lon="6.34014">
        <ele>1214.0184</ele>
        <time>2011-10-06T07:54:12.600Z</time>
      </trkpt>
      <trkpt lat="44.10527" lon="6.34008">
        <ele>1213.104</ele>
        <time>2011-10-06T07:54:12.600Z</time>
      </trkpt>
      <trkpt lat="44.10534" lon="6.34">
        <ele>1213.104</ele>
        <time>2011-10-06T07:54:12.600Z</time>
      </trkpt>
      <trkpt lat="44.10536" lon="6.33985">
        <ele>1206.0936</ele>
        <time>2011-10-06T07:54:12.600Z</time>
      </trkpt>
      <trkpt lat="44.10532" lon="6.33972">
        <ele>1206.0936</ele>
        <time>2011-10-06T07:54:12.600Z</time>
      </trkpt>
      <trkpt lat="44.10525" lon="6.33961">
        <ele>1207.008</ele>
        <time>2011-10-06T07:54:12.600Z</time>
      </trkpt>
      <trkpt lat="44.1052" lon="6.33947">
        <ele>1207.008</ele>
        <time>2011-10-06T07:54:12.600Z</time>
      </trkpt>
      <trkpt lat="44.1052" lon="6.33935">
        <ele>1207.008</ele>
        <time>2011-10-06T07:54:12.600Z</time>
      </trkpt>
      <trkpt lat="44.10518" lon="6.3392">
        <ele>1207.9224</ele>
        <time>2011-10-06T07:54:12.600Z</time>
      </trkpt>
      <trkpt lat="44.10516" lon="6.33906">
        <ele>1206.0936</ele>
        <time>2011-10-06T07:54:12.600Z</time>
      </trkpt>
      <trkpt lat="44.10522" lon="6.33894">
        <ele>1204.8744</ele>
        <time>2011-10-06T07:54:12.600Z</time>
      </trkpt>
      <trkpt lat="44.10517" lon="6.33883">
        <ele>1204.8744</ele>
        <time>2011-10-06T07:54:12.600Z</time>
      </trkpt>
      <trkpt lat="44.10517" lon="6.33869">
        <ele>1203.96</ele>
        <time>2011-10-06T07:54:12.600Z</time>
      </trkpt>
      <trkpt lat="44.10515" lon="6.33855">
        <ele>1204.8744</ele>
        <time>2011-10-06T07:54:12.600Z</time>
      </trkpt>
      <trkpt lat="44.10508" lon="6.33846">
        <ele>1207.008</ele>
        <time>2011-10-06T07:54:12.600Z</time>
      </trkpt>
      <trkpt lat="44.105" lon="6.33835">
        <ele>1210.056</ele>
        <time>2011-10-06T07:54:12.600Z</time>
      </trkpt>
      <trkpt lat="44.10494" lon="6.33825">
        <ele>1214.0184</ele>
        <time>2011-10-06T07:54:12.600Z</time>
      </trkpt>
      <trkpt lat="44.10487" lon="6.33817">
        <ele>1216.152</ele>
        <time>2011-10-06T07:54:12.600Z</time>
      </trkpt>
      <trkpt lat="44.10481" lon="6.33807">
        <ele>1217.0664</ele>
        <time>2011-10-06T07:54:12.600Z</time>
      </trkpt>
      <trkpt lat="44.10476" lon="6.33796">
        <ele>1217.9808</ele>
        <time>2011-10-06T07:54:12.600Z</time>
      </trkpt>
      <trkpt lat="44.10468" lon="6.33788">
        <ele>1218.8952</ele>
        <time>2011-10-06T07:54:12.600Z</time>
      </trkpt>
      <trkpt lat="44.10469" lon="6.33801">
        <ele>1218.8952</ele>
        <time>2011-10-06T07:54:12.600Z</time>
      </trkpt>
      <trkpt lat="44.10467" lon="6.33814">
        <ele>1220.1144</ele>
        <time>2011-10-06T07:54:12.600Z</time>
      </trkpt>
      <trkpt lat="44.10469" lon="6.33826">
        <ele>1218.8952</ele>
        <time>2011-10-06T07:54:12.600Z</time>
      </trkpt>
      <trkpt lat="44.1047" lon="6.33839">
        <ele>1221.0288</ele>
        <time>2011-10-06T07:54:12.600Z</time>
      </trkpt>
      <trkpt lat="44.10462" lon="6.33832">
        <ele>1221.0288</ele>
        <time>2011-10-06T07:54:12.600Z</time>
      </trkpt>
      <trkpt lat="44.10453" lon="6.33826">
        <ele>1222.8576</ele>
        <time>2011-10-06T07:54:12.600Z</time>
      </trkpt>
      <trkpt lat="44.10446" lon="6.33816">
        <ele>1224.0768</ele>
        <time>2011-10-06T07:54:12.600Z</time>
      </trkpt>
      <trkpt lat="44.10439" lon="6.33809">
        <ele>1224.9912</ele>
        <time>2011-10-06T07:54:12.600Z</time>
      </trkpt>
      <trkpt lat="44.1043" lon="6.33805">
        <ele>1225.9056</ele>
        <time>2011-10-06T07:54:12.600Z</time>
      </trkpt>
      <trkpt lat="44.10421" lon="6.33802">
        <ele>1225.9056</ele>
        <time>2011-10-06T07:54:12.600Z</time>
      </trkpt>
      <trkpt lat="44.10413" lon="6.33796">
        <ele>1242.9744</ele>
        <time>2011-10-06T07:54:12.600Z</time>
      </trkpt>
      <trkpt lat="44.10404" lon="6.33796">
        <ele>1242.9744</ele>
        <time>2011-10-06T07:54:12.600Z</time>
      </trkpt>
      <trkpt lat="44.10395" lon="6.33794">
        <ele>1243.8888</ele>
        <time>2011-10-06T07:54:12.600Z</time>
      </trkpt>
      <trkpt lat="44.10391" lon="6.33781">
        <ele>1243.8888</ele>
        <time>2011-10-06T07:54:12.600Z</time>
      </trkpt>
      <trkpt lat="44.10384" lon="6.33771">
        <ele>1245.108</ele>
        <time>2011-10-06T07:54:12.600Z</time>
      </trkpt>
      <trkpt lat="44.10377" lon="6.33764">
        <ele>1246.0224</ele>
        <time>2011-10-06T07:54:12.600Z</time>
      </trkpt>
      <trkpt lat="44.10369" lon="6.33757">
        <ele>1247.8512</ele>
        <time>2011-10-06T07:54:12.600Z</time>
      </trkpt>
      <trkpt lat="44.10362" lon="6.3375">
        <ele>1249.9848</ele>
        <time>2011-10-06T07:54:12.600Z</time>
      </trkpt>
      <trkpt lat="44.10354" lon="6.33742">
        <ele>1250.8992</ele>
        <time>2011-10-06T07:54:12.600Z</time>
      </trkpt>
      <trkpt lat="44.10351" lon="6.3373">
        <ele>1250.8992</ele>
        <time>2011-10-06T07:54:12.600Z</time>
      </trkpt>
      <trkpt lat="44.10351" lon="6.33717">
        <ele>1249.9848</ele>
        <time>2011-10-06T07:54:12.600Z</time>
      </trkpt>
      <trkpt lat="44.10343" lon="6.3371">
        <ele>1250.8992</ele>
        <time>2011-10-06T07:54:12.600Z</time>
      </trkpt>
      <trkpt lat="44.10334" lon="6.33708">
        <ele>1252.1184</ele>
        <time>2011-10-06T07:54:12.600Z</time>
      </trkpt>
      <trkpt lat="44.10329" lon="6.33699">
        <ele>1268.8824</ele>
        <time>2011-10-06T07:54:12.600Z</time>
      </trkpt>
      <trkpt lat="44.10325" lon="6.33686">
        <ele>1267.968</ele>
        <time>2011-10-06T07:54:12.600Z</time>
      </trkpt>
      <trkpt lat="44.1032" lon="6.33674">
        <ele>1267.0536</ele>
        <time>2011-10-06T07:54:12.600Z</time>
      </trkpt>
      <trkpt lat="44.10314" lon="6.33664">
        <ele>1271.016</ele>
        <time>2011-10-06T07:54:12.600Z</time>
      </trkpt>
      <trkpt lat="44.10307" lon="6.33657">
        <ele>1274.064</ele>
        <time>2011-10-06T07:54:12.600Z</time>
      </trkpt>
      <trkpt lat="44.10304" lon="6.33646">
        <ele>1275.8928</ele>
        <time>2011-10-06T07:54:12.600Z</time>
      </trkpt>
      <trkpt lat="44.10301" lon="6.33633">
        <ele>1278.0264</ele>
        <time>2011-10-06T07:54:12.600Z</time>
      </trkpt>
      <trkpt lat="44.10299" lon="6.3362">
        <ele>1278.9408</ele>
        <time>2011-10-06T07:54:12.600Z</time>
      </trkpt>
      <trkpt lat="44.10309" lon="6.33616">
        <ele>1278.0264</ele>
        <time>2011-10-06T07:54:12.600Z</time>
      </trkpt>
      <trkpt lat="44.10304" lon="6.33605">
        <ele>1278.9408</ele>
        <time>2011-10-06T07:54:12.600Z</time>
      </trkpt>
      <trkpt lat="44.10309" lon="6.33594">
        <ele>1278.0264</ele>
        <time>2011-10-06T07:54:12.600Z</time>
      </trkpt>
      <trkpt lat="44.10316" lon="6.33585">
        <ele>1277.112</ele>
        <time>2011-10-06T07:54:12.600Z</time>
      </trkpt>
      <trkpt lat="44.10323" lon="6.33576">
        <ele>1278.0264</ele>
        <time>2011-10-06T07:54:12.600Z</time>
      </trkpt>
      <trkpt lat="44.10323" lon="6.33564">
        <ele>1279.8552</ele>
        <time>2011-10-06T07:54:12.600Z</time>
      </trkpt>
      <trkpt lat="44.10314" lon="6.33562">
        <ele>1281.9888</ele>
        <time>2011-10-06T07:54:12.600Z</time>
      </trkpt>
      <trkpt lat="44.10318" lon="6.3355">
        <ele>1282.9032</ele>
        <time>2011-10-06T07:54:12.600Z</time>
      </trkpt>
      <trkpt lat="44.1031" lon="6.33543">
        <ele>1284.1224</ele>
        <time>2011-10-06T07:54:12.600Z</time>
      </trkpt>
      <trkpt lat="44.10301" lon="6.33541">
        <ele>1285.0368</ele>
        <time>2011-10-06T07:54:12.600Z</time>
      </trkpt>
      <trkpt lat="44.10296" lon="6.33532">
        <ele>1285.0368</ele>
        <time>2011-10-06T07:54:12.600Z</time>
      </trkpt>
      <trkpt lat="44.1029" lon="6.3352">
        <ele>1285.9512</ele>
        <time>2011-10-06T07:54:12.600Z</time>
      </trkpt>
      <trkpt lat="44.10286" lon="6.33509">
        <ele>1286.8656</ele>
        <time>2011-10-06T07:54:12.600Z</time>
      </trkpt>
      <trkpt lat="44.10287" lon="6.33494">
        <ele>1284.1224</ele>
        <time>2011-10-06T07:54:12.600Z</time>
      </trkpt>
      <trkpt lat="44.10288" lon="6.33478">
        <ele>1282.9032</ele>
        <time>2011-10-06T07:54:12.600Z</time>
      </trkpt>
      <trkpt lat="44.10291" lon="6.33466">
        <ele>1281.9888</ele>
        <time>2011-10-06T07:54:12.600Z</time>
      </trkpt>
      <trkpt lat="44.10296" lon="6.33456">
        <ele>1281.0744</ele>
        <time>2011-10-06T07:54:12.600Z</time>
      </trkpt>
      <trkpt lat="44.10303" lon="6.33441">
        <ele>1279.8552</ele>
        <time>2011-10-06T07:54:12.600Z</time>
      </trkpt>
      <trkpt lat="44.10311" lon="6.33434">
        <ele>1278.9408</ele>
        <time>2011-10-06T07:54:12.600Z</time>
      </trkpt>
      <trkpt lat="44.10323" lon="6.33431">
        <ele>1278.0264</ele>
        <time>2011-10-06T07:54:12.600Z</time>
      </trkpt>
      <trkpt lat="44.10336" lon="6.33429">
        <ele>1270.1016</ele>
        <time>2011-10-06T07:54:12.600Z</time>
      </trkpt>
      <trkpt lat="44.10343" lon="6.33422">
        <ele>1270.1016</ele>
        <time>2011-10-06T07:54:12.600Z</time>
      </trkpt>
      <trkpt lat="44.10343" lon="6.33408">
        <ele>1268.8824</ele>
        <time>2011-10-06T07:54:12.600Z</time>
      </trkpt>
      <trkpt lat="44.10338" lon="6.33392">
        <ele>1266.1392</ele>
        <time>2011-10-06T07:54:12.600Z</time>
      </trkpt>
      <trkpt lat="44.10329" lon="6.33376">
        <ele>1267.968</ele>
        <time>2011-10-06T07:54:12.600Z</time>
      </trkpt>
      <trkpt lat="44.10318" lon="6.33364">
        <ele>1266.1392</ele>
        <time>2011-10-06T07:54:12.600Z</time>
      </trkpt>
      <trkpt lat="44.10307" lon="6.33355">
        <ele>1266.1392</ele>
        <time>2011-10-06T07:54:12.600Z</time>
      </trkpt>
      <trkpt lat="44.10303" lon="6.33343">
        <ele>1264.92</ele>
        <time>2011-10-06T07:54:12.600Z</time>
      </trkpt>
      <trkpt lat="44.10311" lon="6.33328">
        <ele>1256.0808</ele>
        <time>2011-10-06T07:54:12.600Z</time>
      </trkpt>
      <trkpt lat="44.10319" lon="6.33322">
        <ele>1256.9952</ele>
        <time>2011-10-06T07:54:12.600Z</time>
      </trkpt>
      <trkpt lat="44.10327" lon="6.33319">
        <ele>1256.9952</ele>
        <time>2011-10-06T07:54:12.600Z</time>
      </trkpt>
      <trkpt lat="44.10343" lon="6.33316">
        <ele>1256.9952</ele>
        <time>2011-10-06T07:54:12.600Z</time>
      </trkpt>
      <trkpt lat="44.1036" lon="6.33311">
        <ele>1254.8616</ele>
        <time>2011-10-06T07:54:12.600Z</time>
      </trkpt>
      <trkpt lat="44.10378" lon="6.33306">
        <ele>1253.9472</ele>
        <time>2011-10-06T07:54:12.600Z</time>
      </trkpt>
      <trkpt lat="44.10387" lon="6.33304">
        <ele>1253.9472</ele>
        <time>2011-10-06T07:54:12.600Z</time>
      </trkpt>
      <trkpt lat="44.10396" lon="6.33302">
        <ele>1253.9472</ele>
        <time>2011-10-06T07:54:12.600Z</time>
      </trkpt>
      <trkpt lat="44.10412" lon="6.33291">
        <ele>1253.0328</ele>
        <time>2011-10-06T07:54:12.600Z</time>
      </trkpt>
      <trkpt lat="44.10421" lon="6.33284">
        <ele>1247.8512</ele>
        <time>2011-10-06T07:54:12.600Z</time>
      </trkpt>
      <trkpt lat="44.1043" lon="6.33281">
        <ele>1246.9368</ele>
        <time>2011-10-06T07:54:12.600Z</time>
      </trkpt>
      <trkpt lat="44.10439" lon="6.3328">
        <ele>1246.9368</ele>
        <time>2011-10-06T07:54:12.600Z</time>
      </trkpt>
      <trkpt lat="44.10448" lon="6.33279">
        <ele>1246.9368</ele>
        <time>2011-10-06T07:54:12.600Z</time>
      </trkpt>
      <trkpt lat="44.10465" lon="6.33275">
        <ele>1246.0224</ele>
        <time>2011-10-06T07:54:12.600Z</time>
      </trkpt>
      <trkpt lat="44.10476" lon="6.33262">
        <ele>1246.0224</ele>
        <time>2011-10-06T07:54:12.600Z</time>
      </trkpt>
      <trkpt lat="44.10486" lon="6.33245">
        <ele>1245.108</ele>
        <time>2011-10-06T07:54:12.600Z</time>
      </trkpt>
      <trkpt lat="44.10492" lon="6.33223">
        <ele>1243.8888</ele>
        <time>2011-10-06T07:54:12.600Z</time>
      </trkpt>
      <trkpt lat="44.10492" lon="6.33211">
        <ele>1242.9744</ele>
        <time>2011-10-06T07:54:12.600Z</time>
      </trkpt>
      <trkpt lat="44.10492" lon="6.33198">
        <ele>1242.06</ele>
        <time>2011-10-06T07:54:12.600Z</time>
      </trkpt>
      <trkpt lat="44.10492" lon="6.33185">
        <ele>1242.06</ele>
        <time>2011-10-06T07:54:12.600Z</time>
      </trkpt>
      <trkpt lat="44.10492" lon="6.33171">
        <ele>1241.1456</ele>
        <time>2011-10-06T07:54:12.600Z</time>
      </trkpt>
      <trkpt lat="44.10493" lon="6.33157">
        <ele>1239.012</ele>
        <time>2011-10-06T07:54:12.600Z</time>
      </trkpt>
      <trkpt lat="44.10494" lon="6.33143">
        <ele>1236.8784</ele>
        <time>2011-10-06T07:54:12.600Z</time>
      </trkpt>
      <trkpt lat="44.10496" lon="6.3313">
        <ele>1235.964</ele>
        <time>2011-10-06T07:54:12.600Z</time>
      </trkpt>
      <trkpt lat="44.10499" lon="6.33116">
        <ele>1235.964</ele>
        <time>2011-10-06T07:54:12.600Z</time>
      </trkpt>
      <trkpt lat="44.105" lon="6.33103">
        <ele>1235.964</ele>
        <time>2011-10-06T07:54:12.600Z</time>
      </trkpt>
      <trkpt lat="44.10501" lon="6.3309">
        <ele>1235.964</ele>
        <time>2011-10-06T07:54:12.600Z</time>
      </trkpt>
      <trkpt lat="44.10502" lon="6.33077">
        <ele>1235.0496</ele>
        <time>2011-10-06T07:54:12.600Z</time>
      </trkpt>
      <trkpt lat="44.10503" lon="6.33063">
        <ele>1235.0496</ele>
        <time>2011-10-06T07:54:12.600Z</time>
      </trkpt>
      <trkpt lat="44.10504" lon="6.33051">
        <ele>1234.1352</ele>
        <time>2011-10-06T07:54:12.600Z</time>
      </trkpt>
      <trkpt lat="44.10505" lon="6.33038">
        <ele>1234.1352</ele>
        <time>2011-10-06T07:54:12.600Z</time>
      </trkpt>
      <trkpt lat="44.10507" lon="6.33026">
        <ele>1232.916</ele>
        <time>2011-10-06T07:54:12.600Z</time>
      </trkpt>
      <trkpt lat="44.10509" lon="6.33013">
        <ele>1232.0016</ele>
        <time>2011-10-06T07:54:12.600Z</time>
      </trkpt>
      <trkpt lat="44.10515" lon="6.32992">
        <ele>1228.9536</ele>
        <time>2011-10-06T07:54:12.600Z</time>
      </trkpt>
      <trkpt lat="44.10523" lon="6.32973">
        <ele>1228.0392</ele>
        <time>2011-10-06T07:54:12.600Z</time>
      </trkpt>
      <trkpt lat="44.10534" lon="6.32957">
        <ele>1228.0392</ele>
        <time>2011-10-06T07:54:12.600Z</time>
      </trkpt>
      <trkpt lat="44.10544" lon="6.32946">
        <ele>1228.0392</ele>
        <time>2011-10-06T07:54:12.600Z</time>
      </trkpt>
      <trkpt lat="44.10551" lon="6.32938">
        <ele>1228.0392</ele>
        <time>2011-10-06T07:54:12.600Z</time>
      </trkpt>
      <trkpt lat="44.10545" lon="6.32928">
        <ele>1227.1248</ele>
        <time>2011-10-06T07:54:12.600Z</time>
      </trkpt>
      <trkpt lat="44.10535" lon="6.32914">
        <ele>1220.1144</ele>
        <time>2011-10-06T07:54:12.600Z</time>
      </trkpt>
      <trkpt lat="44.10527" lon="6.32904">
        <ele>1220.1144</ele>
        <time>2011-10-06T07:54:12.600Z</time>
      </trkpt>
      <trkpt lat="44.10523" lon="6.3289">
        <ele>1218.8952</ele>
        <time>2011-10-06T07:54:12.600Z</time>
      </trkpt>
      <trkpt lat="44.10518" lon="6.32879">
        <ele>1217.9808</ele>
        <time>2011-10-06T07:54:12.600Z</time>
      </trkpt>
      <trkpt lat="44.10511" lon="6.32869">
        <ele>1216.152</ele>
        <time>2011-10-06T07:54:12.600Z</time>
      </trkpt>
      <trkpt lat="44.10505" lon="6.3286">
        <ele>1214.9328</ele>
        <time>2011-10-06T07:54:12.600Z</time>
      </trkpt>
      <trkpt lat="44.105" lon="6.3285">
        <ele>1211.8848</ele>
        <time>2011-10-06T07:54:12.600Z</time>
      </trkpt>
      <trkpt lat="44.10498" lon="6.32833">
        <ele>1206.0936</ele>
        <time>2011-10-06T07:54:12.600Z</time>
      </trkpt>
      <trkpt lat="44.10499" lon="6.32818">
        <ele>1199.9976</ele>
        <time>2011-10-06T07:54:12.600Z</time>
      </trkpt>
      <trkpt lat="44.10498" lon="6.32805">
        <ele>1196.0352</ele>
        <time>2011-10-06T07:54:12.600Z</time>
      </trkpt>
      <trkpt lat="44.10499" lon="6.32791">
        <ele>1193.9016</ele>
        <time>2011-10-06T07:54:12.600Z</time>
      </trkpt>
      <trkpt lat="44.10501" lon="6.32779">
        <ele>1200.912</ele>
        <time>2011-10-06T07:54:12.600Z</time>
      </trkpt>
      <trkpt lat="44.10505" lon="6.32767">
        <ele>1199.0832</ele>
        <time>2011-10-06T07:54:12.600Z</time>
      </trkpt>
      <trkpt lat="44.1051" lon="6.32756">
        <ele>1196.9496</ele>
        <time>2011-10-06T07:54:12.600Z</time>
      </trkpt>
      <trkpt lat="44.10514" lon="6.32744">
        <ele>1192.0728</ele>
        <time>2011-10-06T07:54:12.600Z</time>
      </trkpt>
      <trkpt lat="44.1052" lon="6.3273">
        <ele>1192.0728</ele>
        <time>2011-10-06T07:54:12.600Z</time>
      </trkpt>
      <trkpt lat="44.10527" lon="6.32717">
        <ele>1192.0728</ele>
        <time>2011-10-06T07:54:12.600Z</time>
      </trkpt>
      <trkpt lat="44.10532" lon="6.32706">
        <ele>1190.8536</ele>
        <time>2011-10-06T07:54:12.600Z</time>
      </trkpt>
      <trkpt lat="44.10539" lon="6.32692">
        <ele>1190.8536</ele>
        <time>2011-10-06T07:54:12.600Z</time>
      </trkpt>
      <trkpt lat="44.10545" lon="6.32678">
        <ele>1190.8536</ele>
        <time>2011-10-06T07:54:12.600Z</time>
      </trkpt>
      <trkpt lat="44.10549" lon="6.32662">
        <ele>1184.148</ele>
        <time>2011-10-06T07:54:12.600Z</time>
      </trkpt>
      <trkpt lat="44.10547" lon="6.32647">
        <ele>1182.9288</ele>
        <time>2011-10-06T07:54:12.600Z</time>
      </trkpt>
      <trkpt lat="44.10542" lon="6.32629">
        <ele>1181.1</ele>
        <time>2011-10-06T07:54:12.600Z</time>
      </trkpt>
      <trkpt lat="44.10543" lon="6.32615">
        <ele>1181.1</ele>
        <time>2011-10-06T07:54:12.600Z</time>
      </trkpt>
      <trkpt lat="44.10544" lon="6.32603">
        <ele>1179.8808</ele>
        <time>2011-10-06T07:54:12.600Z</time>
      </trkpt>
      <trkpt lat="44.10539" lon="6.32591">
        <ele>1178.9664</ele>
        <time>2011-10-06T07:54:12.600Z</time>
      </trkpt>
      <trkpt lat="44.10538" lon="6.32574">
        <ele>1172.8704</ele>
        <time>2011-10-06T07:54:12.600Z</time>
      </trkpt>
      <trkpt lat="44.10535" lon="6.32557">
        <ele>1171.956</ele>
        <time>2011-10-06T07:54:12.600Z</time>
      </trkpt>
      <trkpt lat="44.10529" lon="6.32545">
        <ele>1171.0416</ele>
        <time>2011-10-06T07:54:12.600Z</time>
      </trkpt>
      <trkpt lat="44.10531" lon="6.3253">
        <ele>1170.1272</ele>
        <time>2011-10-06T07:54:12.600Z</time>
      </trkpt>
      <trkpt lat="44.10533" lon="6.32518">
        <ele>1170.1272</ele>
        <time>2011-10-06T07:54:12.600Z</time>
      </trkpt>
      <trkpt lat="44.10538" lon="6.32501">
        <ele>1170.1272</ele>
        <time>2011-10-06T07:54:12.600Z</time>
      </trkpt>
      <trkpt lat="44.10536" lon="6.32488">
        <ele>1164.0312</ele>
        <time>2011-10-06T07:54:12.600Z</time>
      </trkpt>
      <trkpt lat="44.10536" lon="6.32475">
        <ele>1163.1168</ele>
        <time>2011-10-06T07:54:12.600Z</time>
      </trkpt>
      <trkpt lat="44.10534" lon="6.3246">
        <ele>1161.8976</ele>
        <time>2011-10-06T07:54:12.600Z</time>
      </trkpt>
      <trkpt lat="44.10527" lon="6.32453">
        <ele>1160.9832</ele>
        <time>2011-10-06T07:54:12.600Z</time>
      </trkpt>
      <trkpt lat="44.10518" lon="6.32441">
        <ele>1158.8496</ele>
        <time>2011-10-06T07:54:12.600Z</time>
      </trkpt>
      <trkpt lat="44.1051" lon="6.32434">
        <ele>1157.0208</ele>
        <time>2011-10-06T07:54:12.600Z</time>
      </trkpt>
      <trkpt lat="44.10507" lon="6.32421">
        <ele>1153.9728</ele>
        <time>2011-10-06T07:54:12.600Z</time>
      </trkpt>
      <trkpt lat="44.10507" lon="6.32407">
        <ele>1152.144</ele>
        <time>2011-10-06T07:54:12.600Z</time>
      </trkpt>
      <trkpt lat="44.10498" lon="6.324">
        <ele>1143</ele>
        <time>2011-10-06T07:54:12.600Z</time>
      </trkpt>
      <trkpt lat="44.10488" lon="6.32398">
        <ele>1140.8664</ele>
        <time>2011-10-06T07:54:12.600Z</time>
      </trkpt>
      <trkpt lat="44.10481" lon="6.32392">
        <ele>1138.1232</ele>
        <time>2011-10-06T07:54:12.600Z</time>
      </trkpt>
      <trkpt lat="44.10476" lon="6.32377">
        <ele>1135.9896</ele>
        <time>2011-10-06T07:54:12.600Z</time>
      </trkpt>
      <trkpt lat="44.10472" lon="6.32366">
        <ele>1135.9896</ele>
        <time>2011-10-06T07:54:12.600Z</time>
      </trkpt>
      <trkpt lat="44.10467" lon="6.32354">
        <ele>1135.0752</ele>
        <time>2011-10-06T07:54:12.600Z</time>
      </trkpt>
      <trkpt lat="44.10461" lon="6.32341">
        <ele>1133.856</ele>
        <time>2011-10-06T07:54:12.600Z</time>
      </trkpt>
      <trkpt lat="44.10457" lon="6.32326">
        <ele>1131.1128</ele>
        <time>2011-10-06T07:54:12.600Z</time>
      </trkpt>
      <trkpt lat="44.10451" lon="6.32314">
        <ele>1129.8936</ele>
        <time>2011-10-06T07:54:12.600Z</time>
      </trkpt>
      <trkpt lat="44.10449" lon="6.32301">
        <ele>1128.9792</ele>
        <time>2011-10-06T07:54:12.600Z</time>
      </trkpt>
      <trkpt lat="44.10441" lon="6.32289">
        <ele>1128.0648</ele>
        <time>2011-10-06T07:54:12.600Z</time>
      </trkpt>
      <trkpt lat="44.10435" lon="6.32276">
        <ele>1127.1504</ele>
        <time>2011-10-06T07:54:12.600Z</time>
      </trkpt>
      <trkpt lat="44.10428" lon="6.32268">
        <ele>1125.9312</ele>
        <time>2011-10-06T07:54:12.600Z</time>
      </trkpt>
      <trkpt lat="44.10419" lon="6.32263">
        <ele>1125.0168</ele>
        <time>2011-10-06T07:54:12.600Z</time>
      </trkpt>
      <trkpt lat="44.1041" lon="6.32259">
        <ele>1118.0064</ele>
        <time>2011-10-06T07:54:12.600Z</time>
      </trkpt>
      <trkpt lat="44.10399" lon="6.32263">
        <ele>1115.8728</ele>
        <time>2011-10-06T07:54:12.600Z</time>
      </trkpt>
      <trkpt lat="44.10388" lon="6.32268">
        <ele>1114.044</ele>
        <time>2011-10-06T07:54:12.600Z</time>
      </trkpt>
      <trkpt lat="44.10378" lon="6.32268">
        <ele>1111.9104</ele>
        <time>2011-10-06T07:54:12.600Z</time>
      </trkpt>
      <trkpt lat="44.10367" lon="6.32264">
        <ele>1110.0816</ele>
        <time>2011-10-06T07:54:12.600Z</time>
      </trkpt>
      <trkpt lat="44.1036" lon="6.32253">
        <ele>1108.8624</ele>
        <time>2011-10-06T07:54:12.600Z</time>
      </trkpt>
      <trkpt lat="44.10354" lon="6.32241">
        <ele>1103.9856</ele>
        <time>2011-10-06T07:54:12.600Z</time>
      </trkpt>
      <trkpt lat="44.10345" lon="6.32233">
        <ele>1103.0712</ele>
        <time>2011-10-06T07:54:12.600Z</time>
      </trkpt>
      <trkpt lat="44.10336" lon="6.32231">
        <ele>1101.852</ele>
        <time>2011-10-06T07:54:12.600Z</time>
      </trkpt>
      <trkpt lat="44.10329" lon="6.32241">
        <ele>1097.8896</ele>
        <time>2011-10-06T07:54:12.600Z</time>
      </trkpt>
      <trkpt lat="44.10321" lon="6.32248">
        <ele>1096.9752</ele>
        <time>2011-10-06T07:54:12.600Z</time>
      </trkpt>
      <trkpt lat="44.10312" lon="6.32245">
        <ele>1095.1464</ele>
        <time>2011-10-06T07:54:12.600Z</time>
      </trkpt>
      <trkpt lat="44.10303" lon="6.32247">
        <ele>1093.0128</ele>
        <time>2011-10-06T07:54:12.600Z</time>
      </trkpt>
      <trkpt lat="44.10292" lon="6.32248">
        <ele>1090.8792</ele>
        <time>2011-10-06T07:54:12.600Z</time>
      </trkpt>
      <trkpt lat="44.10285" lon="6.32239">
        <ele>1089.9648</ele>
        <time>2011-10-06T07:54:12.600Z</time>
      </trkpt>
      <trkpt lat="44.10285" lon="6.32224">
        <ele>1089.0504</ele>
        <time>2011-10-06T07:54:12.600Z</time>
      </trkpt>
      <trkpt lat="44.10276" lon="6.3222">
        <ele>1089.0504</ele>
        <time>2011-10-06T07:54:12.600Z</time>
      </trkpt>
      <trkpt lat="44.10266" lon="6.32221">
        <ele>1088.136</ele>
        <time>2011-10-06T07:54:12.600Z</time>
      </trkpt>
      <trkpt lat="44.10259" lon="6.32212">
        <ele>1086.9168</ele>
        <time>2011-10-06T07:54:12.600Z</time>
      </trkpt>
      <trkpt lat="44.10252" lon="6.32202">
        <ele>1086.0024</ele>
        <time>2011-10-06T07:54:12.600Z</time>
      </trkpt>
      <trkpt lat="44.1025" lon="6.32189">
        <ele>1083.8688</ele>
        <time>2011-10-06T07:54:12.600Z</time>
      </trkpt>
      <trkpt lat="44.10248" lon="6.32177">
        <ele>1078.992</ele>
        <time>2011-10-06T07:54:12.600Z</time>
      </trkpt>
      <trkpt lat="44.10244" lon="6.32164">
        <ele>1076.8584</ele>
        <time>2011-10-06T07:54:12.600Z</time>
      </trkpt>
      <trkpt lat="44.10237" lon="6.32156">
        <ele>1075.0296</ele>
        <time>2011-10-06T07:54:12.600Z</time>
      </trkpt>
      <trkpt lat="44.10228" lon="6.32156">
        <ele>1075.0296</ele>
        <time>2011-10-06T07:54:12.600Z</time>
      </trkpt>
      <trkpt lat="44.1022" lon="6.3215">
        <ele>1074.1152</ele>
        <time>2011-10-06T07:54:12.600Z</time>
      </trkpt>
      <trkpt lat="44.10215" lon="6.32139">
        <ele>1072.896</ele>
        <time>2011-10-06T07:54:12.600Z</time>
      </trkpt>
      <trkpt lat="44.10215" lon="6.32126">
        <ele>1071.9816</ele>
        <time>2011-10-06T07:54:12.600Z</time>
      </trkpt>
      <trkpt lat="44.10211" lon="6.32115">
        <ele>1071.0672</ele>
        <time>2011-10-06T07:54:12.600Z</time>
      </trkpt>
      <trkpt lat="44.10203" lon="6.32103">
        <ele>1071.0672</ele>
        <time>2011-10-06T07:54:12.600Z</time>
      </trkpt>
      <trkpt lat="44.10195" lon="6.32093">
        <ele>1071.0672</ele>
        <time>2011-10-06T07:54:12.600Z</time>
      </trkpt>
      <trkpt lat="44.10191" lon="6.32082">
        <ele>1064.0568</ele>
        <time>2011-10-06T07:54:12.600Z</time>
      </trkpt>
      <trkpt lat="44.10184" lon="6.32074">
        <ele>1064.9712</ele>
        <time>2011-10-06T07:54:12.600Z</time>
      </trkpt>
      <trkpt lat="44.10173" lon="6.3207">
        <ele>1065.8856</ele>
        <time>2011-10-06T07:54:12.600Z</time>
      </trkpt>
      <trkpt lat="44.10164" lon="6.32069">
        <ele>1068.9336</ele>
        <time>2011-10-06T07:54:12.600Z</time>
      </trkpt>
      <trkpt lat="44.10155" lon="6.32065">
        <ele>1068.0192</ele>
        <time>2011-10-06T07:54:12.600Z</time>
      </trkpt>
      <trkpt lat="44.10146" lon="6.32064">
        <ele>1067.1048</ele>
        <time>2011-10-06T07:54:12.600Z</time>
      </trkpt>
      <trkpt lat="44.10142" lon="6.32052">
        <ele>1065.8856</ele>
        <time>2011-10-06T07:54:12.600Z</time>
      </trkpt>
      <trkpt lat="44.10137" lon="6.32041">
        <ele>1064.9712</ele>
        <time>2011-10-06T07:54:12.600Z</time>
      </trkpt>
      <trkpt lat="44.10134" lon="6.32029">
        <ele>1064.0568</ele>
        <time>2011-10-06T07:54:12.600Z</time>
      </trkpt>
      <trkpt lat="44.10136" lon="6.32016">
        <ele>1063.1424</ele>
        <time>2011-10-06T07:54:12.600Z</time>
      </trkpt>
      <trkpt lat="44.10138" lon="6.32003">
        <ele>1061.9232</ele>
        <time>2011-10-06T07:54:12.600Z</time>
      </trkpt>
      <trkpt lat="44.10135" lon="6.31992">
        <ele>1056.132</ele>
        <time>2011-10-06T07:54:12.600Z</time>
      </trkpt>
      <trkpt lat="44.10134" lon="6.31979">
        <ele>1054.9128</ele>
        <time>2011-10-06T07:54:12.600Z</time>
      </trkpt>
      <trkpt lat="44.10136" lon="6.31966">
        <ele>1053.9984</ele>
        <time>2011-10-06T07:54:12.600Z</time>
      </trkpt>
      <trkpt lat="44.10142" lon="6.31955">
        <ele>1053.084</ele>
        <time>2011-10-06T07:54:12.600Z</time>
      </trkpt>
      <trkpt lat="44.10149" lon="6.31947">
        <ele>1051.8648</ele>
        <time>2011-10-06T07:54:12.600Z</time>
      </trkpt>
      <trkpt lat="44.10156" lon="6.31935">
        <ele>1050.036</ele>
        <time>2011-10-06T07:54:12.600Z</time>
      </trkpt>
      <trkpt lat="44.10162" lon="6.31923">
        <ele>1046.0736</ele>
        <time>2011-10-06T07:54:12.600Z</time>
      </trkpt>
      <trkpt lat="44.10169" lon="6.31933">
        <ele>1043.94</ele>
        <time>2011-10-06T07:54:12.600Z</time>
      </trkpt>
      <trkpt lat="44.10177" lon="6.3194">
        <ele>1043.94</ele>
        <time>2011-10-06T07:54:12.600Z</time>
      </trkpt>
      <trkpt lat="44.10188" lon="6.31942">
        <ele>1043.94</ele>
        <time>2011-10-06T07:54:12.600Z</time>
      </trkpt>
      <trkpt lat="44.10197" lon="6.31935">
        <ele>1043.0256</ele>
        <time>2011-10-06T07:54:12.600Z</time>
      </trkpt>
      <trkpt lat="44.10203" lon="6.31924">
        <ele>1042.1112</ele>
        <time>2011-10-06T07:54:12.600Z</time>
      </trkpt>
      <trkpt lat="44.10208" lon="6.31915">
        <ele>1036.0152</ele>
        <time>2011-10-06T07:54:12.600Z</time>
      </trkpt>
      <trkpt lat="44.1021" lon="6.31899">
        <ele>1035.1008</ele>
        <time>2011-10-06T07:54:12.600Z</time>
      </trkpt>
      <trkpt lat="44.10215" lon="6.31888">
        <ele>1033.8816</ele>
        <time>2011-10-06T07:54:12.600Z</time>
      </trkpt>
      <trkpt lat="44.10219" lon="6.31876">
        <ele>1033.8816</ele>
        <time>2011-10-06T07:54:12.600Z</time>
      </trkpt>
      <trkpt lat="44.10226" lon="6.31867">
        <ele>1032.9672</ele>
        <time>2011-10-06T07:54:12.600Z</time>
      </trkpt>
      <trkpt lat="44.10231" lon="6.31855">
        <ele>1032.9672</ele>
        <time>2011-10-06T07:54:12.600Z</time>
      </trkpt>
      <trkpt lat="44.10222" lon="6.31844">
        <ele>1032.9672</ele>
        <time>2011-10-06T07:54:12.600Z</time>
      </trkpt>
      <trkpt lat="44.10221" lon="6.31831">
        <ele>1028.0904</ele>
        <time>2011-10-06T07:54:12.600Z</time>
      </trkpt>
      <trkpt lat="44.10221" lon="6.31818">
        <ele>1028.0904</ele>
        <time>2011-10-06T07:54:12.600Z</time>
      </trkpt>
      <trkpt lat="44.10219" lon="6.31804">
        <ele>1028.0904</ele>
        <time>2011-10-06T07:54:12.600Z</time>
      </trkpt>
      <trkpt lat="44.10219" lon="6.31791">
        <ele>1026.8712</ele>
        <time>2011-10-06T07:54:12.600Z</time>
      </trkpt>
      <trkpt lat="44.10219" lon="6.31778">
        <ele>1026.8712</ele>
        <time>2011-10-06T07:54:12.600Z</time>
      </trkpt>
      <trkpt lat="44.10214" lon="6.31767">
        <ele>1025.9568</ele>
        <time>2011-10-06T07:54:12.600Z</time>
      </trkpt>
      <trkpt lat="44.10212" lon="6.31755">
        <ele>1025.9568</ele>
        <time>2011-10-06T07:54:12.600Z</time>
      </trkpt>
      <trkpt lat="44.10212" lon="6.31738">
        <ele>1021.08</ele>
        <time>2011-10-06T07:54:12.600Z</time>
      </trkpt>
      <trkpt lat="44.10219" lon="6.31722">
        <ele>1021.08</ele>
        <time>2011-10-06T07:54:12.600Z</time>
      </trkpt>
      <trkpt lat="44.10223" lon="6.31711">
        <ele>1021.08</ele>
        <time>2011-10-06T07:54:12.600Z</time>
      </trkpt>
      <trkpt lat="44.1023" lon="6.31701">
        <ele>1019.8608</ele>
        <time>2011-10-06T07:54:12.600Z</time>
      </trkpt>
      <trkpt lat="44.10234" lon="6.31687">
        <ele>1019.8608</ele>
        <time>2011-10-06T07:54:12.600Z</time>
      </trkpt>
      <trkpt lat="44.10241" lon="6.31675">
        <ele>1018.9464</ele>
        <time>2011-10-06T07:54:12.600Z</time>
      </trkpt>
      <trkpt lat="44.10248" lon="6.31664">
        <ele>1018.032</ele>
        <time>2011-10-06T07:54:12.600Z</time>
      </trkpt>
      <trkpt lat="44.10259" lon="6.31655">
        <ele>1014.984</ele>
        <time>2011-10-06T07:54:12.600Z</time>
      </trkpt>
      <trkpt lat="44.1027" lon="6.31648">
        <ele>1012.8504</ele>
        <time>2011-10-06T07:54:12.600Z</time>
      </trkpt>
      <trkpt lat="44.10278" lon="6.31641">
        <ele>1011.936</ele>
        <time>2011-10-06T07:54:12.600Z</time>
      </trkpt>
      <trkpt lat="44.10285" lon="6.31632">
        <ele>1011.0216</ele>
        <time>2011-10-06T07:54:12.600Z</time>
      </trkpt>
      <trkpt lat="44.10292" lon="6.31626">
        <ele>1010.1072</ele>
        <time>2011-10-06T07:54:12.600Z</time>
      </trkpt>
      <trkpt lat="44.10302" lon="6.31623">
        <ele>1008.888</ele>
        <time>2011-10-06T07:54:12.600Z</time>
      </trkpt>
      <trkpt lat="44.1031" lon="6.3162">
        <ele>1007.9736</ele>
        <time>2011-10-06T07:54:12.600Z</time>
      </trkpt>
      <trkpt lat="44.10309" lon="6.31605">
        <ele>1007.0592</ele>
        <time>2011-10-06T07:54:12.600Z</time>
      </trkpt>
      <trkpt lat="44.10297" lon="6.31598">
        <ele>1007.9736</ele>
        <time>2011-10-06T07:54:12.600Z</time>
      </trkpt>
      <trkpt lat="44.10287" lon="6.31596">
        <ele>1007.9736</ele>
        <time>2011-10-06T07:54:12.600Z</time>
      </trkpt>
      <trkpt lat="44.10276" lon="6.31593">
        <ele>1008.888</ele>
        <time>2011-10-06T07:54:12.600Z</time>
      </trkpt>
      <trkpt lat="44.10268" lon="6.31583">
        <ele>1003.0968</ele>
        <time>2011-10-06T07:54:12.600Z</time>
      </trkpt>
      <trkpt lat="44.10266" lon="6.31571">
        <ele>1001.8776</ele>
        <time>2011-10-06T07:54:12.600Z</time>
      </trkpt>
      <trkpt lat="44.10258" lon="6.31564">
        <ele>1001.8776</ele>
        <time>2011-10-06T07:54:12.600Z</time>
      </trkpt>
      <trkpt lat="44.10248" lon="6.31562">
        <ele>1004.0112</ele>
        <time>2011-10-06T07:54:12.600Z</time>
      </trkpt>
      <trkpt lat="44.10239" lon="6.31552">
        <ele>1001.8776</ele>
        <time>2011-10-06T07:54:12.600Z</time>
      </trkpt>
      <trkpt lat="44.10232" lon="6.31539">
        <ele>1000.9632</ele>
        <time>2011-10-06T07:54:12.600Z</time>
      </trkpt>
      <trkpt lat="44.10226" lon="6.31528">
        <ele>1000.0488</ele>
        <time>2011-10-06T07:54:12.600Z</time>
      </trkpt>
      <trkpt lat="44.10232" lon="6.31516">
        <ele>999.1344</ele>
        <time>2011-10-06T07:54:12.600Z</time>
      </trkpt>
      <trkpt lat="44.10241" lon="6.31511">
        <ele>997.9152</ele>
        <time>2011-10-06T07:54:12.600Z</time>
      </trkpt>
      <trkpt lat="44.1025" lon="6.31507">
        <ele>997.0008</ele>
        <time>2011-10-06T07:54:12.600Z</time>
      </trkpt>
      <trkpt lat="44.10263" lon="6.31504">
        <ele>996.0864</ele>
        <time>2011-10-06T07:54:12.600Z</time>
      </trkpt>
      <trkpt lat="44.10259" lon="6.31487">
        <ele>992.124</ele>
        <time>2011-10-06T07:54:12.600Z</time>
      </trkpt>
      <trkpt lat="44.1025" lon="6.31476">
        <ele>993.9528</ele>
        <time>2011-10-06T07:54:12.600Z</time>
      </trkpt>
      <trkpt lat="44.10244" lon="6.31466">
        <ele>993.0384</ele>
        <time>2011-10-06T07:54:12.600Z</time>
      </trkpt>
      <trkpt lat="44.10244" lon="6.31453">
        <ele>992.124</ele>
        <time>2011-10-06T07:54:12.600Z</time>
      </trkpt>
      <trkpt lat="44.10246" lon="6.31438">
        <ele>992.124</ele>
        <time>2011-10-06T07:54:12.600Z</time>
      </trkpt>
      <trkpt lat="44.1025" lon="6.31427">
        <ele>989.9904</ele>
        <time>2011-10-06T07:54:12.600Z</time>
      </trkpt>
      <trkpt lat="44.1025" lon="6.31413">
        <ele>990.9048</ele>
        <time>2011-10-06T07:54:12.600Z</time>
      </trkpt>
      <trkpt lat="44.10244" lon="6.31399">
        <ele>989.9904</ele>
        <time>2011-10-06T07:54:12.600Z</time>
      </trkpt>
      <trkpt lat="44.1024" lon="6.31387">
        <ele>989.076</ele>
        <time>2011-10-06T07:54:12.600Z</time>
      </trkpt>
      <trkpt lat="44.10241" lon="6.31374">
        <ele>987.8568</ele>
        <time>2011-10-06T07:54:12.600Z</time>
      </trkpt>
      <trkpt lat="44.10233" lon="6.3136">
        <ele>987.8568</ele>
        <time>2011-10-06T07:54:12.600Z</time>
      </trkpt>
      <trkpt lat="44.10226" lon="6.31351">
        <ele>987.8568</ele>
        <time>2011-10-06T07:54:12.600Z</time>
      </trkpt>
      <trkpt lat="44.10222" lon="6.31339">
        <ele>987.8568</ele>
        <time>2011-10-06T07:54:12.600Z</time>
      </trkpt>
      <trkpt lat="44.10221" lon="6.31324">
        <ele>986.028</ele>
        <time>2011-10-06T07:54:12.600Z</time>
      </trkpt>
      <trkpt lat="44.10209" lon="6.31318">
        <ele>983.8944</ele>
        <time>2011-10-06T07:54:12.600Z</time>
      </trkpt>
      <trkpt lat="44.10199" lon="6.31321">
        <ele>982.98</ele>
        <time>2011-10-06T07:54:12.600Z</time>
      </trkpt>
      <trkpt lat="44.10189" lon="6.31322">
        <ele>982.98</ele>
        <time>2011-10-06T07:54:12.600Z</time>
      </trkpt>
      <trkpt lat="44.10179" lon="6.31317">
        <ele>982.0656</ele>
        <time>2011-10-06T07:54:12.600Z</time>
      </trkpt>
      <trkpt lat="44.10175" lon="6.31303">
        <ele>982.0656</ele>
        <time>2011-10-06T07:54:12.600Z</time>
      </trkpt>
      <trkpt lat="44.10173" lon="6.31286">
        <ele>981.1512</ele>
        <time>2011-10-06T07:54:12.600Z</time>
      </trkpt>
      <trkpt lat="44.1017" lon="6.31273">
        <ele>979.932</ele>
        <time>2011-10-06T07:54:12.600Z</time>
      </trkpt>
      <trkpt lat="44.10164" lon="6.31261">
        <ele>971.0928</ele>
        <time>2011-10-06T07:54:12.600Z</time>
      </trkpt>
      <trkpt lat="44.10156" lon="6.31248">
        <ele>968.0448</ele>
        <time>2011-10-06T07:54:12.600Z</time>
      </trkpt>
      <trkpt lat="44.10149" lon="6.31238">
        <ele>964.0824</ele>
        <time>2011-10-06T07:54:12.600Z</time>
      </trkpt>
      <trkpt lat="44.10143" lon="6.31227">
        <ele>961.9488</ele>
        <time>2011-10-06T07:54:12.600Z</time>
      </trkpt>
      <trkpt lat="44.10154" lon="6.31217">
        <ele>961.9488</ele>
        <time>2011-10-06T07:54:12.600Z</time>
      </trkpt>
      <trkpt lat="44.10156" lon="6.31204">
        <ele>961.0344</ele>
        <time>2011-10-06T07:54:12.600Z</time>
      </trkpt>
      <trkpt lat="44.10151" lon="6.31194">
        <ele>960.12</ele>
        <time>2011-10-06T07:54:12.600Z</time>
      </trkpt>
      <trkpt lat="44.10143" lon="6.31187">
        <ele>958.9008</ele>
        <time>2011-10-06T07:54:12.600Z</time>
      </trkpt>
      <trkpt lat="44.10142" lon="6.31174">
        <ele>958.9008</ele>
        <time>2011-10-06T07:54:12.600Z</time>
      </trkpt>
      <trkpt lat="44.10132" lon="6.31172">
        <ele>957.9864</ele>
        <time>2011-10-06T07:54:12.600Z</time>
      </trkpt>
      <trkpt lat="44.1012" lon="6.31171">
        <ele>955.8528</ele>
        <time>2011-10-06T07:54:12.600Z</time>
      </trkpt>
      <trkpt lat="44.1011" lon="6.31168">
        <ele>954.9384</ele>
        <time>2011-10-06T07:54:12.600Z</time>
      </trkpt>
      <trkpt lat="44.10099" lon="6.31163">
        <ele>950.0616</ele>
        <time>2011-10-06T07:54:12.600Z</time>
      </trkpt>
      <trkpt lat="44.1009" lon="6.31155">
        <ele>949.1472</ele>
        <time>2011-10-06T07:54:12.600Z</time>
      </trkpt>
      <trkpt lat="44.10089" lon="6.31136">
        <ele>949.1472</ele>
        <time>2011-10-06T07:54:12.600Z</time>
      </trkpt>
      <trkpt lat="44.10092" lon="6.3112">
        <ele>947.928</ele>
        <time>2011-10-06T07:54:12.600Z</time>
      </trkpt>
      <trkpt lat="44.10099" lon="6.3111">
        <ele>947.0136</ele>
        <time>2011-10-06T07:54:12.600Z</time>
      </trkpt>
      <trkpt lat="44.10105" lon="6.31099">
        <ele>946.0992</ele>
        <time>2011-10-06T07:54:12.600Z</time>
      </trkpt>
      <trkpt lat="44.10103" lon="6.31085">
        <ele>944.88</ele>
        <time>2011-10-06T07:54:12.600Z</time>
      </trkpt>
      <trkpt lat="44.10101" lon="6.31073">
        <ele>939.0888</ele>
        <time>2011-10-06T07:54:12.600Z</time>
      </trkpt>
      <trkpt lat="44.10103" lon="6.31058">
        <ele>937.8696</ele>
        <time>2011-10-06T07:54:12.600Z</time>
      </trkpt>
      <trkpt lat="44.10095" lon="6.31049">
        <ele>936.9552</ele>
        <time>2011-10-06T07:54:12.600Z</time>
      </trkpt>
      <trkpt lat="44.10088" lon="6.3104">
        <ele>936.0408</ele>
        <time>2011-10-06T07:54:12.600Z</time>
      </trkpt>
      <trkpt lat="44.1008" lon="6.3103">
        <ele>930.8592</ele>
        <time>2011-10-06T07:54:12.600Z</time>
      </trkpt>
      <trkpt lat="44.1007" lon="6.31014">
        <ele>929.9448</ele>
        <time>2011-10-06T07:54:12.600Z</time>
      </trkpt>
      <trkpt lat="44.10057" lon="6.30999">
        <ele>923.8488</ele>
        <time>2011-10-06T07:54:12.600Z</time>
      </trkpt>
      <trkpt lat="44.10045" lon="6.30985">
        <ele>922.9344</ele>
        <time>2011-10-06T07:54:12.600Z</time>
      </trkpt>
      <trkpt lat="44.10037" lon="6.30976">
        <ele>922.9344</ele>
        <time>2011-10-06T07:54:12.600Z</time>
      </trkpt>
      <trkpt lat="44.10046" lon="6.30966">
        <ele>922.9344</ele>
        <time>2011-10-06T07:54:12.600Z</time>
      </trkpt>
      <trkpt lat="44.10055" lon="6.30968">
        <ele>922.9344</ele>
        <time>2011-10-06T07:54:12.600Z</time>
      </trkpt>
      <trkpt lat="44.10064" lon="6.30979">
        <ele>923.8488</ele>
        <time>2011-10-06T07:54:12.600Z</time>
      </trkpt>
      <trkpt lat="44.10074" lon="6.30978">
        <ele>923.8488</ele>
        <time>2011-10-06T07:54:12.600Z</time>
      </trkpt>
      <trkpt lat="44.10083" lon="6.30975">
        <ele>923.8488</ele>
        <time>2011-10-06T07:54:12.600Z</time>
      </trkpt>
      <trkpt lat="44.1009" lon="6.30985">
        <ele>926.8968</ele>
        <time>2011-10-06T07:54:12.600Z</time>
      </trkpt>
      <trkpt lat="44.10098" lon="6.30992">
        <ele>928.116</ele>
        <time>2011-10-06T07:54:12.600Z</time>
      </trkpt>
      <trkpt lat="44.10106" lon="6.30996">
        <ele>928.116</ele>
        <time>2011-10-06T07:54:12.600Z</time>
      </trkpt>
      <trkpt lat="44.10114" lon="6.31001">
        <ele>933.9072</ele>
        <time>2011-10-06T07:54:12.600Z</time>
      </trkpt>
      <trkpt lat="44.10121" lon="6.30991">
        <ele>928.116</ele>
        <time>2011-10-06T07:54:12.600Z</time>
      </trkpt>
      <trkpt lat="44.10126" lon="6.3098">
        <ele>928.116</ele>
        <time>2011-10-06T07:54:12.600Z</time>
      </trkpt>
      <trkpt lat="44.10132" lon="6.30969">
        <ele>928.116</ele>
        <time>2011-10-06T07:54:12.600Z</time>
      </trkpt>
      <trkpt lat="44.10133" lon="6.30953">
        <ele>926.8968</ele>
        <time>2011-10-06T07:54:12.600Z</time>
      </trkpt>
      <trkpt lat="44.10127" lon="6.30943">
        <ele>925.9824</ele>
        <time>2011-10-06T07:54:12.600Z</time>
      </trkpt>
      <trkpt lat="44.1012" lon="6.30936">
        <ele>925.9824</ele>
        <time>2011-10-06T07:54:12.600Z</time>
      </trkpt>
      <trkpt lat="44.10115" lon="6.30926">
        <ele>925.068</ele>
        <time>2011-10-06T07:54:12.600Z</time>
      </trkpt>
      <trkpt lat="44.10109" lon="6.30916">
        <ele>922.02</ele>
        <time>2011-10-06T07:54:12.600Z</time>
      </trkpt>
      <trkpt lat="44.10107" lon="6.30903">
        <ele>922.02</ele>
        <time>2011-10-06T07:54:12.600Z</time>
      </trkpt>
      <trkpt lat="44.1011" lon="6.3089">
        <ele>922.02</ele>
        <time>2011-10-06T07:54:12.600Z</time>
      </trkpt>
      <trkpt lat="44.10112" lon="6.30877">
        <ele>922.02</ele>
        <time>2011-10-06T07:54:12.600Z</time>
      </trkpt>
      <trkpt lat="44.10119" lon="6.3087">
        <ele>922.02</ele>
        <time>2011-10-06T07:54:12.600Z</time>
      </trkpt>
      <trkpt lat="44.10128" lon="6.30867">
        <ele>922.9344</ele>
        <time>2011-10-06T07:54:12.600Z</time>
      </trkpt>
      <trkpt lat="44.10138" lon="6.30857">
        <ele>923.8488</ele>
        <time>2011-10-06T07:54:12.600Z</time>
      </trkpt>
      <trkpt lat="44.10147" lon="6.30849">
        <ele>923.8488</ele>
        <time>2011-10-06T07:54:12.600Z</time>
      </trkpt>
      <trkpt lat="44.10154" lon="6.30842">
        <ele>925.9824</ele>
        <time>2011-10-06T07:54:12.600Z</time>
      </trkpt>
      <trkpt lat="44.1016" lon="6.30831">
        <ele>926.8968</ele>
        <time>2011-10-06T07:54:12.600Z</time>
      </trkpt>
      <trkpt lat="44.10162" lon="6.30817">
        <ele>925.9824</ele>
        <time>2011-10-06T07:54:12.600Z</time>
      </trkpt>
      <trkpt lat="44.10167" lon="6.30805">
        <ele>925.068</ele>
        <time>2011-10-06T07:54:12.600Z</time>
      </trkpt>
      <trkpt lat="44.10172" lon="6.30793">
        <ele>923.8488</ele>
        <time>2011-10-06T07:54:12.600Z</time>
      </trkpt>
      <trkpt lat="44.10172" lon="6.30781">
        <ele>925.068</ele>
        <time>2011-10-06T07:54:12.600Z</time>
      </trkpt>
      <trkpt lat="44.10172" lon="6.30768">
        <ele>925.9824</ele>
        <time>2011-10-06T07:54:12.600Z</time>
      </trkpt>
      <trkpt lat="44.10171" lon="6.30756">
        <ele>928.116</ele>
        <time>2011-10-06T07:54:12.600Z</time>
      </trkpt>
      <trkpt lat="44.10169" lon="6.30743">
        <ele>926.8968</ele>
        <time>2011-10-06T07:54:12.600Z</time>
      </trkpt>
      <trkpt lat="44.10171" lon="6.30729">
        <ele>922.9344</ele>
        <time>2011-10-06T07:54:12.600Z</time>
      </trkpt>
      <trkpt lat="44.10169" lon="6.30713">
        <ele>919.8864</ele>
        <time>2011-10-06T07:54:12.600Z</time>
      </trkpt>
      <trkpt lat="44.1017" lon="6.30698">
        <ele>918.972</ele>
        <time>2011-10-06T07:54:12.600Z</time>
      </trkpt>
      <trkpt lat="44.10172" lon="6.30685">
        <ele>918.972</ele>
        <time>2011-10-06T07:54:12.600Z</time>
      </trkpt>
      <trkpt lat="44.10176" lon="6.30669">
        <ele>918.972</ele>
        <time>2011-10-06T07:54:12.600Z</time>
      </trkpt>
      <trkpt lat="44.10179" lon="6.30657">
        <ele>911.9616</ele>
        <time>2011-10-06T07:54:12.600Z</time>
      </trkpt>
      <trkpt lat="44.10174" lon="6.30647">
        <ele>910.1328</ele>
        <time>2011-10-06T07:54:12.600Z</time>
      </trkpt>
      <trkpt lat="44.10164" lon="6.30642">
        <ele>911.9616</ele>
        <time>2011-10-06T07:54:12.600Z</time>
      </trkpt>
      <trkpt lat="44.10154" lon="6.30637">
        <ele>911.0472</ele>
        <time>2011-10-06T07:54:12.600Z</time>
      </trkpt>
      <trkpt lat="44.10145" lon="6.30633">
        <ele>908.9136</ele>
        <time>2011-10-06T07:54:12.600Z</time>
      </trkpt>
      <trkpt lat="44.10134" lon="6.30628">
        <ele>907.9992</ele>
        <time>2011-10-06T07:54:12.600Z</time>
      </trkpt>
      <trkpt lat="44.10125" lon="6.30627">
        <ele>907.9992</ele>
        <time>2011-10-06T07:54:12.600Z</time>
      </trkpt>
      <trkpt lat="44.10131" lon="6.30617">
        <ele>907.0848</ele>
        <time>2011-10-06T07:54:12.600Z</time>
      </trkpt>
      <trkpt lat="44.10138" lon="6.30609">
        <ele>905.8656</ele>
        <time>2011-10-06T07:54:12.600Z</time>
      </trkpt>
      <trkpt lat="44.10129" lon="6.30605">
        <ele>904.9512</ele>
        <time>2011-10-06T07:54:12.600Z</time>
      </trkpt>
      <trkpt lat="44.10117" lon="6.30605">
        <ele>904.9512</ele>
        <time>2011-10-06T07:54:12.600Z</time>
      </trkpt>
      <trkpt lat="44.10105" lon="6.30604">
        <ele>904.9512</ele>
        <time>2011-10-06T07:54:12.600Z</time>
      </trkpt>
      <trkpt lat="44.10093" lon="6.306">
        <ele>903.1224</ele>
        <time>2011-10-06T07:54:12.600Z</time>
      </trkpt>
      <trkpt lat="44.10081" lon="6.30602">
        <ele>898.8552</ele>
        <time>2011-10-06T07:54:12.600Z</time>
      </trkpt>
      <trkpt lat="44.1007" lon="6.30601">
        <ele>897.9408</ele>
        <time>2011-10-06T07:54:12.600Z</time>
      </trkpt>
      <trkpt lat="44.10057" lon="6.30603">
        <ele>897.9408</ele>
        <time>2011-10-06T07:54:12.600Z</time>
      </trkpt>
      <trkpt lat="44.10048" lon="6.30608">
        <ele>897.0264</ele>
        <time>2011-10-06T07:54:12.600Z</time>
      </trkpt>
      <trkpt lat="44.10039" lon="6.30608">
        <ele>896.112</ele>
        <time>2011-10-06T07:54:12.600Z</time>
      </trkpt>
      <trkpt lat="44.10026" lon="6.30614">
        <ele>894.8928</ele>
        <time>2011-10-06T07:54:12.600Z</time>
      </trkpt>
      <trkpt lat="44.10017" lon="6.30618">
        <ele>894.8928</ele>
        <time>2011-10-06T07:54:12.600Z</time>
      </trkpt>
      <trkpt lat="44.10009" lon="6.30625">
        <ele>894.8928</ele>
        <time>2011-10-06T07:54:12.600Z</time>
      </trkpt>
      <trkpt lat="44.10002" lon="6.30632">
        <ele>894.8928</ele>
        <time>2011-10-06T07:54:12.600Z</time>
      </trkpt>
      <trkpt lat="44.09993" lon="6.30639">
        <ele>887.8824</ele>
        <time>2011-10-06T07:54:12.600Z</time>
      </trkpt>
      <trkpt lat="44.09985" lon="6.30646">
        <ele>889.1016</ele>
        <time>2011-10-06T07:54:12.600Z</time>
      </trkpt>
      <trkpt lat="44.09977" lon="6.30654">
        <ele>889.1016</ele>
        <time>2011-10-06T07:54:12.600Z</time>
      </trkpt>
      <trkpt lat="44.09977" lon="6.30668">
        <ele>893.064</ele>
        <time>2011-10-06T07:54:12.600Z</time>
      </trkpt>
      <trkpt lat="44.09968" lon="6.30673">
        <ele>892.1496</ele>
        <time>2011-10-06T07:54:12.600Z</time>
      </trkpt>
      <trkpt lat="44.09959" lon="6.30679">
        <ele>892.1496</ele>
        <time>2011-10-06T07:54:12.600Z</time>
      </trkpt>
      <trkpt lat="44.09953" lon="6.30689">
        <ele>892.1496</ele>
        <time>2011-10-06T07:54:12.600Z</time>
      </trkpt>
      <trkpt lat="44.09941" lon="6.30692">
        <ele>890.9304</ele>
        <time>2011-10-06T07:54:12.600Z</time>
      </trkpt>
      <trkpt lat="44.09931" lon="6.30691">
        <ele>890.016</ele>
        <time>2011-10-06T07:54:12.600Z</time>
      </trkpt>
      <trkpt lat="44.09923" lon="6.30683">
        <ele>887.8824</ele>
        <time>2011-10-06T07:54:12.600Z</time>
      </trkpt>
      <trkpt lat="44.09914" lon="6.30681">
        <ele>883.92</ele>
        <time>2011-10-06T07:54:12.600Z</time>
      </trkpt>
      <trkpt lat="44.09905" lon="6.30689">
        <ele>883.92</ele>
        <time>2011-10-06T07:54:12.600Z</time>
      </trkpt>
      <trkpt lat="44.09897" lon="6.30678">
        <ele>883.0056</ele>
        <time>2011-10-06T07:54:12.600Z</time>
      </trkpt>
      <trkpt lat="44.09892" lon="6.30665">
        <ele>879.0432</ele>
        <time>2011-10-06T07:54:12.600Z</time>
      </trkpt>
      <trkpt lat="44.09898" lon="6.30655">
        <ele>879.9576</ele>
        <time>2011-10-06T07:54:12.600Z</time>
      </trkpt>
      <trkpt lat="44.099" lon="6.30641">
        <ele>879.0432</ele>
        <time>2011-10-06T07:54:12.600Z</time>
      </trkpt>
      <trkpt lat="44.09902" lon="6.30624">
        <ele>878.1288</ele>
        <time>2011-10-06T07:54:12.600Z</time>
      </trkpt>
      <trkpt lat="44.09907" lon="6.3061">
        <ele>878.1288</ele>
        <time>2011-10-06T07:54:12.600Z</time>
      </trkpt>
      <trkpt lat="44.09906" lon="6.30596">
        <ele>878.1288</ele>
        <time>2011-10-06T07:54:12.600Z</time>
      </trkpt>
      <trkpt lat="44.09899" lon="6.30588">
        <ele>876.9096</ele>
        <time>2011-10-06T07:54:12.600Z</time>
      </trkpt>
      <trkpt lat="44.09891" lon="6.30578">
        <ele>875.9952</ele>
        <time>2011-10-06T07:54:12.600Z</time>
      </trkpt>
      <trkpt lat="44.09885" lon="6.30569">
        <ele>875.0808</ele>
        <time>2011-10-06T07:54:12.600Z</time>
      </trkpt>
      <trkpt lat="44.09878" lon="6.3056">
        <ele>875.0808</ele>
        <time>2011-10-06T07:54:12.600Z</time>
      </trkpt>
      <trkpt lat="44.09871" lon="6.3055">
        <ele>875.0808</ele>
        <time>2011-10-06T07:54:12.600Z</time>
      </trkpt>
      <trkpt lat="44.09864" lon="6.30543">
        <ele>875.0808</ele>
        <time>2011-10-06T07:54:12.600Z</time>
      </trkpt>
      <trkpt lat="44.09861" lon="6.30531">
        <ele>875.0808</ele>
        <time>2011-10-06T07:54:12.600Z</time>
      </trkpt>
      <trkpt lat="44.09857" lon="6.30519">
        <ele>875.0808</ele>
        <time>2011-10-06T07:54:12.600Z</time>
      </trkpt>
      <trkpt lat="44.09859" lon="6.30506">
        <ele>875.0808</ele>
        <time>2011-10-06T07:54:12.600Z</time>
      </trkpt>
      <trkpt lat="44.09861" lon="6.30494">
        <ele>878.1288</ele>
        <time>2011-10-06T07:54:12.600Z</time>
      </trkpt>
      <trkpt lat="44.09863" lon="6.30482">
        <ele>879.0432</ele>
        <time>2011-10-06T07:54:12.600Z</time>
      </trkpt>
      <trkpt lat="44.09864" lon="6.30469">
        <ele>879.0432</ele>
        <time>2011-10-06T07:54:12.600Z</time>
      </trkpt>
      <trkpt lat="44.09866" lon="6.30457">
        <ele>879.9576</ele>
        <time>2011-10-06T07:54:12.600Z</time>
      </trkpt>
      <trkpt lat="44.09868" lon="6.30444">
        <ele>880.872</ele>
        <time>2011-10-06T07:54:12.600Z</time>
      </trkpt>
      <trkpt lat="44.09866" lon="6.30431">
        <ele>880.872</ele>
        <time>2011-10-06T07:54:12.600Z</time>
      </trkpt>
      <trkpt lat="44.09863" lon="6.3042">
        <ele>882.0912</ele>
        <time>2011-10-06T07:54:12.600Z</time>
      </trkpt>
      <trkpt lat="44.09855" lon="6.30413">
        <ele>882.0912</ele>
        <time>2011-10-06T07:54:12.600Z</time>
      </trkpt>
      <trkpt lat="44.09847" lon="6.30404">
        <ele>882.0912</ele>
        <time>2011-10-06T07:54:12.600Z</time>
      </trkpt>
      <trkpt lat="44.09837" lon="6.304">
        <ele>882.0912</ele>
        <time>2011-10-06T07:54:12.600Z</time>
      </trkpt>
      <trkpt lat="44.09828" lon="6.30397">
        <ele>876.9096</ele>
        <time>2011-10-06T07:54:12.600Z</time>
      </trkpt>
      <trkpt lat="44.09818" lon="6.30393">
        <ele>875.0808</ele>
        <time>2011-10-06T07:54:12.600Z</time>
      </trkpt>
      <trkpt lat="44.09813" lon="6.30382">
        <ele>872.9472</ele>
        <time>2011-10-06T07:54:12.600Z</time>
      </trkpt>
      <trkpt lat="44.09805" lon="6.30376">
        <ele>872.0328</ele>
        <time>2011-10-06T07:54:12.600Z</time>
      </trkpt>
      <trkpt lat="44.09808" lon="6.30361">
        <ele>872.0328</ele>
        <time>2011-10-06T07:54:12.600Z</time>
      </trkpt>
      <trkpt lat="44.09811" lon="6.3035">
        <ele>872.0328</ele>
        <time>2011-10-06T07:54:12.600Z</time>
      </trkpt>
      <trkpt lat="44.09807" lon="6.30336">
        <ele>872.0328</ele>
        <time>2011-10-06T07:54:12.600Z</time>
      </trkpt>
      <trkpt lat="44.09806" lon="6.30321">
        <ele>866.8512</ele>
        <time>2011-10-06T07:54:12.600Z</time>
      </trkpt>
      <trkpt lat="44.09803" lon="6.30308">
        <ele>865.9368</ele>
        <time>2011-10-06T07:54:12.600Z</time>
      </trkpt>
      <trkpt lat="44.09793" lon="6.30305">
        <ele>865.0224</ele>
        <time>2011-10-06T07:54:12.600Z</time>
      </trkpt>
      <trkpt lat="44.09796" lon="6.30291">
        <ele>865.0224</ele>
        <time>2011-10-06T07:54:12.600Z</time>
      </trkpt>
      <trkpt lat="44.09787" lon="6.30285">
        <ele>864.108</ele>
        <time>2011-10-06T07:54:12.600Z</time>
      </trkpt>
      <trkpt lat="44.09778" lon="6.30281">
        <ele>864.108</ele>
        <time>2011-10-06T07:54:12.600Z</time>
      </trkpt>
      <trkpt lat="44.09773" lon="6.30267">
        <ele>864.108</ele>
        <time>2011-10-06T07:54:12.600Z</time>
      </trkpt>
      <trkpt lat="44.09777" lon="6.30254">
        <ele>864.108</ele>
        <time>2011-10-06T07:54:12.600Z</time>
      </trkpt>
      <trkpt lat="44.0977" lon="6.30243">
        <ele>861.06</ele>
        <time>2011-10-06T07:54:12.600Z</time>
      </trkpt>
      <trkpt lat="44.09765" lon="6.30231">
        <ele>861.06</ele>
        <time>2011-10-06T07:54:12.600Z</time>
      </trkpt>
      <trkpt lat="44.09758" lon="6.3022">
        <ele>861.06</ele>
        <time>2011-10-06T07:54:12.600Z</time>
      </trkpt>
      <trkpt lat="44.09747" lon="6.30215">
        <ele>858.012</ele>
        <time>2011-10-06T07:54:12.600Z</time>
      </trkpt>
      <trkpt lat="44.09735" lon="6.30216">
        <ele>858.012</ele>
        <time>2011-10-06T07:54:12.600Z</time>
      </trkpt>
      <trkpt lat="44.09723" lon="6.3022">
        <ele>857.0976</ele>
        <time>2011-10-06T07:54:12.600Z</time>
      </trkpt>
      <trkpt lat="44.09711" lon="6.30216">
        <ele>855.8784</ele>
        <time>2011-10-06T07:54:12.600Z</time>
      </trkpt>
      <trkpt lat="44.09701" lon="6.30206">
        <ele>854.964</ele>
        <time>2011-10-06T07:54:12.600Z</time>
      </trkpt>
      <trkpt lat="44.09692" lon="6.30198">
        <ele>854.964</ele>
        <time>2011-10-06T07:54:12.600Z</time>
      </trkpt>
      <trkpt lat="44.09683" lon="6.30189">
        <ele>854.0496</ele>
        <time>2011-10-06T07:54:12.600Z</time>
      </trkpt>
      <trkpt lat="44.09673" lon="6.30182">
        <ele>853.1352</ele>
        <time>2011-10-06T07:54:12.600Z</time>
      </trkpt>
      <trkpt lat="44.09664" lon="6.30181">
        <ele>847.0392</ele>
        <time>2011-10-06T07:54:12.600Z</time>
      </trkpt>
      <trkpt lat="44.09654" lon="6.30179">
        <ele>846.1248</ele>
        <time>2011-10-06T07:54:12.600Z</time>
      </trkpt>
      <trkpt lat="44.09644" lon="6.30172">
        <ele>843.9912</ele>
        <time>2011-10-06T07:54:12.600Z</time>
      </trkpt>
      <trkpt lat="44.09635" lon="6.30166">
        <ele>840.9432</ele>
        <time>2011-10-06T07:54:12.600Z</time>
      </trkpt>
      <trkpt lat="44.09624" lon="6.30159">
        <ele>839.1144</ele>
        <time>2011-10-06T07:54:12.600Z</time>
      </trkpt>
      <trkpt lat="44.09614" lon="6.30155">
        <ele>836.9808</ele>
        <time>2011-10-06T07:54:12.600Z</time>
      </trkpt>
      <trkpt lat="44.09605" lon="6.30153">
        <ele>836.0664</ele>
        <time>2011-10-06T07:54:12.600Z</time>
      </trkpt>
      <trkpt lat="44.09595" lon="6.30152">
        <ele>835.152</ele>
        <time>2011-10-06T07:54:12.600Z</time>
      </trkpt>
      <trkpt lat="44.09584" lon="6.3015">
        <ele>833.9328</ele>
        <time>2011-10-06T07:54:12.600Z</time>
      </trkpt>
      <trkpt lat="44.09573" lon="6.30148">
        <ele>822.96</ele>
        <time>2011-10-06T07:54:12.600Z</time>
      </trkpt>
      <trkpt lat="44.09565" lon="6.30145">
        <ele>821.1312</ele>
        <time>2011-10-06T07:54:12.600Z</time>
      </trkpt>
      <trkpt lat="44.09552" lon="6.30146">
        <ele>818.9976</ele>
        <time>2011-10-06T07:54:12.600Z</time>
      </trkpt>
      <trkpt lat="44.09541" lon="6.30145">
        <ele>816.864</ele>
        <time>2011-10-06T07:54:12.600Z</time>
      </trkpt>
      <trkpt lat="44.09532" lon="6.30144">
        <ele>815.9496</ele>
        <time>2011-10-06T07:54:12.600Z</time>
      </trkpt>
      <trkpt lat="44.09523" lon="6.30142">
        <ele>815.0352</ele>
        <time>2011-10-06T07:54:12.600Z</time>
      </trkpt>
      <trkpt lat="44.09514" lon="6.30139">
        <ele>814.1208</ele>
        <time>2011-10-06T07:54:12.600Z</time>
      </trkpt>
      <trkpt lat="44.09504" lon="6.30132">
        <ele>812.9016</ele>
        <time>2011-10-06T07:54:12.600Z</time>
      </trkpt>
      <trkpt lat="44.09512" lon="6.30122">
        <ele>812.9016</ele>
        <time>2011-10-06T07:54:12.600Z</time>
      </trkpt>
      <trkpt lat="44.09521" lon="6.30118">
        <ele>812.9016</ele>
        <time>2011-10-06T07:54:12.600Z</time>
      </trkpt>
      <trkpt lat="44.09521" lon="6.30105">
        <ele>811.0728</ele>
        <time>2011-10-06T07:54:12.600Z</time>
      </trkpt>
      <trkpt lat="44.09512" lon="6.301">
        <ele>808.9392</ele>
        <time>2011-10-06T07:54:12.600Z</time>
      </trkpt>
      <trkpt lat="44.09501" lon="6.30094">
        <ele>804.9768</ele>
        <time>2011-10-06T07:54:12.600Z</time>
      </trkpt>
      <trkpt lat="44.09493" lon="6.30087">
        <ele>798.8808</ele>
        <time>2011-10-06T07:54:12.600Z</time>
      </trkpt>
      <trkpt lat="44.09485" lon="6.30078">
        <ele>791.8704</ele>
        <time>2011-10-06T07:54:12.600Z</time>
      </trkpt>
      <trkpt lat="44.09495" lon="6.30076">
        <ele>794.9184</ele>
        <time>2011-10-06T07:54:12.600Z</time>
      </trkpt>
      <trkpt lat="44.09506" lon="6.30072">
        <ele>800.1</ele>
        <time>2011-10-06T07:54:12.600Z</time>
      </trkpt>
      <trkpt lat="44.09499" lon="6.30062">
        <ele>790.956</ele>
        <time>2011-10-06T07:54:12.600Z</time>
      </trkpt>
      <trkpt lat="44.0949" lon="6.30057">
        <ele>789.1272</ele>
        <time>2011-10-06T07:54:12.600Z</time>
      </trkpt>
      <trkpt lat="44.09445" lon="6.30061">
        <ele>783.9456</ele>
        <time>2011-10-06T07:54:12.600Z</time>
      </trkpt>
      <trkpt lat="44.09433" lon="6.30064">
        <ele>783.0312</ele>
        <time>2011-10-06T07:54:12.600Z</time>
      </trkpt>
      <trkpt lat="44.09421" lon="6.30068">
        <ele>782.1168</ele>
        <time>2011-10-06T07:54:12.600Z</time>
      </trkpt>
      <trkpt lat="44.09412" lon="6.30069">
        <ele>777.8496</ele>
        <time>2011-10-06T07:54:12.600Z</time>
      </trkpt>
      <trkpt lat="44.09404" lon="6.30072">
        <ele>777.8496</ele>
        <time>2011-10-06T07:54:12.600Z</time>
      </trkpt>
      <trkpt lat="44.09394" lon="6.30068">
        <ele>777.8496</ele>
        <time>2011-10-06T07:54:12.600Z</time>
      </trkpt>
      <trkpt lat="44.09385" lon="6.3006">
        <ele>776.9352</ele>
        <time>2011-10-06T07:54:12.600Z</time>
      </trkpt>
      <trkpt lat="44.09375" lon="6.30053">
        <ele>776.9352</ele>
        <time>2011-10-06T07:54:12.600Z</time>
      </trkpt>
      <trkpt lat="44.09367" lon="6.30045">
        <ele>776.0208</ele>
        <time>2011-10-06T07:54:12.600Z</time>
      </trkpt>
      <trkpt lat="44.09358" lon="6.30041">
        <ele>776.0208</ele>
        <time>2011-10-06T07:54:12.600Z</time>
      </trkpt>
      <trkpt lat="44.09352" lon="6.30031">
        <ele>775.1064</ele>
        <time>2011-10-06T07:54:12.600Z</time>
      </trkpt>
      <trkpt lat="44.09344" lon="6.30017">
        <ele>772.9728</ele>
        <time>2011-10-06T07:54:12.600Z</time>
      </trkpt>
      <trkpt lat="44.09337" lon="6.30008">
        <ele>771.144</ele>
        <time>2011-10-06T07:54:12.600Z</time>
      </trkpt>
      <trkpt lat="44.09348" lon="6.30012">
        <ele>772.0584</ele>
        <time>2011-10-06T07:54:12.600Z</time>
      </trkpt>
      <trkpt lat="44.09352" lon="6.30001">
        <ele>772.0584</ele>
        <time>2011-10-06T07:54:12.600Z</time>
      </trkpt>
      <trkpt lat="44.09351" lon="6.29989">
        <ele>772.0584</ele>
        <time>2011-10-06T07:54:12.600Z</time>
      </trkpt>
      <trkpt lat="44.09354" lon="6.29976">
        <ele>772.0584</ele>
        <time>2011-10-06T07:54:12.600Z</time>
      </trkpt>
      <trkpt lat="44.09354" lon="6.29963">
        <ele>772.9728</ele>
        <time>2011-10-06T07:54:12.600Z</time>
      </trkpt>
      <trkpt lat="44.09353" lon="6.29949">
        <ele>772.9728</ele>
        <time>2011-10-06T07:54:12.600Z</time>
      </trkpt>
      <trkpt lat="44.09351" lon="6.29936">
        <ele>772.0584</ele>
        <time>2011-10-06T07:54:12.600Z</time>
      </trkpt>
      <trkpt lat="44.09349" lon="6.29924">
        <ele>771.144</ele>
        <time>2011-10-06T07:54:12.600Z</time>
      </trkpt>
      <trkpt lat="44.09349" lon="6.2991">
        <ele>776.0208</ele>
        <time>2011-10-06T07:54:12.600Z</time>
      </trkpt>
      <trkpt lat="44.09348" lon="6.29898">
        <ele>777.8496</ele>
        <time>2011-10-06T07:54:12.600Z</time>
      </trkpt>
      <trkpt lat="44.09355" lon="6.29905">
        <ele>777.8496</ele>
        <time>2011-10-06T07:54:12.600Z</time>
      </trkpt>
      <trkpt lat="44.09363" lon="6.29909">
        <ele>779.9832</ele>
        <time>2011-10-06T07:54:12.600Z</time>
      </trkpt>
      <trkpt lat="44.09369" lon="6.29918">
        <ele>775.1064</ele>
        <time>2011-10-06T07:54:12.600Z</time>
      </trkpt>
      <trkpt lat="44.09375" lon="6.29927">
        <ele>776.0208</ele>
        <time>2011-10-06T07:54:12.600Z</time>
      </trkpt>
      <trkpt lat="44.0938" lon="6.29918">
        <ele>776.9352</ele>
        <time>2011-10-06T07:54:12.600Z</time>
      </trkpt>
      <trkpt lat="44.09389" lon="6.2992">
        <ele>779.0688</ele>
        <time>2011-10-06T07:54:12.600Z</time>
      </trkpt>
      <trkpt lat="44.09398" lon="6.29919">
        <ele>782.1168</ele>
        <time>2011-10-06T07:54:12.600Z</time>
      </trkpt>
      <trkpt lat="44.09407" lon="6.29916">
        <ele>787.908</ele>
        <time>2011-10-06T07:54:12.600Z</time>
      </trkpt>
      <trkpt lat="44.09415" lon="6.2991">
        <ele>789.1272</ele>
        <time>2011-10-06T07:54:12.600Z</time>
      </trkpt>
      <trkpt lat="44.09423" lon="6.29904">
        <ele>793.0896</ele>
        <time>2011-10-06T07:54:12.600Z</time>
      </trkpt>
      <trkpt lat="44.09429" lon="6.29894">
        <ele>794.9184</ele>
        <time>2011-10-06T07:54:12.600Z</time>
      </trkpt>
      <trkpt lat="44.09437" lon="6.29888">
        <ele>796.1376</ele>
        <time>2011-10-06T07:54:12.600Z</time>
      </trkpt>
      <trkpt lat="44.09443" lon="6.29878">
        <ele>797.052</ele>
        <time>2011-10-06T07:54:12.600Z</time>
      </trkpt>
      <trkpt lat="44.09447" lon="6.29866">
        <ele>798.8808</ele>
        <time>2011-10-06T07:54:12.600Z</time>
      </trkpt>
      <trkpt lat="44.0945" lon="6.29855">
        <ele>800.1</ele>
        <time>2011-10-06T07:54:12.600Z</time>
      </trkpt>
      <trkpt lat="44.09452" lon="6.29842">
        <ele>801.0144</ele>
        <time>2011-10-06T07:54:12.600Z</time>
      </trkpt>
      <trkpt lat="44.09457" lon="6.2983">
        <ele>811.0728</ele>
        <time>2011-10-06T07:54:12.600Z</time>
      </trkpt>
      <trkpt lat="44.09462" lon="6.2982">
        <ele>811.9872</ele>
        <time>2011-10-06T07:54:12.600Z</time>
      </trkpt>
      <trkpt lat="44.09464" lon="6.29808">
        <ele>812.9016</ele>
        <time>2011-10-06T07:54:12.600Z</time>
      </trkpt>
      <trkpt lat="44.09467" lon="6.29796">
        <ele>814.1208</ele>
        <time>2011-10-06T07:54:12.600Z</time>
      </trkpt>
      <trkpt lat="44.09466" lon="6.29784">
        <ele>815.0352</ele>
        <time>2011-10-06T07:54:12.600Z</time>
      </trkpt>
      <trkpt lat="44.09467" lon="6.29771">
        <ele>815.9496</ele>
        <time>2011-10-06T07:54:12.600Z</time>
      </trkpt>
      <trkpt lat="44.09471" lon="6.29759">
        <ele>818.0832</ele>
        <time>2011-10-06T07:54:12.600Z</time>
      </trkpt>
      <trkpt lat="44.09478" lon="6.29752">
        <ele>818.9976</ele>
        <time>2011-10-06T07:54:12.600Z</time>
      </trkpt>
      <trkpt lat="44.09484" lon="6.29742">
        <ele>826.9224</ele>
        <time>2011-10-06T07:54:12.600Z</time>
      </trkpt>
      <trkpt lat="44.09488" lon="6.29731">
        <ele>828.1416</ele>
        <time>2011-10-06T07:54:12.600Z</time>
      </trkpt>
      <trkpt lat="44.09492" lon="6.29719">
        <ele>829.056</ele>
        <time>2011-10-06T07:54:12.600Z</time>
      </trkpt>
      <trkpt lat="44.09494" lon="6.29706">
        <ele>830.8848</ele>
        <time>2011-10-06T07:54:12.600Z</time>
      </trkpt>
      <trkpt lat="44.09499" lon="6.29697">
        <ele>833.0184</ele>
        <time>2011-10-06T07:54:12.600Z</time>
      </trkpt>
      <trkpt lat="44.09502" lon="6.29684">
        <ele>836.9808</ele>
        <time>2011-10-06T07:54:12.600Z</time>
      </trkpt>
      <trkpt lat="44.09503" lon="6.29671">
        <ele>840.0288</ele>
        <time>2011-10-06T07:54:12.600Z</time>
      </trkpt>
      <trkpt lat="44.09506" lon="6.2966">
        <ele>843.9912</ele>
        <time>2011-10-06T07:54:12.600Z</time>
      </trkpt>
      <trkpt lat="44.09506" lon="6.29647">
        <ele>847.0392</ele>
        <time>2011-10-06T07:54:12.600Z</time>
      </trkpt>
      <trkpt lat="44.09504" lon="6.29636">
        <ele>847.9536</ele>
        <time>2011-10-06T07:54:12.600Z</time>
      </trkpt>
      <trkpt lat="44.09506" lon="6.29624">
        <ele>850.0872</ele>
        <time>2011-10-06T07:54:12.600Z</time>
      </trkpt>
      <trkpt lat="44.09509" lon="6.29611">
        <ele>851.916</ele>
        <time>2011-10-06T07:54:12.600Z</time>
      </trkpt>
      <trkpt lat="44.09512" lon="6.296">
        <ele>853.1352</ele>
        <time>2011-10-06T07:54:12.600Z</time>
      </trkpt>
      <trkpt lat="44.09519" lon="6.29591">
        <ele>853.1352</ele>
        <time>2011-10-06T07:54:12.600Z</time>
      </trkpt>
      <trkpt lat="44.09527" lon="6.29586">
        <ele>853.1352</ele>
        <time>2011-10-06T07:54:12.600Z</time>
      </trkpt>
      <trkpt lat="44.09536" lon="6.29582">
        <ele>862.8888</ele>
        <time>2011-10-06T07:54:12.600Z</time>
      </trkpt>
      <trkpt lat="44.09542" lon="6.29572">
        <ele>864.108</ele>
        <time>2011-10-06T07:54:12.600Z</time>
      </trkpt>
      <trkpt lat="44.09549" lon="6.29563">
        <ele>864.108</ele>
        <time>2011-10-06T07:54:12.600Z</time>
      </trkpt>
      <trkpt lat="44.09556" lon="6.29554">
        <ele>865.0224</ele>
        <time>2011-10-06T07:54:12.600Z</time>
      </trkpt>
      <trkpt lat="44.09563" lon="6.29545">
        <ele>865.9368</ele>
        <time>2011-10-06T07:54:12.600Z</time>
      </trkpt>
      <trkpt lat="44.09571" lon="6.29537">
        <ele>868.0704</ele>
        <time>2011-10-06T07:54:12.600Z</time>
      </trkpt>
      <trkpt lat="44.09576" lon="6.29527">
        <ele>868.9848</ele>
        <time>2011-10-06T07:54:12.600Z</time>
      </trkpt>
      <trkpt lat="44.0958" lon="6.29515">
        <ele>872.0328</ele>
        <time>2011-10-06T07:54:12.600Z</time>
      </trkpt>
      <trkpt lat="44.09585" lon="6.29505">
        <ele>875.0808</ele>
        <time>2011-10-06T07:54:12.600Z</time>
      </trkpt>
      <trkpt lat="44.09595" lon="6.295">
        <ele>879.9576</ele>
        <time>2011-10-06T07:54:12.600Z</time>
      </trkpt>
      <trkpt lat="44.09604" lon="6.29494">
        <ele>880.872</ele>
        <time>2011-10-06T07:54:12.600Z</time>
      </trkpt>
      <trkpt lat="44.09612" lon="6.29491">
        <ele>882.0912</ele>
        <time>2011-10-06T07:54:12.600Z</time>
      </trkpt>
      <trkpt lat="44.09621" lon="6.29489">
        <ele>882.0912</ele>
        <time>2011-10-06T07:54:12.600Z</time>
      </trkpt>
      <trkpt lat="44.0963" lon="6.29486">
        <ele>883.0056</ele>
        <time>2011-10-06T07:54:12.600Z</time>
      </trkpt>
      <trkpt lat="44.09639" lon="6.29482">
        <ele>883.0056</ele>
        <time>2011-10-06T07:54:12.600Z</time>
      </trkpt>
      <trkpt lat="44.09648" lon="6.29477">
        <ele>883.0056</ele>
        <time>2011-10-06T07:54:12.600Z</time>
      </trkpt>
      <trkpt lat="44.09656" lon="6.2947">
        <ele>883.0056</ele>
        <time>2011-10-06T07:54:12.600Z</time>
      </trkpt>
      <trkpt lat="44.09664" lon="6.29464">
        <ele>883.92</ele>
        <time>2011-10-06T07:54:12.600Z</time>
      </trkpt>
      <trkpt lat="44.09671" lon="6.29456">
        <ele>887.8824</ele>
        <time>2011-10-06T07:54:12.600Z</time>
      </trkpt>
      <trkpt lat="44.09679" lon="6.2945">
        <ele>889.1016</ele>
        <time>2011-10-06T07:54:12.600Z</time>
      </trkpt>
      <trkpt lat="44.09686" lon="6.29442">
        <ele>890.016</ele>
        <time>2011-10-06T07:54:12.600Z</time>
      </trkpt>
      <trkpt lat="44.09695" lon="6.29438">
        <ele>890.016</ele>
        <time>2011-10-06T07:54:12.600Z</time>
      </trkpt>
      <trkpt lat="44.09704" lon="6.29438">
        <ele>890.9304</ele>
        <time>2011-10-06T07:54:12.600Z</time>
      </trkpt>
      <trkpt lat="44.09711" lon="6.29445">
        <ele>890.9304</ele>
        <time>2011-10-06T07:54:12.600Z</time>
      </trkpt>
      <trkpt lat="44.09719" lon="6.29454">
        <ele>890.016</ele>
        <time>2011-10-06T07:54:12.600Z</time>
      </trkpt>
      <trkpt lat="44.09726" lon="6.29464">
        <ele>890.016</ele>
        <time>2011-10-06T07:54:12.600Z</time>
      </trkpt>
      <trkpt lat="44.09732" lon="6.29473">
        <ele>889.1016</ele>
        <time>2011-10-06T07:54:12.600Z</time>
      </trkpt>
      <trkpt lat="44.09741" lon="6.29476">
        <ele>889.1016</ele>
        <time>2011-10-06T07:54:12.600Z</time>
      </trkpt>
      <trkpt lat="44.09752" lon="6.29476">
        <ele>890.9304</ele>
        <time>2011-10-06T07:54:12.600Z</time>
      </trkpt>
      <trkpt lat="44.09762" lon="6.29474">
        <ele>890.9304</ele>
        <time>2011-10-06T07:54:12.600Z</time>
      </trkpt>
      <trkpt lat="44.09773" lon="6.29469">
        <ele>892.1496</ele>
        <time>2011-10-06T07:54:12.600Z</time>
      </trkpt>
      <trkpt lat="44.09782" lon="6.29465">
        <ele>892.1496</ele>
        <time>2011-10-06T07:54:12.600Z</time>
      </trkpt>
      <trkpt lat="44.0979" lon="6.29459">
        <ele>893.064</ele>
        <time>2011-10-06T07:54:12.600Z</time>
      </trkpt>
      <trkpt lat="44.098" lon="6.29453">
        <ele>893.064</ele>
        <time>2011-10-06T07:54:12.600Z</time>
      </trkpt>
      <trkpt lat="44.09808" lon="6.29448">
        <ele>893.9784</ele>
        <time>2011-10-06T07:54:12.600Z</time>
      </trkpt>
      <trkpt lat="44.09819" lon="6.29446">
        <ele>893.9784</ele>
        <time>2011-10-06T07:54:12.600Z</time>
      </trkpt>
      <trkpt lat="44.09829" lon="6.29442">
        <ele>894.8928</ele>
        <time>2011-10-06T07:54:12.600Z</time>
      </trkpt>
      <trkpt lat="44.09839" lon="6.29441">
        <ele>898.8552</ele>
        <time>2011-10-06T07:54:12.600Z</time>
      </trkpt>
      <trkpt lat="44.09849" lon="6.29441">
        <ele>900.0744</ele>
        <time>2011-10-06T07:54:12.600Z</time>
      </trkpt>
      <trkpt lat="44.09858" lon="6.29439">
        <ele>900.0744</ele>
        <time>2011-10-06T07:54:12.600Z</time>
      </trkpt>
      <trkpt lat="44.09867" lon="6.29436">
        <ele>900.9888</ele>
        <time>2011-10-06T07:54:12.600Z</time>
      </trkpt>
      <trkpt lat="44.09876" lon="6.29433">
        <ele>901.9032</ele>
        <time>2011-10-06T07:54:12.600Z</time>
      </trkpt>
      <trkpt lat="44.09887" lon="6.29432">
        <ele>903.1224</ele>
        <time>2011-10-06T07:54:12.600Z</time>
      </trkpt>
      <trkpt lat="44.09896" lon="6.29428">
        <ele>904.0368</ele>
        <time>2011-10-06T07:54:12.600Z</time>
      </trkpt>
      <trkpt lat="44.09903" lon="6.29437">
        <ele>904.0368</ele>
        <time>2011-10-06T07:54:12.600Z</time>
      </trkpt>
      <trkpt lat="44.09899" lon="6.2945">
        <ele>901.9032</ele>
        <time>2011-10-06T07:54:12.600Z</time>
      </trkpt>
      <trkpt lat="44.09896" lon="6.29462">
        <ele>900.9888</ele>
        <time>2011-10-06T07:54:12.600Z</time>
      </trkpt>
      <trkpt lat="44.09895" lon="6.29475">
        <ele>900.9888</ele>
        <time>2011-10-06T07:54:12.600Z</time>
      </trkpt>
      <trkpt lat="44.09891" lon="6.29486">
        <ele>900.0744</ele>
        <time>2011-10-06T07:54:12.600Z</time>
      </trkpt>
      <trkpt lat="44.09885" lon="6.29497">
        <ele>898.8552</ele>
        <time>2011-10-06T07:54:12.600Z</time>
      </trkpt>
      <trkpt lat="44.0988" lon="6.29507">
        <ele>893.9784</ele>
        <time>2011-10-06T07:54:12.600Z</time>
      </trkpt>
      <trkpt lat="44.09877" lon="6.2952">
        <ele>893.064</ele>
        <time>2011-10-06T07:54:12.600Z</time>
      </trkpt>
      <trkpt lat="44.09877" lon="6.29532">
        <ele>893.064</ele>
        <time>2011-10-06T07:54:12.600Z</time>
      </trkpt>
      <trkpt lat="44.0988" lon="6.29544">
        <ele>893.064</ele>
        <time>2011-10-06T07:54:12.600Z</time>
      </trkpt>
      <trkpt lat="44.09879" lon="6.29558">
        <ele>892.1496</ele>
        <time>2011-10-06T07:54:12.600Z</time>
      </trkpt>
      <trkpt lat="44.09878" lon="6.29574">
        <ele>892.1496</ele>
        <time>2011-10-06T07:54:12.600Z</time>
      </trkpt>
      <trkpt lat="44.09881" lon="6.29585">
        <ele>890.9304</ele>
        <time>2011-10-06T07:54:12.600Z</time>
      </trkpt>
      <trkpt lat="44.09887" lon="6.296">
        <ele>892.1496</ele>
        <time>2011-10-06T07:54:12.600Z</time>
      </trkpt>
      <trkpt lat="44.09892" lon="6.29612">
        <ele>892.1496</ele>
        <time>2011-10-06T07:54:12.600Z</time>
      </trkpt>
      <trkpt lat="44.09899" lon="6.29622">
        <ele>893.064</ele>
        <time>2011-10-06T07:54:12.600Z</time>
      </trkpt>
      <trkpt lat="44.09908" lon="6.2963">
        <ele>893.9784</ele>
        <time>2011-10-06T07:54:12.600Z</time>
      </trkpt>
      <trkpt lat="44.09915" lon="6.2964">
        <ele>894.8928</ele>
        <time>2011-10-06T07:54:12.600Z</time>
      </trkpt>
      <trkpt lat="44.09923" lon="6.29646">
        <ele>905.8656</ele>
        <time>2011-10-06T07:54:12.600Z</time>
      </trkpt>
      <trkpt lat="44.09932" lon="6.29653">
        <ele>905.8656</ele>
        <time>2011-10-06T07:54:12.600Z</time>
      </trkpt>
      <trkpt lat="44.09939" lon="6.29662">
        <ele>907.0848</ele>
        <time>2011-10-06T07:54:12.600Z</time>
      </trkpt>
      <trkpt lat="44.09944" lon="6.29675">
        <ele>900.9888</ele>
        <time>2011-10-06T07:54:12.600Z</time>
      </trkpt>
      <trkpt lat="44.09952" lon="6.29683">
        <ele>900.0744</ele>
        <time>2011-10-06T07:54:12.600Z</time>
      </trkpt>
      <trkpt lat="44.09963" lon="6.29687">
        <ele>900.9888</ele>
        <time>2011-10-06T07:54:12.600Z</time>
      </trkpt>
      <trkpt lat="44.09974" lon="6.29688">
        <ele>901.9032</ele>
        <time>2011-10-06T07:54:12.600Z</time>
      </trkpt>
      <trkpt lat="44.09983" lon="6.29688">
        <ele>901.9032</ele>
        <time>2011-10-06T07:54:12.600Z</time>
      </trkpt>
      <trkpt lat="44.09994" lon="6.29688">
        <ele>903.1224</ele>
        <time>2011-10-06T07:54:12.600Z</time>
      </trkpt>
      <trkpt lat="44.10004" lon="6.29691">
        <ele>905.8656</ele>
        <time>2011-10-06T07:54:12.600Z</time>
      </trkpt>
      <trkpt lat="44.10012" lon="6.29695">
        <ele>904.9512</ele>
        <time>2011-10-06T07:54:12.600Z</time>
      </trkpt>
      <trkpt lat="44.10021" lon="6.29694">
        <ele>904.9512</ele>
        <time>2011-10-06T07:54:12.600Z</time>
      </trkpt>
      <trkpt lat="44.1003" lon="6.29693">
        <ele>905.8656</ele>
        <time>2011-10-06T07:54:12.600Z</time>
      </trkpt>
      <trkpt lat="44.10039" lon="6.29691">
        <ele>905.8656</ele>
        <time>2011-10-06T07:54:12.600Z</time>
      </trkpt>
      <trkpt lat="44.10052" lon="6.29689">
        <ele>907.0848</ele>
        <time>2011-10-06T07:54:12.600Z</time>
      </trkpt>
      <trkpt lat="44.10061" lon="6.29683">
        <ele>907.9992</ele>
        <time>2011-10-06T07:54:12.600Z</time>
      </trkpt>
      <trkpt lat="44.10071" lon="6.29683">
        <ele>908.9136</ele>
        <time>2011-10-06T07:54:12.600Z</time>
      </trkpt>
      <trkpt lat="44.1008" lon="6.29679">
        <ele>911.0472</ele>
        <time>2011-10-06T07:54:12.600Z</time>
      </trkpt>
      <trkpt lat="44.10085" lon="6.29689">
        <ele>917.1432</ele>
        <time>2011-10-06T07:54:12.600Z</time>
      </trkpt>
      <trkpt lat="44.10088" lon="6.29702">
        <ele>917.1432</ele>
        <time>2011-10-06T07:54:12.600Z</time>
      </trkpt>
      <trkpt lat="44.10092" lon="6.29713">
        <ele>915.0096</ele>
        <time>2011-10-06T07:54:12.600Z</time>
      </trkpt>
      <trkpt lat="44.10096" lon="6.29726">
        <ele>912.876</ele>
        <time>2011-10-06T07:54:12.600Z</time>
      </trkpt>
      <trkpt lat="44.10101" lon="6.29737">
        <ele>911.0472</ele>
        <time>2011-10-06T07:54:12.600Z</time>
      </trkpt>
      <trkpt lat="44.10108" lon="6.29746">
        <ele>911.9616</ele>
        <time>2011-10-06T07:54:12.600Z</time>
      </trkpt>
      <trkpt lat="44.10114" lon="6.29755">
        <ele>904.0368</ele>
        <time>2011-10-06T07:54:12.600Z</time>
      </trkpt>
      <trkpt lat="44.10121" lon="6.29763">
        <ele>905.8656</ele>
        <time>2011-10-06T07:54:12.600Z</time>
      </trkpt>
      <trkpt lat="44.10131" lon="6.29765">
        <ele>907.9992</ele>
        <time>2011-10-06T07:54:12.600Z</time>
      </trkpt>
      <trkpt lat="44.10131" lon="6.29777">
        <ele>907.0848</ele>
        <time>2011-10-06T07:54:12.600Z</time>
      </trkpt>
      <trkpt lat="44.10137" lon="6.29787">
        <ele>905.8656</ele>
        <time>2011-10-06T07:54:12.600Z</time>
      </trkpt>
      <trkpt lat="44.10145" lon="6.29792">
        <ele>907.0848</ele>
        <time>2011-10-06T07:54:12.600Z</time>
      </trkpt>
      <trkpt lat="44.10154" lon="6.29795">
        <ele>907.9992</ele>
        <time>2011-10-06T07:54:12.600Z</time>
      </trkpt>
      <trkpt lat="44.10164" lon="6.29795">
        <ele>908.9136</ele>
        <time>2011-10-06T07:54:12.600Z</time>
      </trkpt>
      <trkpt lat="44.10175" lon="6.29798">
        <ele>925.068</ele>
        <time>2011-10-06T07:54:12.600Z</time>
      </trkpt>
      <trkpt lat="44.10184" lon="6.29803">
        <ele>925.9824</ele>
        <time>2011-10-06T07:54:12.600Z</time>
      </trkpt>
      <trkpt lat="44.10192" lon="6.29812">
        <ele>925.9824</ele>
        <time>2011-10-06T07:54:12.600Z</time>
      </trkpt>
      <trkpt lat="44.10199" lon="6.29822">
        <ele>925.9824</ele>
        <time>2011-10-06T07:54:12.600Z</time>
      </trkpt>
      <trkpt lat="44.10206" lon="6.29834">
        <ele>915.0096</ele>
        <time>2011-10-06T07:54:12.600Z</time>
      </trkpt>
      <trkpt lat="44.10212" lon="6.29845">
        <ele>915.924</ele>
        <time>2011-10-06T07:54:12.600Z</time>
      </trkpt>
      <trkpt lat="44.10218" lon="6.29855">
        <ele>917.1432</ele>
        <time>2011-10-06T07:54:12.600Z</time>
      </trkpt>
      <trkpt lat="44.10224" lon="6.29865">
        <ele>915.924</ele>
        <time>2011-10-06T07:54:12.600Z</time>
      </trkpt>
      <trkpt lat="44.1023" lon="6.29876">
        <ele>915.0096</ele>
        <time>2011-10-06T07:54:12.600Z</time>
      </trkpt>
      <trkpt lat="44.10237" lon="6.29885">
        <ele>915.0096</ele>
        <time>2011-10-06T07:54:12.600Z</time>
      </trkpt>
      <trkpt lat="44.10244" lon="6.29893">
        <ele>915.0096</ele>
        <time>2011-10-06T07:54:12.600Z</time>
      </trkpt>
      <trkpt lat="44.10251" lon="6.29902">
        <ele>923.8488</ele>
        <time>2011-10-06T07:54:12.600Z</time>
      </trkpt>
      <trkpt lat="44.10259" lon="6.2991">
        <ele>922.9344</ele>
        <time>2011-10-06T07:54:12.600Z</time>
      </trkpt>
      <trkpt lat="44.10268" lon="6.29918">
        <ele>917.1432</ele>
        <time>2011-10-06T07:54:12.600Z</time>
      </trkpt>
      <trkpt lat="44.10276" lon="6.29926">
        <ele>918.0576</ele>
        <time>2011-10-06T07:54:12.600Z</time>
      </trkpt>
      <trkpt lat="44.10287" lon="6.29929">
        <ele>918.972</ele>
        <time>2011-10-06T07:54:12.600Z</time>
      </trkpt>
      <trkpt lat="44.10296" lon="6.29935">
        <ele>921.1056</ele>
        <time>2011-10-06T07:54:12.600Z</time>
      </trkpt>
      <trkpt lat="44.10323" lon="6.2998">
        <ele>919.8864</ele>
        <time>2011-10-06T07:54:12.600Z</time>
      </trkpt>
      <trkpt lat="44.10325" lon="6.29995">
        <ele>919.8864</ele>
        <time>2011-10-06T07:54:12.600Z</time>
      </trkpt>
      <trkpt lat="44.10332" lon="6.30007">
        <ele>915.924</ele>
        <time>2011-10-06T07:54:12.600Z</time>
      </trkpt>
      <trkpt lat="44.1034" lon="6.30019">
        <ele>925.068</ele>
        <time>2011-10-06T07:54:12.600Z</time>
      </trkpt>
      <trkpt lat="44.10346" lon="6.30028">
        <ele>925.068</ele>
        <time>2011-10-06T07:54:12.600Z</time>
      </trkpt>
      <trkpt lat="44.10354" lon="6.30033">
        <ele>925.9824</ele>
        <time>2011-10-06T07:54:12.600Z</time>
      </trkpt>
      <trkpt lat="44.10362" lon="6.30042">
        <ele>925.9824</ele>
        <time>2011-10-06T07:54:12.600Z</time>
      </trkpt>
      <trkpt lat="44.10369" lon="6.3005">
        <ele>926.8968</ele>
        <time>2011-10-06T07:54:12.600Z</time>
      </trkpt>
      <trkpt lat="44.10373" lon="6.30061">
        <ele>925.9824</ele>
        <time>2011-10-06T07:54:12.600Z</time>
      </trkpt>
      <trkpt lat="44.1038" lon="6.30071">
        <ele>926.8968</ele>
        <time>2011-10-06T07:54:12.600Z</time>
      </trkpt>
      <trkpt lat="44.10389" lon="6.30081">
        <ele>929.0304</ele>
        <time>2011-10-06T07:54:12.600Z</time>
      </trkpt>
      <trkpt lat="44.10397" lon="6.30087">
        <ele>922.9344</ele>
        <time>2011-10-06T07:54:12.600Z</time>
      </trkpt>
      <trkpt lat="44.10406" lon="6.30093">
        <ele>925.068</ele>
        <time>2011-10-06T07:54:12.600Z</time>
      </trkpt>
      <trkpt lat="44.10415" lon="6.30098">
        <ele>925.068</ele>
        <time>2011-10-06T07:54:12.600Z</time>
      </trkpt>
      <trkpt lat="44.10424" lon="6.30102">
        <ele>932.0784</ele>
        <time>2011-10-06T07:54:12.600Z</time>
      </trkpt>
      <trkpt lat="44.10432" lon="6.30106">
        <ele>932.0784</ele>
        <time>2011-10-06T07:54:12.600Z</time>
      </trkpt>
      <trkpt lat="44.10442" lon="6.30106">
        <ele>932.0784</ele>
        <time>2011-10-06T07:54:12.600Z</time>
      </trkpt>
      <trkpt lat="44.10451" lon="6.3011">
        <ele>932.0784</ele>
        <time>2011-10-06T07:54:12.600Z</time>
      </trkpt>
      <trkpt lat="44.10461" lon="6.30112">
        <ele>932.0784</ele>
        <time>2011-10-06T07:54:12.600Z</time>
      </trkpt>
      <trkpt lat="44.1047" lon="6.30113">
        <ele>932.9928</ele>
        <time>2011-10-06T07:54:12.600Z</time>
      </trkpt>
      <trkpt lat="44.10479" lon="6.30116">
        <ele>932.9928</ele>
        <time>2011-10-06T07:54:12.600Z</time>
      </trkpt>
      <trkpt lat="44.10489" lon="6.30117">
        <ele>933.9072</ele>
        <time>2011-10-06T07:54:12.600Z</time>
      </trkpt>
      <trkpt lat="44.10499" lon="6.30116">
        <ele>933.9072</ele>
        <time>2011-10-06T07:54:12.600Z</time>
      </trkpt>
      <trkpt lat="44.10508" lon="6.30117">
        <ele>940.9176</ele>
        <time>2011-10-06T07:54:12.600Z</time>
      </trkpt>
      <trkpt lat="44.10518" lon="6.30118">
        <ele>940.9176</ele>
        <time>2011-10-06T07:54:12.600Z</time>
      </trkpt>
      <trkpt lat="44.10527" lon="6.30122">
        <ele>940.9176</ele>
        <time>2011-10-06T07:54:12.600Z</time>
      </trkpt>
      <trkpt lat="44.10537" lon="6.30122">
        <ele>942.1368</ele>
        <time>2011-10-06T07:54:12.600Z</time>
      </trkpt>
      <trkpt lat="44.10547" lon="6.30124">
        <ele>942.1368</ele>
        <time>2011-10-06T07:54:12.600Z</time>
      </trkpt>
      <trkpt lat="44.10556" lon="6.30127">
        <ele>943.0512</ele>
        <time>2011-10-06T07:54:12.600Z</time>
      </trkpt>
      <trkpt lat="44.10566" lon="6.30129">
        <ele>943.0512</ele>
        <time>2011-10-06T07:54:12.600Z</time>
      </trkpt>
      <trkpt lat="44.10573" lon="6.30139">
        <ele>943.0512</ele>
        <time>2011-10-06T07:54:12.600Z</time>
      </trkpt>
      <trkpt lat="44.1058" lon="6.30148">
        <ele>943.0512</ele>
        <time>2011-10-06T07:54:12.600Z</time>
      </trkpt>
      <trkpt lat="44.10586" lon="6.30159">
        <ele>943.9656</ele>
        <time>2011-10-06T07:54:12.600Z</time>
      </trkpt>
      <trkpt lat="44.10591" lon="6.30171">
        <ele>943.0512</ele>
        <time>2011-10-06T07:54:12.600Z</time>
      </trkpt>
      <trkpt lat="44.10599" lon="6.30177">
        <ele>943.0512</ele>
        <time>2011-10-06T07:54:12.600Z</time>
      </trkpt>
      <trkpt lat="44.10607" lon="6.30183">
        <ele>942.1368</ele>
        <time>2011-10-06T07:54:12.600Z</time>
      </trkpt>
      <trkpt lat="44.10615" lon="6.3018">
        <ele>942.1368</ele>
        <time>2011-10-06T07:54:12.600Z</time>
      </trkpt>
      <trkpt lat="44.10624" lon="6.30175">
        <ele>943.0512</ele>
        <time>2011-10-06T07:54:12.600Z</time>
      </trkpt>
      <trkpt lat="44.10632" lon="6.30171">
        <ele>943.0512</ele>
        <time>2011-10-06T07:54:12.600Z</time>
      </trkpt>
      <trkpt lat="44.10641" lon="6.3017">
        <ele>943.9656</ele>
        <time>2011-10-06T07:54:12.600Z</time>
      </trkpt>
      <trkpt lat="44.10649" lon="6.30178">
        <ele>943.9656</ele>
        <time>2011-10-06T07:54:12.600Z</time>
      </trkpt>
      <trkpt lat="44.10657" lon="6.30185">
        <ele>943.9656</ele>
        <time>2011-10-06T07:54:12.600Z</time>
      </trkpt>
      <trkpt lat="44.10664" lon="6.30199">
        <ele>943.0512</ele>
        <time>2011-10-06T07:54:12.600Z</time>
      </trkpt>
      <trkpt lat="44.10672" lon="6.3021">
        <ele>936.9552</ele>
        <time>2011-10-06T07:54:12.600Z</time>
      </trkpt>
      <trkpt lat="44.1068" lon="6.30219">
        <ele>936.0408</ele>
        <time>2011-10-06T07:54:12.600Z</time>
      </trkpt>
      <trkpt lat="44.10687" lon="6.30232">
        <ele>936.0408</ele>
        <time>2011-10-06T07:54:12.600Z</time>
      </trkpt>
      <trkpt lat="44.10692" lon="6.30243">
        <ele>936.0408</ele>
        <time>2011-10-06T07:54:12.600Z</time>
      </trkpt>
      <trkpt lat="44.10698" lon="6.30254">
        <ele>933.9072</ele>
        <time>2011-10-06T07:54:12.600Z</time>
      </trkpt>
      <trkpt lat="44.10704" lon="6.30263">
        <ele>932.9928</ele>
        <time>2011-10-06T07:54:12.600Z</time>
      </trkpt>
      <trkpt lat="44.10711" lon="6.30277">
        <ele>932.0784</ele>
        <time>2011-10-06T07:54:12.600Z</time>
      </trkpt>
      <trkpt lat="44.10714" lon="6.30291">
        <ele>930.8592</ele>
        <time>2011-10-06T07:54:12.600Z</time>
      </trkpt>
      <trkpt lat="44.1072" lon="6.30305">
        <ele>929.9448</ele>
        <time>2011-10-06T07:54:12.600Z</time>
      </trkpt>
      <trkpt lat="44.10725" lon="6.30321">
        <ele>929.9448</ele>
        <time>2011-10-06T07:54:12.600Z</time>
      </trkpt>
      <trkpt lat="44.10729" lon="6.30336">
        <ele>926.8968</ele>
        <time>2011-10-06T07:54:12.600Z</time>
      </trkpt>
      <trkpt lat="44.10733" lon="6.30351">
        <ele>925.9824</ele>
        <time>2011-10-06T07:54:12.600Z</time>
      </trkpt>
      <trkpt lat="44.10733" lon="6.30363">
        <ele>925.9824</ele>
        <time>2011-10-06T07:54:12.600Z</time>
      </trkpt>
      <trkpt lat="44.10736" lon="6.30376">
        <ele>925.9824</ele>
        <time>2011-10-06T07:54:12.600Z</time>
      </trkpt>
      <trkpt lat="44.10739" lon="6.30392">
        <ele>925.9824</ele>
        <time>2011-10-06T07:54:12.600Z</time>
      </trkpt>
      <trkpt lat="44.10742" lon="6.30407">
        <ele>925.9824</ele>
        <time>2011-10-06T07:54:12.600Z</time>
      </trkpt>
      <trkpt lat="44.10744" lon="6.30421">
        <ele>925.068</ele>
        <time>2011-10-06T07:54:12.600Z</time>
      </trkpt>
      <trkpt lat="44.10743" lon="6.30433">
        <ele>923.8488</ele>
        <time>2011-10-06T07:54:12.600Z</time>
      </trkpt>
      <trkpt lat="44.10745" lon="6.30447">
        <ele>922.9344</ele>
        <time>2011-10-06T07:54:12.600Z</time>
      </trkpt>
      <trkpt lat="44.10747" lon="6.3046">
        <ele>922.02</ele>
        <time>2011-10-06T07:54:12.600Z</time>
      </trkpt>
      <trkpt lat="44.1075" lon="6.30472">
        <ele>922.02</ele>
        <time>2011-10-06T07:54:12.600Z</time>
      </trkpt>
      <trkpt lat="44.10752" lon="6.30485">
        <ele>917.1432</ele>
        <time>2011-10-06T07:54:12.600Z</time>
      </trkpt>
      <trkpt lat="44.10755" lon="6.30498">
        <ele>919.8864</ele>
        <time>2011-10-06T07:54:12.600Z</time>
      </trkpt>
      <trkpt lat="44.10758" lon="6.3051">
        <ele>918.0576</ele>
        <time>2011-10-06T07:54:12.600Z</time>
      </trkpt>
      <trkpt lat="44.10763" lon="6.30521">
        <ele>915.924</ele>
        <time>2011-10-06T07:54:12.600Z</time>
      </trkpt>
      <trkpt lat="44.10765" lon="6.30536">
        <ele>915.0096</ele>
        <time>2011-10-06T07:54:12.600Z</time>
      </trkpt>
      <trkpt lat="44.10762" lon="6.30547">
        <ele>915.924</ele>
        <time>2011-10-06T07:54:12.600Z</time>
      </trkpt>
      <trkpt lat="44.10759" lon="6.3056">
        <ele>917.1432</ele>
        <time>2011-10-06T07:54:12.600Z</time>
      </trkpt>
      <trkpt lat="44.10759" lon="6.30572">
        <ele>918.972</ele>
        <time>2011-10-06T07:54:12.600Z</time>
      </trkpt>
      <trkpt lat="44.10761" lon="6.30585">
        <ele>922.9344</ele>
        <time>2011-10-06T07:54:12.600Z</time>
      </trkpt>
      <trkpt lat="44.10758" lon="6.30598">
        <ele>922.02</ele>
        <time>2011-10-06T07:54:12.600Z</time>
      </trkpt>
      <trkpt lat="44.1076" lon="6.3061">
        <ele>922.02</ele>
        <time>2011-10-06T07:54:12.600Z</time>
      </trkpt>
      <trkpt lat="44.1076" lon="6.30623">
        <ele>922.02</ele>
        <time>2011-10-06T07:54:12.600Z</time>
      </trkpt>
      <trkpt lat="44.10765" lon="6.30634">
        <ele>922.9344</ele>
        <time>2011-10-06T07:54:12.600Z</time>
      </trkpt>
      <trkpt lat="44.10767" lon="6.30645">
        <ele>923.8488</ele>
        <time>2011-10-06T07:54:12.600Z</time>
      </trkpt>
      <trkpt lat="44.10769" lon="6.30658">
        <ele>925.068</ele>
        <time>2011-10-06T07:54:12.600Z</time>
      </trkpt>
      <trkpt lat="44.1077" lon="6.30671">
        <ele>932.9928</ele>
        <time>2011-10-06T07:54:12.600Z</time>
      </trkpt>
      <trkpt lat="44.10775" lon="6.30684">
        <ele>935.1264</ele>
        <time>2011-10-06T07:54:12.600Z</time>
      </trkpt>
      <trkpt lat="44.10781" lon="6.30694">
        <ele>936.0408</ele>
        <time>2011-10-06T07:54:12.600Z</time>
      </trkpt>
      <trkpt lat="44.10788" lon="6.30703">
        <ele>936.9552</ele>
        <time>2011-10-06T07:54:12.600Z</time>
      </trkpt>
      <trkpt lat="44.10793" lon="6.30713">
        <ele>939.0888</ele>
        <time>2011-10-06T07:54:12.600Z</time>
      </trkpt>
      <trkpt lat="44.10799" lon="6.30722">
        <ele>940.0032</ele>
        <time>2011-10-06T07:54:12.600Z</time>
      </trkpt>
      <trkpt lat="44.10808" lon="6.30729">
        <ele>940.9176</ele>
        <time>2011-10-06T07:54:12.600Z</time>
      </trkpt>
      <trkpt lat="44.10817" lon="6.30736">
        <ele>943.9656</ele>
        <time>2011-10-06T07:54:12.600Z</time>
      </trkpt>
      <trkpt lat="44.10826" lon="6.30741">
        <ele>947.0136</ele>
        <time>2011-10-06T07:54:12.600Z</time>
      </trkpt>
      <trkpt lat="44.10835" lon="6.30745">
        <ele>947.0136</ele>
        <time>2011-10-06T07:54:12.600Z</time>
      </trkpt>
      <trkpt lat="44.10843" lon="6.3075">
        <ele>951.8904</ele>
        <time>2011-10-06T07:54:12.600Z</time>
      </trkpt>
      <trkpt lat="44.10852" lon="6.30757">
        <ele>951.8904</ele>
        <time>2011-10-06T07:54:12.600Z</time>
      </trkpt>
      <trkpt lat="44.10862" lon="6.30763">
        <ele>951.8904</ele>
        <time>2011-10-06T07:54:12.600Z</time>
      </trkpt>
      <trkpt lat="44.10872" lon="6.30772">
        <ele>951.8904</ele>
        <time>2011-10-06T07:54:12.600Z</time>
      </trkpt>
      <trkpt lat="44.10879" lon="6.30781">
        <ele>951.8904</ele>
        <time>2011-10-06T07:54:12.600Z</time>
      </trkpt>
      <trkpt lat="44.10888" lon="6.30788">
        <ele>951.8904</ele>
        <time>2011-10-06T07:54:12.600Z</time>
      </trkpt>
      <trkpt lat="44.10896" lon="6.30802">
        <ele>953.1096</ele>
        <time>2011-10-06T07:54:12.600Z</time>
      </trkpt>
      <trkpt lat="44.10905" lon="6.30813">
        <ele>953.1096</ele>
        <time>2011-10-06T07:54:12.600Z</time>
      </trkpt>
      <trkpt lat="44.10912" lon="6.30822">
        <ele>953.1096</ele>
        <time>2011-10-06T07:54:12.600Z</time>
      </trkpt>
      <trkpt lat="44.10919" lon="6.30833">
        <ele>950.976</ele>
        <time>2011-10-06T07:54:12.600Z</time>
      </trkpt>
      <trkpt lat="44.10927" lon="6.30841">
        <ele>953.1096</ele>
        <time>2011-10-06T07:54:12.600Z</time>
      </trkpt>
      <trkpt lat="44.10936" lon="6.30849">
        <ele>951.8904</ele>
        <time>2011-10-06T07:54:12.600Z</time>
      </trkpt>
      <trkpt lat="44.10944" lon="6.3086">
        <ele>953.1096</ele>
        <time>2011-10-06T07:54:12.600Z</time>
      </trkpt>
      <trkpt lat="44.10951" lon="6.3087">
        <ele>953.1096</ele>
        <time>2011-10-06T07:54:12.600Z</time>
      </trkpt>
      <trkpt lat="44.10961" lon="6.30873">
        <ele>951.8904</ele>
        <time>2011-10-06T07:54:12.600Z</time>
      </trkpt>
      <trkpt lat="44.10972" lon="6.30877">
        <ele>950.0616</ele>
        <time>2011-10-06T07:54:12.600Z</time>
      </trkpt>
      <trkpt lat="44.1098" lon="6.3089">
        <ele>950.0616</ele>
        <time>2011-10-06T07:54:12.600Z</time>
      </trkpt>
      <trkpt lat="44.10988" lon="6.30906">
        <ele>950.0616</ele>
        <time>2011-10-06T07:54:12.600Z</time>
      </trkpt>
      <trkpt lat="44.10994" lon="6.30915">
        <ele>947.928</ele>
        <time>2011-10-06T07:54:12.600Z</time>
      </trkpt>
      <trkpt lat="44.11006" lon="6.30922">
        <ele>947.0136</ele>
        <time>2011-10-06T07:54:12.600Z</time>
      </trkpt>
      <trkpt lat="44.11014" lon="6.30931">
        <ele>947.0136</ele>
        <time>2011-10-06T07:54:12.600Z</time>
      </trkpt>
      <trkpt lat="44.11021" lon="6.30943">
        <ele>947.0136</ele>
        <time>2011-10-06T07:54:12.600Z</time>
      </trkpt>
      <trkpt lat="44.1103" lon="6.30951">
        <ele>947.0136</ele>
        <time>2011-10-06T07:54:12.600Z</time>
      </trkpt>
      <trkpt lat="44.11042" lon="6.30956">
        <ele>946.0992</ele>
        <time>2011-10-06T07:54:12.600Z</time>
      </trkpt>
      <trkpt lat="44.1105" lon="6.30961">
        <ele>946.0992</ele>
        <time>2011-10-06T07:54:12.600Z</time>
      </trkpt>
      <trkpt lat="44.11059" lon="6.30967">
        <ele>946.0992</ele>
        <time>2011-10-06T07:54:12.600Z</time>
      </trkpt>
      <trkpt lat="44.11068" lon="6.3097">
        <ele>946.0992</ele>
        <time>2011-10-06T07:54:12.600Z</time>
      </trkpt>
      <trkpt lat="44.11077" lon="6.30969">
        <ele>946.0992</ele>
        <time>2011-10-06T07:54:12.600Z</time>
      </trkpt>
      <trkpt lat="44.11087" lon="6.3097">
        <ele>937.8696</ele>
        <time>2011-10-06T07:54:12.600Z</time>
      </trkpt>
      <trkpt lat="44.11097" lon="6.3097">
        <ele>937.8696</ele>
        <time>2011-10-06T07:54:12.600Z</time>
      </trkpt>
      <trkpt lat="44.11107" lon="6.30971">
        <ele>936.9552</ele>
        <time>2011-10-06T07:54:12.600Z</time>
      </trkpt>
      <trkpt lat="44.11116" lon="6.30972">
        <ele>936.0408</ele>
        <time>2011-10-06T07:54:12.600Z</time>
      </trkpt>
      <trkpt lat="44.11126" lon="6.30975">
        <ele>936.0408</ele>
        <time>2011-10-06T07:54:12.600Z</time>
      </trkpt>
      <trkpt lat="44.11136" lon="6.30972">
        <ele>935.1264</ele>
        <time>2011-10-06T07:54:12.600Z</time>
      </trkpt>
      <trkpt lat="44.11145" lon="6.30977">
        <ele>936.0408</ele>
        <time>2011-10-06T07:54:12.600Z</time>
      </trkpt>
      <trkpt lat="44.11152" lon="6.30985">
        <ele>937.8696</ele>
        <time>2011-10-06T07:54:12.600Z</time>
      </trkpt>
      <trkpt lat="44.11159" lon="6.30995">
        <ele>940.9176</ele>
        <time>2011-10-06T07:54:12.600Z</time>
      </trkpt>
      <trkpt lat="44.11169" lon="6.31004">
        <ele>943.0512</ele>
        <time>2011-10-06T07:54:12.600Z</time>
      </trkpt>
      <trkpt lat="44.11176" lon="6.31012">
        <ele>942.1368</ele>
        <time>2011-10-06T07:54:12.600Z</time>
      </trkpt>
      <trkpt lat="44.11184" lon="6.31023">
        <ele>940.9176</ele>
        <time>2011-10-06T07:54:12.600Z</time>
      </trkpt>
      <trkpt lat="44.11192" lon="6.31034">
        <ele>940.9176</ele>
        <time>2011-10-06T07:54:12.600Z</time>
      </trkpt>
      <trkpt lat="44.11199" lon="6.31048">
        <ele>942.1368</ele>
        <time>2011-10-06T07:54:12.600Z</time>
      </trkpt>
      <trkpt lat="44.11203" lon="6.31058">
        <ele>942.1368</ele>
        <time>2011-10-06T07:54:12.600Z</time>
      </trkpt>
      <trkpt lat="44.1121" lon="6.31072">
        <ele>942.1368</ele>
        <time>2011-10-06T07:54:12.600Z</time>
      </trkpt>
      <trkpt lat="44.11214" lon="6.31085">
        <ele>950.976</ele>
        <time>2011-10-06T07:54:12.600Z</time>
      </trkpt>
      <trkpt lat="44.11218" lon="6.31097">
        <ele>950.976</ele>
        <time>2011-10-06T07:54:12.600Z</time>
      </trkpt>
      <trkpt lat="44.11225" lon="6.31105">
        <ele>950.976</ele>
        <time>2011-10-06T07:54:12.600Z</time>
      </trkpt>
      <trkpt lat="44.11233" lon="6.31109">
        <ele>950.0616</ele>
        <time>2011-10-06T07:54:12.600Z</time>
      </trkpt>
      <trkpt lat="44.11242" lon="6.31113">
        <ele>950.0616</ele>
        <time>2011-10-06T07:54:12.600Z</time>
      </trkpt>
      <trkpt lat="44.11249" lon="6.31121">
        <ele>950.0616</ele>
        <time>2011-10-06T07:54:12.600Z</time>
      </trkpt>
      <trkpt lat="44.11255" lon="6.3113">
        <ele>942.1368</ele>
        <time>2011-10-06T07:54:12.600Z</time>
      </trkpt>
      <trkpt lat="44.11262" lon="6.31141">
        <ele>943.0512</ele>
        <time>2011-10-06T07:54:12.600Z</time>
      </trkpt>
      <trkpt lat="44.11269" lon="6.31149">
        <ele>943.9656</ele>
        <time>2011-10-06T07:54:12.600Z</time>
      </trkpt>
      <trkpt lat="44.11276" lon="6.3116">
        <ele>943.9656</ele>
        <time>2011-10-06T07:54:12.600Z</time>
      </trkpt>
      <trkpt lat="44.11283" lon="6.31173">
        <ele>947.928</ele>
        <time>2011-10-06T07:54:12.600Z</time>
      </trkpt>
      <trkpt lat="44.11285" lon="6.31185">
        <ele>949.1472</ele>
        <time>2011-10-06T07:54:12.600Z</time>
      </trkpt>
      <trkpt lat="44.11288" lon="6.31198">
        <ele>949.1472</ele>
        <time>2011-10-06T07:54:12.600Z</time>
      </trkpt>
      <trkpt lat="44.11294" lon="6.31208">
        <ele>949.1472</ele>
        <time>2011-10-06T07:54:12.600Z</time>
      </trkpt>
      <trkpt lat="44.11303" lon="6.31219">
        <ele>947.928</ele>
        <time>2011-10-06T07:54:12.600Z</time>
      </trkpt>
      <trkpt lat="44.11309" lon="6.31231">
        <ele>947.928</ele>
        <time>2011-10-06T07:54:12.600Z</time>
      </trkpt>
      <trkpt lat="44.11314" lon="6.31244">
        <ele>947.0136</ele>
        <time>2011-10-06T07:54:12.600Z</time>
      </trkpt>
      <trkpt lat="44.11322" lon="6.31256">
        <ele>947.928</ele>
        <time>2011-10-06T07:54:12.600Z</time>
      </trkpt>
      <trkpt lat="44.11328" lon="6.31266">
        <ele>949.1472</ele>
        <time>2011-10-06T07:54:12.600Z</time>
      </trkpt>
      <trkpt lat="44.11332" lon="6.31278">
        <ele>950.0616</ele>
        <time>2011-10-06T07:54:12.600Z</time>
      </trkpt>
      <trkpt lat="44.11335" lon="6.3129">
        <ele>943.9656</ele>
        <time>2011-10-06T07:54:12.600Z</time>
      </trkpt>
      <trkpt lat="44.11338" lon="6.31303">
        <ele>943.9656</ele>
        <time>2011-10-06T07:54:12.600Z</time>
      </trkpt>
      <trkpt lat="44.11342" lon="6.31316">
        <ele>944.88</ele>
        <time>2011-10-06T07:54:12.600Z</time>
      </trkpt>
      <trkpt lat="44.11346" lon="6.31327">
        <ele>944.88</ele>
        <time>2011-10-06T07:54:12.600Z</time>
      </trkpt>
      <trkpt lat="44.11354" lon="6.31338">
        <ele>947.928</ele>
        <time>2011-10-06T07:54:12.600Z</time>
      </trkpt>
      <trkpt lat="44.11363" lon="6.31341">
        <ele>947.928</ele>
        <time>2011-10-06T07:54:12.600Z</time>
      </trkpt>
      <trkpt lat="44.1137" lon="6.31348">
        <ele>947.928</ele>
        <time>2011-10-06T07:54:12.600Z</time>
      </trkpt>
      <trkpt lat="44.11378" lon="6.31343">
        <ele>947.0136</ele>
        <time>2011-10-06T07:54:12.600Z</time>
      </trkpt>
      <trkpt lat="44.11388" lon="6.31343">
        <ele>947.0136</ele>
        <time>2011-10-06T07:54:12.600Z</time>
      </trkpt>
      <trkpt lat="44.11397" lon="6.31349">
        <ele>947.0136</ele>
        <time>2011-10-06T07:54:12.600Z</time>
      </trkpt>
      <trkpt lat="44.11401" lon="6.31361">
        <ele>947.0136</ele>
        <time>2011-10-06T07:54:12.600Z</time>
      </trkpt>
      <trkpt lat="44.1141" lon="6.31358">
        <ele>947.0136</ele>
        <time>2011-10-06T07:54:12.600Z</time>
      </trkpt>
      <trkpt lat="44.11417" lon="6.3135">
        <ele>946.0992</ele>
        <time>2011-10-06T07:54:12.600Z</time>
      </trkpt>
      <trkpt lat="44.1142" lon="6.31339">
        <ele>944.88</ele>
        <time>2011-10-06T07:54:12.600Z</time>
      </trkpt>
      <trkpt lat="44.11429" lon="6.31332">
        <ele>943.0512</ele>
        <time>2011-10-06T07:54:12.600Z</time>
      </trkpt>
      <trkpt lat="44.11439" lon="6.31328">
        <ele>943.0512</ele>
        <time>2011-10-06T07:54:12.600Z</time>
      </trkpt>
      <trkpt lat="44.11448" lon="6.31323">
        <ele>943.0512</ele>
        <time>2011-10-06T07:54:12.600Z</time>
      </trkpt>
      <trkpt lat="44.11457" lon="6.31323">
        <ele>943.9656</ele>
        <time>2011-10-06T07:54:12.600Z</time>
      </trkpt>
      <trkpt lat="44.11467" lon="6.31323">
        <ele>943.9656</ele>
        <time>2011-10-06T07:54:12.600Z</time>
      </trkpt>
      <trkpt lat="44.11477" lon="6.31319">
        <ele>944.88</ele>
        <time>2011-10-06T07:54:12.600Z</time>
      </trkpt>
      <trkpt lat="44.11484" lon="6.31312">
        <ele>944.88</ele>
        <time>2011-10-06T07:54:12.600Z</time>
      </trkpt>
      <trkpt lat="44.11492" lon="6.31305">
        <ele>943.9656</ele>
        <time>2011-10-06T07:54:12.600Z</time>
      </trkpt>
      <trkpt lat="44.11501" lon="6.31303">
        <ele>944.88</ele>
        <time>2011-10-06T07:54:12.600Z</time>
      </trkpt>
      <trkpt lat="44.1151" lon="6.31303">
        <ele>944.88</ele>
        <time>2011-10-06T07:54:12.600Z</time>
      </trkpt>
      <trkpt lat="44.1152" lon="6.31307">
        <ele>944.88</ele>
        <time>2011-10-06T07:54:12.600Z</time>
      </trkpt>
      <trkpt lat="44.11528" lon="6.31314">
        <ele>944.88</ele>
        <time>2011-10-06T07:54:12.600Z</time>
      </trkpt>
      <trkpt lat="44.11538" lon="6.31319">
        <ele>944.88</ele>
        <time>2011-10-06T07:54:12.600Z</time>
      </trkpt>
      <trkpt lat="44.11548" lon="6.31324">
        <ele>944.88</ele>
        <time>2011-10-06T07:54:12.600Z</time>
      </trkpt>
      <trkpt lat="44.1156" lon="6.31331">
        <ele>944.88</ele>
        <time>2011-10-06T07:54:12.600Z</time>
      </trkpt>
      <trkpt lat="44.11569" lon="6.31335">
        <ele>949.1472</ele>
        <time>2011-10-06T07:54:12.600Z</time>
      </trkpt>
      <trkpt lat="44.11579" lon="6.31337">
        <ele>947.928</ele>
        <time>2011-10-06T07:54:12.600Z</time>
      </trkpt>
      <trkpt lat="44.1159" lon="6.3134">
        <ele>947.928</ele>
        <time>2011-10-06T07:54:12.600Z</time>
      </trkpt>
      <trkpt lat="44.11601" lon="6.31343">
        <ele>949.1472</ele>
        <time>2011-10-06T07:54:12.600Z</time>
      </trkpt>
      <trkpt lat="44.11611" lon="6.31348">
        <ele>950.0616</ele>
        <time>2011-10-06T07:54:12.600Z</time>
      </trkpt>
      <trkpt lat="44.11619" lon="6.31344">
        <ele>950.0616</ele>
        <time>2011-10-06T07:54:12.600Z</time>
      </trkpt>
      <trkpt lat="44.11627" lon="6.31338">
        <ele>950.0616</ele>
        <time>2011-10-06T07:54:12.600Z</time>
      </trkpt>
      <trkpt lat="44.11636" lon="6.31332">
        <ele>944.88</ele>
        <time>2011-10-06T07:54:12.600Z</time>
      </trkpt>
      <trkpt lat="44.11646" lon="6.31332">
        <ele>944.88</ele>
        <time>2011-10-06T07:54:12.600Z</time>
      </trkpt>
      <trkpt lat="44.11655" lon="6.31337">
        <ele>949.1472</ele>
        <time>2011-10-06T07:54:12.600Z</time>
      </trkpt>
      <trkpt lat="44.11664" lon="6.31341">
        <ele>947.928</ele>
        <time>2011-10-06T07:54:12.600Z</time>
      </trkpt>
      <trkpt lat="44.11674" lon="6.31342">
        <ele>949.1472</ele>
        <time>2011-10-06T07:54:12.600Z</time>
      </trkpt>
      <trkpt lat="44.11683" lon="6.31346">
        <ele>950.0616</ele>
        <time>2011-10-06T07:54:12.600Z</time>
      </trkpt>
      <trkpt lat="44.11692" lon="6.3135">
        <ele>950.976</ele>
        <time>2011-10-06T07:54:12.600Z</time>
      </trkpt>
      <trkpt lat="44.11699" lon="6.31359">
        <ele>951.8904</ele>
        <time>2011-10-06T07:54:12.600Z</time>
      </trkpt>
      <trkpt lat="44.11705" lon="6.31369">
        <ele>953.1096</ele>
        <time>2011-10-06T07:54:12.600Z</time>
      </trkpt>
      <trkpt lat="44.11713" lon="6.31366">
        <ele>953.1096</ele>
        <time>2011-10-06T07:54:12.600Z</time>
      </trkpt>
      <trkpt lat="44.11705" lon="6.31371">
        <ele>953.1096</ele>
        <time>2011-10-06T07:54:12.600Z</time>
      </trkpt>
      <trkpt lat="44.11695" lon="6.31368">
        <ele>951.8904</ele>
        <time>2011-10-06T07:54:12.600Z</time>
      </trkpt>
      <trkpt lat="44.11681" lon="6.31377">
        <ele>953.1096</ele>
        <time>2011-10-06T07:54:12.600Z</time>
      </trkpt>
      <trkpt lat="44.11676" lon="6.31387">
        <ele>953.1096</ele>
        <time>2011-10-06T07:54:12.600Z</time>
      </trkpt>
      <trkpt lat="44.11671" lon="6.31398">
        <ele>954.024</ele>
        <time>2011-10-06T07:54:12.600Z</time>
      </trkpt>
      <trkpt lat="44.11666" lon="6.31409">
        <ele>954.9384</ele>
        <time>2011-10-06T07:54:12.600Z</time>
      </trkpt>
      <trkpt lat="44.11661" lon="6.3142">
        <ele>957.9864</ele>
        <time>2011-10-06T07:54:12.600Z</time>
      </trkpt>
      <trkpt lat="44.11654" lon="6.31429">
        <ele>960.12</ele>
        <time>2011-10-06T07:54:12.600Z</time>
      </trkpt>
      <trkpt lat="44.11647" lon="6.31438">
        <ele>961.0344</ele>
        <time>2011-10-06T07:54:12.600Z</time>
      </trkpt>
      <trkpt lat="44.11639" lon="6.31447">
        <ele>962.8632</ele>
        <time>2011-10-06T07:54:12.600Z</time>
      </trkpt>
      <trkpt lat="44.11631" lon="6.31456">
        <ele>962.8632</ele>
        <time>2011-10-06T07:54:12.600Z</time>
      </trkpt>
      <trkpt lat="44.1162" lon="6.31457">
        <ele>964.0824</ele>
        <time>2011-10-06T07:54:12.600Z</time>
      </trkpt>
      <trkpt lat="44.11612" lon="6.3145">
        <ele>962.8632</ele>
        <time>2011-10-06T07:54:12.600Z</time>
      </trkpt>
      <trkpt lat="44.11604" lon="6.31441">
        <ele>961.9488</ele>
        <time>2011-10-06T07:54:12.600Z</time>
      </trkpt>
      <trkpt lat="44.11597" lon="6.31431">
        <ele>961.0344</ele>
        <time>2011-10-06T07:54:12.600Z</time>
      </trkpt>
      <trkpt lat="44.11589" lon="6.3142">
        <ele>958.9008</ele>
        <time>2011-10-06T07:54:12.600Z</time>
      </trkpt>
      <trkpt lat="44.11581" lon="6.31409">
        <ele>955.8528</ele>
        <time>2011-10-06T07:54:12.600Z</time>
      </trkpt>
      <trkpt lat="44.11574" lon="6.31401">
        <ele>954.9384</ele>
        <time>2011-10-06T07:54:12.600Z</time>
      </trkpt>
      <trkpt lat="44.11563" lon="6.31394">
        <ele>954.9384</ele>
        <time>2011-10-06T07:54:12.600Z</time>
      </trkpt>
      <trkpt lat="44.11554" lon="6.3139">
        <ele>954.9384</ele>
        <time>2011-10-06T07:54:12.600Z</time>
      </trkpt>
      <trkpt lat="44.11543" lon="6.31386">
        <ele>954.9384</ele>
        <time>2011-10-06T07:54:12.600Z</time>
      </trkpt>
      <trkpt lat="44.11534" lon="6.31383">
        <ele>954.9384</ele>
        <time>2011-10-06T07:54:12.600Z</time>
      </trkpt>
      <trkpt lat="44.11523" lon="6.31383">
        <ele>955.8528</ele>
        <time>2011-10-06T07:54:12.600Z</time>
      </trkpt>
      <trkpt lat="44.11513" lon="6.31383">
        <ele>955.8528</ele>
        <time>2011-10-06T07:54:12.600Z</time>
      </trkpt>
      <trkpt lat="44.11503" lon="6.31385">
        <ele>957.072</ele>
        <time>2011-10-06T07:54:12.600Z</time>
      </trkpt>
      <trkpt lat="44.11494" lon="6.31394">
        <ele>955.8528</ele>
        <time>2011-10-06T07:54:12.600Z</time>
      </trkpt>
      <trkpt lat="44.11487" lon="6.31401">
        <ele>957.072</ele>
        <time>2011-10-06T07:54:12.600Z</time>
      </trkpt>
      <trkpt lat="44.11479" lon="6.31413">
        <ele>957.072</ele>
        <time>2011-10-06T07:54:12.600Z</time>
      </trkpt>
      <trkpt lat="44.11472" lon="6.31424">
        <ele>962.8632</ele>
        <time>2011-10-06T07:54:12.600Z</time>
      </trkpt>
      <trkpt lat="44.11465" lon="6.31436">
        <ele>962.8632</ele>
        <time>2011-10-06T07:54:12.600Z</time>
      </trkpt>
      <trkpt lat="44.11458" lon="6.31448">
        <ele>964.0824</ele>
        <time>2011-10-06T07:54:12.600Z</time>
      </trkpt>
      <trkpt lat="44.1145" lon="6.31457">
        <ele>964.0824</ele>
        <time>2011-10-06T07:54:12.600Z</time>
      </trkpt>
      <trkpt lat="44.11443" lon="6.31465">
        <ele>964.0824</ele>
        <time>2011-10-06T07:54:12.600Z</time>
      </trkpt>
      <trkpt lat="44.11435" lon="6.31474">
        <ele>964.9968</ele>
        <time>2011-10-06T07:54:12.600Z</time>
      </trkpt>
      <trkpt lat="44.11427" lon="6.31484">
        <ele>964.9968</ele>
        <time>2011-10-06T07:54:12.600Z</time>
      </trkpt>
      <trkpt lat="44.1142" lon="6.31494">
        <ele>965.9112</ele>
        <time>2011-10-06T07:54:12.600Z</time>
      </trkpt>
      <trkpt lat="44.11411" lon="6.31501">
        <ele>967.1304</ele>
        <time>2011-10-06T07:54:12.600Z</time>
      </trkpt>
      <trkpt lat="44.11401" lon="6.31509">
        <ele>968.9592</ele>
        <time>2011-10-06T07:54:12.600Z</time>
      </trkpt>
      <trkpt lat="44.11391" lon="6.31518">
        <ele>969.8736</ele>
        <time>2011-10-06T07:54:12.600Z</time>
      </trkpt>
      <trkpt lat="44.1138" lon="6.31525">
        <ele>969.8736</ele>
        <time>2011-10-06T07:54:12.600Z</time>
      </trkpt>
      <trkpt lat="44.11371" lon="6.31526">
        <ele>969.8736</ele>
        <time>2011-10-06T07:54:12.600Z</time>
      </trkpt>
      <trkpt lat="44.1136" lon="6.31526">
        <ele>969.8736</ele>
        <time>2011-10-06T07:54:12.600Z</time>
      </trkpt>
      <trkpt lat="44.11351" lon="6.31524">
        <ele>968.9592</ele>
        <time>2011-10-06T07:54:12.600Z</time>
      </trkpt>
      <trkpt lat="44.1134" lon="6.31522">
        <ele>968.0448</ele>
        <time>2011-10-06T07:54:12.600Z</time>
      </trkpt>
      <trkpt lat="44.1133" lon="6.31522">
        <ele>967.1304</ele>
        <time>2011-10-06T07:54:12.600Z</time>
      </trkpt>
      <trkpt lat="44.11319" lon="6.31527">
        <ele>968.0448</ele>
        <time>2011-10-06T07:54:12.600Z</time>
      </trkpt>
      <trkpt lat="44.11308" lon="6.31533">
        <ele>968.9592</ele>
        <time>2011-10-06T07:54:12.600Z</time>
      </trkpt>
      <trkpt lat="44.11296" lon="6.31533">
        <ele>968.9592</ele>
        <time>2011-10-06T07:54:12.600Z</time>
      </trkpt>
      <trkpt lat="44.11286" lon="6.31526">
        <ele>968.0448</ele>
        <time>2011-10-06T07:54:12.600Z</time>
      </trkpt>
      <trkpt lat="44.11277" lon="6.31515">
        <ele>968.0448</ele>
        <time>2011-10-06T07:54:12.600Z</time>
      </trkpt>
      <trkpt lat="44.1127" lon="6.31507">
        <ele>968.0448</ele>
        <time>2011-10-06T07:54:12.600Z</time>
      </trkpt>
      <trkpt lat="44.11261" lon="6.31501">
        <ele>967.1304</ele>
        <time>2011-10-06T07:54:12.600Z</time>
      </trkpt>
      <trkpt lat="44.11252" lon="6.31498">
        <ele>965.9112</ele>
        <time>2011-10-06T07:54:12.600Z</time>
      </trkpt>
      <trkpt lat="44.11241" lon="6.31496">
        <ele>968.9592</ele>
        <time>2011-10-06T07:54:12.600Z</time>
      </trkpt>
      <trkpt lat="44.11232" lon="6.31495">
        <ele>969.8736</ele>
        <time>2011-10-06T07:54:12.600Z</time>
      </trkpt>
      <trkpt lat="44.11224" lon="6.31487">
        <ele>972.0072</ele>
        <time>2011-10-06T07:54:12.600Z</time>
      </trkpt>
      <trkpt lat="44.11219" lon="6.31476">
        <ele>972.0072</ele>
        <time>2011-10-06T07:54:12.600Z</time>
      </trkpt>
      <trkpt lat="44.11226" lon="6.31467">
        <ele>972.0072</ele>
        <time>2011-10-06T07:54:12.600Z</time>
      </trkpt>
      <trkpt lat="44.11231" lon="6.31457">
        <ele>971.0928</ele>
        <time>2011-10-06T07:54:12.600Z</time>
      </trkpt>
      <trkpt lat="44.1123" lon="6.31443">
        <ele>969.8736</ele>
        <time>2011-10-06T07:54:12.600Z</time>
      </trkpt>
      <trkpt lat="44.11226" lon="6.31431">
        <ele>969.8736</ele>
        <time>2011-10-06T07:54:12.600Z</time>
      </trkpt>
      <trkpt lat="44.11219" lon="6.3142">
        <ele>971.0928</ele>
        <time>2011-10-06T07:54:12.600Z</time>
      </trkpt>
      <trkpt lat="44.11211" lon="6.31412">
        <ele>971.0928</ele>
        <time>2011-10-06T07:54:12.600Z</time>
      </trkpt>
      <trkpt lat="44.11204" lon="6.31405">
        <ele>972.0072</ele>
        <time>2011-10-06T07:54:12.600Z</time>
      </trkpt>
      <trkpt lat="44.11197" lon="6.31396">
        <ele>972.0072</ele>
        <time>2011-10-06T07:54:12.600Z</time>
      </trkpt>
      <trkpt lat="44.1119" lon="6.31386">
        <ele>972.9216</ele>
        <time>2011-10-06T07:54:12.600Z</time>
      </trkpt>
      <trkpt lat="44.11184" lon="6.31376">
        <ele>972.9216</ele>
        <time>2011-10-06T07:54:12.600Z</time>
      </trkpt>
      <trkpt lat="44.1118" lon="6.31366">
        <ele>972.9216</ele>
        <time>2011-10-06T07:54:12.600Z</time>
      </trkpt>
      <trkpt lat="44.11175" lon="6.31356">
        <ele>972.9216</ele>
        <time>2011-10-06T07:54:12.600Z</time>
      </trkpt>
      <trkpt lat="44.11167" lon="6.31348">
        <ele>974.1408</ele>
        <time>2011-10-06T07:54:12.600Z</time>
      </trkpt>
      <trkpt lat="44.11158" lon="6.31344">
        <ele>982.0656</ele>
        <time>2011-10-06T07:54:12.600Z</time>
      </trkpt>
      <trkpt lat="44.11149" lon="6.31341">
        <ele>982.98</ele>
        <time>2011-10-06T07:54:12.600Z</time>
      </trkpt>
      <trkpt lat="44.11142" lon="6.31334">
        <ele>985.1136</ele>
        <time>2011-10-06T07:54:12.600Z</time>
      </trkpt>
      <trkpt lat="44.11135" lon="6.31325">
        <ele>982.98</ele>
        <time>2011-10-06T07:54:12.600Z</time>
      </trkpt>
      <trkpt lat="44.11129" lon="6.31315">
        <ele>983.8944</ele>
        <time>2011-10-06T07:54:12.600Z</time>
      </trkpt>
      <trkpt lat="44.11124" lon="6.31304">
        <ele>985.1136</ele>
        <time>2011-10-06T07:54:12.600Z</time>
      </trkpt>
      <trkpt lat="44.11119" lon="6.31294">
        <ele>985.1136</ele>
        <time>2011-10-06T07:54:12.600Z</time>
      </trkpt>
      <trkpt lat="44.11113" lon="6.31283">
        <ele>986.028</ele>
        <time>2011-10-06T07:54:12.600Z</time>
      </trkpt>
      <trkpt lat="44.11111" lon="6.3127">
        <ele>986.028</ele>
        <time>2011-10-06T07:54:12.600Z</time>
      </trkpt>
      <trkpt lat="44.1111" lon="6.31257">
        <ele>986.9424</ele>
        <time>2011-10-06T07:54:12.600Z</time>
      </trkpt>
      <trkpt lat="44.11109" lon="6.31244">
        <ele>983.8944</ele>
        <time>2011-10-06T07:54:12.600Z</time>
      </trkpt>
      <trkpt lat="44.11107" lon="6.31232">
        <ele>983.8944</ele>
        <time>2011-10-06T07:54:12.600Z</time>
      </trkpt>
      <trkpt lat="44.11105" lon="6.31218">
        <ele>982.98</ele>
        <time>2011-10-06T07:54:12.600Z</time>
      </trkpt>
      <trkpt lat="44.11099" lon="6.31208">
        <ele>982.98</ele>
        <time>2011-10-06T07:54:12.600Z</time>
      </trkpt>
      <trkpt lat="44.11092" lon="6.31201">
        <ele>982.98</ele>
        <time>2011-10-06T07:54:12.600Z</time>
      </trkpt>
      <trkpt lat="44.11083" lon="6.31201">
        <ele>990.9048</ele>
        <time>2011-10-06T07:54:12.600Z</time>
      </trkpt>
      <trkpt lat="44.11074" lon="6.31208">
        <ele>990.9048</ele>
        <time>2011-10-06T07:54:12.600Z</time>
      </trkpt>
      <trkpt lat="44.11065" lon="6.31215">
        <ele>992.124</ele>
        <time>2011-10-06T07:54:12.600Z</time>
      </trkpt>
      <trkpt lat="44.11058" lon="6.31222">
        <ele>992.124</ele>
        <time>2011-10-06T07:54:12.600Z</time>
      </trkpt>
      <trkpt lat="44.11051" lon="6.31229">
        <ele>993.0384</ele>
        <time>2011-10-06T07:54:12.600Z</time>
      </trkpt>
      <trkpt lat="44.11041" lon="6.31235">
        <ele>993.0384</ele>
        <time>2011-10-06T07:54:12.600Z</time>
      </trkpt>
      <trkpt lat="44.11032" lon="6.31239">
        <ele>993.9528</ele>
        <time>2011-10-06T07:54:12.600Z</time>
      </trkpt>
      <trkpt lat="44.11023" lon="6.31243">
        <ele>996.0864</ele>
        <time>2011-10-06T07:54:12.600Z</time>
      </trkpt>
      <trkpt lat="44.11014" lon="6.31245">
        <ele>997.0008</ele>
        <time>2011-10-06T07:54:12.600Z</time>
      </trkpt>
      <trkpt lat="44.11006" lon="6.3125">
        <ele>999.1344</ele>
        <time>2011-10-06T07:54:12.600Z</time>
      </trkpt>
      <trkpt lat="44.10997" lon="6.31249">
        <ele>1001.8776</ele>
        <time>2011-10-06T07:54:12.600Z</time>
      </trkpt>
      <trkpt lat="44.10988" lon="6.31244">
        <ele>1004.0112</ele>
        <time>2011-10-06T07:54:12.600Z</time>
      </trkpt>
      <trkpt lat="44.1098" lon="6.31237">
        <ele>1004.9256</ele>
        <time>2011-10-06T07:54:12.600Z</time>
      </trkpt>
      <trkpt lat="44.10973" lon="6.31229">
        <ele>1006.1448</ele>
        <time>2011-10-06T07:54:12.600Z</time>
      </trkpt>
      <trkpt lat="44.10966" lon="6.31218">
        <ele>1006.1448</ele>
        <time>2011-10-06T07:54:12.600Z</time>
      </trkpt>
      <trkpt lat="44.10961" lon="6.31208">
        <ele>1006.1448</ele>
        <time>2011-10-06T07:54:12.600Z</time>
      </trkpt>
      <trkpt lat="44.10954" lon="6.31198">
        <ele>1007.0592</ele>
        <time>2011-10-06T07:54:12.600Z</time>
      </trkpt>
      <trkpt lat="44.10946" lon="6.31188">
        <ele>1007.0592</ele>
        <time>2011-10-06T07:54:12.600Z</time>
      </trkpt>
      <trkpt lat="44.1094" lon="6.31177">
        <ele>1007.9736</ele>
        <time>2011-10-06T07:54:12.600Z</time>
      </trkpt>
      <trkpt lat="44.10934" lon="6.31167">
        <ele>1008.888</ele>
        <time>2011-10-06T07:54:12.600Z</time>
      </trkpt>
      <trkpt lat="44.10929" lon="6.31156">
        <ele>1004.9256</ele>
        <time>2011-10-06T07:54:12.600Z</time>
      </trkpt>
      <trkpt lat="44.10925" lon="6.31145">
        <ele>1003.0968</ele>
        <time>2011-10-06T07:54:12.600Z</time>
      </trkpt>
      <trkpt lat="44.10922" lon="6.31133">
        <ele>1000.9632</ele>
        <time>2011-10-06T07:54:12.600Z</time>
      </trkpt>
      <trkpt lat="44.10916" lon="6.31123">
        <ele>1008.888</ele>
        <time>2011-10-06T07:54:12.600Z</time>
      </trkpt>
      <trkpt lat="44.10911" lon="6.31111">
        <ele>1007.9736</ele>
        <time>2011-10-06T07:54:12.600Z</time>
      </trkpt>
      <trkpt lat="44.10904" lon="6.31101">
        <ele>1007.0592</ele>
        <time>2011-10-06T07:54:12.600Z</time>
      </trkpt>
      <trkpt lat="44.10899" lon="6.3109">
        <ele>1007.0592</ele>
        <time>2011-10-06T07:54:12.600Z</time>
      </trkpt>
      <trkpt lat="44.10894" lon="6.31078">
        <ele>1003.0968</ele>
        <time>2011-10-06T07:54:12.600Z</time>
      </trkpt>
      <trkpt lat="44.1089" lon="6.31067">
        <ele>1003.0968</ele>
        <time>2011-10-06T07:54:12.600Z</time>
      </trkpt>
      <trkpt lat="44.10886" lon="6.31055">
        <ele>1003.0968</ele>
        <time>2011-10-06T07:54:12.600Z</time>
      </trkpt>
      <trkpt lat="44.10881" lon="6.31043">
        <ele>1003.0968</ele>
        <time>2011-10-06T07:54:12.600Z</time>
      </trkpt>
      <trkpt lat="44.10874" lon="6.31034">
        <ele>1003.0968</ele>
        <time>2011-10-06T07:54:12.600Z</time>
      </trkpt>
      <trkpt lat="44.10864" lon="6.31035">
        <ele>1003.0968</ele>
        <time>2011-10-06T07:54:12.600Z</time>
      </trkpt>
      <trkpt lat="44.10858" lon="6.31045">
        <ele>1004.0112</ele>
        <time>2011-10-06T07:54:12.600Z</time>
      </trkpt>
      <trkpt lat="44.10859" lon="6.31058">
        <ele>1004.0112</ele>
        <time>2011-10-06T07:54:12.600Z</time>
      </trkpt>
      <trkpt lat="44.1086" lon="6.31071">
        <ele>1004.0112</ele>
        <time>2011-10-06T07:54:12.600Z</time>
      </trkpt>
      <trkpt lat="44.10862" lon="6.31084">
        <ele>1008.888</ele>
        <time>2011-10-06T07:54:12.600Z</time>
      </trkpt>
      <trkpt lat="44.10863" lon="6.31097">
        <ele>1008.888</ele>
        <time>2011-10-06T07:54:12.600Z</time>
      </trkpt>
      <trkpt lat="44.10859" lon="6.31128">
        <ele>1011.0216</ele>
        <time>2011-10-06T07:54:12.600Z</time>
      </trkpt>
      <trkpt lat="44.10859" lon="6.31141">
        <ele>1011.0216</ele>
        <time>2011-10-06T07:54:12.600Z</time>
      </trkpt>
      <trkpt lat="44.1086" lon="6.31154">
        <ele>1011.936</ele>
        <time>2011-10-06T07:54:12.600Z</time>
      </trkpt>
      <trkpt lat="44.10859" lon="6.31168">
        <ele>1018.032</ele>
        <time>2011-10-06T07:54:12.600Z</time>
      </trkpt>
      <trkpt lat="44.10863" lon="6.31181">
        <ele>1018.032</ele>
        <time>2011-10-06T07:54:12.600Z</time>
      </trkpt>
      <trkpt lat="44.10869" lon="6.31192">
        <ele>1018.9464</ele>
        <time>2011-10-06T07:54:12.600Z</time>
      </trkpt>
      <trkpt lat="44.10873" lon="6.31206">
        <ele>1018.9464</ele>
        <time>2011-10-06T07:54:12.600Z</time>
      </trkpt>
      <trkpt lat="44.10874" lon="6.31219">
        <ele>1019.8608</ele>
        <time>2011-10-06T07:54:12.600Z</time>
      </trkpt>
      <trkpt lat="44.10876" lon="6.31232">
        <ele>1021.08</ele>
        <time>2011-10-06T07:54:12.600Z</time>
      </trkpt>
      <trkpt lat="44.10876" lon="6.31245">
        <ele>1021.08</ele>
        <time>2011-10-06T07:54:12.600Z</time>
      </trkpt>
      <trkpt lat="44.10878" lon="6.31259">
        <ele>1028.0904</ele>
        <time>2011-10-06T07:54:12.600Z</time>
      </trkpt>
      <trkpt lat="44.10879" lon="6.31271">
        <ele>1028.0904</ele>
        <time>2011-10-06T07:54:12.600Z</time>
      </trkpt>
      <trkpt lat="44.10879" lon="6.31284">
        <ele>1029.0048</ele>
        <time>2011-10-06T07:54:12.600Z</time>
      </trkpt>
      <trkpt lat="44.10879" lon="6.31297">
        <ele>1029.9192</ele>
        <time>2011-10-06T07:54:12.600Z</time>
      </trkpt>
      <trkpt lat="44.10877" lon="6.31309">
        <ele>1031.1384</ele>
        <time>2011-10-06T07:54:12.600Z</time>
      </trkpt>
      <trkpt lat="44.10878" lon="6.31323">
        <ele>1031.1384</ele>
        <time>2011-10-06T07:54:12.600Z</time>
      </trkpt>
      <trkpt lat="44.10877" lon="6.31336">
        <ele>1036.0152</ele>
        <time>2011-10-06T07:54:12.600Z</time>
      </trkpt>
      <trkpt lat="44.10877" lon="6.31349">
        <ele>1036.9296</ele>
        <time>2011-10-06T07:54:12.600Z</time>
      </trkpt>
      <trkpt lat="44.10874" lon="6.3136">
        <ele>1036.9296</ele>
        <time>2011-10-06T07:54:12.600Z</time>
      </trkpt>
      <trkpt lat="44.10872" lon="6.31375">
        <ele>1038.1488</ele>
        <time>2011-10-06T07:54:12.600Z</time>
      </trkpt>
      <trkpt lat="44.10869" lon="6.31387">
        <ele>1038.1488</ele>
        <time>2011-10-06T07:54:12.600Z</time>
      </trkpt>
      <trkpt lat="44.10868" lon="6.31401">
        <ele>1039.0632</ele>
        <time>2011-10-06T07:54:12.600Z</time>
      </trkpt>
      <trkpt lat="44.10869" lon="6.31413">
        <ele>1039.0632</ele>
        <time>2011-10-06T07:54:12.600Z</time>
      </trkpt>
      <trkpt lat="44.10868" lon="6.31426">
        <ele>1043.0256</ele>
        <time>2011-10-06T07:54:12.600Z</time>
      </trkpt>
      <trkpt lat="44.10868" lon="6.31438">
        <ele>1043.0256</ele>
        <time>2011-10-06T07:54:12.600Z</time>
      </trkpt>
      <trkpt lat="44.10868" lon="6.31452">
        <ele>1043.94</ele>
        <time>2011-10-06T07:54:12.600Z</time>
      </trkpt>
      <trkpt lat="44.10868" lon="6.31464">
        <ele>1044.8544</ele>
        <time>2011-10-06T07:54:12.600Z</time>
      </trkpt>
      <trkpt lat="44.10866" lon="6.31478">
        <ele>1044.8544</ele>
        <time>2011-10-06T07:54:12.600Z</time>
      </trkpt>
      <trkpt lat="44.10865" lon="6.31491">
        <ele>1046.0736</ele>
        <time>2011-10-06T07:54:12.600Z</time>
      </trkpt>
      <trkpt lat="44.10865" lon="6.31503">
        <ele>1051.8648</ele>
        <time>2011-10-06T07:54:12.600Z</time>
      </trkpt>
      <trkpt lat="44.10865" lon="6.31517">
        <ele>1051.8648</ele>
        <time>2011-10-06T07:54:12.600Z</time>
      </trkpt>
      <trkpt lat="44.10866" lon="6.3153">
        <ele>1051.8648</ele>
        <time>2011-10-06T07:54:12.600Z</time>
      </trkpt>
      <trkpt lat="44.10867" lon="6.31544">
        <ele>1053.084</ele>
        <time>2011-10-06T07:54:12.600Z</time>
      </trkpt>
      <trkpt lat="44.10867" lon="6.31557">
        <ele>1053.9984</ele>
        <time>2011-10-06T07:54:12.600Z</time>
      </trkpt>
      <trkpt lat="44.1087" lon="6.31569">
        <ele>1054.9128</ele>
        <time>2011-10-06T07:54:12.600Z</time>
      </trkpt>
      <trkpt lat="44.10872" lon="6.31581">
        <ele>1054.9128</ele>
        <time>2011-10-06T07:54:12.600Z</time>
      </trkpt>
      <trkpt lat="44.10875" lon="6.31593">
        <ele>1061.0088</ele>
        <time>2011-10-06T07:54:12.600Z</time>
      </trkpt>
      <trkpt lat="44.10877" lon="6.31606">
        <ele>1061.0088</ele>
        <time>2011-10-06T07:54:12.600Z</time>
      </trkpt>
      <trkpt lat="44.10879" lon="6.31619">
        <ele>1061.9232</ele>
        <time>2011-10-06T07:54:12.600Z</time>
      </trkpt>
      <trkpt lat="44.10882" lon="6.31632">
        <ele>1061.9232</ele>
        <time>2011-10-06T07:54:12.600Z</time>
      </trkpt>
      <trkpt lat="44.10885" lon="6.31644">
        <ele>1063.1424</ele>
        <time>2011-10-06T07:54:12.600Z</time>
      </trkpt>
      <trkpt lat="44.10889" lon="6.31657">
        <ele>1063.1424</ele>
        <time>2011-10-06T07:54:12.600Z</time>
      </trkpt>
      <trkpt lat="44.10893" lon="6.31669">
        <ele>1068.0192</ele>
        <time>2011-10-06T07:54:12.600Z</time>
      </trkpt>
      <trkpt lat="44.10897" lon="6.31681">
        <ele>1068.0192</ele>
        <time>2011-10-06T07:54:12.600Z</time>
      </trkpt>
      <trkpt lat="44.109" lon="6.31693">
        <ele>1068.9336</ele>
        <time>2011-10-06T07:54:12.600Z</time>
      </trkpt>
      <trkpt lat="44.10903" lon="6.31704">
        <ele>1069.848</ele>
        <time>2011-10-06T07:54:12.600Z</time>
      </trkpt>
      <trkpt lat="44.10907" lon="6.31717">
        <ele>1069.848</ele>
        <time>2011-10-06T07:54:12.600Z</time>
      </trkpt>
      <trkpt lat="44.10909" lon="6.3173">
        <ele>1071.0672</ele>
        <time>2011-10-06T07:54:12.600Z</time>
      </trkpt>
      <trkpt lat="44.10912" lon="6.31744">
        <ele>1069.848</ele>
        <time>2011-10-06T07:54:12.600Z</time>
      </trkpt>
      <trkpt lat="44.10912" lon="6.31756">
        <ele>1071.9816</ele>
        <time>2011-10-06T07:54:12.600Z</time>
      </trkpt>
      <trkpt lat="44.10912" lon="6.3177">
        <ele>1075.0296</ele>
        <time>2011-10-06T07:54:12.600Z</time>
      </trkpt>
      <trkpt lat="44.1091" lon="6.31782">
        <ele>1075.944</ele>
        <time>2011-10-06T07:54:12.600Z</time>
      </trkpt>
      <trkpt lat="44.10906" lon="6.31795">
        <ele>1076.8584</ele>
        <time>2011-10-06T07:54:12.600Z</time>
      </trkpt>
      <trkpt lat="44.10903" lon="6.31808">
        <ele>1076.8584</ele>
        <time>2011-10-06T07:54:12.600Z</time>
      </trkpt>
      <trkpt lat="44.109" lon="6.3182">
        <ele>1075.944</ele>
        <time>2011-10-06T07:54:12.600Z</time>
      </trkpt>
      <trkpt lat="44.109" lon="6.31833">
        <ele>1075.944</ele>
        <time>2011-10-06T07:54:12.600Z</time>
      </trkpt>
      <trkpt lat="44.10899" lon="6.31845">
        <ele>1079.9064</ele>
        <time>2011-10-06T07:54:12.600Z</time>
      </trkpt>
      <trkpt lat="44.10895" lon="6.31858">
        <ele>1082.04</ele>
        <time>2011-10-06T07:54:12.600Z</time>
      </trkpt>
      <trkpt lat="44.10892" lon="6.3187">
        <ele>1082.9544</ele>
        <time>2011-10-06T07:54:12.600Z</time>
      </trkpt>
      <trkpt lat="44.10888" lon="6.31881">
        <ele>1083.8688</ele>
        <time>2011-10-06T07:54:12.600Z</time>
      </trkpt>
      <trkpt lat="44.10885" lon="6.31893">
        <ele>1085.088</ele>
        <time>2011-10-06T07:54:12.600Z</time>
      </trkpt>
      <trkpt lat="44.10883" lon="6.31906">
        <ele>1086.0024</ele>
        <time>2011-10-06T07:54:12.600Z</time>
      </trkpt>
      <trkpt lat="44.10879" lon="6.31918">
        <ele>1092.0984</ele>
        <time>2011-10-06T07:54:12.600Z</time>
      </trkpt>
      <trkpt lat="44.10876" lon="6.3193">
        <ele>1092.0984</ele>
        <time>2011-10-06T07:54:12.600Z</time>
      </trkpt>
      <trkpt lat="44.10874" lon="6.31941">
        <ele>1093.0128</ele>
        <time>2011-10-06T07:54:12.600Z</time>
      </trkpt>
      <trkpt lat="44.10869" lon="6.31953">
        <ele>1093.9272</ele>
        <time>2011-10-06T07:54:12.600Z</time>
      </trkpt>
      <trkpt lat="44.10865" lon="6.31967">
        <ele>1095.1464</ele>
        <time>2011-10-06T07:54:12.600Z</time>
      </trkpt>
      <trkpt lat="44.1086" lon="6.31977">
        <ele>1096.0608</ele>
        <time>2011-10-06T07:54:12.600Z</time>
      </trkpt>
      <trkpt lat="44.10855" lon="6.31987">
        <ele>1097.8896</ele>
        <time>2011-10-06T07:54:12.600Z</time>
      </trkpt>
      <trkpt lat="44.10852" lon="6.32">
        <ele>1099.1088</ele>
        <time>2011-10-06T07:54:12.600Z</time>
      </trkpt>
      <trkpt lat="44.1085" lon="6.32012">
        <ele>1103.0712</ele>
        <time>2011-10-06T07:54:12.600Z</time>
      </trkpt>
      <trkpt lat="44.10848" lon="6.32026">
        <ele>1103.9856</ele>
        <time>2011-10-06T07:54:12.600Z</time>
      </trkpt>
      <trkpt lat="44.10846" lon="6.32039">
        <ele>1103.9856</ele>
        <time>2011-10-06T07:54:12.600Z</time>
      </trkpt>
      <trkpt lat="44.10844" lon="6.32053">
        <ele>1104.9</ele>
        <time>2011-10-06T07:54:12.600Z</time>
      </trkpt>
      <trkpt lat="44.10841" lon="6.32065">
        <ele>1106.1192</ele>
        <time>2011-10-06T07:54:12.600Z</time>
      </trkpt>
      <trkpt lat="44.10843" lon="6.32077">
        <ele>1107.948</ele>
        <time>2011-10-06T07:54:12.600Z</time>
      </trkpt>
      <trkpt lat="44.10848" lon="6.32088">
        <ele>1110.996</ele>
        <time>2011-10-06T07:54:12.600Z</time>
      </trkpt>
      <trkpt lat="44.10856" lon="6.32094">
        <ele>1111.9104</ele>
        <time>2011-10-06T07:54:12.600Z</time>
      </trkpt>
      <trkpt lat="44.10863" lon="6.32103">
        <ele>1111.9104</ele>
        <time>2011-10-06T07:54:12.600Z</time>
      </trkpt>
      <trkpt lat="44.1087" lon="6.32109">
        <ele>1111.9104</ele>
        <time>2011-10-06T07:54:12.600Z</time>
      </trkpt>
      <trkpt lat="44.1088" lon="6.32105">
        <ele>1110.996</ele>
        <time>2011-10-06T07:54:12.600Z</time>
      </trkpt>
      <trkpt lat="44.10888" lon="6.32099">
        <ele>1110.0816</ele>
        <time>2011-10-06T07:54:12.600Z</time>
      </trkpt>
      <trkpt lat="44.10897" lon="6.32089">
        <ele>1108.8624</ele>
        <time>2011-10-06T07:54:12.600Z</time>
      </trkpt>
      <trkpt lat="44.10904" lon="6.32079">
        <ele>1103.9856</ele>
        <time>2011-10-06T07:54:12.600Z</time>
      </trkpt>
      <trkpt lat="44.10912" lon="6.32068">
        <ele>1103.0712</ele>
        <time>2011-10-06T07:54:12.600Z</time>
      </trkpt>
      <trkpt lat="44.10923" lon="6.32066">
        <ele>1099.1088</ele>
        <time>2011-10-06T07:54:12.600Z</time>
      </trkpt>
      <trkpt lat="44.10936" lon="6.32074">
        <ele>1097.8896</ele>
        <time>2011-10-06T07:54:12.600Z</time>
      </trkpt>
      <trkpt lat="44.10947" lon="6.32084">
        <ele>1103.9856</ele>
        <time>2011-10-06T07:54:12.600Z</time>
      </trkpt>
      <trkpt lat="44.10956" lon="6.32092">
        <ele>1103.9856</ele>
        <time>2011-10-06T07:54:12.600Z</time>
      </trkpt>
      <trkpt lat="44.10967" lon="6.321">
        <ele>1103.0712</ele>
        <time>2011-10-06T07:54:12.600Z</time>
      </trkpt>
      <trkpt lat="44.11024" lon="6.32118">
        <ele>1092.0984</ele>
        <time>2011-10-06T07:54:12.600Z</time>
      </trkpt>
      <trkpt lat="44.11035" lon="6.32115">
        <ele>1090.8792</ele>
        <time>2011-10-06T07:54:12.600Z</time>
      </trkpt>
      <trkpt lat="44.11044" lon="6.3211">
        <ele>1089.9648</ele>
        <time>2011-10-06T07:54:12.600Z</time>
      </trkpt>
      <trkpt lat="44.11054" lon="6.32109">
        <ele>1089.0504</ele>
        <time>2011-10-06T07:54:12.600Z</time>
      </trkpt>
      <trkpt lat="44.11061" lon="6.32118">
        <ele>1089.0504</ele>
        <time>2011-10-06T07:54:12.600Z</time>
      </trkpt>
      <trkpt lat="44.11063" lon="6.32131">
        <ele>1088.136</ele>
        <time>2011-10-06T07:54:12.600Z</time>
      </trkpt>
      <trkpt lat="44.11061" lon="6.32145">
        <ele>1088.136</ele>
        <time>2011-10-06T07:54:12.600Z</time>
      </trkpt>
      <trkpt lat="44.11059" lon="6.32157">
        <ele>1088.136</ele>
        <time>2011-10-06T07:54:12.600Z</time>
      </trkpt>
      <trkpt lat="44.11057" lon="6.32172">
        <ele>1089.0504</ele>
        <time>2011-10-06T07:54:12.600Z</time>
      </trkpt>
      <trkpt lat="44.11057" lon="6.32189">
        <ele>1089.9648</ele>
        <time>2011-10-06T07:54:12.600Z</time>
      </trkpt>
      <trkpt lat="44.11057" lon="6.32205">
        <ele>1089.9648</ele>
        <time>2011-10-06T07:54:12.600Z</time>
      </trkpt>
      <trkpt lat="44.11058" lon="6.32217">
        <ele>1089.9648</ele>
        <time>2011-10-06T07:54:12.600Z</time>
      </trkpt>
      <trkpt lat="44.11058" lon="6.32232">
        <ele>1089.9648</ele>
        <time>2011-10-06T07:54:12.600Z</time>
      </trkpt>
      <trkpt lat="44.11052" lon="6.32246">
        <ele>1089.9648</ele>
        <time>2011-10-06T07:54:12.600Z</time>
      </trkpt>
      <trkpt lat="44.11055" lon="6.3226">
        <ele>1090.8792</ele>
        <time>2011-10-06T07:54:12.600Z</time>
      </trkpt>
      <trkpt lat="44.11064" lon="6.32267">
        <ele>1089.9648</ele>
        <time>2011-10-06T07:54:12.600Z</time>
      </trkpt>
      <trkpt lat="44.11072" lon="6.32279">
        <ele>1089.9648</ele>
        <time>2011-10-06T07:54:12.600Z</time>
      </trkpt>
      <trkpt lat="44.1108" lon="6.32289">
        <ele>1089.9648</ele>
        <time>2011-10-06T07:54:12.600Z</time>
      </trkpt>
      <trkpt lat="44.11089" lon="6.32288">
        <ele>1079.9064</ele>
        <time>2011-10-06T07:54:12.600Z</time>
      </trkpt>
      <trkpt lat="44.11099" lon="6.32286">
        <ele>1078.992</ele>
        <time>2011-10-06T07:54:12.600Z</time>
      </trkpt>
      <trkpt lat="44.1111" lon="6.32291">
        <ele>1078.992</ele>
        <time>2011-10-06T07:54:12.600Z</time>
      </trkpt>
      <trkpt lat="44.11119" lon="6.32296">
        <ele>1078.992</ele>
        <time>2011-10-06T07:54:12.600Z</time>
      </trkpt>
      <trkpt lat="44.11127" lon="6.32303">
        <ele>1078.0776</ele>
        <time>2011-10-06T07:54:12.600Z</time>
      </trkpt>
      <trkpt lat="44.11138" lon="6.3231">
        <ele>1076.8584</ele>
        <time>2011-10-06T07:54:12.600Z</time>
      </trkpt>
      <trkpt lat="44.11145" lon="6.32319">
        <ele>1075.944</ele>
        <time>2011-10-06T07:54:12.600Z</time>
      </trkpt>
      <trkpt lat="44.11151" lon="6.32333">
        <ele>1075.944</ele>
        <time>2011-10-06T07:54:12.600Z</time>
      </trkpt>
      <trkpt lat="44.11155" lon="6.32348">
        <ele>1075.0296</ele>
        <time>2011-10-06T07:54:12.600Z</time>
      </trkpt>
      <trkpt lat="44.11157" lon="6.32361">
        <ele>1074.1152</ele>
        <time>2011-10-06T07:54:12.600Z</time>
      </trkpt>
      <trkpt lat="44.11166" lon="6.32366">
        <ele>1074.1152</ele>
        <time>2011-10-06T07:54:12.600Z</time>
      </trkpt>
      <trkpt lat="44.11184" lon="6.32364">
        <ele>1071.0672</ele>
        <time>2011-10-06T07:54:12.600Z</time>
      </trkpt>
      <trkpt lat="44.11193" lon="6.3237">
        <ele>1071.0672</ele>
        <time>2011-10-06T07:54:12.600Z</time>
      </trkpt>
      <trkpt lat="44.11202" lon="6.32374">
        <ele>1071.0672</ele>
        <time>2011-10-06T07:54:12.600Z</time>
      </trkpt>
      <trkpt lat="44.11211" lon="6.32372">
        <ele>1071.0672</ele>
        <time>2011-10-06T07:54:12.600Z</time>
      </trkpt>
      <trkpt lat="44.11221" lon="6.32373">
        <ele>1071.0672</ele>
        <time>2011-10-06T07:54:12.600Z</time>
      </trkpt>
      <trkpt lat="44.1123" lon="6.32372">
        <ele>1071.0672</ele>
        <time>2011-10-06T07:54:12.600Z</time>
      </trkpt>
      <trkpt lat="44.11239" lon="6.32371">
        <ele>1071.0672</ele>
        <time>2011-10-06T07:54:12.600Z</time>
      </trkpt>
      <trkpt lat="44.11248" lon="6.32368">
        <ele>1071.0672</ele>
        <time>2011-10-06T07:54:12.600Z</time>
      </trkpt>
      <trkpt lat="44.11257" lon="6.32365">
        <ele>1069.848</ele>
        <time>2011-10-06T07:54:12.600Z</time>
      </trkpt>
      <trkpt lat="44.11268" lon="6.32363">
        <ele>1068.9336</ele>
        <time>2011-10-06T07:54:12.600Z</time>
      </trkpt>
      <trkpt lat="44.11277" lon="6.3236">
        <ele>1068.9336</ele>
        <time>2011-10-06T07:54:12.600Z</time>
      </trkpt>
      <trkpt lat="44.11286" lon="6.32359">
        <ele>1068.9336</ele>
        <time>2011-10-06T07:54:12.600Z</time>
      </trkpt>
      <trkpt lat="44.11295" lon="6.32354">
        <ele>1068.9336</ele>
        <time>2011-10-06T07:54:12.600Z</time>
      </trkpt>
      <trkpt lat="44.11305" lon="6.32352">
        <ele>1068.9336</ele>
        <time>2011-10-06T07:54:12.600Z</time>
      </trkpt>
      <trkpt lat="44.11314" lon="6.32345">
        <ele>1071.0672</ele>
        <time>2011-10-06T07:54:12.600Z</time>
      </trkpt>
      <trkpt lat="44.11322" lon="6.32337">
        <ele>1072.896</ele>
        <time>2011-10-06T07:54:12.600Z</time>
      </trkpt>
      <trkpt lat="44.11332" lon="6.32334">
        <ele>1075.944</ele>
        <time>2011-10-06T07:54:12.600Z</time>
      </trkpt>
      <trkpt lat="44.11338" lon="6.32324">
        <ele>1074.1152</ele>
        <time>2011-10-06T07:54:12.600Z</time>
      </trkpt>
      <trkpt lat="44.11344" lon="6.32314">
        <ele>1072.896</ele>
        <time>2011-10-06T07:54:12.600Z</time>
      </trkpt>
      <trkpt lat="44.11354" lon="6.32313">
        <ele>1071.9816</ele>
        <time>2011-10-06T07:54:12.600Z</time>
      </trkpt>
      <trkpt lat="44.11364" lon="6.32311">
        <ele>1071.0672</ele>
        <time>2011-10-06T07:54:12.600Z</time>
      </trkpt>
      <trkpt lat="44.11373" lon="6.32309">
        <ele>1069.848</ele>
        <time>2011-10-06T07:54:12.600Z</time>
      </trkpt>
      <trkpt lat="44.11383" lon="6.32309">
        <ele>1068.9336</ele>
        <time>2011-10-06T07:54:12.600Z</time>
      </trkpt>
      <trkpt lat="44.11391" lon="6.32305">
        <ele>1068.9336</ele>
        <time>2011-10-06T07:54:12.600Z</time>
      </trkpt>
      <trkpt lat="44.11397" lon="6.32317">
        <ele>1068.0192</ele>
        <time>2011-10-06T07:54:12.600Z</time>
      </trkpt>
      <trkpt lat="44.11395" lon="6.32332">
        <ele>1067.1048</ele>
        <time>2011-10-06T07:54:12.600Z</time>
      </trkpt>
      <trkpt lat="44.11392" lon="6.32346">
        <ele>1061.9232</ele>
        <time>2011-10-06T07:54:12.600Z</time>
      </trkpt>
      <trkpt lat="44.11392" lon="6.32358">
        <ele>1061.0088</ele>
        <time>2011-10-06T07:54:12.600Z</time>
      </trkpt>
      <trkpt lat="44.11397" lon="6.3237">
        <ele>1060.0944</ele>
        <time>2011-10-06T07:54:12.600Z</time>
      </trkpt>
      <trkpt lat="44.11404" lon="6.32378">
        <ele>1057.9608</ele>
        <time>2011-10-06T07:54:12.600Z</time>
      </trkpt>
      <trkpt lat="44.11414" lon="6.32383">
        <ele>1057.9608</ele>
        <time>2011-10-06T07:54:12.600Z</time>
      </trkpt>
      <trkpt lat="44.11422" lon="6.32391">
        <ele>1047.9024</ele>
        <time>2011-10-06T07:54:12.600Z</time>
      </trkpt>
      <trkpt lat="44.11426" lon="6.32402">
        <ele>1047.9024</ele>
        <time>2011-10-06T07:54:12.600Z</time>
      </trkpt>
      <trkpt lat="44.11435" lon="6.32411">
        <ele>1046.988</ele>
        <time>2011-10-06T07:54:12.600Z</time>
      </trkpt>
      <trkpt lat="44.11443" lon="6.32419">
        <ele>1038.1488</ele>
        <time>2011-10-06T07:54:12.600Z</time>
      </trkpt>
      <trkpt lat="44.11451" lon="6.32426">
        <ele>1036.0152</ele>
        <time>2011-10-06T07:54:12.600Z</time>
      </trkpt>
      <trkpt lat="44.11459" lon="6.32431">
        <ele>1033.8816</ele>
        <time>2011-10-06T07:54:12.600Z</time>
      </trkpt>
      <trkpt lat="44.11468" lon="6.32435">
        <ele>1032.9672</ele>
        <time>2011-10-06T07:54:12.600Z</time>
      </trkpt>
      <trkpt lat="44.11476" lon="6.32441">
        <ele>1032.0528</ele>
        <time>2011-10-06T07:54:12.600Z</time>
      </trkpt>
      <trkpt lat="44.11479" lon="6.32454">
        <ele>1031.1384</ele>
        <time>2011-10-06T07:54:12.600Z</time>
      </trkpt>
      <trkpt lat="44.1149" lon="6.32453">
        <ele>1029.9192</ele>
        <time>2011-10-06T07:54:12.600Z</time>
      </trkpt>
      <trkpt lat="44.11499" lon="6.32454">
        <ele>1029.9192</ele>
        <time>2011-10-06T07:54:12.600Z</time>
      </trkpt>
      <trkpt lat="44.11507" lon="6.32462">
        <ele>1018.032</ele>
        <time>2011-10-06T07:54:12.600Z</time>
      </trkpt>
      <trkpt lat="44.11517" lon="6.32458">
        <ele>1018.032</ele>
        <time>2011-10-06T07:54:12.600Z</time>
      </trkpt>
      <trkpt lat="44.11524" lon="6.32451">
        <ele>1018.032</ele>
        <time>2011-10-06T07:54:12.600Z</time>
      </trkpt>
      <trkpt lat="44.11533" lon="6.32445">
        <ele>1018.032</ele>
        <time>2011-10-06T07:54:12.600Z</time>
      </trkpt>
      <trkpt lat="44.11545" lon="6.32441">
        <ele>1015.8984</ele>
        <time>2011-10-06T07:54:12.600Z</time>
      </trkpt>
      <trkpt lat="44.11554" lon="6.32438">
        <ele>1015.8984</ele>
        <time>2011-10-06T07:54:12.600Z</time>
      </trkpt>
      <trkpt lat="44.11564" lon="6.32435">
        <ele>1014.984</ele>
        <time>2011-10-06T07:54:12.600Z</time>
      </trkpt>
      <trkpt lat="44.1157" lon="6.32423">
        <ele>1014.984</ele>
        <time>2011-10-06T07:54:12.600Z</time>
      </trkpt>
      <trkpt lat="44.11575" lon="6.3241">
        <ele>1018.9464</ele>
        <time>2011-10-06T07:54:12.600Z</time>
      </trkpt>
      <trkpt lat="44.11581" lon="6.324">
        <ele>1018.9464</ele>
        <time>2011-10-06T07:54:12.600Z</time>
      </trkpt>
      <trkpt lat="44.11589" lon="6.32394">
        <ele>1012.8504</ele>
        <time>2011-10-06T07:54:12.600Z</time>
      </trkpt>
      <trkpt lat="44.11595" lon="6.32404">
        <ele>1014.0696</ele>
        <time>2011-10-06T07:54:12.600Z</time>
      </trkpt>
      <trkpt lat="44.11602" lon="6.32418">
        <ele>1007.0592</ele>
        <time>2011-10-06T07:54:12.600Z</time>
      </trkpt>
      <trkpt lat="44.11611" lon="6.32422">
        <ele>1004.9256</ele>
        <time>2011-10-06T07:54:12.600Z</time>
      </trkpt>
      <trkpt lat="44.11621" lon="6.32422">
        <ele>1004.0112</ele>
        <time>2011-10-06T07:54:12.600Z</time>
      </trkpt>
      <trkpt lat="44.1163" lon="6.32424">
        <ele>1003.0968</ele>
        <time>2011-10-06T07:54:12.600Z</time>
      </trkpt>
      <trkpt lat="44.11639" lon="6.32423">
        <ele>1003.0968</ele>
        <time>2011-10-06T07:54:12.600Z</time>
      </trkpt>
      <trkpt lat="44.11648" lon="6.32426">
        <ele>1003.0968</ele>
        <time>2011-10-06T07:54:12.600Z</time>
      </trkpt>
      <trkpt lat="44.11657" lon="6.32426">
        <ele>1004.0112</ele>
        <time>2011-10-06T07:54:12.600Z</time>
      </trkpt>
      <trkpt lat="44.11661" lon="6.32411">
        <ele>1007.9736</ele>
        <time>2011-10-06T07:54:12.600Z</time>
      </trkpt>
      <trkpt lat="44.1166" lon="6.32398">
        <ele>1010.1072</ele>
        <time>2011-10-06T07:54:12.600Z</time>
      </trkpt>
      <trkpt lat="44.11661" lon="6.32384">
        <ele>1010.1072</ele>
        <time>2011-10-06T07:54:12.600Z</time>
      </trkpt>
      <trkpt lat="44.11663" lon="6.32368">
        <ele>1011.0216</ele>
        <time>2011-10-06T07:54:12.600Z</time>
      </trkpt>
      <trkpt lat="44.1167" lon="6.3236">
        <ele>1003.0968</ele>
        <time>2011-10-06T07:54:12.600Z</time>
      </trkpt>
      <trkpt lat="44.11679" lon="6.32357">
        <ele>1003.0968</ele>
        <time>2011-10-06T07:54:12.600Z</time>
      </trkpt>
      <trkpt lat="44.11688" lon="6.32351">
        <ele>1001.8776</ele>
        <time>2011-10-06T07:54:12.600Z</time>
      </trkpt>
      <trkpt lat="44.11697" lon="6.32344">
        <ele>1000.9632</ele>
        <time>2011-10-06T07:54:12.600Z</time>
      </trkpt>
      <trkpt lat="44.11705" lon="6.32339">
        <ele>1000.0488</ele>
        <time>2011-10-06T07:54:12.600Z</time>
      </trkpt>
      <trkpt lat="44.11714" lon="6.32336">
        <ele>1000.0488</ele>
        <time>2011-10-06T07:54:12.600Z</time>
      </trkpt>
      <trkpt lat="44.11725" lon="6.3233">
        <ele>1001.8776</ele>
        <time>2011-10-06T07:54:12.600Z</time>
      </trkpt>
      <trkpt lat="44.11737" lon="6.32327">
        <ele>1000.9632</ele>
        <time>2011-10-06T07:54:12.600Z</time>
      </trkpt>
      <trkpt lat="44.11748" lon="6.32324">
        <ele>1000.0488</ele>
        <time>2011-10-06T07:54:12.600Z</time>
      </trkpt>
      <trkpt lat="44.11762" lon="6.32325">
        <ele>994.8672</ele>
        <time>2011-10-06T07:54:12.600Z</time>
      </trkpt>
      <trkpt lat="44.11764" lon="6.32311">
        <ele>993.9528</ele>
        <time>2011-10-06T07:54:12.600Z</time>
      </trkpt>
      <trkpt lat="44.11758" lon="6.32301">
        <ele>993.9528</ele>
        <time>2011-10-06T07:54:12.600Z</time>
      </trkpt>
      <trkpt lat="44.11765" lon="6.32288">
        <ele>993.9528</ele>
        <time>2011-10-06T07:54:12.600Z</time>
      </trkpt>
      <trkpt lat="44.11776" lon="6.32284">
        <ele>993.0384</ele>
        <time>2011-10-06T07:54:12.600Z</time>
      </trkpt>
      <trkpt lat="44.11786" lon="6.32287">
        <ele>992.124</ele>
        <time>2011-10-06T07:54:12.600Z</time>
      </trkpt>
      <trkpt lat="44.11795" lon="6.3229">
        <ele>990.9048</ele>
        <time>2011-10-06T07:54:12.600Z</time>
      </trkpt>
      <trkpt lat="44.11806" lon="6.32292">
        <ele>989.9904</ele>
        <time>2011-10-06T07:54:12.600Z</time>
      </trkpt>
      <trkpt lat="44.11817" lon="6.32292">
        <ele>989.076</ele>
        <time>2011-10-06T07:54:12.600Z</time>
      </trkpt>
      <trkpt lat="44.11823" lon="6.32277">
        <ele>990.9048</ele>
        <time>2011-10-06T07:54:12.600Z</time>
      </trkpt>
      <trkpt lat="44.11828" lon="6.32266">
        <ele>992.124</ele>
        <time>2011-10-06T07:54:12.600Z</time>
      </trkpt>
      <trkpt lat="44.11835" lon="6.32252">
        <ele>989.9904</ele>
        <time>2011-10-06T07:54:12.600Z</time>
      </trkpt>
      <trkpt lat="44.11842" lon="6.3224">
        <ele>989.076</ele>
        <time>2011-10-06T07:54:12.600Z</time>
      </trkpt>
      <trkpt lat="44.1185" lon="6.32233">
        <ele>987.8568</ele>
        <time>2011-10-06T07:54:12.600Z</time>
      </trkpt>
      <trkpt lat="44.1186" lon="6.32224">
        <ele>986.028</ele>
        <time>2011-10-06T07:54:12.600Z</time>
      </trkpt>
      <trkpt lat="44.11868" lon="6.32217">
        <ele>985.1136</ele>
        <time>2011-10-06T07:54:12.600Z</time>
      </trkpt>
      <trkpt lat="44.11878" lon="6.32212">
        <ele>983.8944</ele>
        <time>2011-10-06T07:54:12.600Z</time>
      </trkpt>
      <trkpt lat="44.11888" lon="6.32205">
        <ele>982.98</ele>
        <time>2011-10-06T07:54:12.600Z</time>
      </trkpt>
      <trkpt lat="44.11891" lon="6.32192">
        <ele>983.8944</ele>
        <time>2011-10-06T07:54:12.600Z</time>
      </trkpt>
      <trkpt lat="44.11885" lon="6.32183">
        <ele>985.1136</ele>
        <time>2011-10-06T07:54:12.600Z</time>
      </trkpt>
      <trkpt lat="44.11877" lon="6.32172">
        <ele>986.028</ele>
        <time>2011-10-06T07:54:12.600Z</time>
      </trkpt>
      <trkpt lat="44.11873" lon="6.32161">
        <ele>987.8568</ele>
        <time>2011-10-06T07:54:12.600Z</time>
      </trkpt>
      <trkpt lat="44.1187" lon="6.32147">
        <ele>987.8568</ele>
        <time>2011-10-06T07:54:12.600Z</time>
      </trkpt>
      <trkpt lat="44.11874" lon="6.32136">
        <ele>986.9424</ele>
        <time>2011-10-06T07:54:12.600Z</time>
      </trkpt>
      <trkpt lat="44.11882" lon="6.32132">
        <ele>986.028</ele>
        <time>2011-10-06T07:54:12.600Z</time>
      </trkpt>
      <trkpt lat="44.11887" lon="6.32142">
        <ele>986.028</ele>
        <time>2011-10-06T07:54:12.600Z</time>
      </trkpt>
      <trkpt lat="44.1188" lon="6.32133">
        <ele>986.028</ele>
        <time>2011-10-06T07:54:12.600Z</time>
      </trkpt>
      <trkpt lat="44.1189" lon="6.32133">
        <ele>986.028</ele>
        <time>2011-10-06T07:54:12.600Z</time>
      </trkpt>
      <trkpt lat="44.11902" lon="6.32129">
        <ele>985.1136</ele>
        <time>2011-10-06T07:54:12.600Z</time>
      </trkpt>
      <trkpt lat="44.11912" lon="6.32128">
        <ele>983.8944</ele>
        <time>2011-10-06T07:54:12.600Z</time>
      </trkpt>
      <trkpt lat="44.11923" lon="6.32128">
        <ele>975.0552</ele>
        <time>2011-10-06T07:54:12.600Z</time>
      </trkpt>
      <trkpt lat="44.1193" lon="6.32121">
        <ele>975.0552</ele>
        <time>2011-10-06T07:54:12.600Z</time>
      </trkpt>
      <trkpt lat="44.11941" lon="6.32116">
        <ele>974.1408</ele>
        <time>2011-10-06T07:54:12.600Z</time>
      </trkpt>
      <trkpt lat="44.11951" lon="6.32111">
        <ele>972.9216</ele>
        <time>2011-10-06T07:54:12.600Z</time>
      </trkpt>
      <trkpt lat="44.11956" lon="6.32098">
        <ele>972.9216</ele>
        <time>2011-10-06T07:54:12.600Z</time>
      </trkpt>
      <trkpt lat="44.11964" lon="6.32086">
        <ele>972.0072</ele>
        <time>2011-10-06T07:54:12.600Z</time>
      </trkpt>
      <trkpt lat="44.11974" lon="6.32092">
        <ele>971.0928</ele>
        <time>2011-10-06T07:54:12.600Z</time>
      </trkpt>
      <trkpt lat="44.11982" lon="6.321">
        <ele>971.0928</ele>
        <time>2011-10-06T07:54:12.600Z</time>
      </trkpt>
      <trkpt lat="44.1199" lon="6.32106">
        <ele>969.8736</ele>
        <time>2011-10-06T07:54:12.600Z</time>
      </trkpt>
      <trkpt lat="44.11999" lon="6.32109">
        <ele>969.8736</ele>
        <time>2011-10-06T07:54:12.600Z</time>
      </trkpt>
      <trkpt lat="44.12009" lon="6.32109">
        <ele>961.9488</ele>
        <time>2011-10-06T07:54:12.600Z</time>
      </trkpt>
      <trkpt lat="44.12019" lon="6.3211">
        <ele>961.9488</ele>
        <time>2011-10-06T07:54:12.600Z</time>
      </trkpt>
      <trkpt lat="44.12026" lon="6.32118">
        <ele>961.0344</ele>
        <time>2011-10-06T07:54:12.600Z</time>
      </trkpt>
      <trkpt lat="44.12032" lon="6.32132">
        <ele>960.12</ele>
        <time>2011-10-06T07:54:12.600Z</time>
      </trkpt>
      <trkpt lat="44.12037" lon="6.32143">
        <ele>958.9008</ele>
        <time>2011-10-06T07:54:12.600Z</time>
      </trkpt>
      <trkpt lat="44.12046" lon="6.32148">
        <ele>958.9008</ele>
        <time>2011-10-06T07:54:12.600Z</time>
      </trkpt>
      <trkpt lat="44.12055" lon="6.32151">
        <ele>957.9864</ele>
        <time>2011-10-06T07:54:12.600Z</time>
      </trkpt>
      <trkpt lat="44.12063" lon="6.32161">
        <ele>957.072</ele>
        <time>2011-10-06T07:54:12.600Z</time>
      </trkpt>
      <trkpt lat="44.12072" lon="6.3217">
        <ele>951.8904</ele>
        <time>2011-10-06T07:54:12.600Z</time>
      </trkpt>
      <trkpt lat="44.12081" lon="6.32176">
        <ele>951.8904</ele>
        <time>2011-10-06T07:54:12.600Z</time>
      </trkpt>
      <trkpt lat="44.12092" lon="6.32178">
        <ele>950.976</ele>
        <time>2011-10-06T07:54:12.600Z</time>
      </trkpt>
      <trkpt lat="44.12101" lon="6.32182">
        <ele>950.0616</ele>
        <time>2011-10-06T07:54:12.600Z</time>
      </trkpt>
      <trkpt lat="44.1211" lon="6.32183">
        <ele>950.0616</ele>
        <time>2011-10-06T07:54:12.600Z</time>
      </trkpt>
      <trkpt lat="44.12119" lon="6.32188">
        <ele>950.0616</ele>
        <time>2011-10-06T07:54:12.600Z</time>
      </trkpt>
      <trkpt lat="44.12129" lon="6.32189">
        <ele>950.976</ele>
        <time>2011-10-06T07:54:12.600Z</time>
      </trkpt>
      <trkpt lat="44.12138" lon="6.32192">
        <ele>950.976</ele>
        <time>2011-10-06T07:54:12.600Z</time>
      </trkpt>
      <trkpt lat="44.12148" lon="6.32201">
        <ele>950.0616</ele>
        <time>2011-10-06T07:54:12.600Z</time>
      </trkpt>
      <trkpt lat="44.12157" lon="6.322">
        <ele>950.976</ele>
        <time>2011-10-06T07:54:12.600Z</time>
      </trkpt>
      <trkpt lat="44.12162" lon="6.32188">
        <ele>953.1096</ele>
        <time>2011-10-06T07:54:12.600Z</time>
      </trkpt>
      <trkpt lat="44.12165" lon="6.32175">
        <ele>955.8528</ele>
        <time>2011-10-06T07:54:12.600Z</time>
      </trkpt>
      <trkpt lat="44.12171" lon="6.32165">
        <ele>960.12</ele>
        <time>2011-10-06T07:54:12.600Z</time>
      </trkpt>
      <trkpt lat="44.1218" lon="6.32156">
        <ele>961.0344</ele>
        <time>2011-10-06T07:54:12.600Z</time>
      </trkpt>
      <trkpt lat="44.12189" lon="6.32154">
        <ele>961.9488</ele>
        <time>2011-10-06T07:54:12.600Z</time>
      </trkpt>
      <trkpt lat="44.12197" lon="6.32148">
        <ele>962.8632</ele>
        <time>2011-10-06T07:54:12.600Z</time>
      </trkpt>
      <trkpt lat="44.12203" lon="6.32138">
        <ele>964.0824</ele>
        <time>2011-10-06T07:54:12.600Z</time>
      </trkpt>
      <trkpt lat="44.12211" lon="6.3213">
        <ele>964.0824</ele>
        <time>2011-10-06T07:54:12.600Z</time>
      </trkpt>
      <trkpt lat="44.12218" lon="6.32122">
        <ele>964.9968</ele>
        <time>2011-10-06T07:54:12.600Z</time>
      </trkpt>
      <trkpt lat="44.12225" lon="6.32113">
        <ele>965.9112</ele>
        <time>2011-10-06T07:54:12.600Z</time>
      </trkpt>
      <trkpt lat="44.12232" lon="6.32104">
        <ele>967.1304</ele>
        <time>2011-10-06T07:54:12.600Z</time>
      </trkpt>
      <trkpt lat="44.12239" lon="6.32096">
        <ele>968.0448</ele>
        <time>2011-10-06T07:54:12.600Z</time>
      </trkpt>
      <trkpt lat="44.12247" lon="6.32087">
        <ele>971.0928</ele>
        <time>2011-10-06T07:54:12.600Z</time>
      </trkpt>
      <trkpt lat="44.12254" lon="6.32077">
        <ele>974.1408</ele>
        <time>2011-10-06T07:54:12.600Z</time>
      </trkpt>
      <trkpt lat="44.12263" lon="6.32073">
        <ele>974.1408</ele>
        <time>2011-10-06T07:54:12.600Z</time>
      </trkpt>
      <trkpt lat="44.1227" lon="6.32063">
        <ele>975.0552</ele>
        <time>2011-10-06T07:54:12.600Z</time>
      </trkpt>
      <trkpt lat="44.12278" lon="6.32058">
        <ele>975.0552</ele>
        <time>2011-10-06T07:54:12.600Z</time>
      </trkpt>
      <trkpt lat="44.12287" lon="6.3206">
        <ele>975.9696</ele>
        <time>2011-10-06T07:54:12.600Z</time>
      </trkpt>
      <trkpt lat="44.12296" lon="6.32063">
        <ele>975.9696</ele>
        <time>2011-10-06T07:54:12.600Z</time>
      </trkpt>
      <trkpt lat="44.12305" lon="6.32064">
        <ele>976.884</ele>
        <time>2011-10-06T07:54:12.600Z</time>
      </trkpt>
      <trkpt lat="44.12314" lon="6.32069">
        <ele>978.1032</ele>
        <time>2011-10-06T07:54:12.600Z</time>
      </trkpt>
      <trkpt lat="44.12319" lon="6.32079">
        <ele>979.932</ele>
        <time>2011-10-06T07:54:12.600Z</time>
      </trkpt>
      <trkpt lat="44.12324" lon="6.32091">
        <ele>981.1512</ele>
        <time>2011-10-06T07:54:12.600Z</time>
      </trkpt>
      <trkpt lat="44.12332" lon="6.32097">
        <ele>981.1512</ele>
        <time>2011-10-06T07:54:12.600Z</time>
      </trkpt>
      <trkpt lat="44.12341" lon="6.32102">
        <ele>986.028</ele>
        <time>2011-10-06T07:54:12.600Z</time>
      </trkpt>
      <trkpt lat="44.1235" lon="6.32104">
        <ele>986.028</ele>
        <time>2011-10-06T07:54:12.600Z</time>
      </trkpt>
      <trkpt lat="44.1236" lon="6.32108">
        <ele>986.9424</ele>
        <time>2011-10-06T07:54:12.600Z</time>
      </trkpt>
      <trkpt lat="44.12368" lon="6.32111">
        <ele>986.9424</ele>
        <time>2011-10-06T07:54:12.600Z</time>
      </trkpt>
      <trkpt lat="44.12377" lon="6.32111">
        <ele>987.8568</ele>
        <time>2011-10-06T07:54:12.600Z</time>
      </trkpt>
      <trkpt lat="44.12386" lon="6.32109">
        <ele>987.8568</ele>
        <time>2011-10-06T07:54:12.600Z</time>
      </trkpt>
      <trkpt lat="44.12394" lon="6.32106">
        <ele>987.8568</ele>
        <time>2011-10-06T07:54:12.600Z</time>
      </trkpt>
      <trkpt lat="44.12404" lon="6.32111">
        <ele>989.076</ele>
        <time>2011-10-06T07:54:12.600Z</time>
      </trkpt>
      <trkpt lat="44.12411" lon="6.32123">
        <ele>989.076</ele>
        <time>2011-10-06T07:54:12.600Z</time>
      </trkpt>
      <trkpt lat="44.12411" lon="6.32136">
        <ele>989.9904</ele>
        <time>2011-10-06T07:54:12.600Z</time>
      </trkpt>
      <trkpt lat="44.12413" lon="6.32153">
        <ele>990.9048</ele>
        <time>2011-10-06T07:54:12.600Z</time>
      </trkpt>
      <trkpt lat="44.12418" lon="6.32168">
        <ele>993.9528</ele>
        <time>2011-10-06T07:54:12.600Z</time>
      </trkpt>
      <trkpt lat="44.12427" lon="6.3218">
        <ele>993.9528</ele>
        <time>2011-10-06T07:54:12.600Z</time>
      </trkpt>
      <trkpt lat="44.12433" lon="6.32191">
        <ele>993.9528</ele>
        <time>2011-10-06T07:54:12.600Z</time>
      </trkpt>
      <trkpt lat="44.1244" lon="6.32199">
        <ele>993.9528</ele>
        <time>2011-10-06T07:54:12.600Z</time>
      </trkpt>
      <trkpt lat="44.12449" lon="6.32208">
        <ele>993.9528</ele>
        <time>2011-10-06T07:54:12.600Z</time>
      </trkpt>
      <trkpt lat="44.12458" lon="6.32214">
        <ele>994.8672</ele>
        <time>2011-10-06T07:54:12.600Z</time>
      </trkpt>
      <trkpt lat="44.12467" lon="6.32216">
        <ele>994.8672</ele>
        <time>2011-10-06T07:54:12.600Z</time>
      </trkpt>
      <trkpt lat="44.12477" lon="6.32214">
        <ele>996.0864</ele>
        <time>2011-10-06T07:54:12.600Z</time>
      </trkpt>
      <trkpt lat="44.12486" lon="6.32207">
        <ele>996.0864</ele>
        <time>2011-10-06T07:54:12.600Z</time>
      </trkpt>
      <trkpt lat="44.1249" lon="6.32196">
        <ele>997.0008</ele>
        <time>2011-10-06T07:54:12.600Z</time>
      </trkpt>
      <trkpt lat="44.12492" lon="6.32183">
        <ele>997.0008</ele>
        <time>2011-10-06T07:54:12.600Z</time>
      </trkpt>
      <trkpt lat="44.12495" lon="6.32171">
        <ele>997.9152</ele>
        <time>2011-10-06T07:54:12.600Z</time>
      </trkpt>
      <trkpt lat="44.12503" lon="6.32162">
        <ele>999.1344</ele>
        <time>2011-10-06T07:54:12.600Z</time>
      </trkpt>
      <trkpt lat="44.12511" lon="6.32156">
        <ele>999.1344</ele>
        <time>2011-10-06T07:54:12.600Z</time>
      </trkpt>
      <trkpt lat="44.12516" lon="6.32143">
        <ele>997.9152</ele>
        <time>2011-10-06T07:54:12.600Z</time>
      </trkpt>
      <trkpt lat="44.12518" lon="6.3213">
        <ele>997.9152</ele>
        <time>2011-10-06T07:54:12.600Z</time>
      </trkpt>
      <trkpt lat="44.12521" lon="6.32118">
        <ele>997.0008</ele>
        <time>2011-10-06T07:54:12.600Z</time>
      </trkpt>
      <trkpt lat="44.12529" lon="6.32108">
        <ele>997.0008</ele>
        <time>2011-10-06T07:54:12.600Z</time>
      </trkpt>
      <trkpt lat="44.12537" lon="6.321">
        <ele>997.0008</ele>
        <time>2011-10-06T07:54:12.600Z</time>
      </trkpt>
      <trkpt lat="44.12545" lon="6.32095">
        <ele>997.9152</ele>
        <time>2011-10-06T07:54:12.600Z</time>
      </trkpt>
      <trkpt lat="44.12554" lon="6.32094">
        <ele>997.9152</ele>
        <time>2011-10-06T07:54:12.600Z</time>
      </trkpt>
      <trkpt lat="44.12563" lon="6.32091">
        <ele>999.1344</ele>
        <time>2011-10-06T07:54:12.600Z</time>
      </trkpt>
      <trkpt lat="44.12569" lon="6.32082">
        <ele>994.8672</ele>
        <time>2011-10-06T07:54:12.600Z</time>
      </trkpt>
      <trkpt lat="44.12578" lon="6.32077">
        <ele>997.0008</ele>
        <time>2011-10-06T07:54:12.600Z</time>
      </trkpt>
      <trkpt lat="44.12587" lon="6.3208">
        <ele>997.0008</ele>
        <time>2011-10-06T07:54:12.600Z</time>
      </trkpt>
      <trkpt lat="44.12592" lon="6.32091">
        <ele>997.9152</ele>
        <time>2011-10-06T07:54:12.600Z</time>
      </trkpt>
      <trkpt lat="44.12594" lon="6.32102">
        <ele>997.0008</ele>
        <time>2011-10-06T07:54:12.600Z</time>
      </trkpt>
      <trkpt lat="44.12593" lon="6.32115">
        <ele>996.0864</ele>
        <time>2011-10-06T07:54:12.600Z</time>
      </trkpt>
      <trkpt lat="44.12594" lon="6.32132">
        <ele>997.0008</ele>
        <time>2011-10-06T07:54:12.600Z</time>
      </trkpt>
      <trkpt lat="44.12592" lon="6.32145">
        <ele>997.9152</ele>
        <time>2011-10-06T07:54:12.600Z</time>
      </trkpt>
      <trkpt lat="44.12598" lon="6.32157">
        <ele>999.1344</ele>
        <time>2011-10-06T07:54:12.600Z</time>
      </trkpt>
      <trkpt lat="44.12605" lon="6.32167">
        <ele>993.9528</ele>
        <time>2011-10-06T07:54:12.600Z</time>
      </trkpt>
      <trkpt lat="44.12616" lon="6.32171">
        <ele>990.9048</ele>
        <time>2011-10-06T07:54:12.600Z</time>
      </trkpt>
      <trkpt lat="44.12629" lon="6.3217">
        <ele>989.076</ele>
        <time>2011-10-06T07:54:12.600Z</time>
      </trkpt>
      <trkpt lat="44.12638" lon="6.32168">
        <ele>986.9424</ele>
        <time>2011-10-06T07:54:12.600Z</time>
      </trkpt>
      <trkpt lat="44.12651" lon="6.32167">
        <ele>986.028</ele>
        <time>2011-10-06T07:54:12.600Z</time>
      </trkpt>
      <trkpt lat="44.1266" lon="6.32174">
        <ele>985.1136</ele>
        <time>2011-10-06T07:54:12.600Z</time>
      </trkpt>
      <trkpt lat="44.12668" lon="6.32182">
        <ele>979.932</ele>
        <time>2011-10-06T07:54:12.600Z</time>
      </trkpt>
      <trkpt lat="44.12679" lon="6.32183">
        <ele>979.0176</ele>
        <time>2011-10-06T07:54:12.600Z</time>
      </trkpt>
      <trkpt lat="44.12691" lon="6.32186">
        <ele>976.884</ele>
        <time>2011-10-06T07:54:12.600Z</time>
      </trkpt>
      <trkpt lat="44.12701" lon="6.32188">
        <ele>975.9696</ele>
        <time>2011-10-06T07:54:12.600Z</time>
      </trkpt>
      <trkpt lat="44.12712" lon="6.32185">
        <ele>976.884</ele>
        <time>2011-10-06T07:54:12.600Z</time>
      </trkpt>
      <trkpt lat="44.12718" lon="6.32175">
        <ele>978.1032</ele>
        <time>2011-10-06T07:54:12.600Z</time>
      </trkpt>
      <trkpt lat="44.12727" lon="6.32172">
        <ele>979.0176</ele>
        <time>2011-10-06T07:54:12.600Z</time>
      </trkpt>
      <trkpt lat="44.12737" lon="6.32174">
        <ele>979.932</ele>
        <time>2011-10-06T07:54:12.600Z</time>
      </trkpt>
      <trkpt lat="44.12745" lon="6.32178">
        <ele>981.1512</ele>
        <time>2011-10-06T07:54:12.600Z</time>
      </trkpt>
      <trkpt lat="44.12754" lon="6.32179">
        <ele>981.1512</ele>
        <time>2011-10-06T07:54:12.600Z</time>
      </trkpt>
      <trkpt lat="44.12763" lon="6.32172">
        <ele>982.0656</ele>
        <time>2011-10-06T07:54:12.600Z</time>
      </trkpt>
      <trkpt lat="44.12771" lon="6.32163">
        <ele>989.076</ele>
        <time>2011-10-06T07:54:12.600Z</time>
      </trkpt>
      <trkpt lat="44.1278" lon="6.32162">
        <ele>990.9048</ele>
        <time>2011-10-06T07:54:12.600Z</time>
      </trkpt>
      <trkpt lat="44.12789" lon="6.32158">
        <ele>992.124</ele>
        <time>2011-10-06T07:54:12.600Z</time>
      </trkpt>
      <trkpt lat="44.12798" lon="6.3216">
        <ele>993.0384</ele>
        <time>2011-10-06T07:54:12.600Z</time>
      </trkpt>
      <trkpt lat="44.12807" lon="6.32159">
        <ele>993.0384</ele>
        <time>2011-10-06T07:54:12.600Z</time>
      </trkpt>
      <trkpt lat="44.12816" lon="6.32155">
        <ele>993.9528</ele>
        <time>2011-10-06T07:54:12.600Z</time>
      </trkpt>
      <trkpt lat="44.12823" lon="6.32148">
        <ele>993.9528</ele>
        <time>2011-10-06T07:54:12.600Z</time>
      </trkpt>
      <trkpt lat="44.1283" lon="6.3214">
        <ele>994.8672</ele>
        <time>2011-10-06T07:54:12.600Z</time>
      </trkpt>
      <trkpt lat="44.12836" lon="6.3213">
        <ele>1004.0112</ele>
        <time>2011-10-06T07:54:12.600Z</time>
      </trkpt>
      <trkpt lat="44.12844" lon="6.32123">
        <ele>1006.1448</ele>
        <time>2011-10-06T07:54:12.600Z</time>
      </trkpt>
      <trkpt lat="44.12853" lon="6.32126">
        <ele>1006.1448</ele>
        <time>2011-10-06T07:54:12.600Z</time>
      </trkpt>
      <trkpt lat="44.12854" lon="6.32113">
        <ele>1007.0592</ele>
        <time>2011-10-06T07:54:12.600Z</time>
      </trkpt>
      <trkpt lat="44.12851" lon="6.321">
        <ele>1007.9736</ele>
        <time>2011-10-06T07:54:12.600Z</time>
      </trkpt>
      <trkpt lat="44.12853" lon="6.32087">
        <ele>1008.888</ele>
        <time>2011-10-06T07:54:12.600Z</time>
      </trkpt>
      <trkpt lat="44.12856" lon="6.32075">
        <ele>1014.984</ele>
        <time>2011-10-06T07:54:12.600Z</time>
      </trkpt>
      <trkpt lat="44.12866" lon="6.32076">
        <ele>1017.1176</ele>
        <time>2011-10-06T07:54:12.600Z</time>
      </trkpt>
      <trkpt lat="44.12869" lon="6.32065">
        <ele>1017.1176</ele>
        <time>2011-10-06T07:54:12.600Z</time>
      </trkpt>
      <trkpt lat="44.12877" lon="6.32058">
        <ele>1018.9464</ele>
        <time>2011-10-06T07:54:12.600Z</time>
      </trkpt>
      <trkpt lat="44.12885" lon="6.32062">
        <ele>1019.8608</ele>
        <time>2011-10-06T07:54:12.600Z</time>
      </trkpt>
      <trkpt lat="44.12893" lon="6.32056">
        <ele>1021.08</ele>
        <time>2011-10-06T07:54:12.600Z</time>
      </trkpt>
      <trkpt lat="44.12893" lon="6.32042">
        <ele>1021.08</ele>
        <time>2011-10-06T07:54:12.600Z</time>
      </trkpt>
      <trkpt lat="44.12894" lon="6.3203">
        <ele>1021.9944</ele>
        <time>2011-10-06T07:54:12.600Z</time>
      </trkpt>
      <trkpt lat="44.12901" lon="6.32022">
        <ele>1024.128</ele>
        <time>2011-10-06T07:54:12.600Z</time>
      </trkpt>
      <trkpt lat="44.1291" lon="6.32015">
        <ele>1025.9568</ele>
        <time>2011-10-06T07:54:12.600Z</time>
      </trkpt>
      <trkpt lat="44.12908" lon="6.32003">
        <ele>1029.0048</ele>
        <time>2011-10-06T07:54:12.600Z</time>
      </trkpt>
      <trkpt lat="44.12907" lon="6.3199">
        <ele>1025.9568</ele>
        <time>2011-10-06T07:54:12.600Z</time>
      </trkpt>
      <trkpt lat="44.12904" lon="6.31977">
        <ele>1022.9088</ele>
        <time>2011-10-06T07:54:12.600Z</time>
      </trkpt>
      <trkpt lat="44.12902" lon="6.31964">
        <ele>1021.08</ele>
        <time>2011-10-06T07:54:12.600Z</time>
      </trkpt>
      <trkpt lat="44.12897" lon="6.31953">
        <ele>1018.9464</ele>
        <time>2011-10-06T07:54:12.600Z</time>
      </trkpt>
      <trkpt lat="44.12894" lon="6.31939">
        <ele>1018.9464</ele>
        <time>2011-10-06T07:54:12.600Z</time>
      </trkpt>
      <trkpt lat="44.12891" lon="6.31925">
        <ele>1018.032</ele>
        <time>2011-10-06T07:54:12.600Z</time>
      </trkpt>
      <trkpt lat="44.12893" lon="6.31913">
        <ele>1015.8984</ele>
        <time>2011-10-06T07:54:12.600Z</time>
      </trkpt>
      <trkpt lat="44.129" lon="6.31901">
        <ele>1015.8984</ele>
        <time>2011-10-06T07:54:12.600Z</time>
      </trkpt>
      <trkpt lat="44.12899" lon="6.31885">
        <ele>1014.0696</ele>
        <time>2011-10-06T07:54:12.600Z</time>
      </trkpt>
      <trkpt lat="44.12906" lon="6.31877">
        <ele>1014.0696</ele>
        <time>2011-10-06T07:54:12.600Z</time>
      </trkpt>
      <trkpt lat="44.12915" lon="6.31872">
        <ele>1014.0696</ele>
        <time>2011-10-06T07:54:12.600Z</time>
      </trkpt>
      <trkpt lat="44.12925" lon="6.3187">
        <ele>1021.9944</ele>
        <time>2011-10-06T07:54:12.600Z</time>
      </trkpt>
      <trkpt lat="44.12933" lon="6.31866">
        <ele>1021.9944</ele>
        <time>2011-10-06T07:54:12.600Z</time>
      </trkpt>
      <trkpt lat="44.12942" lon="6.3186">
        <ele>1021.9944</ele>
        <time>2011-10-06T07:54:12.600Z</time>
      </trkpt>
      <trkpt lat="44.12946" lon="6.31842">
        <ele>1021.08</ele>
        <time>2011-10-06T07:54:12.600Z</time>
      </trkpt>
      <trkpt lat="44.12946" lon="6.31829">
        <ele>1019.8608</ele>
        <time>2011-10-06T07:54:12.600Z</time>
      </trkpt>
      <trkpt lat="44.12943" lon="6.31816">
        <ele>1019.8608</ele>
        <time>2011-10-06T07:54:12.600Z</time>
      </trkpt>
      <trkpt lat="44.12939" lon="6.31802">
        <ele>1019.8608</ele>
        <time>2011-10-06T07:54:12.600Z</time>
      </trkpt>
      <trkpt lat="44.12937" lon="6.3179">
        <ele>1019.8608</ele>
        <time>2011-10-06T07:54:12.600Z</time>
      </trkpt>
      <trkpt lat="44.12937" lon="6.31777">
        <ele>1018.9464</ele>
        <time>2011-10-06T07:54:12.600Z</time>
      </trkpt>
      <trkpt lat="44.12939" lon="6.31764">
        <ele>1018.032</ele>
        <time>2011-10-06T07:54:12.600Z</time>
      </trkpt>
      <trkpt lat="44.12937" lon="6.31751">
        <ele>1017.1176</ele>
        <time>2011-10-06T07:54:12.600Z</time>
      </trkpt>
      <trkpt lat="44.12934" lon="6.31737">
        <ele>1018.032</ele>
        <time>2011-10-06T07:54:12.600Z</time>
      </trkpt>
      <trkpt lat="44.12934" lon="6.31724">
        <ele>1019.8608</ele>
        <time>2011-10-06T07:54:12.600Z</time>
      </trkpt>
      <trkpt lat="44.12932" lon="6.31712">
        <ele>1019.8608</ele>
        <time>2011-10-06T07:54:12.600Z</time>
      </trkpt>
      <trkpt lat="44.12929" lon="6.317">
        <ele>1019.8608</ele>
        <time>2011-10-06T07:54:12.600Z</time>
      </trkpt>
      <trkpt lat="44.12926" lon="6.31688">
        <ele>1018.032</ele>
        <time>2011-10-06T07:54:12.600Z</time>
      </trkpt>
      <trkpt lat="44.12928" lon="6.31675">
        <ele>1017.1176</ele>
        <time>2011-10-06T07:54:12.600Z</time>
      </trkpt>
      <trkpt lat="44.12926" lon="6.3166">
        <ele>1015.8984</ele>
        <time>2011-10-06T07:54:12.600Z</time>
      </trkpt>
      <trkpt lat="44.12924" lon="6.31647">
        <ele>1018.032</ele>
        <time>2011-10-06T07:54:12.600Z</time>
      </trkpt>
      <trkpt lat="44.12922" lon="6.31632">
        <ele>1018.9464</ele>
        <time>2011-10-06T07:54:12.600Z</time>
      </trkpt>
      <trkpt lat="44.12919" lon="6.31616">
        <ele>1018.032</ele>
        <time>2011-10-06T07:54:12.600Z</time>
      </trkpt>
      <trkpt lat="44.12918" lon="6.31603">
        <ele>1014.984</ele>
        <time>2011-10-06T07:54:12.600Z</time>
      </trkpt>
      <trkpt lat="44.12919" lon="6.3159">
        <ele>1011.0216</ele>
        <time>2011-10-06T07:54:12.600Z</time>
      </trkpt>
      <trkpt lat="44.12922" lon="6.31579">
        <ele>1007.9736</ele>
        <time>2011-10-06T07:54:12.600Z</time>
      </trkpt>
      <trkpt lat="44.12928" lon="6.31565">
        <ele>1008.888</ele>
        <time>2011-10-06T07:54:12.600Z</time>
      </trkpt>
      <trkpt lat="44.12934" lon="6.31554">
        <ele>1008.888</ele>
        <time>2011-10-06T07:54:12.600Z</time>
      </trkpt>
      <trkpt lat="44.12939" lon="6.3154">
        <ele>1007.9736</ele>
        <time>2011-10-06T07:54:12.600Z</time>
      </trkpt>
      <trkpt lat="44.12943" lon="6.31526">
        <ele>1006.1448</ele>
        <time>2011-10-06T07:54:12.600Z</time>
      </trkpt>
      <trkpt lat="44.12943" lon="6.31512">
        <ele>1004.0112</ele>
        <time>2011-10-06T07:54:12.600Z</time>
      </trkpt>
      <trkpt lat="44.12945" lon="6.31495">
        <ele>987.8568</ele>
        <time>2011-10-06T07:54:12.600Z</time>
      </trkpt>
      <trkpt lat="44.12953" lon="6.31486">
        <ele>989.9904</ele>
        <time>2011-10-06T07:54:12.600Z</time>
      </trkpt>
      <trkpt lat="44.12956" lon="6.31468">
        <ele>987.8568</ele>
        <time>2011-10-06T07:54:12.600Z</time>
      </trkpt>
      <trkpt lat="44.12961" lon="6.31457">
        <ele>986.9424</ele>
        <time>2011-10-06T07:54:12.600Z</time>
      </trkpt>
      <trkpt lat="44.12964" lon="6.31446">
        <ele>986.028</ele>
        <time>2011-10-06T07:54:12.600Z</time>
      </trkpt>
      <trkpt lat="44.12965" lon="6.31433">
        <ele>985.1136</ele>
        <time>2011-10-06T07:54:12.600Z</time>
      </trkpt>
      <trkpt lat="44.12966" lon="6.31418">
        <ele>983.8944</ele>
        <time>2011-10-06T07:54:12.600Z</time>
      </trkpt>
      <trkpt lat="44.1297" lon="6.31405">
        <ele>961.0344</ele>
        <time>2011-10-06T07:54:12.600Z</time>
      </trkpt>
      <trkpt lat="44.12976" lon="6.31394">
        <ele>958.9008</ele>
        <time>2011-10-06T07:54:12.600Z</time>
      </trkpt>
      <trkpt lat="44.12985" lon="6.31385">
        <ele>958.9008</ele>
        <time>2011-10-06T07:54:12.600Z</time>
      </trkpt>
      <trkpt lat="44.12993" lon="6.31374">
        <ele>954.9384</ele>
        <time>2011-10-06T07:54:12.600Z</time>
      </trkpt>
      <trkpt lat="44.13002" lon="6.31365">
        <ele>961.9488</ele>
        <time>2011-10-06T07:54:12.600Z</time>
      </trkpt>
      <trkpt lat="44.13012" lon="6.31354">
        <ele>957.9864</ele>
        <time>2011-10-06T07:54:12.600Z</time>
      </trkpt>
      <trkpt lat="44.13021" lon="6.3135">
        <ele>957.9864</ele>
        <time>2011-10-06T07:54:12.600Z</time>
      </trkpt>
      <trkpt lat="44.13032" lon="6.31349">
        <ele>957.9864</ele>
        <time>2011-10-06T07:54:12.600Z</time>
      </trkpt>
      <trkpt lat="44.13041" lon="6.3135">
        <ele>958.9008</ele>
        <time>2011-10-06T07:54:12.600Z</time>
      </trkpt>
      <trkpt lat="44.1305" lon="6.31345">
        <ele>957.072</ele>
        <time>2011-10-06T07:54:12.600Z</time>
      </trkpt>
      <trkpt lat="44.13058" lon="6.31349">
        <ele>955.8528</ele>
        <time>2011-10-06T07:54:12.600Z</time>
      </trkpt>
      <trkpt lat="44.13067" lon="6.31352">
        <ele>955.8528</ele>
        <time>2011-10-06T07:54:12.600Z</time>
      </trkpt>
      <trkpt lat="44.13075" lon="6.3136">
        <ele>957.072</ele>
        <time>2011-10-06T07:54:12.600Z</time>
      </trkpt>
      <trkpt lat="44.13083" lon="6.31367">
        <ele>958.9008</ele>
        <time>2011-10-06T07:54:12.600Z</time>
      </trkpt>
      <trkpt lat="44.13091" lon="6.31378">
        <ele>940.9176</ele>
        <time>2011-10-06T07:54:12.600Z</time>
      </trkpt>
      <trkpt lat="44.13097" lon="6.31388">
        <ele>942.1368</ele>
        <time>2011-10-06T07:54:12.600Z</time>
      </trkpt>
      <trkpt lat="44.13102" lon="6.31398">
        <ele>943.9656</ele>
        <time>2011-10-06T07:54:12.600Z</time>
      </trkpt>
      <trkpt lat="44.13111" lon="6.31391">
        <ele>937.8696</ele>
        <time>2011-10-06T07:54:12.600Z</time>
      </trkpt>
      <trkpt lat="44.13116" lon="6.31375">
        <ele>932.9928</ele>
        <time>2011-10-06T07:54:12.600Z</time>
      </trkpt>
      <trkpt lat="44.13118" lon="6.31361">
        <ele>930.8592</ele>
        <time>2011-10-06T07:54:12.600Z</time>
      </trkpt>
      <trkpt lat="44.13121" lon="6.31347">
        <ele>929.0304</ele>
        <time>2011-10-06T07:54:12.600Z</time>
      </trkpt>
      <trkpt lat="44.13124" lon="6.31335">
        <ele>928.116</ele>
        <time>2011-10-06T07:54:12.600Z</time>
      </trkpt>
      <trkpt lat="44.13123" lon="6.31323">
        <ele>917.1432</ele>
        <time>2011-10-06T07:54:12.600Z</time>
      </trkpt>
      <trkpt lat="44.13126" lon="6.31307">
        <ele>915.0096</ele>
        <time>2011-10-06T07:54:12.600Z</time>
      </trkpt>
      <trkpt lat="44.13127" lon="6.31292">
        <ele>914.0952</ele>
        <time>2011-10-06T07:54:12.600Z</time>
      </trkpt>
      <trkpt lat="44.1313" lon="6.3128">
        <ele>911.9616</ele>
        <time>2011-10-06T07:54:12.600Z</time>
      </trkpt>
      <trkpt lat="44.13135" lon="6.31269">
        <ele>911.0472</ele>
        <time>2011-10-06T07:54:12.600Z</time>
      </trkpt>
      <trkpt lat="44.13133" lon="6.31256">
        <ele>910.1328</ele>
        <time>2011-10-06T07:54:12.600Z</time>
      </trkpt>
      <trkpt lat="44.13128" lon="6.31238">
        <ele>900.0744</ele>
        <time>2011-10-06T07:54:12.600Z</time>
      </trkpt>
      <trkpt lat="44.13126" lon="6.31225">
        <ele>898.8552</ele>
        <time>2011-10-06T07:54:12.600Z</time>
      </trkpt>
      <trkpt lat="44.13118" lon="6.31215">
        <ele>897.9408</ele>
        <time>2011-10-06T07:54:12.600Z</time>
      </trkpt>
      <trkpt lat="44.13108" lon="6.3121">
        <ele>897.9408</ele>
        <time>2011-10-06T07:54:12.600Z</time>
      </trkpt>
      <trkpt lat="44.13098" lon="6.31199">
        <ele>896.112</ele>
        <time>2011-10-06T07:54:12.600Z</time>
      </trkpt>
      <trkpt lat="44.13092" lon="6.31189">
        <ele>893.9784</ele>
        <time>2011-10-06T07:54:12.600Z</time>
      </trkpt>
      <trkpt lat="44.13081" lon="6.31181">
        <ele>890.016</ele>
        <time>2011-10-06T07:54:12.600Z</time>
      </trkpt>
      <trkpt lat="44.13067" lon="6.31179">
        <ele>890.016</ele>
        <time>2011-10-06T07:54:12.600Z</time>
      </trkpt>
      <trkpt lat="44.13054" lon="6.31186">
        <ele>890.9304</ele>
        <time>2011-10-06T07:54:12.600Z</time>
      </trkpt>
      <trkpt lat="44.13043" lon="6.31199">
        <ele>892.1496</ele>
        <time>2011-10-06T07:54:12.600Z</time>
      </trkpt>
      <trkpt lat="44.1303" lon="6.31205">
        <ele>892.1496</ele>
        <time>2011-10-06T07:54:12.600Z</time>
      </trkpt>
      <trkpt lat="44.13015" lon="6.31206">
        <ele>890.9304</ele>
        <time>2011-10-06T07:54:12.600Z</time>
      </trkpt>
      <trkpt lat="44.13001" lon="6.3121">
        <ele>890.9304</ele>
        <time>2011-10-06T07:54:12.600Z</time>
      </trkpt>
      <trkpt lat="44.12991" lon="6.31221">
        <ele>883.92</ele>
        <time>2011-10-06T07:54:12.600Z</time>
      </trkpt>
      <trkpt lat="44.12982" lon="6.31231">
        <ele>885.1392</ele>
        <time>2011-10-06T07:54:12.600Z</time>
      </trkpt>
      <trkpt lat="44.12941" lon="6.31249">
        <ele>879.0432</ele>
        <time>2011-10-06T07:54:12.600Z</time>
      </trkpt>
      <trkpt lat="44.12933" lon="6.31258">
        <ele>893.064</ele>
        <time>2011-10-06T07:54:12.600Z</time>
      </trkpt>
      <trkpt lat="44.12924" lon="6.31266">
        <ele>892.1496</ele>
        <time>2011-10-06T07:54:12.600Z</time>
      </trkpt>
      <trkpt lat="44.12916" lon="6.31275">
        <ele>879.0432</ele>
        <time>2011-10-06T07:54:12.600Z</time>
      </trkpt>
      <trkpt lat="44.12908" lon="6.31286">
        <ele>880.872</ele>
        <time>2011-10-06T07:54:12.600Z</time>
      </trkpt>
      <trkpt lat="44.129" lon="6.31296">
        <ele>882.0912</ele>
        <time>2011-10-06T07:54:12.600Z</time>
      </trkpt>
      <trkpt lat="44.12893" lon="6.31306">
        <ele>883.0056</ele>
        <time>2011-10-06T07:54:12.600Z</time>
      </trkpt>
      <trkpt lat="44.12887" lon="6.31316">
        <ele>883.0056</ele>
        <time>2011-10-06T07:54:12.600Z</time>
      </trkpt>
      <trkpt lat="44.12882" lon="6.31327">
        <ele>883.0056</ele>
        <time>2011-10-06T07:54:12.600Z</time>
      </trkpt>
      <trkpt lat="44.12877" lon="6.31339">
        <ele>900.0744</ele>
        <time>2011-10-06T07:54:12.600Z</time>
      </trkpt>
      <trkpt lat="44.12872" lon="6.31351">
        <ele>900.9888</ele>
        <time>2011-10-06T07:54:12.600Z</time>
      </trkpt>
      <trkpt lat="44.12869" lon="6.31363">
        <ele>901.9032</ele>
        <time>2011-10-06T07:54:12.600Z</time>
      </trkpt>
      <trkpt lat="44.12864" lon="6.31375">
        <ele>903.1224</ele>
        <time>2011-10-06T07:54:12.600Z</time>
      </trkpt>
      <trkpt lat="44.12859" lon="6.31385">
        <ele>904.0368</ele>
        <time>2011-10-06T07:54:12.600Z</time>
      </trkpt>
      <trkpt lat="44.12853" lon="6.31395">
        <ele>904.0368</ele>
        <time>2011-10-06T07:54:12.600Z</time>
      </trkpt>
      <trkpt lat="44.12844" lon="6.31402">
        <ele>903.1224</ele>
        <time>2011-10-06T07:54:12.600Z</time>
      </trkpt>
      <trkpt lat="44.12834" lon="6.31403">
        <ele>901.9032</ele>
        <time>2011-10-06T07:54:12.600Z</time>
      </trkpt>
      <trkpt lat="44.12825" lon="6.31408">
        <ele>890.016</ele>
        <time>2011-10-06T07:54:12.600Z</time>
      </trkpt>
      <trkpt lat="44.12818" lon="6.31415">
        <ele>886.968</ele>
        <time>2011-10-06T07:54:12.600Z</time>
      </trkpt>
      <trkpt lat="44.12811" lon="6.31423">
        <ele>898.8552</ele>
        <time>2011-10-06T07:54:12.600Z</time>
      </trkpt>
      <trkpt lat="44.12805" lon="6.31435">
        <ele>898.8552</ele>
        <time>2011-10-06T07:54:12.600Z</time>
      </trkpt>
      <trkpt lat="44.128" lon="6.31445">
        <ele>900.0744</ele>
        <time>2011-10-06T07:54:12.600Z</time>
      </trkpt>
      <trkpt lat="44.12796" lon="6.31456">
        <ele>900.9888</ele>
        <time>2011-10-06T07:54:12.600Z</time>
      </trkpt>
      <trkpt lat="44.12794" lon="6.31468">
        <ele>903.1224</ele>
        <time>2011-10-06T07:54:12.600Z</time>
      </trkpt>
      <trkpt lat="44.12789" lon="6.31479">
        <ele>904.0368</ele>
        <time>2011-10-06T07:54:12.600Z</time>
      </trkpt>
      <trkpt lat="44.12783" lon="6.3149">
        <ele>904.0368</ele>
        <time>2011-10-06T07:54:12.600Z</time>
      </trkpt>
      <trkpt lat="44.12779" lon="6.31501">
        <ele>922.02</ele>
        <time>2011-10-06T07:54:12.600Z</time>
      </trkpt>
      <trkpt lat="44.12774" lon="6.31512">
        <ele>922.02</ele>
        <time>2011-10-06T07:54:12.600Z</time>
      </trkpt>
      <trkpt lat="44.12774" lon="6.31526">
        <ele>925.068</ele>
        <time>2011-10-06T07:54:12.600Z</time>
      </trkpt>
      <trkpt lat="44.12773" lon="6.31538">
        <ele>928.116</ele>
        <time>2011-10-06T07:54:12.600Z</time>
      </trkpt>
      <trkpt lat="44.12768" lon="6.3155">
        <ele>929.9448</ele>
        <time>2011-10-06T07:54:12.600Z</time>
      </trkpt>
      <trkpt lat="44.12759" lon="6.31547">
        <ele>929.0304</ele>
        <time>2011-10-06T07:54:12.600Z</time>
      </trkpt>
      <trkpt lat="44.12752" lon="6.31539">
        <ele>925.9824</ele>
        <time>2011-10-06T07:54:12.600Z</time>
      </trkpt>
      <trkpt lat="44.12744" lon="6.31535">
        <ele>908.9136</ele>
        <time>2011-10-06T07:54:12.600Z</time>
      </trkpt>
      <trkpt lat="44.12735" lon="6.3153">
        <ele>907.9992</ele>
        <time>2011-10-06T07:54:12.600Z</time>
      </trkpt>
      <trkpt lat="44.12726" lon="6.31526">
        <ele>905.8656</ele>
        <time>2011-10-06T07:54:12.600Z</time>
      </trkpt>
      <trkpt lat="44.12717" lon="6.31521">
        <ele>904.9512</ele>
        <time>2011-10-06T07:54:12.600Z</time>
      </trkpt>
      <trkpt lat="44.12708" lon="6.31524">
        <ele>904.0368</ele>
        <time>2011-10-06T07:54:12.600Z</time>
      </trkpt>
      <trkpt lat="44.12699" lon="6.31531">
        <ele>904.0368</ele>
        <time>2011-10-06T07:54:12.600Z</time>
      </trkpt>
      <trkpt lat="44.12691" lon="6.31541">
        <ele>904.9512</ele>
        <time>2011-10-06T07:54:12.600Z</time>
      </trkpt>
      <trkpt lat="44.12685" lon="6.31554">
        <ele>907.0848</ele>
        <time>2011-10-06T07:54:12.600Z</time>
      </trkpt>
      <trkpt lat="44.1268" lon="6.31566">
        <ele>907.9992</ele>
        <time>2011-10-06T07:54:12.600Z</time>
      </trkpt>
      <trkpt lat="44.12673" lon="6.31579">
        <ele>908.9136</ele>
        <time>2011-10-06T07:54:12.600Z</time>
      </trkpt>
      <trkpt lat="44.12667" lon="6.31592">
        <ele>917.1432</ele>
        <time>2011-10-06T07:54:12.600Z</time>
      </trkpt>
      <trkpt lat="44.12657" lon="6.31606">
        <ele>917.1432</ele>
        <time>2011-10-06T07:54:12.600Z</time>
      </trkpt>
      <trkpt lat="44.12646" lon="6.31616">
        <ele>918.972</ele>
        <time>2011-10-06T07:54:12.600Z</time>
      </trkpt>
      <trkpt lat="44.12632" lon="6.31628">
        <ele>921.1056</ele>
        <time>2011-10-06T07:54:12.600Z</time>
      </trkpt>
      <trkpt lat="44.12616" lon="6.31634">
        <ele>921.1056</ele>
        <time>2011-10-06T07:54:12.600Z</time>
      </trkpt>
      <trkpt lat="44.126" lon="6.31637">
        <ele>919.8864</ele>
        <time>2011-10-06T07:54:12.600Z</time>
      </trkpt>
      <trkpt lat="44.12587" lon="6.31644">
        <ele>921.1056</ele>
        <time>2011-10-06T07:54:12.600Z</time>
      </trkpt>
      <trkpt lat="44.12582" lon="6.31659">
        <ele>928.116</ele>
        <time>2011-10-06T07:54:12.600Z</time>
      </trkpt>
      <trkpt lat="44.12577" lon="6.31669">
        <ele>929.9448</ele>
        <time>2011-10-06T07:54:12.600Z</time>
      </trkpt>
      <trkpt lat="44.12567" lon="6.31675">
        <ele>936.9552</ele>
        <time>2011-10-06T07:54:12.600Z</time>
      </trkpt>
      <trkpt lat="44.12564" lon="6.3166">
        <ele>932.0784</ele>
        <time>2011-10-06T07:54:12.600Z</time>
      </trkpt>
      <trkpt lat="44.12569" lon="6.31645">
        <ele>932.0784</ele>
        <time>2011-10-06T07:54:12.600Z</time>
      </trkpt>
      <trkpt lat="44.12578" lon="6.31636">
        <ele>930.8592</ele>
        <time>2011-10-06T07:54:12.600Z</time>
      </trkpt>
      <trkpt lat="44.12589" lon="6.31623">
        <ele>918.0576</ele>
        <time>2011-10-06T07:54:12.600Z</time>
      </trkpt>
      <trkpt lat="44.12596" lon="6.31608">
        <ele>915.924</ele>
        <time>2011-10-06T07:54:12.600Z</time>
      </trkpt>
      <trkpt lat="44.12604" lon="6.31595">
        <ele>915.0096</ele>
        <time>2011-10-06T07:54:12.600Z</time>
      </trkpt>
      <trkpt lat="44.12608" lon="6.3158">
        <ele>901.9032</ele>
        <time>2011-10-06T07:54:12.600Z</time>
      </trkpt>
      <trkpt lat="44.12602" lon="6.3156">
        <ele>900.9888</ele>
        <time>2011-10-06T07:54:12.600Z</time>
      </trkpt>
      <trkpt lat="44.12594" lon="6.31537">
        <ele>897.0264</ele>
        <time>2011-10-06T07:54:12.600Z</time>
      </trkpt>
      <trkpt lat="44.12587" lon="6.31517">
        <ele>893.9784</ele>
        <time>2011-10-06T07:54:12.600Z</time>
      </trkpt>
      <trkpt lat="44.12577" lon="6.31488">
        <ele>886.968</ele>
        <time>2011-10-06T07:54:12.600Z</time>
      </trkpt>
      <trkpt lat="44.12572" lon="6.31473">
        <ele>883.92</ele>
        <time>2011-10-06T07:54:12.600Z</time>
      </trkpt>
      <trkpt lat="44.12565" lon="6.31457">
        <ele>880.872</ele>
        <time>2011-10-06T07:54:12.600Z</time>
      </trkpt>
      <trkpt lat="44.12559" lon="6.31447">
        <ele>878.1288</ele>
        <time>2011-10-06T07:54:12.600Z</time>
      </trkpt>
      <trkpt lat="44.12552" lon="6.3144">
        <ele>878.1288</ele>
        <time>2011-10-06T07:54:12.600Z</time>
      </trkpt>
      <trkpt lat="44.12539" lon="6.31438">
        <ele>879.9576</ele>
        <time>2011-10-06T07:54:12.600Z</time>
      </trkpt>
      <trkpt lat="44.12526" lon="6.31438">
        <ele>880.872</ele>
        <time>2011-10-06T07:54:12.600Z</time>
      </trkpt>
      <trkpt lat="44.12512" lon="6.31436">
        <ele>879.9576</ele>
        <time>2011-10-06T07:54:12.600Z</time>
      </trkpt>
      <trkpt lat="44.12497" lon="6.31433">
        <ele>886.968</ele>
        <time>2011-10-06T07:54:12.600Z</time>
      </trkpt>
      <trkpt lat="44.12483" lon="6.31437">
        <ele>893.064</ele>
        <time>2011-10-06T07:54:12.600Z</time>
      </trkpt>
      <trkpt lat="44.12471" lon="6.31432">
        <ele>894.8928</ele>
        <time>2011-10-06T07:54:12.600Z</time>
      </trkpt>
      <trkpt lat="44.12458" lon="6.31427">
        <ele>896.112</ele>
        <time>2011-10-06T07:54:12.600Z</time>
      </trkpt>
      <trkpt lat="44.12442" lon="6.31421">
        <ele>896.112</ele>
        <time>2011-10-06T07:54:12.600Z</time>
      </trkpt>
      <trkpt lat="44.12427" lon="6.31409">
        <ele>880.872</ele>
        <time>2011-10-06T07:54:12.600Z</time>
      </trkpt>
      <trkpt lat="44.12415" lon="6.31395">
        <ele>886.968</ele>
        <time>2011-10-06T07:54:12.600Z</time>
      </trkpt>
      <trkpt lat="44.12406" lon="6.31391">
        <ele>886.968</ele>
        <time>2011-10-06T07:54:12.600Z</time>
      </trkpt>
      <trkpt lat="44.12399" lon="6.31381">
        <ele>886.968</ele>
        <time>2011-10-06T07:54:12.600Z</time>
      </trkpt>
      <trkpt lat="44.12392" lon="6.31372">
        <ele>886.0536</ele>
        <time>2011-10-06T07:54:12.600Z</time>
      </trkpt>
      <trkpt lat="44.12384" lon="6.31365">
        <ele>886.0536</ele>
        <time>2011-10-06T07:54:12.600Z</time>
      </trkpt>
      <trkpt lat="44.1237" lon="6.31355">
        <ele>886.968</ele>
        <time>2011-10-06T07:54:12.600Z</time>
      </trkpt>
      <trkpt lat="44.12356" lon="6.31347">
        <ele>887.8824</ele>
        <time>2011-10-06T07:54:12.600Z</time>
      </trkpt>
      <trkpt lat="44.12344" lon="6.31341">
        <ele>887.8824</ele>
        <time>2011-10-06T07:54:12.600Z</time>
      </trkpt>
      <trkpt lat="44.12334" lon="6.31343">
        <ele>887.8824</ele>
        <time>2011-10-06T07:54:12.600Z</time>
      </trkpt>
      <trkpt lat="44.12327" lon="6.31335">
        <ele>890.016</ele>
        <time>2011-10-06T07:54:12.600Z</time>
      </trkpt>
      <trkpt lat="44.12338" lon="6.31343">
        <ele>887.8824</ele>
        <time>2011-10-06T07:54:12.600Z</time>
      </trkpt>
      <trkpt lat="44.12347" lon="6.31349">
        <ele>887.8824</ele>
        <time>2011-10-06T07:54:12.600Z</time>
      </trkpt>
      <trkpt lat="44.12356" lon="6.31351">
        <ele>887.8824</ele>
        <time>2011-10-06T07:54:12.600Z</time>
      </trkpt>
      <trkpt lat="44.12367" lon="6.31349">
        <ele>886.968</ele>
        <time>2011-10-06T07:54:12.600Z</time>
      </trkpt>
      <trkpt lat="44.12375" lon="6.31344">
        <ele>885.1392</ele>
        <time>2011-10-06T07:54:12.600Z</time>
      </trkpt>
      <trkpt lat="44.12378" lon="6.31331">
        <ele>889.1016</ele>
        <time>2011-10-06T07:54:12.600Z</time>
      </trkpt>
      <trkpt lat="44.12388" lon="6.31327">
        <ele>886.968</ele>
        <time>2011-10-06T07:54:12.600Z</time>
      </trkpt>
      <trkpt lat="44.12387" lon="6.31314">
        <ele>889.1016</ele>
        <time>2011-10-06T07:54:12.600Z</time>
      </trkpt>
      <trkpt lat="44.1239" lon="6.31303">
        <ele>890.9304</ele>
        <time>2011-10-06T07:54:12.600Z</time>
      </trkpt>
      <trkpt lat="44.12396" lon="6.31294">
        <ele>893.064</ele>
        <time>2011-10-06T07:54:12.600Z</time>
      </trkpt>
      <trkpt lat="44.12405" lon="6.3129">
        <ele>893.064</ele>
        <time>2011-10-06T07:54:12.600Z</time>
      </trkpt>
      <trkpt lat="44.12412" lon="6.31282">
        <ele>894.8928</ele>
        <time>2011-10-06T07:54:12.600Z</time>
      </trkpt>
      <trkpt lat="44.1242" lon="6.31274">
        <ele>886.0536</ele>
        <time>2011-10-06T07:54:12.600Z</time>
      </trkpt>
      <trkpt lat="44.12429" lon="6.3127">
        <ele>886.0536</ele>
        <time>2011-10-06T07:54:12.600Z</time>
      </trkpt>
      <trkpt lat="44.12438" lon="6.31264">
        <ele>885.1392</ele>
        <time>2011-10-06T07:54:12.600Z</time>
      </trkpt>
      <trkpt lat="44.12447" lon="6.31258">
        <ele>883.0056</ele>
        <time>2011-10-06T07:54:12.600Z</time>
      </trkpt>
      <trkpt lat="44.12457" lon="6.31253">
        <ele>880.872</ele>
        <time>2011-10-06T07:54:12.600Z</time>
      </trkpt>
      <trkpt lat="44.12466" lon="6.31249">
        <ele>897.0264</ele>
        <time>2011-10-06T07:54:12.600Z</time>
      </trkpt>
      <trkpt lat="44.12475" lon="6.31244">
        <ele>894.8928</ele>
        <time>2011-10-06T07:54:12.600Z</time>
      </trkpt>
      <trkpt lat="44.12484" lon="6.31239">
        <ele>892.1496</ele>
        <time>2011-10-06T07:54:12.600Z</time>
      </trkpt>
      <trkpt lat="44.12493" lon="6.31236">
        <ele>889.1016</ele>
        <time>2011-10-06T07:54:12.600Z</time>
      </trkpt>
      <trkpt lat="44.12503" lon="6.31232">
        <ele>873.8616</ele>
        <time>2011-10-06T07:54:12.600Z</time>
      </trkpt>
      <trkpt lat="44.12513" lon="6.3123">
        <ele>872.9472</ele>
        <time>2011-10-06T07:54:12.600Z</time>
      </trkpt>
      <trkpt lat="44.12521" lon="6.31224">
        <ele>872.0328</ele>
        <time>2011-10-06T07:54:12.600Z</time>
      </trkpt>
      <trkpt lat="44.12525" lon="6.3121">
        <ele>872.0328</ele>
        <time>2011-10-06T07:54:12.600Z</time>
      </trkpt>
      <trkpt lat="44.12526" lon="6.31198">
        <ele>875.0808</ele>
        <time>2011-10-06T07:54:12.600Z</time>
      </trkpt>
      <trkpt lat="44.12527" lon="6.31185">
        <ele>876.9096</ele>
        <time>2011-10-06T07:54:12.600Z</time>
      </trkpt>
      <trkpt lat="44.12528" lon="6.31173">
        <ele>879.0432</ele>
        <time>2011-10-06T07:54:12.600Z</time>
      </trkpt>
      <trkpt lat="44.1253" lon="6.31159">
        <ele>886.968</ele>
        <time>2011-10-06T07:54:12.600Z</time>
      </trkpt>
      <trkpt lat="44.12533" lon="6.31146">
        <ele>886.0536</ele>
        <time>2011-10-06T07:54:12.600Z</time>
      </trkpt>
      <trkpt lat="44.12533" lon="6.31133">
        <ele>886.968</ele>
        <time>2011-10-06T07:54:12.600Z</time>
      </trkpt>
      <trkpt lat="44.12534" lon="6.3112">
        <ele>886.968</ele>
        <time>2011-10-06T07:54:12.600Z</time>
      </trkpt>
      <trkpt lat="44.12532" lon="6.31106">
        <ele>890.016</ele>
        <time>2011-10-06T07:54:12.600Z</time>
      </trkpt>
      <trkpt lat="44.12534" lon="6.31093">
        <ele>890.016</ele>
        <time>2011-10-06T07:54:12.600Z</time>
      </trkpt>
      <trkpt lat="44.12541" lon="6.31075">
        <ele>892.1496</ele>
        <time>2011-10-06T07:54:12.600Z</time>
      </trkpt>
      <trkpt lat="44.12543" lon="6.31062">
        <ele>892.1496</ele>
        <time>2011-10-06T07:54:12.600Z</time>
      </trkpt>
      <trkpt lat="44.12541" lon="6.31049">
        <ele>892.1496</ele>
        <time>2011-10-06T07:54:12.600Z</time>
      </trkpt>
      <trkpt lat="44.12547" lon="6.31038">
        <ele>890.9304</ele>
        <time>2011-10-06T07:54:12.600Z</time>
      </trkpt>
      <trkpt lat="44.12544" lon="6.31026">
        <ele>892.1496</ele>
        <time>2011-10-06T07:54:12.600Z</time>
      </trkpt>
      <trkpt lat="44.12537" lon="6.31015">
        <ele>894.8928</ele>
        <time>2011-10-06T07:54:12.600Z</time>
      </trkpt>
      <trkpt lat="44.12536" lon="6.31003">
        <ele>896.112</ele>
        <time>2011-10-06T07:54:12.600Z</time>
      </trkpt>
      <trkpt lat="44.1253" lon="6.3099">
        <ele>897.0264</ele>
        <time>2011-10-06T07:54:12.600Z</time>
      </trkpt>
      <trkpt lat="44.12525" lon="6.3098">
        <ele>897.9408</ele>
        <time>2011-10-06T07:54:12.600Z</time>
      </trkpt>
      <trkpt lat="44.12522" lon="6.30969">
        <ele>897.0264</ele>
        <time>2011-10-06T07:54:12.600Z</time>
      </trkpt>
      <trkpt lat="44.12521" lon="6.30955">
        <ele>896.112</ele>
        <time>2011-10-06T07:54:12.600Z</time>
      </trkpt>
      <trkpt lat="44.12517" lon="6.30943">
        <ele>897.9408</ele>
        <time>2011-10-06T07:54:12.600Z</time>
      </trkpt>
      <trkpt lat="44.12519" lon="6.30929">
        <ele>898.8552</ele>
        <time>2011-10-06T07:54:12.600Z</time>
      </trkpt>
      <trkpt lat="44.12517" lon="6.30915">
        <ele>897.0264</ele>
        <time>2011-10-06T07:54:12.600Z</time>
      </trkpt>
      <trkpt lat="44.1251" lon="6.30906">
        <ele>898.8552</ele>
        <time>2011-10-06T07:54:12.600Z</time>
      </trkpt>
      <trkpt lat="44.12504" lon="6.30896">
        <ele>896.112</ele>
        <time>2011-10-06T07:54:12.600Z</time>
      </trkpt>
      <trkpt lat="44.12501" lon="6.30883">
        <ele>893.064</ele>
        <time>2011-10-06T07:54:12.600Z</time>
      </trkpt>
      <trkpt lat="44.12493" lon="6.30877">
        <ele>928.116</ele>
        <time>2011-10-06T07:54:12.600Z</time>
      </trkpt>
      <trkpt lat="44.12493" lon="6.30864">
        <ele>925.9824</ele>
        <time>2011-10-06T07:54:12.600Z</time>
      </trkpt>
      <trkpt lat="44.12484" lon="6.30861">
        <ele>926.8968</ele>
        <time>2011-10-06T07:54:12.600Z</time>
      </trkpt>
      <trkpt lat="44.12476" lon="6.30857">
        <ele>929.9448</ele>
        <time>2011-10-06T07:54:12.600Z</time>
      </trkpt>
      <trkpt lat="44.12469" lon="6.3085">
        <ele>932.0784</ele>
        <time>2011-10-06T07:54:12.600Z</time>
      </trkpt>
      <trkpt lat="44.12475" lon="6.30835">
        <ele>925.9824</ele>
        <time>2011-10-06T07:54:12.600Z</time>
      </trkpt>
      <trkpt lat="44.12477" lon="6.30821">
        <ele>922.02</ele>
        <time>2011-10-06T07:54:12.600Z</time>
      </trkpt>
      <trkpt lat="44.12476" lon="6.30807">
        <ele>923.8488</ele>
        <time>2011-10-06T07:54:12.600Z</time>
      </trkpt>
      <trkpt lat="44.12484" lon="6.30793">
        <ele>922.9344</ele>
        <time>2011-10-06T07:54:12.600Z</time>
      </trkpt>
      <trkpt lat="44.12488" lon="6.30782">
        <ele>921.1056</ele>
        <time>2011-10-06T07:54:12.600Z</time>
      </trkpt>
      <trkpt lat="44.12492" lon="6.30769">
        <ele>915.924</ele>
        <time>2011-10-06T07:54:12.600Z</time>
      </trkpt>
      <trkpt lat="44.12499" lon="6.30757">
        <ele>907.0848</ele>
        <time>2011-10-06T07:54:12.600Z</time>
      </trkpt>
      <trkpt lat="44.12506" lon="6.30748">
        <ele>896.112</ele>
        <time>2011-10-06T07:54:12.600Z</time>
      </trkpt>
      <trkpt lat="44.12517" lon="6.30734">
        <ele>890.016</ele>
        <time>2011-10-06T07:54:12.600Z</time>
      </trkpt>
      <trkpt lat="44.12522" lon="6.30721">
        <ele>886.968</ele>
        <time>2011-10-06T07:54:12.600Z</time>
      </trkpt>
      <trkpt lat="44.12527" lon="6.30706">
        <ele>886.0536</ele>
        <time>2011-10-06T07:54:12.600Z</time>
      </trkpt>
      <trkpt lat="44.12527" lon="6.30694">
        <ele>886.0536</ele>
        <time>2011-10-06T07:54:12.600Z</time>
      </trkpt>
      <trkpt lat="44.1253" lon="6.3068">
        <ele>886.0536</ele>
        <time>2011-10-06T07:54:12.600Z</time>
      </trkpt>
      <trkpt lat="44.12537" lon="6.30666">
        <ele>879.0432</ele>
        <time>2011-10-06T07:54:12.600Z</time>
      </trkpt>
      <trkpt lat="44.12544" lon="6.30658">
        <ele>876.9096</ele>
        <time>2011-10-06T07:54:12.600Z</time>
      </trkpt>
      <trkpt lat="44.12553" lon="6.30648">
        <ele>873.8616</ele>
        <time>2011-10-06T07:54:12.600Z</time>
      </trkpt>
      <trkpt lat="44.12563" lon="6.30644">
        <ele>872.9472</ele>
        <time>2011-10-06T07:54:12.600Z</time>
      </trkpt>
      <trkpt lat="44.12558" lon="6.30628">
        <ele>872.0328</ele>
        <time>2011-10-06T07:54:12.600Z</time>
      </trkpt>
      <trkpt lat="44.12552" lon="6.30616">
        <ele>872.0328</ele>
        <time>2011-10-06T07:54:12.600Z</time>
      </trkpt>
      <trkpt lat="44.12545" lon="6.30607">
        <ele>872.0328</ele>
        <time>2011-10-06T07:54:12.600Z</time>
      </trkpt>
      <trkpt lat="44.12538" lon="6.30599">
        <ele>872.0328</ele>
        <time>2011-10-06T07:54:12.600Z</time>
      </trkpt>
      <trkpt lat="44.12529" lon="6.30596">
        <ele>872.9472</ele>
        <time>2011-10-06T07:54:12.600Z</time>
      </trkpt>
      <trkpt lat="44.12519" lon="6.30594">
        <ele>872.9472</ele>
        <time>2011-10-06T07:54:12.600Z</time>
      </trkpt>
      <trkpt lat="44.12508" lon="6.30594">
        <ele>872.9472</ele>
        <time>2011-10-06T07:54:12.600Z</time>
      </trkpt>
      <trkpt lat="44.12509" lon="6.30581">
        <ele>865.9368</ele>
        <time>2011-10-06T07:54:12.600Z</time>
      </trkpt>
      <trkpt lat="44.12502" lon="6.30572">
        <ele>865.0224</ele>
        <time>2011-10-06T07:54:12.600Z</time>
      </trkpt>
      <trkpt lat="44.12497" lon="6.30562">
        <ele>873.8616</ele>
        <time>2011-10-06T07:54:12.600Z</time>
      </trkpt>
      <trkpt lat="44.12491" lon="6.30552">
        <ele>873.8616</ele>
        <time>2011-10-06T07:54:12.600Z</time>
      </trkpt>
      <trkpt lat="44.12481" lon="6.30549">
        <ele>875.0808</ele>
        <time>2011-10-06T07:54:12.600Z</time>
      </trkpt>
      <trkpt lat="44.12472" lon="6.30549">
        <ele>875.9952</ele>
        <time>2011-10-06T07:54:12.600Z</time>
      </trkpt>
      <trkpt lat="44.12463" lon="6.3055">
        <ele>878.1288</ele>
        <time>2011-10-06T07:54:12.600Z</time>
      </trkpt>
      <trkpt lat="44.12459" lon="6.30537">
        <ele>876.9096</ele>
        <time>2011-10-06T07:54:12.600Z</time>
      </trkpt>
      <trkpt lat="44.12462" lon="6.30524">
        <ele>873.8616</ele>
        <time>2011-10-06T07:54:12.600Z</time>
      </trkpt>
      <trkpt lat="44.12462" lon="6.3051">
        <ele>872.9472</ele>
        <time>2011-10-06T07:54:12.600Z</time>
      </trkpt>
      <trkpt lat="44.12464" lon="6.30497">
        <ele>860.1456</ele>
        <time>2011-10-06T07:54:12.600Z</time>
      </trkpt>
      <trkpt lat="44.12464" lon="6.30484">
        <ele>858.9264</ele>
        <time>2011-10-06T07:54:12.600Z</time>
      </trkpt>
      <trkpt lat="44.12459" lon="6.30472">
        <ele>858.9264</ele>
        <time>2011-10-06T07:54:12.600Z</time>
      </trkpt>
      <trkpt lat="44.12449" lon="6.30465">
        <ele>860.1456</ele>
        <time>2011-10-06T07:54:12.600Z</time>
      </trkpt>
      <trkpt lat="44.1244" lon="6.3046">
        <ele>861.06</ele>
        <time>2011-10-06T07:54:12.600Z</time>
      </trkpt>
      <trkpt lat="44.12431" lon="6.30461">
        <ele>862.8888</ele>
        <time>2011-10-06T07:54:12.600Z</time>
      </trkpt>
      <trkpt lat="44.12423" lon="6.30457">
        <ele>862.8888</ele>
        <time>2011-10-06T07:54:12.600Z</time>
      </trkpt>
      <trkpt lat="44.12413" lon="6.3045">
        <ele>883.0056</ele>
        <time>2011-10-06T07:54:12.600Z</time>
      </trkpt>
      <trkpt lat="44.12405" lon="6.30442">
        <ele>882.0912</ele>
        <time>2011-10-06T07:54:12.600Z</time>
      </trkpt>
      <trkpt lat="44.12396" lon="6.30433">
        <ele>882.0912</ele>
        <time>2011-10-06T07:54:12.600Z</time>
      </trkpt>
      <trkpt lat="44.12391" lon="6.3042">
        <ele>882.0912</ele>
        <time>2011-10-06T07:54:12.600Z</time>
      </trkpt>
      <trkpt lat="44.12385" lon="6.3041">
        <ele>879.0432</ele>
        <time>2011-10-06T07:54:12.600Z</time>
      </trkpt>
      <trkpt lat="44.12393" lon="6.30406">
        <ele>875.9952</ele>
        <time>2011-10-06T07:54:12.600Z</time>
      </trkpt>
      <trkpt lat="44.12402" lon="6.30403">
        <ele>873.8616</ele>
        <time>2011-10-06T07:54:12.600Z</time>
      </trkpt>
      <trkpt lat="44.124" lon="6.30388">
        <ele>875.9952</ele>
        <time>2011-10-06T07:54:12.600Z</time>
      </trkpt>
      <trkpt lat="44.12394" lon="6.30377">
        <ele>878.1288</ele>
        <time>2011-10-06T07:54:12.600Z</time>
      </trkpt>
      <trkpt lat="44.12394" lon="6.30364">
        <ele>876.9096</ele>
        <time>2011-10-06T07:54:12.600Z</time>
      </trkpt>
      <trkpt lat="44.12395" lon="6.30351">
        <ele>875.9952</ele>
        <time>2011-10-06T07:54:12.600Z</time>
      </trkpt>
      <trkpt lat="44.12389" lon="6.3034">
        <ele>876.9096</ele>
        <time>2011-10-06T07:54:12.600Z</time>
      </trkpt>
      <trkpt lat="44.12394" lon="6.30327">
        <ele>876.9096</ele>
        <time>2011-10-06T07:54:12.600Z</time>
      </trkpt>
      <trkpt lat="44.12399" lon="6.30317">
        <ele>876.9096</ele>
        <time>2011-10-06T07:54:12.600Z</time>
      </trkpt>
      <trkpt lat="44.12408" lon="6.30312">
        <ele>875.9952</ele>
        <time>2011-10-06T07:54:12.600Z</time>
      </trkpt>
      <trkpt lat="44.12417" lon="6.30307">
        <ele>866.8512</ele>
        <time>2011-10-06T07:54:12.600Z</time>
      </trkpt>
      <trkpt lat="44.12426" lon="6.30307">
        <ele>865.9368</ele>
        <time>2011-10-06T07:54:12.600Z</time>
      </trkpt>
      <trkpt lat="44.12437" lon="6.30304">
        <ele>865.9368</ele>
        <time>2011-10-06T07:54:12.600Z</time>
      </trkpt>
      <trkpt lat="44.12446" lon="6.303">
        <ele>865.9368</ele>
        <time>2011-10-06T07:54:12.600Z</time>
      </trkpt>
      <trkpt lat="44.1245" lon="6.30289">
        <ele>865.9368</ele>
        <time>2011-10-06T07:54:12.600Z</time>
      </trkpt>
      <trkpt lat="44.12458" lon="6.30281">
        <ele>865.9368</ele>
        <time>2011-10-06T07:54:12.600Z</time>
      </trkpt>
      <trkpt lat="44.12461" lon="6.30269">
        <ele>866.8512</ele>
        <time>2011-10-06T07:54:12.600Z</time>
      </trkpt>
      <trkpt lat="44.12468" lon="6.30262">
        <ele>865.9368</ele>
        <time>2011-10-06T07:54:12.600Z</time>
      </trkpt>
      <trkpt lat="44.12462" lon="6.3025">
        <ele>866.8512</ele>
        <time>2011-10-06T07:54:12.600Z</time>
      </trkpt>
      <trkpt lat="44.12456" lon="6.3024">
        <ele>868.0704</ele>
        <time>2011-10-06T07:54:12.600Z</time>
      </trkpt>
      <trkpt lat="44.12456" lon="6.30227">
        <ele>866.8512</ele>
        <time>2011-10-06T07:54:12.600Z</time>
      </trkpt>
      <trkpt lat="44.12455" lon="6.30211">
        <ele>865.9368</ele>
        <time>2011-10-06T07:54:12.600Z</time>
      </trkpt>
      <trkpt lat="44.12451" lon="6.30194">
        <ele>865.9368</ele>
        <time>2011-10-06T07:54:12.600Z</time>
      </trkpt>
      <trkpt lat="44.12444" lon="6.30183">
        <ele>865.9368</ele>
        <time>2011-10-06T07:54:12.600Z</time>
      </trkpt>
      <trkpt lat="44.12441" lon="6.30171">
        <ele>865.9368</ele>
        <time>2011-10-06T07:54:12.600Z</time>
      </trkpt>
      <trkpt lat="44.12437" lon="6.30156">
        <ele>862.8888</ele>
        <time>2011-10-06T07:54:12.600Z</time>
      </trkpt>
      <trkpt lat="44.12433" lon="6.30144">
        <ele>862.8888</ele>
        <time>2011-10-06T07:54:12.600Z</time>
      </trkpt>
      <trkpt lat="44.12426" lon="6.30138">
        <ele>862.8888</ele>
        <time>2011-10-06T07:54:12.600Z</time>
      </trkpt>
      <trkpt lat="44.12417" lon="6.30133">
        <ele>862.8888</ele>
        <time>2011-10-06T07:54:12.600Z</time>
      </trkpt>
      <trkpt lat="44.12426" lon="6.30139">
        <ele>862.8888</ele>
        <time>2011-10-06T07:54:12.600Z</time>
      </trkpt>
      <trkpt lat="44.12435" lon="6.30145">
        <ele>862.8888</ele>
        <time>2011-10-06T07:54:12.600Z</time>
      </trkpt>
      <trkpt lat="44.12424" lon="6.30142">
        <ele>862.8888</ele>
        <time>2011-10-06T07:54:12.600Z</time>
      </trkpt>
      <trkpt lat="44.12435" lon="6.30143">
        <ele>862.8888</ele>
        <time>2011-10-06T07:54:12.600Z</time>
      </trkpt>
      <trkpt lat="44.12426" lon="6.30141">
        <ele>862.8888</ele>
        <time>2011-10-06T07:54:12.600Z</time>
      </trkpt>
      <trkpt lat="44.12434" lon="6.3015">
        <ele>862.8888</ele>
        <time>2011-10-06T07:54:12.600Z</time>
      </trkpt>
      <trkpt lat="44.12418" lon="6.30149">
        <ele>864.108</ele>
        <time>2011-10-06T07:54:12.600Z</time>
      </trkpt>
      <trkpt lat="44.12411" lon="6.30143">
        <ele>875.9952</ele>
        <time>2011-10-06T07:54:12.600Z</time>
      </trkpt>
      <trkpt lat="44.124" lon="6.30132">
        <ele>878.1288</ele>
        <time>2011-10-06T07:54:12.600Z</time>
      </trkpt>
      <trkpt lat="44.12391" lon="6.30118">
        <ele>879.0432</ele>
        <time>2011-10-06T07:54:12.600Z</time>
      </trkpt>
      <trkpt lat="44.12399" lon="6.30123">
        <ele>878.1288</ele>
        <time>2011-10-06T07:54:12.600Z</time>
      </trkpt>
      <trkpt lat="44.12407" lon="6.3013">
        <ele>876.9096</ele>
        <time>2011-10-06T07:54:12.600Z</time>
      </trkpt>
      <trkpt lat="44.12416" lon="6.30135">
        <ele>875.9952</ele>
        <time>2011-10-06T07:54:12.600Z</time>
      </trkpt>
      <trkpt lat="44.12428" lon="6.30139">
        <ele>862.8888</ele>
        <time>2011-10-06T07:54:12.600Z</time>
      </trkpt>
      <trkpt lat="44.12435" lon="6.30131">
        <ele>861.9744</ele>
        <time>2011-10-06T07:54:12.600Z</time>
      </trkpt>
      <trkpt lat="44.1244" lon="6.3012">
        <ele>861.9744</ele>
        <time>2011-10-06T07:54:12.600Z</time>
      </trkpt>
      <trkpt lat="44.12449" lon="6.30113">
        <ele>861.06</ele>
        <time>2011-10-06T07:54:12.600Z</time>
      </trkpt>
      <trkpt lat="44.12448" lon="6.30098">
        <ele>861.06</ele>
        <time>2011-10-06T07:54:12.600Z</time>
      </trkpt>
      <trkpt lat="44.12438" lon="6.30095">
        <ele>862.8888</ele>
        <time>2011-10-06T07:54:12.600Z</time>
      </trkpt>
      <trkpt lat="44.12442" lon="6.30084">
        <ele>861.9744</ele>
        <time>2011-10-06T07:54:12.600Z</time>
      </trkpt>
      <trkpt lat="44.12449" lon="6.30077">
        <ele>865.0224</ele>
        <time>2011-10-06T07:54:12.600Z</time>
      </trkpt>
      <trkpt lat="44.12457" lon="6.30069">
        <ele>864.108</ele>
        <time>2011-10-06T07:54:12.600Z</time>
      </trkpt>
      <trkpt lat="44.12467" lon="6.30064">
        <ele>862.8888</ele>
        <time>2011-10-06T07:54:12.600Z</time>
      </trkpt>
      <trkpt lat="44.12473" lon="6.30055">
        <ele>862.8888</ele>
        <time>2011-10-06T07:54:12.600Z</time>
      </trkpt>
      <trkpt lat="44.12478" lon="6.30044">
        <ele>862.8888</ele>
        <time>2011-10-06T07:54:12.600Z</time>
      </trkpt>
      <trkpt lat="44.12487" lon="6.30042">
        <ele>862.8888</ele>
        <time>2011-10-06T07:54:12.600Z</time>
      </trkpt>
      <trkpt lat="44.12497" lon="6.30037">
        <ele>862.8888</ele>
        <time>2011-10-06T07:54:12.600Z</time>
      </trkpt>
      <trkpt lat="44.12502" lon="6.30027">
        <ele>851.916</ele>
        <time>2011-10-06T07:54:12.600Z</time>
      </trkpt>
      <trkpt lat="44.12513" lon="6.30022">
        <ele>851.916</ele>
        <time>2011-10-06T07:54:12.600Z</time>
      </trkpt>
      <trkpt lat="44.12522" lon="6.3002">
        <ele>851.0016</ele>
        <time>2011-10-06T07:54:12.600Z</time>
      </trkpt>
      <trkpt lat="44.12531" lon="6.30019">
        <ele>850.0872</ele>
        <time>2011-10-06T07:54:12.600Z</time>
      </trkpt>
      <trkpt lat="44.12541" lon="6.30015">
        <ele>847.9536</ele>
        <time>2011-10-06T07:54:12.600Z</time>
      </trkpt>
      <trkpt lat="44.1255" lon="6.30009">
        <ele>847.0392</ele>
        <time>2011-10-06T07:54:12.600Z</time>
      </trkpt>
      <trkpt lat="44.1256" lon="6.30007">
        <ele>846.1248</ele>
        <time>2011-10-06T07:54:12.600Z</time>
      </trkpt>
      <trkpt lat="44.12569" lon="6.30006">
        <ele>843.9912</ele>
        <time>2011-10-06T07:54:12.600Z</time>
      </trkpt>
      <trkpt lat="44.12579" lon="6.30003">
        <ele>843.0768</ele>
        <time>2011-10-06T07:54:12.600Z</time>
      </trkpt>
      <trkpt lat="44.12582" lon="6.29989">
        <ele>847.0392</ele>
        <time>2011-10-06T07:54:12.600Z</time>
      </trkpt>
      <trkpt lat="44.12583" lon="6.29977">
        <ele>850.0872</ele>
        <time>2011-10-06T07:54:12.600Z</time>
      </trkpt>
      <trkpt lat="44.12589" lon="6.29967">
        <ele>830.8848</ele>
        <time>2011-10-06T07:54:12.600Z</time>
      </trkpt>
      <trkpt lat="44.12594" lon="6.29955">
        <ele>830.8848</ele>
        <time>2011-10-06T07:54:12.600Z</time>
      </trkpt>
      <trkpt lat="44.126" lon="6.29945">
        <ele>830.8848</ele>
        <time>2011-10-06T07:54:12.600Z</time>
      </trkpt>
      <trkpt lat="44.12602" lon="6.29931">
        <ele>833.0184</ele>
        <time>2011-10-06T07:54:12.600Z</time>
      </trkpt>
      <trkpt lat="44.12602" lon="6.29917">
        <ele>836.0664</ele>
        <time>2011-10-06T07:54:12.600Z</time>
      </trkpt>
      <trkpt lat="44.12611" lon="6.29921">
        <ele>829.9704</ele>
        <time>2011-10-06T07:54:12.600Z</time>
      </trkpt>
      <trkpt lat="44.12621" lon="6.29922">
        <ele>826.008</ele>
        <time>2011-10-06T07:54:12.600Z</time>
      </trkpt>
      <trkpt lat="44.12619" lon="6.29908">
        <ele>829.056</ele>
        <time>2011-10-06T07:54:12.600Z</time>
      </trkpt>
      <trkpt lat="44.12613" lon="6.29896">
        <ele>829.9704</ele>
        <time>2011-10-06T07:54:12.600Z</time>
      </trkpt>
      <trkpt lat="44.12607" lon="6.29884">
        <ele>830.8848</ele>
        <time>2011-10-06T07:54:12.600Z</time>
      </trkpt>
      <trkpt lat="44.126" lon="6.29875">
        <ele>832.104</ele>
        <time>2011-10-06T07:54:12.600Z</time>
      </trkpt>
      <trkpt lat="44.12609" lon="6.29871">
        <ele>830.8848</ele>
        <time>2011-10-06T07:54:12.600Z</time>
      </trkpt>
      <trkpt lat="44.12625" lon="6.29857">
        <ele>828.1416</ele>
        <time>2011-10-06T07:54:12.600Z</time>
      </trkpt>
      <trkpt lat="44.12629" lon="6.29841">
        <ele>826.9224</ele>
        <time>2011-10-06T07:54:12.600Z</time>
      </trkpt>
      <trkpt lat="44.12632" lon="6.29828">
        <ele>832.104</ele>
        <time>2011-10-06T07:54:12.600Z</time>
      </trkpt>
      <trkpt lat="44.12631" lon="6.29812">
        <ele>833.9328</ele>
        <time>2011-10-06T07:54:12.600Z</time>
      </trkpt>
      <trkpt lat="44.12622" lon="6.29814">
        <ele>835.152</ele>
        <time>2011-10-06T07:54:12.600Z</time>
      </trkpt>
      <trkpt lat="44.12629" lon="6.29808">
        <ele>833.9328</ele>
        <time>2011-10-06T07:54:12.600Z</time>
      </trkpt>
      <trkpt lat="44.12639" lon="6.29806">
        <ele>833.0184</ele>
        <time>2011-10-06T07:54:12.600Z</time>
      </trkpt>
      <trkpt lat="44.12648" lon="6.29811">
        <ele>829.9704</ele>
        <time>2011-10-06T07:54:12.600Z</time>
      </trkpt>
      <trkpt lat="44.12658" lon="6.29811">
        <ele>829.056</ele>
        <time>2011-10-06T07:54:12.600Z</time>
      </trkpt>
      <trkpt lat="44.12668" lon="6.29812">
        <ele>811.9872</ele>
        <time>2011-10-06T07:54:12.600Z</time>
      </trkpt>
      <trkpt lat="44.12677" lon="6.29806">
        <ele>811.0728</ele>
        <time>2011-10-06T07:54:12.600Z</time>
      </trkpt>
      <trkpt lat="44.12686" lon="6.29802">
        <ele>811.0728</ele>
        <time>2011-10-06T07:54:12.600Z</time>
      </trkpt>
      <trkpt lat="44.12694" lon="6.29797">
        <ele>808.9392</ele>
        <time>2011-10-06T07:54:12.600Z</time>
      </trkpt>
      <trkpt lat="44.12702" lon="6.29792">
        <ele>808.0248</ele>
        <time>2011-10-06T07:54:12.600Z</time>
      </trkpt>
      <trkpt lat="44.1271" lon="6.29786">
        <ele>807.1104</ele>
        <time>2011-10-06T07:54:12.600Z</time>
      </trkpt>
      <trkpt lat="44.12713" lon="6.29773">
        <ele>807.1104</ele>
        <time>2011-10-06T07:54:12.600Z</time>
      </trkpt>
      <trkpt lat="44.1271" lon="6.29761">
        <ele>808.9392</ele>
        <time>2011-10-06T07:54:12.600Z</time>
      </trkpt>
      <trkpt lat="44.12702" lon="6.29754">
        <ele>811.0728</ele>
        <time>2011-10-06T07:54:12.600Z</time>
      </trkpt>
      <trkpt lat="44.12692" lon="6.29749">
        <ele>815.9496</ele>
        <time>2011-10-06T07:54:12.600Z</time>
      </trkpt>
      <trkpt lat="44.12682" lon="6.2975">
        <ele>819.912</ele>
        <time>2011-10-06T07:54:12.600Z</time>
      </trkpt>
      <trkpt lat="44.12673" lon="6.29753">
        <ele>823.8744</ele>
        <time>2011-10-06T07:54:12.600Z</time>
      </trkpt>
      <trkpt lat="44.12664" lon="6.29754">
        <ele>830.8848</ele>
        <time>2011-10-06T07:54:12.600Z</time>
      </trkpt>
      <trkpt lat="44.12662" lon="6.29742">
        <ele>835.152</ele>
        <time>2011-10-06T07:54:12.600Z</time>
      </trkpt>
      <trkpt lat="44.12657" lon="6.29732">
        <ele>839.1144</ele>
        <time>2011-10-06T07:54:12.600Z</time>
      </trkpt>
      <trkpt lat="44.12653" lon="6.2972">
        <ele>841.8576</ele>
        <time>2011-10-06T07:54:12.600Z</time>
      </trkpt>
      <trkpt lat="44.12647" lon="6.29708">
        <ele>843.0768</ele>
        <time>2011-10-06T07:54:12.700Z</time>
      </trkpt>
      <trkpt lat="44.12641" lon="6.29698">
        <ele>843.9912</ele>
        <time>2011-10-06T07:54:12.700Z</time>
      </trkpt>
      <trkpt lat="44.12631" lon="6.29692">
        <ele>847.0392</ele>
        <time>2011-10-06T07:54:12.700Z</time>
      </trkpt>
      <trkpt lat="44.12624" lon="6.29701">
        <ele>847.9536</ele>
        <time>2011-10-06T07:54:12.700Z</time>
      </trkpt>
      <trkpt lat="44.12617" lon="6.2971">
        <ele>848.868</ele>
        <time>2011-10-06T07:54:12.700Z</time>
      </trkpt>
      <trkpt lat="44.12609" lon="6.29716">
        <ele>851.0016</ele>
        <time>2011-10-06T07:54:12.700Z</time>
      </trkpt>
      <trkpt lat="44.126" lon="6.29716">
        <ele>851.916</ele>
        <time>2011-10-06T07:54:12.700Z</time>
      </trkpt>
      <trkpt lat="44.12591" lon="6.29715">
        <ele>853.1352</ele>
        <time>2011-10-06T07:54:12.700Z</time>
      </trkpt>
      <trkpt lat="44.12581" lon="6.29716">
        <ele>871.1184</ele>
        <time>2011-10-06T07:54:12.700Z</time>
      </trkpt>
      <trkpt lat="44.12571" lon="6.2972">
        <ele>871.1184</ele>
        <time>2011-10-06T07:54:12.700Z</time>
      </trkpt>
      <trkpt lat="44.12574" lon="6.29708">
        <ele>872.9472</ele>
        <time>2011-10-06T07:54:12.700Z</time>
      </trkpt>
      <trkpt lat="44.12565" lon="6.29705">
        <ele>873.8616</ele>
        <time>2011-10-06T07:54:12.700Z</time>
      </trkpt>
      <trkpt lat="44.12557" lon="6.29698">
        <ele>875.0808</ele>
        <time>2011-10-06T07:54:12.700Z</time>
      </trkpt>
      <trkpt lat="44.12548" lon="6.29693">
        <ele>875.9952</ele>
        <time>2011-10-06T07:54:12.700Z</time>
      </trkpt>
      <trkpt lat="44.12537" lon="6.29692">
        <ele>876.9096</ele>
        <time>2011-10-06T07:54:12.700Z</time>
      </trkpt>
      <trkpt lat="44.12529" lon="6.29687">
        <ele>879.0432</ele>
        <time>2011-10-06T07:54:12.700Z</time>
      </trkpt>
      <trkpt lat="44.12525" lon="6.29675">
        <ele>879.9576</ele>
        <time>2011-10-06T07:54:12.700Z</time>
      </trkpt>
      <trkpt lat="44.12517" lon="6.2967">
        <ele>882.0912</ele>
        <time>2011-10-06T07:54:12.700Z</time>
      </trkpt>
      <trkpt lat="44.12509" lon="6.29662">
        <ele>882.0912</ele>
        <time>2011-10-06T07:54:12.700Z</time>
      </trkpt>
      <trkpt lat="44.12499" lon="6.2966">
        <ele>886.0536</ele>
        <time>2011-10-06T07:54:12.700Z</time>
      </trkpt>
      <trkpt lat="44.12491" lon="6.29665">
        <ele>886.0536</ele>
        <time>2011-10-06T07:54:12.700Z</time>
      </trkpt>
      <trkpt lat="44.12483" lon="6.29671">
        <ele>893.9784</ele>
        <time>2011-10-06T07:54:12.700Z</time>
      </trkpt>
      <trkpt lat="44.12475" lon="6.29679">
        <ele>896.112</ele>
        <time>2011-10-06T07:54:12.700Z</time>
      </trkpt>
      <trkpt lat="44.12473" lon="6.2969">
        <ele>897.0264</ele>
        <time>2011-10-06T07:54:12.700Z</time>
      </trkpt>
      <trkpt lat="44.12468" lon="6.2968">
        <ele>897.9408</ele>
        <time>2011-10-06T07:54:12.700Z</time>
      </trkpt>
      <trkpt lat="44.1246" lon="6.2967">
        <ele>897.9408</ele>
        <time>2011-10-06T07:54:12.700Z</time>
      </trkpt>
      <trkpt lat="44.12452" lon="6.2966">
        <ele>886.968</ele>
        <time>2011-10-06T07:54:12.700Z</time>
      </trkpt>
      <trkpt lat="44.12445" lon="6.29653">
        <ele>887.8824</ele>
        <time>2011-10-06T07:54:12.700Z</time>
      </trkpt>
      <trkpt lat="44.12436" lon="6.29646">
        <ele>889.1016</ele>
        <time>2011-10-06T07:54:12.700Z</time>
      </trkpt>
      <trkpt lat="44.12426" lon="6.29642">
        <ele>889.1016</ele>
        <time>2011-10-06T07:54:12.700Z</time>
      </trkpt>
      <trkpt lat="44.12415" lon="6.29638">
        <ele>900.9888</ele>
        <time>2011-10-06T07:54:12.700Z</time>
      </trkpt>
      <trkpt lat="44.12406" lon="6.29633">
        <ele>900.0744</ele>
        <time>2011-10-06T07:54:12.700Z</time>
      </trkpt>
      <trkpt lat="44.12398" lon="6.29625">
        <ele>898.8552</ele>
        <time>2011-10-06T07:54:12.700Z</time>
      </trkpt>
      <trkpt lat="44.12389" lon="6.29618">
        <ele>898.8552</ele>
        <time>2011-10-06T07:54:12.700Z</time>
      </trkpt>
      <trkpt lat="44.12382" lon="6.29606">
        <ele>897.9408</ele>
        <time>2011-10-06T07:54:12.700Z</time>
      </trkpt>
      <trkpt lat="44.12375" lon="6.29598">
        <ele>897.9408</ele>
        <time>2011-10-06T07:54:12.700Z</time>
      </trkpt>
      <trkpt lat="44.1237" lon="6.29588">
        <ele>897.9408</ele>
        <time>2011-10-06T07:54:12.700Z</time>
      </trkpt>
      <trkpt lat="44.12364" lon="6.29577">
        <ele>883.0056</ele>
        <time>2011-10-06T07:54:12.700Z</time>
      </trkpt>
      <trkpt lat="44.12355" lon="6.29573">
        <ele>885.1392</ele>
        <time>2011-10-06T07:54:12.700Z</time>
      </trkpt>
      <trkpt lat="44.12347" lon="6.29566">
        <ele>886.0536</ele>
        <time>2011-10-06T07:54:12.700Z</time>
      </trkpt>
      <trkpt lat="44.12339" lon="6.29561">
        <ele>886.0536</ele>
        <time>2011-10-06T07:54:12.700Z</time>
      </trkpt>
      <trkpt lat="44.1233" lon="6.29561">
        <ele>893.9784</ele>
        <time>2011-10-06T07:54:12.700Z</time>
      </trkpt>
      <trkpt lat="44.12318" lon="6.29564">
        <ele>893.9784</ele>
        <time>2011-10-06T07:54:12.700Z</time>
      </trkpt>
      <trkpt lat="44.1231" lon="6.29567">
        <ele>893.9784</ele>
        <time>2011-10-06T07:54:12.700Z</time>
      </trkpt>
      <trkpt lat="44.12301" lon="6.29568">
        <ele>893.9784</ele>
        <time>2011-10-06T07:54:12.700Z</time>
      </trkpt>
      <trkpt lat="44.12288" lon="6.29561">
        <ele>893.064</ele>
        <time>2011-10-06T07:54:12.700Z</time>
      </trkpt>
      <trkpt lat="44.12278" lon="6.29556">
        <ele>893.064</ele>
        <time>2011-10-06T07:54:12.700Z</time>
      </trkpt>
      <trkpt lat="44.12269" lon="6.29553">
        <ele>893.064</ele>
        <time>2011-10-06T07:54:12.700Z</time>
      </trkpt>
      <trkpt lat="44.12258" lon="6.29549">
        <ele>892.1496</ele>
        <time>2011-10-06T07:54:12.700Z</time>
      </trkpt>
      <trkpt lat="44.12248" lon="6.29551">
        <ele>897.9408</ele>
        <time>2011-10-06T07:54:12.700Z</time>
      </trkpt>
      <trkpt lat="44.12238" lon="6.2955">
        <ele>897.9408</ele>
        <time>2011-10-06T07:54:12.700Z</time>
      </trkpt>
      <trkpt lat="44.12227" lon="6.29552">
        <ele>897.9408</ele>
        <time>2011-10-06T07:54:12.700Z</time>
      </trkpt>
      <trkpt lat="44.12217" lon="6.29548">
        <ele>897.9408</ele>
        <time>2011-10-06T07:54:12.700Z</time>
      </trkpt>
      <trkpt lat="44.12209" lon="6.29542">
        <ele>897.9408</ele>
        <time>2011-10-06T07:54:12.700Z</time>
      </trkpt>
      <trkpt lat="44.12197" lon="6.29536">
        <ele>897.9408</ele>
        <time>2011-10-06T07:54:12.700Z</time>
      </trkpt>
      <trkpt lat="44.12185" lon="6.29531">
        <ele>897.9408</ele>
        <time>2011-10-06T07:54:12.700Z</time>
      </trkpt>
      <trkpt lat="44.12175" lon="6.2953">
        <ele>897.9408</ele>
        <time>2011-10-06T07:54:12.700Z</time>
      </trkpt>
      <trkpt lat="44.12174" lon="6.29543">
        <ele>900.9888</ele>
        <time>2011-10-06T07:54:12.700Z</time>
      </trkpt>
      <trkpt lat="44.1218" lon="6.29554">
        <ele>903.1224</ele>
        <time>2011-10-06T07:54:12.700Z</time>
      </trkpt>
      <trkpt lat="44.12174" lon="6.29564">
        <ele>907.0848</ele>
        <time>2011-10-06T07:54:12.700Z</time>
      </trkpt>
      <trkpt lat="44.12166" lon="6.29568">
        <ele>922.9344</ele>
        <time>2011-10-06T07:54:12.700Z</time>
      </trkpt>
      <trkpt lat="44.12169" lon="6.29556">
        <ele>904.9512</ele>
        <time>2011-10-06T07:54:12.700Z</time>
      </trkpt>
      <trkpt lat="44.12165" lon="6.29543">
        <ele>922.02</ele>
        <time>2011-10-06T07:54:12.700Z</time>
      </trkpt>
      <trkpt lat="44.12156" lon="6.29537">
        <ele>922.02</ele>
        <time>2011-10-06T07:54:12.700Z</time>
      </trkpt>
      <trkpt lat="44.12148" lon="6.29528">
        <ele>921.1056</ele>
        <time>2011-10-06T07:54:12.700Z</time>
      </trkpt>
      <trkpt lat="44.12152" lon="6.29517">
        <ele>915.0096</ele>
        <time>2011-10-06T07:54:12.700Z</time>
      </trkpt>
      <trkpt lat="44.12147" lon="6.29504">
        <ele>914.0952</ele>
        <time>2011-10-06T07:54:12.700Z</time>
      </trkpt>
      <trkpt lat="44.12143" lon="6.29488">
        <ele>901.9032</ele>
        <time>2011-10-06T07:54:12.700Z</time>
      </trkpt>
      <trkpt lat="44.12135" lon="6.29481">
        <ele>904.0368</ele>
        <time>2011-10-06T07:54:12.700Z</time>
      </trkpt>
      <trkpt lat="44.12132" lon="6.29468">
        <ele>903.1224</ele>
        <time>2011-10-06T07:54:12.700Z</time>
      </trkpt>
      <trkpt lat="44.12125" lon="6.2946">
        <ele>904.0368</ele>
        <time>2011-10-06T07:54:12.700Z</time>
      </trkpt>
      <trkpt lat="44.12115" lon="6.29461">
        <ele>907.0848</ele>
        <time>2011-10-06T07:54:12.700Z</time>
      </trkpt>
      <trkpt lat="44.12115" lon="6.29449">
        <ele>904.0368</ele>
        <time>2011-10-06T07:54:12.700Z</time>
      </trkpt>
      <trkpt lat="44.12105" lon="6.29444">
        <ele>905.8656</ele>
        <time>2011-10-06T07:54:12.700Z</time>
      </trkpt>
      <trkpt lat="44.12095" lon="6.29439">
        <ele>905.8656</ele>
        <time>2011-10-06T07:54:12.700Z</time>
      </trkpt>
      <trkpt lat="44.12087" lon="6.29433">
        <ele>907.0848</ele>
        <time>2011-10-06T07:54:12.700Z</time>
      </trkpt>
      <trkpt lat="44.12079" lon="6.29429">
        <ele>923.8488</ele>
        <time>2011-10-06T07:54:12.700Z</time>
      </trkpt>
      <trkpt lat="44.1207" lon="6.29424">
        <ele>925.9824</ele>
        <time>2011-10-06T07:54:12.700Z</time>
      </trkpt>
      <trkpt lat="44.12065" lon="6.29412">
        <ele>915.924</ele>
        <time>2011-10-06T07:54:12.700Z</time>
      </trkpt>
      <trkpt lat="44.12074" lon="6.29416">
        <ele>911.9616</ele>
        <time>2011-10-06T07:54:12.700Z</time>
      </trkpt>
      <trkpt lat="44.12064" lon="6.29406">
        <ele>915.924</ele>
        <time>2011-10-06T07:54:12.700Z</time>
      </trkpt>
      <trkpt lat="44.12055" lon="6.29399">
        <ele>918.972</ele>
        <time>2011-10-06T07:54:12.700Z</time>
      </trkpt>
      <trkpt lat="44.12048" lon="6.29393">
        <ele>921.1056</ele>
        <time>2011-10-06T07:54:12.700Z</time>
      </trkpt>
      <trkpt lat="44.12035" lon="6.29393">
        <ele>925.068</ele>
        <time>2011-10-06T07:54:12.700Z</time>
      </trkpt>
      <trkpt lat="44.12015" lon="6.29378">
        <ele>928.116</ele>
        <time>2011-10-06T07:54:12.700Z</time>
      </trkpt>
      <trkpt lat="44.12007" lon="6.2937">
        <ele>928.116</ele>
        <time>2011-10-06T07:54:12.700Z</time>
      </trkpt>
      <trkpt lat="44.11998" lon="6.29362">
        <ele>947.928</ele>
        <time>2011-10-06T07:54:12.700Z</time>
      </trkpt>
      <trkpt lat="44.11975" lon="6.29356">
        <ele>950.0616</ele>
        <time>2011-10-06T07:54:12.700Z</time>
      </trkpt>
      <trkpt lat="44.11984" lon="6.29361">
        <ele>949.1472</ele>
        <time>2011-10-06T07:54:12.700Z</time>
      </trkpt>
      <trkpt lat="44.11989" lon="6.29376">
        <ele>951.8904</ele>
        <time>2011-10-06T07:54:12.700Z</time>
      </trkpt>
      <trkpt lat="44.11998" lon="6.29388">
        <ele>954.024</ele>
        <time>2011-10-06T07:54:12.700Z</time>
      </trkpt>
      <trkpt lat="44.12008" lon="6.29392">
        <ele>933.9072</ele>
        <time>2011-10-06T07:54:12.700Z</time>
      </trkpt>
      <trkpt lat="44.12018" lon="6.29397">
        <ele>932.9928</ele>
        <time>2011-10-06T07:54:12.700Z</time>
      </trkpt>
      <trkpt lat="44.12027" lon="6.29393">
        <ele>928.116</ele>
        <time>2011-10-06T07:54:12.700Z</time>
      </trkpt>
      <trkpt lat="44.12018" lon="6.2939">
        <ele>929.9448</ele>
        <time>2011-10-06T07:54:12.700Z</time>
      </trkpt>
      <trkpt lat="44.12026" lon="6.29397">
        <ele>929.0304</ele>
        <time>2011-10-06T07:54:12.700Z</time>
      </trkpt>
      <trkpt lat="44.12035" lon="6.29399">
        <ele>925.9824</ele>
        <time>2011-10-06T07:54:12.700Z</time>
      </trkpt>
      <trkpt lat="44.12029" lon="6.29389">
        <ele>926.8968</ele>
        <time>2011-10-06T07:54:12.700Z</time>
      </trkpt>
      <trkpt lat="44.12021" lon="6.29385">
        <ele>928.116</ele>
        <time>2011-10-06T07:54:12.700Z</time>
      </trkpt>
      <trkpt lat="44.12013" lon="6.29381">
        <ele>929.0304</ele>
        <time>2011-10-06T07:54:12.700Z</time>
      </trkpt>
      <trkpt lat="44.12002" lon="6.29376">
        <ele>929.9448</ele>
        <time>2011-10-06T07:54:12.700Z</time>
      </trkpt>
      <trkpt lat="44.1201" lon="6.29372">
        <ele>928.116</ele>
        <time>2011-10-06T07:54:12.700Z</time>
      </trkpt>
      <trkpt lat="44.1202" lon="6.29371">
        <ele>925.9824</ele>
        <time>2011-10-06T07:54:12.700Z</time>
      </trkpt>
      <trkpt lat="44.12025" lon="6.29381">
        <ele>925.9824</ele>
        <time>2011-10-06T07:54:12.700Z</time>
      </trkpt>
      <trkpt lat="44.12026" lon="6.29396">
        <ele>929.0304</ele>
        <time>2011-10-06T07:54:12.700Z</time>
      </trkpt>
      <trkpt lat="44.12036" lon="6.29397">
        <ele>925.068</ele>
        <time>2011-10-06T07:54:12.700Z</time>
      </trkpt>
      <trkpt lat="44.12045" lon="6.294">
        <ele>922.9344</ele>
        <time>2011-10-06T07:54:12.700Z</time>
      </trkpt>
      <trkpt lat="44.12035" lon="6.29396">
        <ele>925.9824</ele>
        <time>2011-10-06T07:54:12.700Z</time>
      </trkpt>
      <trkpt lat="44.12042" lon="6.29387">
        <ele>922.02</ele>
        <time>2011-10-06T07:54:12.700Z</time>
      </trkpt>
      <trkpt lat="44.12032" lon="6.29384">
        <ele>925.068</ele>
        <time>2011-10-06T07:54:12.700Z</time>
      </trkpt>
      <trkpt lat="44.12032" lon="6.29371">
        <ele>922.9344</ele>
        <time>2011-10-06T07:54:12.700Z</time>
      </trkpt>
      <trkpt lat="44.12024" lon="6.29366">
        <ele>925.068</ele>
        <time>2011-10-06T07:54:12.700Z</time>
      </trkpt>
      <trkpt lat="44.1202" lon="6.29352">
        <ele>925.068</ele>
        <time>2011-10-06T07:54:12.700Z</time>
      </trkpt>
      <trkpt lat="44.12017" lon="6.29338">
        <ele>925.9824</ele>
        <time>2011-10-06T07:54:12.700Z</time>
      </trkpt>
      <trkpt lat="44.12014" lon="6.29326">
        <ele>918.972</ele>
        <time>2011-10-06T07:54:12.700Z</time>
      </trkpt>
      <trkpt lat="44.1201" lon="6.29314">
        <ele>915.924</ele>
        <time>2011-10-06T07:54:12.700Z</time>
      </trkpt>
      <trkpt lat="44.12005" lon="6.293">
        <ele>911.9616</ele>
        <time>2011-10-06T07:54:12.700Z</time>
      </trkpt>
      <trkpt lat="44.11998" lon="6.29291">
        <ele>925.068</ele>
        <time>2011-10-06T07:54:12.700Z</time>
      </trkpt>
      <trkpt lat="44.11993" lon="6.29282">
        <ele>922.9344</ele>
        <time>2011-10-06T07:54:12.700Z</time>
      </trkpt>
      <trkpt lat="44.11987" lon="6.29269">
        <ele>921.1056</ele>
        <time>2011-10-06T07:54:12.700Z</time>
      </trkpt>
      <trkpt lat="44.1198" lon="6.29259">
        <ele>919.8864</ele>
        <time>2011-10-06T07:54:12.700Z</time>
      </trkpt>
      <trkpt lat="44.11972" lon="6.29256">
        <ele>921.1056</ele>
        <time>2011-10-06T07:54:12.700Z</time>
      </trkpt>
      <trkpt lat="44.11962" lon="6.29255">
        <ele>922.9344</ele>
        <time>2011-10-06T07:54:12.700Z</time>
      </trkpt>
      <trkpt lat="44.11953" lon="6.29253">
        <ele>922.9344</ele>
        <time>2011-10-06T07:54:12.700Z</time>
      </trkpt>
      <trkpt lat="44.11944" lon="6.29247">
        <ele>907.9992</ele>
        <time>2011-10-06T07:54:12.700Z</time>
      </trkpt>
      <trkpt lat="44.11925" lon="6.2924">
        <ele>911.9616</ele>
        <time>2011-10-06T07:54:12.700Z</time>
      </trkpt>
      <trkpt lat="44.11921" lon="6.29253">
        <ele>921.1056</ele>
        <time>2011-10-06T07:54:12.700Z</time>
      </trkpt>
      <trkpt lat="44.11916" lon="6.29265">
        <ele>922.02</ele>
        <time>2011-10-06T07:54:12.700Z</time>
      </trkpt>
      <trkpt lat="44.11909" lon="6.29256">
        <ele>919.8864</ele>
        <time>2011-10-06T07:54:12.700Z</time>
      </trkpt>
      <trkpt lat="44.11897" lon="6.29255">
        <ele>921.1056</ele>
        <time>2011-10-06T07:54:12.700Z</time>
      </trkpt>
      <trkpt lat="44.11887" lon="6.29251">
        <ele>919.8864</ele>
        <time>2011-10-06T07:54:12.700Z</time>
      </trkpt>
      <trkpt lat="44.11877" lon="6.29246">
        <ele>904.9512</ele>
        <time>2011-10-06T07:54:12.700Z</time>
      </trkpt>
      <trkpt lat="44.11866" lon="6.29241">
        <ele>903.1224</ele>
        <time>2011-10-06T07:54:12.700Z</time>
      </trkpt>
      <trkpt lat="44.11857" lon="6.29238">
        <ele>903.1224</ele>
        <time>2011-10-06T07:54:12.700Z</time>
      </trkpt>
      <trkpt lat="44.11848" lon="6.29235">
        <ele>901.9032</ele>
        <time>2011-10-06T07:54:12.700Z</time>
      </trkpt>
      <trkpt lat="44.1184" lon="6.29226">
        <ele>900.9888</ele>
        <time>2011-10-06T07:54:12.700Z</time>
      </trkpt>
      <trkpt lat="44.11833" lon="6.29214">
        <ele>900.0744</ele>
        <time>2011-10-06T07:54:12.700Z</time>
      </trkpt>
      <trkpt lat="44.11823" lon="6.29209">
        <ele>889.1016</ele>
        <time>2011-10-06T07:54:12.700Z</time>
      </trkpt>
      <trkpt lat="44.11813" lon="6.29203">
        <ele>887.8824</ele>
        <time>2011-10-06T07:54:12.700Z</time>
      </trkpt>
      <trkpt lat="44.11807" lon="6.29191">
        <ele>886.968</ele>
        <time>2011-10-06T07:54:12.700Z</time>
      </trkpt>
      <trkpt lat="44.118" lon="6.29179">
        <ele>886.0536</ele>
        <time>2011-10-06T07:54:12.700Z</time>
      </trkpt>
      <trkpt lat="44.11791" lon="6.29172">
        <ele>885.1392</ele>
        <time>2011-10-06T07:54:12.700Z</time>
      </trkpt>
      <trkpt lat="44.11786" lon="6.29161">
        <ele>878.1288</ele>
        <time>2011-10-06T07:54:12.700Z</time>
      </trkpt>
      <trkpt lat="44.11782" lon="6.29148">
        <ele>876.9096</ele>
        <time>2011-10-06T07:54:12.700Z</time>
      </trkpt>
      <trkpt lat="44.11776" lon="6.29134">
        <ele>875.9952</ele>
        <time>2011-10-06T07:54:12.700Z</time>
      </trkpt>
      <trkpt lat="44.11768" lon="6.29127">
        <ele>875.0808</ele>
        <time>2011-10-06T07:54:12.700Z</time>
      </trkpt>
      <trkpt lat="44.1176" lon="6.29119">
        <ele>875.0808</ele>
        <time>2011-10-06T07:54:12.700Z</time>
      </trkpt>
      <trkpt lat="44.11751" lon="6.29108">
        <ele>873.8616</ele>
        <time>2011-10-06T07:54:12.700Z</time>
      </trkpt>
      <trkpt lat="44.11742" lon="6.29103">
        <ele>868.0704</ele>
        <time>2011-10-06T07:54:12.700Z</time>
      </trkpt>
      <trkpt lat="44.1173" lon="6.29097">
        <ele>866.8512</ele>
        <time>2011-10-06T07:54:12.700Z</time>
      </trkpt>
      <trkpt lat="44.11722" lon="6.29088">
        <ele>866.8512</ele>
        <time>2011-10-06T07:54:12.700Z</time>
      </trkpt>
      <trkpt lat="44.11714" lon="6.29077">
        <ele>864.108</ele>
        <time>2011-10-06T07:54:12.700Z</time>
      </trkpt>
      <trkpt lat="44.11706" lon="6.29065">
        <ele>862.8888</ele>
        <time>2011-10-06T07:54:12.700Z</time>
      </trkpt>
      <trkpt lat="44.11696" lon="6.29058">
        <ele>861.9744</ele>
        <time>2011-10-06T07:54:12.700Z</time>
      </trkpt>
      <trkpt lat="44.11685" lon="6.29056">
        <ele>861.9744</ele>
        <time>2011-10-06T07:54:12.700Z</time>
      </trkpt>
      <trkpt lat="44.11676" lon="6.29051">
        <ele>861.06</ele>
        <time>2011-10-06T07:54:12.700Z</time>
      </trkpt>
      <trkpt lat="44.11677" lon="6.29034">
        <ele>861.06</ele>
        <time>2011-10-06T07:54:12.700Z</time>
      </trkpt>
      <trkpt lat="44.11674" lon="6.29017">
        <ele>861.06</ele>
        <time>2011-10-06T07:54:12.700Z</time>
      </trkpt>
      <trkpt lat="44.11667" lon="6.29007">
        <ele>860.1456</ele>
        <time>2011-10-06T07:54:12.700Z</time>
      </trkpt>
      <trkpt lat="44.11657" lon="6.28995">
        <ele>855.8784</ele>
        <time>2011-10-06T07:54:12.700Z</time>
      </trkpt>
      <trkpt lat="44.1165" lon="6.28987">
        <ele>854.964</ele>
        <time>2011-10-06T07:54:12.700Z</time>
      </trkpt>
      <trkpt lat="44.11639" lon="6.28977">
        <ele>853.1352</ele>
        <time>2011-10-06T07:54:12.700Z</time>
      </trkpt>
      <trkpt lat="44.11635" lon="6.28965">
        <ele>851.916</ele>
        <time>2011-10-06T07:54:12.700Z</time>
      </trkpt>
      <trkpt lat="44.1163" lon="6.28954">
        <ele>851.916</ele>
        <time>2011-10-06T07:54:12.700Z</time>
      </trkpt>
      <trkpt lat="44.11624" lon="6.28941">
        <ele>851.916</ele>
        <time>2011-10-06T07:54:12.700Z</time>
      </trkpt>
      <trkpt lat="44.11618" lon="6.28931">
        <ele>851.916</ele>
        <time>2011-10-06T07:54:12.700Z</time>
      </trkpt>
      <trkpt lat="44.11615" lon="6.2892">
        <ele>851.916</ele>
        <time>2011-10-06T07:54:12.700Z</time>
      </trkpt>
      <trkpt lat="44.1161" lon="6.28907">
        <ele>848.868</ele>
        <time>2011-10-06T07:54:12.700Z</time>
      </trkpt>
      <trkpt lat="44.11606" lon="6.28892">
        <ele>848.868</ele>
        <time>2011-10-06T07:54:12.700Z</time>
      </trkpt>
      <trkpt lat="44.11604" lon="6.28876">
        <ele>848.868</ele>
        <time>2011-10-06T07:54:12.700Z</time>
      </trkpt>
      <trkpt lat="44.116" lon="6.28861">
        <ele>848.868</ele>
        <time>2011-10-06T07:54:12.700Z</time>
      </trkpt>
      <trkpt lat="44.11598" lon="6.28847">
        <ele>851.0016</ele>
        <time>2011-10-06T07:54:12.700Z</time>
      </trkpt>
      <trkpt lat="44.11595" lon="6.28835">
        <ele>853.1352</ele>
        <time>2011-10-06T07:54:12.700Z</time>
      </trkpt>
      <trkpt lat="44.11591" lon="6.28821">
        <ele>851.0016</ele>
        <time>2011-10-06T07:54:12.700Z</time>
      </trkpt>
      <trkpt lat="44.11589" lon="6.28808">
        <ele>848.868</ele>
        <time>2011-10-06T07:54:12.700Z</time>
      </trkpt>
      <trkpt lat="44.1159" lon="6.28793">
        <ele>847.9536</ele>
        <time>2011-10-06T07:54:12.700Z</time>
      </trkpt>
      <trkpt lat="44.11591" lon="6.28779">
        <ele>847.9536</ele>
        <time>2011-10-06T07:54:12.700Z</time>
      </trkpt>
      <trkpt lat="44.11591" lon="6.28766">
        <ele>850.0872</ele>
        <time>2011-10-06T07:54:12.700Z</time>
      </trkpt>
      <trkpt lat="44.1159" lon="6.28752">
        <ele>854.0496</ele>
        <time>2011-10-06T07:54:12.700Z</time>
      </trkpt>
      <trkpt lat="44.11587" lon="6.28739">
        <ele>853.1352</ele>
        <time>2011-10-06T07:54:12.700Z</time>
      </trkpt>
      <trkpt lat="44.11585" lon="6.28725">
        <ele>850.0872</ele>
        <time>2011-10-06T07:54:12.700Z</time>
      </trkpt>
      <trkpt lat="44.11583" lon="6.28711">
        <ele>858.012</ele>
        <time>2011-10-06T07:54:12.700Z</time>
      </trkpt>
      <trkpt lat="44.11582" lon="6.28698">
        <ele>858.012</ele>
        <time>2011-10-06T07:54:12.700Z</time>
      </trkpt>
      <trkpt lat="44.11578" lon="6.28684">
        <ele>858.9264</ele>
        <time>2011-10-06T07:54:12.700Z</time>
      </trkpt>
      <trkpt lat="44.11575" lon="6.28672">
        <ele>860.1456</ele>
        <time>2011-10-06T07:54:12.700Z</time>
      </trkpt>
      <trkpt lat="44.11572" lon="6.28659">
        <ele>861.06</ele>
        <time>2011-10-06T07:54:12.700Z</time>
      </trkpt>
      <trkpt lat="44.11564" lon="6.28652">
        <ele>860.1456</ele>
        <time>2011-10-06T07:54:12.700Z</time>
      </trkpt>
      <trkpt lat="44.11553" lon="6.28644">
        <ele>858.9264</ele>
        <time>2011-10-06T07:54:12.700Z</time>
      </trkpt>
      <trkpt lat="44.11542" lon="6.28631">
        <ele>858.9264</ele>
        <time>2011-10-06T07:54:12.700Z</time>
      </trkpt>
      <trkpt lat="44.11533" lon="6.2862">
        <ele>858.012</ele>
        <time>2011-10-06T07:54:12.700Z</time>
      </trkpt>
      <trkpt lat="44.11524" lon="6.28615">
        <ele>858.012</ele>
        <time>2011-10-06T07:54:12.700Z</time>
      </trkpt>
      <trkpt lat="44.11514" lon="6.28613">
        <ele>857.0976</ele>
        <time>2011-10-06T07:54:12.700Z</time>
      </trkpt>
      <trkpt lat="44.11506" lon="6.28601">
        <ele>855.8784</ele>
        <time>2011-10-06T07:54:12.700Z</time>
      </trkpt>
      <trkpt lat="44.11503" lon="6.28587">
        <ele>854.964</ele>
        <time>2011-10-06T07:54:12.700Z</time>
      </trkpt>
      <trkpt lat="44.11496" lon="6.28576">
        <ele>851.0016</ele>
        <time>2011-10-06T07:54:12.700Z</time>
      </trkpt>
      <trkpt lat="44.11488" lon="6.28567">
        <ele>848.868</ele>
        <time>2011-10-06T07:54:12.700Z</time>
      </trkpt>
      <trkpt lat="44.11481" lon="6.28558">
        <ele>847.0392</ele>
        <time>2011-10-06T07:54:12.700Z</time>
      </trkpt>
      <trkpt lat="44.11476" lon="6.28547">
        <ele>846.1248</ele>
        <time>2011-10-06T07:54:12.700Z</time>
      </trkpt>
      <trkpt lat="44.11466" lon="6.28538">
        <ele>844.9056</ele>
        <time>2011-10-06T07:54:12.700Z</time>
      </trkpt>
      <trkpt lat="44.11457" lon="6.2853">
        <ele>843.9912</ele>
        <time>2011-10-06T07:54:12.700Z</time>
      </trkpt>
      <trkpt lat="44.1145" lon="6.28521">
        <ele>843.9912</ele>
        <time>2011-10-06T07:54:12.700Z</time>
      </trkpt>
      <trkpt lat="44.11439" lon="6.28515">
        <ele>843.9912</ele>
        <time>2011-10-06T07:54:12.700Z</time>
      </trkpt>
      <trkpt lat="44.1143" lon="6.28511">
        <ele>843.9912</ele>
        <time>2011-10-06T07:54:12.700Z</time>
      </trkpt>
      <trkpt lat="44.1142" lon="6.28505">
        <ele>843.0768</ele>
        <time>2011-10-06T07:54:12.700Z</time>
      </trkpt>
      <trkpt lat="44.1141" lon="6.28498">
        <ele>840.9432</ele>
        <time>2011-10-06T07:54:12.700Z</time>
      </trkpt>
      <trkpt lat="44.11401" lon="6.28495">
        <ele>840.0288</ele>
        <time>2011-10-06T07:54:12.700Z</time>
      </trkpt>
      <trkpt lat="44.11393" lon="6.28486">
        <ele>837.8952</ele>
        <time>2011-10-06T07:54:12.700Z</time>
      </trkpt>
      <trkpt lat="44.11387" lon="6.28476">
        <ele>837.8952</ele>
        <time>2011-10-06T07:54:12.700Z</time>
      </trkpt>
      <trkpt lat="44.11379" lon="6.28466">
        <ele>836.9808</ele>
        <time>2011-10-06T07:54:12.700Z</time>
      </trkpt>
      <trkpt lat="44.11371" lon="6.28453">
        <ele>836.0664</ele>
        <time>2011-10-06T07:54:12.700Z</time>
      </trkpt>
      <trkpt lat="44.11362" lon="6.28445">
        <ele>836.0664</ele>
        <time>2011-10-06T07:54:12.700Z</time>
      </trkpt>
      <trkpt lat="44.11354" lon="6.28438">
        <ele>836.9808</ele>
        <time>2011-10-06T07:54:12.700Z</time>
      </trkpt>
      <trkpt lat="44.11345" lon="6.28425">
        <ele>836.9808</ele>
        <time>2011-10-06T07:54:12.700Z</time>
      </trkpt>
      <trkpt lat="44.11336" lon="6.2842">
        <ele>837.8952</ele>
        <time>2011-10-06T07:54:12.700Z</time>
      </trkpt>
      <trkpt lat="44.11325" lon="6.28423">
        <ele>836.9808</ele>
        <time>2011-10-06T07:54:12.700Z</time>
      </trkpt>
      <trkpt lat="44.11318" lon="6.2843">
        <ele>836.0664</ele>
        <time>2011-10-06T07:54:12.700Z</time>
      </trkpt>
      <trkpt lat="44.11307" lon="6.28427">
        <ele>836.0664</ele>
        <time>2011-10-06T07:54:12.700Z</time>
      </trkpt>
      <trkpt lat="44.11298" lon="6.28426">
        <ele>835.152</ele>
        <time>2011-10-06T07:54:12.700Z</time>
      </trkpt>
      <trkpt lat="44.11287" lon="6.28428">
        <ele>835.152</ele>
        <time>2011-10-06T07:54:12.700Z</time>
      </trkpt>
      <trkpt lat="44.11276" lon="6.28427">
        <ele>833.9328</ele>
        <time>2011-10-06T07:54:12.700Z</time>
      </trkpt>
      <trkpt lat="44.11268" lon="6.28421">
        <ele>833.9328</ele>
        <time>2011-10-06T07:54:12.700Z</time>
      </trkpt>
      <trkpt lat="44.11261" lon="6.28412">
        <ele>829.9704</ele>
        <time>2011-10-06T07:54:12.700Z</time>
      </trkpt>
      <trkpt lat="44.11252" lon="6.28409">
        <ele>830.8848</ele>
        <time>2011-10-06T07:54:12.700Z</time>
      </trkpt>
      <trkpt lat="44.11246" lon="6.28398">
        <ele>826.008</ele>
        <time>2011-10-06T07:54:12.700Z</time>
      </trkpt>
      <trkpt lat="44.11238" lon="6.2839">
        <ele>825.0936</ele>
        <time>2011-10-06T07:54:12.700Z</time>
      </trkpt>
      <trkpt lat="44.11232" lon="6.28381">
        <ele>822.96</ele>
        <time>2011-10-06T07:54:12.700Z</time>
      </trkpt>
      <trkpt lat="44.11223" lon="6.28372">
        <ele>822.0456</ele>
        <time>2011-10-06T07:54:12.700Z</time>
      </trkpt>
      <trkpt lat="44.11211" lon="6.28368">
        <ele>822.0456</ele>
        <time>2011-10-06T07:54:12.700Z</time>
      </trkpt>
      <trkpt lat="44.11201" lon="6.28369">
        <ele>822.0456</ele>
        <time>2011-10-06T07:54:12.700Z</time>
      </trkpt>
      <trkpt lat="44.11192" lon="6.28369">
        <ele>821.1312</ele>
        <time>2011-10-06T07:54:12.700Z</time>
      </trkpt>
      <trkpt lat="44.11184" lon="6.28364">
        <ele>821.1312</ele>
        <time>2011-10-06T07:54:12.700Z</time>
      </trkpt>
      <trkpt lat="44.11175" lon="6.28364">
        <ele>821.1312</ele>
        <time>2011-10-06T07:54:12.700Z</time>
      </trkpt>
      <trkpt lat="44.11166" lon="6.28363">
        <ele>819.912</ele>
        <time>2011-10-06T07:54:12.700Z</time>
      </trkpt>
      <trkpt lat="44.11156" lon="6.28355">
        <ele>819.912</ele>
        <time>2011-10-06T07:54:12.700Z</time>
      </trkpt>
      <trkpt lat="44.11145" lon="6.28346">
        <ele>819.912</ele>
        <time>2011-10-06T07:54:12.700Z</time>
      </trkpt>
      <trkpt lat="44.11137" lon="6.28339">
        <ele>821.1312</ele>
        <time>2011-10-06T07:54:12.700Z</time>
      </trkpt>
      <trkpt lat="44.11128" lon="6.28339">
        <ele>821.1312</ele>
        <time>2011-10-06T07:54:12.700Z</time>
      </trkpt>
      <trkpt lat="44.11119" lon="6.28341">
        <ele>822.0456</ele>
        <time>2011-10-06T07:54:12.700Z</time>
      </trkpt>
      <trkpt lat="44.11109" lon="6.28338">
        <ele>822.0456</ele>
        <time>2011-10-06T07:54:12.700Z</time>
      </trkpt>
      <trkpt lat="44.11099" lon="6.28344">
        <ele>822.96</ele>
        <time>2011-10-06T07:54:12.700Z</time>
      </trkpt>
      <trkpt lat="44.1109" lon="6.28346">
        <ele>823.8744</ele>
        <time>2011-10-06T07:54:12.700Z</time>
      </trkpt>
      <trkpt lat="44.11083" lon="6.28353">
        <ele>822.0456</ele>
        <time>2011-10-06T07:54:12.700Z</time>
      </trkpt>
      <trkpt lat="44.11074" lon="6.28346">
        <ele>822.0456</ele>
        <time>2011-10-06T07:54:12.700Z</time>
      </trkpt>
      <trkpt lat="44.11068" lon="6.28336">
        <ele>822.0456</ele>
        <time>2011-10-06T07:54:12.700Z</time>
      </trkpt>
      <trkpt lat="44.1106" lon="6.28331">
        <ele>823.8744</ele>
        <time>2011-10-06T07:54:12.700Z</time>
      </trkpt>
      <trkpt lat="44.11053" lon="6.28323">
        <ele>822.96</ele>
        <time>2011-10-06T07:54:12.700Z</time>
      </trkpt>
      <trkpt lat="44.11048" lon="6.28313">
        <ele>822.96</ele>
        <time>2011-10-06T07:54:12.700Z</time>
      </trkpt>
      <trkpt lat="44.11041" lon="6.28306">
        <ele>822.0456</ele>
        <time>2011-10-06T07:54:12.700Z</time>
      </trkpt>
      <trkpt lat="44.11033" lon="6.28297">
        <ele>822.0456</ele>
        <time>2011-10-06T07:54:12.700Z</time>
      </trkpt>
      <trkpt lat="44.11028" lon="6.28285">
        <ele>822.0456</ele>
        <time>2011-10-06T07:54:12.700Z</time>
      </trkpt>
      <trkpt lat="44.11025" lon="6.28272">
        <ele>822.0456</ele>
        <time>2011-10-06T07:54:12.700Z</time>
      </trkpt>
      <trkpt lat="44.11022" lon="6.28258">
        <ele>822.0456</ele>
        <time>2011-10-06T07:54:12.700Z</time>
      </trkpt>
      <trkpt lat="44.11012" lon="6.28252">
        <ele>822.0456</ele>
        <time>2011-10-06T07:54:12.700Z</time>
      </trkpt>
      <trkpt lat="44.10951" lon="6.28242">
        <ele>808.0248</ele>
        <time>2011-10-06T07:54:12.700Z</time>
      </trkpt>
      <trkpt lat="44.10938" lon="6.28249">
        <ele>805.8912</ele>
        <time>2011-10-06T07:54:12.700Z</time>
      </trkpt>
      <trkpt lat="44.10927" lon="6.28249">
        <ele>804.9768</ele>
        <time>2011-10-06T07:54:12.700Z</time>
      </trkpt>
      <trkpt lat="44.10918" lon="6.28246">
        <ele>804.0624</ele>
        <time>2011-10-06T07:54:12.700Z</time>
      </trkpt>
      <trkpt lat="44.10907" lon="6.2824">
        <ele>797.052</ele>
        <time>2011-10-06T07:54:12.700Z</time>
      </trkpt>
      <trkpt lat="44.10895" lon="6.28231">
        <ele>794.004</ele>
        <time>2011-10-06T07:54:12.700Z</time>
      </trkpt>
      <trkpt lat="44.10881" lon="6.28222">
        <ele>791.8704</ele>
        <time>2011-10-06T07:54:12.700Z</time>
      </trkpt>
      <trkpt lat="44.1087" lon="6.28216">
        <ele>790.0416</ele>
        <time>2011-10-06T07:54:12.700Z</time>
      </trkpt>
      <trkpt lat="44.10861" lon="6.28211">
        <ele>789.1272</ele>
        <time>2011-10-06T07:54:12.700Z</time>
      </trkpt>
      <trkpt lat="44.10853" lon="6.28207">
        <ele>789.1272</ele>
        <time>2011-10-06T07:54:12.700Z</time>
      </trkpt>
      <trkpt lat="44.10844" lon="6.28204">
        <ele>787.908</ele>
        <time>2011-10-06T07:54:12.700Z</time>
      </trkpt>
      <trkpt lat="44.10836" lon="6.28195">
        <ele>786.9936</ele>
        <time>2011-10-06T07:54:12.700Z</time>
      </trkpt>
      <trkpt lat="44.1083" lon="6.28182">
        <ele>777.8496</ele>
        <time>2011-10-06T07:54:12.700Z</time>
      </trkpt>
      <trkpt lat="44.10822" lon="6.28167">
        <ele>777.8496</ele>
        <time>2011-10-06T07:54:12.700Z</time>
      </trkpt>
      <trkpt lat="44.10813" lon="6.28154">
        <ele>773.8872</ele>
        <time>2011-10-06T07:54:12.700Z</time>
      </trkpt>
      <trkpt lat="44.10803" lon="6.28138">
        <ele>771.144</ele>
        <time>2011-10-06T07:54:12.700Z</time>
      </trkpt>
      <trkpt lat="44.10796" lon="6.28131">
        <ele>769.9248</ele>
        <time>2011-10-06T07:54:12.700Z</time>
      </trkpt>
      <trkpt lat="44.10781" lon="6.28118">
        <ele>768.096</ele>
        <time>2011-10-06T07:54:12.700Z</time>
      </trkpt>
      <trkpt lat="44.10773" lon="6.28112">
        <ele>768.096</ele>
        <time>2011-10-06T07:54:12.700Z</time>
      </trkpt>
      <trkpt lat="44.10765" lon="6.28107">
        <ele>766.8768</ele>
        <time>2011-10-06T07:54:12.700Z</time>
      </trkpt>
      <trkpt lat="44.1075" lon="6.28099">
        <ele>759.8664</ele>
        <time>2011-10-06T07:54:12.700Z</time>
      </trkpt>
      <trkpt lat="44.10738" lon="6.28093">
        <ele>759.8664</ele>
        <time>2011-10-06T07:54:12.700Z</time>
      </trkpt>
      <trkpt lat="44.10727" lon="6.2809">
        <ele>758.952</ele>
        <time>2011-10-06T07:54:12.700Z</time>
      </trkpt>
      <trkpt lat="44.10722" lon="6.28079">
        <ele>758.952</ele>
        <time>2011-10-06T07:54:12.700Z</time>
      </trkpt>
      <trkpt lat="44.10716" lon="6.28064">
        <ele>758.952</ele>
        <time>2011-10-06T07:54:12.700Z</time>
      </trkpt>
      <trkpt lat="44.10711" lon="6.28053">
        <ele>758.0376</ele>
        <time>2011-10-06T07:54:12.700Z</time>
      </trkpt>
      <trkpt lat="44.10703" lon="6.28039">
        <ele>758.0376</ele>
        <time>2011-10-06T07:54:12.700Z</time>
      </trkpt>
      <trkpt lat="44.10694" lon="6.2803">
        <ele>757.1232</ele>
        <time>2011-10-06T07:54:12.700Z</time>
      </trkpt>
      <trkpt lat="44.10685" lon="6.28026">
        <ele>757.1232</ele>
        <time>2011-10-06T07:54:12.700Z</time>
      </trkpt>
      <trkpt lat="44.10676" lon="6.2802">
        <ele>757.1232</ele>
        <time>2011-10-06T07:54:12.700Z</time>
      </trkpt>
      <trkpt lat="44.10667" lon="6.28017">
        <ele>755.904</ele>
        <time>2011-10-06T07:54:12.700Z</time>
      </trkpt>
      <trkpt lat="44.10655" lon="6.28014">
        <ele>752.856</ele>
        <time>2011-10-06T07:54:12.700Z</time>
      </trkpt>
      <trkpt lat="44.10643" lon="6.28016">
        <ele>751.9416</ele>
        <time>2011-10-06T07:54:12.700Z</time>
      </trkpt>
      <trkpt lat="44.1063" lon="6.28018">
        <ele>751.0272</ele>
        <time>2011-10-06T07:54:12.700Z</time>
      </trkpt>
      <trkpt lat="44.10621" lon="6.28019">
        <ele>750.1128</ele>
        <time>2011-10-06T07:54:12.700Z</time>
      </trkpt>
      <trkpt lat="44.1061" lon="6.28017">
        <ele>750.1128</ele>
        <time>2011-10-06T07:54:12.700Z</time>
      </trkpt>
      <trkpt lat="44.106" lon="6.28015">
        <ele>748.8936</ele>
        <time>2011-10-06T07:54:12.700Z</time>
      </trkpt>
      <trkpt lat="44.10591" lon="6.28008">
        <ele>747.9792</ele>
        <time>2011-10-06T07:54:12.700Z</time>
      </trkpt>
      <trkpt lat="44.10583" lon="6.28003">
        <ele>744.9312</ele>
        <time>2011-10-06T07:54:12.700Z</time>
      </trkpt>
      <trkpt lat="44.10574" lon="6.28001">
        <ele>744.0168</ele>
        <time>2011-10-06T07:54:12.700Z</time>
      </trkpt>
      <trkpt lat="44.10566" lon="6.2799">
        <ele>740.9688</ele>
        <time>2011-10-06T07:54:12.700Z</time>
      </trkpt>
      <trkpt lat="44.10563" lon="6.27978">
        <ele>739.14</ele>
        <time>2011-10-06T07:54:12.700Z</time>
      </trkpt>
      <trkpt lat="44.10553" lon="6.2797">
        <ele>737.9208</ele>
        <time>2011-10-06T07:54:12.700Z</time>
      </trkpt>
      <trkpt lat="44.10542" lon="6.27966">
        <ele>737.0064</ele>
        <time>2011-10-06T07:54:12.700Z</time>
      </trkpt>
      <trkpt lat="44.10533" lon="6.27963">
        <ele>737.0064</ele>
        <time>2011-10-06T07:54:12.700Z</time>
      </trkpt>
      <trkpt lat="44.10522" lon="6.27957">
        <ele>736.092</ele>
        <time>2011-10-06T07:54:12.700Z</time>
      </trkpt>
      <trkpt lat="44.1051" lon="6.27953">
        <ele>734.8728</ele>
        <time>2011-10-06T07:54:12.700Z</time>
      </trkpt>
      <trkpt lat="44.105" lon="6.27954">
        <ele>734.8728</ele>
        <time>2011-10-06T07:54:12.700Z</time>
      </trkpt>
      <trkpt lat="44.1049" lon="6.2795">
        <ele>730.9104</ele>
        <time>2011-10-06T07:54:12.700Z</time>
      </trkpt>
      <trkpt lat="44.10479" lon="6.27947">
        <ele>730.9104</ele>
        <time>2011-10-06T07:54:12.700Z</time>
      </trkpt>
      <trkpt lat="44.1047" lon="6.27945">
        <ele>730.9104</ele>
        <time>2011-10-06T07:54:12.700Z</time>
      </trkpt>
      <trkpt lat="44.1046" lon="6.2794">
        <ele>729.996</ele>
        <time>2011-10-06T07:54:12.700Z</time>
      </trkpt>
      <trkpt lat="44.10449" lon="6.27935">
        <ele>729.0816</ele>
        <time>2011-10-06T07:54:12.700Z</time>
      </trkpt>
      <trkpt lat="44.10436" lon="6.27932">
        <ele>729.0816</ele>
        <time>2011-10-06T07:54:12.700Z</time>
      </trkpt>
      <trkpt lat="44.10426" lon="6.27927">
        <ele>727.8624</ele>
        <time>2011-10-06T07:54:12.700Z</time>
      </trkpt>
      <trkpt lat="44.10413" lon="6.27926">
        <ele>723.9</ele>
        <time>2011-10-06T07:54:12.700Z</time>
      </trkpt>
      <trkpt lat="44.10401" lon="6.27931">
        <ele>722.9856</ele>
        <time>2011-10-06T07:54:12.700Z</time>
      </trkpt>
      <trkpt lat="44.10389" lon="6.27936">
        <ele>722.0712</ele>
        <time>2011-10-06T07:54:12.700Z</time>
      </trkpt>
      <trkpt lat="44.10377" lon="6.2794">
        <ele>719.9376</ele>
        <time>2011-10-06T07:54:12.700Z</time>
      </trkpt>
      <trkpt lat="44.10366" lon="6.27944">
        <ele>719.9376</ele>
        <time>2011-10-06T07:54:12.700Z</time>
      </trkpt>
      <trkpt lat="44.10353" lon="6.27946">
        <ele>718.1088</ele>
        <time>2011-10-06T07:54:12.700Z</time>
      </trkpt>
      <trkpt lat="44.10342" lon="6.27951">
        <ele>718.1088</ele>
        <time>2011-10-06T07:54:12.700Z</time>
      </trkpt>
      <trkpt lat="44.10334" lon="6.27956">
        <ele>718.1088</ele>
        <time>2011-10-06T07:54:12.700Z</time>
      </trkpt>
      <trkpt lat="44.10323" lon="6.27956">
        <ele>708.9648</ele>
        <time>2011-10-06T07:54:12.700Z</time>
      </trkpt>
      <trkpt lat="44.10312" lon="6.27953">
        <ele>708.0504</ele>
        <time>2011-10-06T07:54:12.700Z</time>
      </trkpt>
      <trkpt lat="44.10302" lon="6.2795">
        <ele>707.136</ele>
        <time>2011-10-06T07:54:12.700Z</time>
      </trkpt>
      <trkpt lat="44.1029" lon="6.27941">
        <ele>705.9168</ele>
        <time>2011-10-06T07:54:12.700Z</time>
      </trkpt>
      <trkpt lat="44.10279" lon="6.27934">
        <ele>705.0024</ele>
        <time>2011-10-06T07:54:12.700Z</time>
      </trkpt>
      <trkpt lat="44.10271" lon="6.27931">
        <ele>704.088</ele>
        <time>2011-10-06T07:54:12.700Z</time>
      </trkpt>
      <trkpt lat="44.10261" lon="6.27923">
        <ele>701.9544</ele>
        <time>2011-10-06T07:54:12.700Z</time>
      </trkpt>
      <trkpt lat="44.10253" lon="6.27917">
        <ele>700.1256</ele>
        <time>2011-10-06T07:54:12.700Z</time>
      </trkpt>
      <trkpt lat="44.10245" lon="6.27911">
        <ele>698.9064</ele>
        <time>2011-10-06T07:54:12.700Z</time>
      </trkpt>
      <trkpt lat="44.10235" lon="6.27904">
        <ele>698.9064</ele>
        <time>2011-10-06T07:54:12.700Z</time>
      </trkpt>
      <trkpt lat="44.10227" lon="6.279">
        <ele>698.9064</ele>
        <time>2011-10-06T07:54:12.700Z</time>
      </trkpt>
      <trkpt lat="44.10218" lon="6.27902">
        <ele>697.992</ele>
        <time>2011-10-06T07:54:12.700Z</time>
      </trkpt>
      <trkpt lat="44.10209" lon="6.27898">
        <ele>697.992</ele>
        <time>2011-10-06T07:54:12.700Z</time>
      </trkpt>
      <trkpt lat="44.10199" lon="6.27896">
        <ele>697.0776</ele>
        <time>2011-10-06T07:54:12.700Z</time>
      </trkpt>
      <trkpt lat="44.1019" lon="6.27887">
        <ele>697.0776</ele>
        <time>2011-10-06T07:54:12.700Z</time>
      </trkpt>
      <trkpt lat="44.1018" lon="6.27887">
        <ele>695.8584</ele>
        <time>2011-10-06T07:54:12.700Z</time>
      </trkpt>
      <trkpt lat="44.10172" lon="6.27883">
        <ele>695.8584</ele>
        <time>2011-10-06T07:54:12.700Z</time>
      </trkpt>
      <trkpt lat="44.10162" lon="6.2788">
        <ele>694.0296</ele>
        <time>2011-10-06T07:54:12.700Z</time>
      </trkpt>
      <trkpt lat="44.10151" lon="6.27875">
        <ele>694.0296</ele>
        <time>2011-10-06T07:54:12.700Z</time>
      </trkpt>
      <trkpt lat="44.1014" lon="6.27868">
        <ele>694.0296</ele>
        <time>2011-10-06T07:54:12.700Z</time>
      </trkpt>
      <trkpt lat="44.10131" lon="6.2786">
        <ele>694.0296</ele>
        <time>2011-10-06T07:54:12.700Z</time>
      </trkpt>
      <trkpt lat="44.10123" lon="6.27853">
        <ele>694.0296</ele>
        <time>2011-10-06T07:54:12.700Z</time>
      </trkpt>
      <trkpt lat="44.10114" lon="6.27848">
        <ele>694.0296</ele>
        <time>2011-10-06T07:54:12.700Z</time>
      </trkpt>
      <trkpt lat="44.10114" lon="6.27835">
        <ele>694.0296</ele>
        <time>2011-10-06T07:54:12.700Z</time>
      </trkpt>
      <trkpt lat="44.1011" lon="6.27824">
        <ele>694.0296</ele>
        <time>2011-10-06T07:54:12.700Z</time>
      </trkpt>
      <trkpt lat="44.10107" lon="6.2781">
        <ele>694.944</ele>
        <time>2011-10-06T07:54:12.700Z</time>
      </trkpt>
      <trkpt lat="44.10096" lon="6.27807">
        <ele>694.0296</ele>
        <time>2011-10-06T07:54:12.700Z</time>
      </trkpt>
      <trkpt lat="44.10088" lon="6.27804">
        <ele>694.0296</ele>
        <time>2011-10-06T07:54:12.700Z</time>
      </trkpt>
      <trkpt lat="44.10079" lon="6.27799">
        <ele>693.1152</ele>
        <time>2011-10-06T07:54:12.700Z</time>
      </trkpt>
      <trkpt lat="44.10073" lon="6.27788">
        <ele>693.1152</ele>
        <time>2011-10-06T07:54:12.700Z</time>
      </trkpt>
      <trkpt lat="44.10065" lon="6.27779">
        <ele>693.1152</ele>
        <time>2011-10-06T07:54:12.700Z</time>
      </trkpt>
      <trkpt lat="44.10054" lon="6.27773">
        <ele>693.1152</ele>
        <time>2011-10-06T07:54:12.700Z</time>
      </trkpt>
      <trkpt lat="44.10047" lon="6.27766">
        <ele>693.1152</ele>
        <time>2011-10-06T07:54:12.700Z</time>
      </trkpt>
      <trkpt lat="44.10034" lon="6.2776">
        <ele>691.896</ele>
        <time>2011-10-06T07:54:12.700Z</time>
      </trkpt>
      <trkpt lat="44.10022" lon="6.27756">
        <ele>690.9816</ele>
        <time>2011-10-06T07:54:12.700Z</time>
      </trkpt>
      <trkpt lat="44.10013" lon="6.27752">
        <ele>690.0672</ele>
        <time>2011-10-06T07:54:12.700Z</time>
      </trkpt>
      <trkpt lat="44.10002" lon="6.27743">
        <ele>688.848</ele>
        <time>2011-10-06T07:54:12.700Z</time>
      </trkpt>
      <trkpt lat="44.09996" lon="6.27733">
        <ele>688.848</ele>
        <time>2011-10-06T07:54:12.700Z</time>
      </trkpt>
      <trkpt lat="44.09992" lon="6.27721">
        <ele>688.848</ele>
        <time>2011-10-06T07:54:12.700Z</time>
      </trkpt>
      <trkpt lat="44.09988" lon="6.27709">
        <ele>690.0672</ele>
        <time>2011-10-06T07:54:12.700Z</time>
      </trkpt>
      <trkpt lat="44.09984" lon="6.27693">
        <ele>688.848</ele>
        <time>2011-10-06T07:54:12.700Z</time>
      </trkpt>
      <trkpt lat="44.09982" lon="6.27681">
        <ele>688.848</ele>
        <time>2011-10-06T07:54:12.700Z</time>
      </trkpt>
      <trkpt lat="44.09978" lon="6.27667">
        <ele>688.848</ele>
        <time>2011-10-06T07:54:12.700Z</time>
      </trkpt>
      <trkpt lat="44.09969" lon="6.27659">
        <ele>690.0672</ele>
        <time>2011-10-06T07:54:12.700Z</time>
      </trkpt>
      <trkpt lat="44.0996" lon="6.27653">
        <ele>690.0672</ele>
        <time>2011-10-06T07:54:12.700Z</time>
      </trkpt>
      <trkpt lat="44.09951" lon="6.27647">
        <ele>690.0672</ele>
        <time>2011-10-06T07:54:12.700Z</time>
      </trkpt>
      <trkpt lat="44.09941" lon="6.2764">
        <ele>690.0672</ele>
        <time>2011-10-06T07:54:12.700Z</time>
      </trkpt>
      <trkpt lat="44.09932" lon="6.27638">
        <ele>688.848</ele>
        <time>2011-10-06T07:54:12.700Z</time>
      </trkpt>
      <trkpt lat="44.09923" lon="6.27631">
        <ele>688.848</ele>
        <time>2011-10-06T07:54:12.700Z</time>
      </trkpt>
      <trkpt lat="44.09914" lon="6.27623">
        <ele>686.1048</ele>
        <time>2011-10-06T07:54:12.700Z</time>
      </trkpt>
      <trkpt lat="44.09904" lon="6.27619">
        <ele>686.1048</ele>
        <time>2011-10-06T07:54:12.700Z</time>
      </trkpt>
      <trkpt lat="44.09884" lon="6.27606">
        <ele>686.1048</ele>
        <time>2011-10-06T07:54:12.700Z</time>
      </trkpt>
      <trkpt lat="44.09872" lon="6.27601">
        <ele>684.8856</ele>
        <time>2011-10-06T07:54:12.700Z</time>
      </trkpt>
      <trkpt lat="44.09861" lon="6.27603">
        <ele>683.9712</ele>
        <time>2011-10-06T07:54:12.700Z</time>
      </trkpt>
      <trkpt lat="44.0985" lon="6.27599">
        <ele>683.0568</ele>
        <time>2011-10-06T07:54:12.700Z</time>
      </trkpt>
      <trkpt lat="44.0984" lon="6.27595">
        <ele>682.1424</ele>
        <time>2011-10-06T07:54:12.700Z</time>
      </trkpt>
      <trkpt lat="44.0983" lon="6.27597">
        <ele>682.1424</ele>
        <time>2011-10-06T07:54:12.700Z</time>
      </trkpt>
      <trkpt lat="44.0983" lon="6.27611">
        <ele>683.0568</ele>
        <time>2011-10-06T07:54:12.700Z</time>
      </trkpt>
      <trkpt lat="44.09789" lon="6.27618">
        <ele>684.8856</ele>
        <time>2011-10-06T07:54:12.700Z</time>
      </trkpt>
      <trkpt lat="44.09778" lon="6.27621">
        <ele>684.8856</ele>
        <time>2011-10-06T07:54:12.700Z</time>
      </trkpt>
      <trkpt lat="44.09787" lon="6.2762">
        <ele>684.8856</ele>
        <time>2011-10-06T07:54:12.700Z</time>
      </trkpt>
      <trkpt lat="44.0981" lon="6.27613">
        <ele>683.9712</ele>
        <time>2011-10-06T07:54:12.700Z</time>
      </trkpt>
      <trkpt lat="44.09813" lon="6.27599">
        <ele>683.0568</ele>
        <time>2011-10-06T07:54:12.700Z</time>
      </trkpt>
      <trkpt lat="44.09803" lon="6.27593">
        <ele>683.0568</ele>
        <time>2011-10-06T07:54:12.700Z</time>
      </trkpt>
      <trkpt lat="44.09796" lon="6.27583">
        <ele>683.9712</ele>
        <time>2011-10-06T07:54:12.700Z</time>
      </trkpt>
      <trkpt lat="44.09785" lon="6.27581">
        <ele>683.9712</ele>
        <time>2011-10-06T07:54:12.700Z</time>
      </trkpt>
      <trkpt lat="44.09776" lon="6.27571">
        <ele>683.9712</ele>
        <time>2011-10-06T07:54:12.700Z</time>
      </trkpt>
      <trkpt lat="44.0977" lon="6.27562">
        <ele>683.9712</ele>
        <time>2011-10-06T07:54:12.700Z</time>
      </trkpt>
      <trkpt lat="44.09762" lon="6.27551">
        <ele>683.9712</ele>
        <time>2011-10-06T07:54:12.700Z</time>
      </trkpt>
      <trkpt lat="44.09755" lon="6.27543">
        <ele>683.9712</ele>
        <time>2011-10-06T07:54:12.700Z</time>
      </trkpt>
      <trkpt lat="44.09747" lon="6.27533">
        <ele>683.0568</ele>
        <time>2011-10-06T07:54:12.700Z</time>
      </trkpt>
      <trkpt lat="44.09738" lon="6.27521">
        <ele>682.1424</ele>
        <time>2011-10-06T07:54:12.700Z</time>
      </trkpt>
      <trkpt lat="44.09727" lon="6.27507">
        <ele>682.1424</ele>
        <time>2011-10-06T07:54:12.700Z</time>
      </trkpt>
      <trkpt lat="44.09717" lon="6.27498">
        <ele>684.8856</ele>
        <time>2011-10-06T07:54:12.700Z</time>
      </trkpt>
      <trkpt lat="44.0971" lon="6.27491">
        <ele>684.8856</ele>
        <time>2011-10-06T07:54:12.700Z</time>
      </trkpt>
      <trkpt lat="44.09701" lon="6.27482">
        <ele>684.8856</ele>
        <time>2011-10-06T07:54:12.700Z</time>
      </trkpt>
      <trkpt lat="44.09692" lon="6.27476">
        <ele>684.8856</ele>
        <time>2011-10-06T07:54:12.700Z</time>
      </trkpt>
      <trkpt lat="44.09682" lon="6.27474">
        <ele>684.8856</ele>
        <time>2011-10-06T07:54:12.700Z</time>
      </trkpt>
      <trkpt lat="44.09672" lon="6.27476">
        <ele>683.0568</ele>
        <time>2011-10-06T07:54:12.700Z</time>
      </trkpt>
      <trkpt lat="44.09659" lon="6.27479">
        <ele>679.0944</ele>
        <time>2011-10-06T07:54:12.700Z</time>
      </trkpt>
      <trkpt lat="44.09648" lon="6.2748">
        <ele>679.0944</ele>
        <time>2011-10-06T07:54:12.700Z</time>
      </trkpt>
      <trkpt lat="44.09639" lon="6.27478">
        <ele>680.0088</ele>
        <time>2011-10-06T07:54:12.700Z</time>
      </trkpt>
      <trkpt lat="44.09629" lon="6.27473">
        <ele>680.0088</ele>
        <time>2011-10-06T07:54:12.700Z</time>
      </trkpt>
      <trkpt lat="44.09619" lon="6.2747">
        <ele>680.0088</ele>
        <time>2011-10-06T07:54:12.700Z</time>
      </trkpt>
      <trkpt lat="44.09606" lon="6.27467">
        <ele>680.0088</ele>
        <time>2011-10-06T07:54:12.700Z</time>
      </trkpt>
      <trkpt lat="44.09592" lon="6.27462">
        <ele>680.0088</ele>
        <time>2011-10-06T07:54:12.700Z</time>
      </trkpt>
      <trkpt lat="44.09582" lon="6.27455">
        <ele>677.8752</ele>
        <time>2011-10-06T07:54:12.700Z</time>
      </trkpt>
      <trkpt lat="44.09576" lon="6.27446">
        <ele>677.8752</ele>
        <time>2011-10-06T07:54:12.700Z</time>
      </trkpt>
      <trkpt lat="44.09565" lon="6.27443">
        <ele>677.8752</ele>
        <time>2011-10-06T07:54:12.700Z</time>
      </trkpt>
      <trkpt lat="44.09552" lon="6.27438">
        <ele>676.9608</ele>
        <time>2011-10-06T07:54:12.700Z</time>
      </trkpt>
      <trkpt lat="44.09543" lon="6.27432">
        <ele>676.0464</ele>
        <time>2011-10-06T07:54:12.700Z</time>
      </trkpt>
      <trkpt lat="44.09533" lon="6.27427">
        <ele>675.132</ele>
        <time>2011-10-06T07:54:12.700Z</time>
      </trkpt>
      <trkpt lat="44.09524" lon="6.27423">
        <ele>673.9128</ele>
        <time>2011-10-06T07:54:12.700Z</time>
      </trkpt>
      <trkpt lat="44.09513" lon="6.27421">
        <ele>670.8648</ele>
        <time>2011-10-06T07:54:12.700Z</time>
      </trkpt>
      <trkpt lat="44.09504" lon="6.27421">
        <ele>669.036</ele>
        <time>2011-10-06T07:54:12.700Z</time>
      </trkpt>
      <trkpt lat="44.09494" lon="6.27422">
        <ele>669.9504</ele>
        <time>2011-10-06T07:54:12.700Z</time>
      </trkpt>
      <trkpt lat="44.09482" lon="6.27424">
        <ele>672.9984</ele>
        <time>2011-10-06T07:54:12.700Z</time>
      </trkpt>
      <trkpt lat="44.09473" lon="6.2742">
        <ele>673.9128</ele>
        <time>2011-10-06T07:54:12.700Z</time>
      </trkpt>
      <trkpt lat="44.09466" lon="6.27413">
        <ele>665.988</ele>
        <time>2011-10-06T07:54:12.700Z</time>
      </trkpt>
      <trkpt lat="44.09455" lon="6.27409">
        <ele>665.0736</ele>
        <time>2011-10-06T07:54:12.700Z</time>
      </trkpt>
      <trkpt lat="44.09448" lon="6.27397">
        <ele>665.0736</ele>
        <time>2011-10-06T07:54:12.700Z</time>
      </trkpt>
      <trkpt lat="44.09449" lon="6.27383">
        <ele>665.0736</ele>
        <time>2011-10-06T07:54:12.700Z</time>
      </trkpt>
      <trkpt lat="44.09449" lon="6.27367">
        <ele>665.0736</ele>
        <time>2011-10-06T07:54:12.700Z</time>
      </trkpt>
      <trkpt lat="44.09443" lon="6.27353">
        <ele>663.8544</ele>
        <time>2011-10-06T07:54:12.700Z</time>
      </trkpt>
      <trkpt lat="44.09433" lon="6.27348">
        <ele>662.94</ele>
        <time>2011-10-06T07:54:12.700Z</time>
      </trkpt>
      <trkpt lat="44.09422" lon="6.27341">
        <ele>659.892</ele>
        <time>2011-10-06T07:54:12.700Z</time>
      </trkpt>
      <trkpt lat="44.09411" lon="6.27333">
        <ele>658.9776</ele>
        <time>2011-10-06T07:54:12.700Z</time>
      </trkpt>
      <trkpt lat="44.09404" lon="6.27324">
        <ele>661.1112</ele>
        <time>2011-10-06T07:54:12.700Z</time>
      </trkpt>
      <trkpt lat="44.09394" lon="6.27318">
        <ele>661.1112</ele>
        <time>2011-10-06T07:54:12.700Z</time>
      </trkpt>
      <trkpt lat="44.09385" lon="6.27316">
        <ele>661.1112</ele>
        <time>2011-10-06T07:54:12.700Z</time>
      </trkpt>
      <trkpt lat="44.09372" lon="6.27314">
        <ele>661.1112</ele>
        <time>2011-10-06T07:54:12.700Z</time>
      </trkpt>
      <trkpt lat="44.09361" lon="6.27309">
        <ele>659.892</ele>
        <time>2011-10-06T07:54:12.700Z</time>
      </trkpt>
      <trkpt lat="44.09352" lon="6.27302">
        <ele>659.892</ele>
        <time>2011-10-06T07:54:12.700Z</time>
      </trkpt>
      <trkpt lat="44.09343" lon="6.27295">
        <ele>659.892</ele>
        <time>2011-10-06T07:54:12.700Z</time>
      </trkpt>
      <trkpt lat="44.09333" lon="6.27289">
        <ele>654.1008</ele>
        <time>2011-10-06T07:54:12.700Z</time>
      </trkpt>
      <trkpt lat="44.09321" lon="6.27286">
        <ele>654.1008</ele>
        <time>2011-10-06T07:54:12.700Z</time>
      </trkpt>
      <trkpt lat="44.0931" lon="6.27287">
        <ele>654.1008</ele>
        <time>2011-10-06T07:54:12.700Z</time>
      </trkpt>
      <trkpt lat="44.093" lon="6.27289">
        <ele>654.1008</ele>
        <time>2011-10-06T07:54:12.700Z</time>
      </trkpt>
      <trkpt lat="44.09291" lon="6.27288">
        <ele>654.1008</ele>
        <time>2011-10-06T07:54:12.700Z</time>
      </trkpt>
      <trkpt lat="44.09277" lon="6.27289">
        <ele>652.8816</ele>
        <time>2011-10-06T07:54:12.700Z</time>
      </trkpt>
      <trkpt lat="44.09266" lon="6.27289">
        <ele>652.8816</ele>
        <time>2011-10-06T07:54:12.700Z</time>
      </trkpt>
      <trkpt lat="44.09256" lon="6.27287">
        <ele>652.8816</ele>
        <time>2011-10-06T07:54:12.700Z</time>
      </trkpt>
      <trkpt lat="44.09247" lon="6.27286">
        <ele>651.0528</ele>
        <time>2011-10-06T07:54:12.700Z</time>
      </trkpt>
      <trkpt lat="44.09236" lon="6.27292">
        <ele>651.0528</ele>
        <time>2011-10-06T07:54:12.700Z</time>
      </trkpt>
      <trkpt lat="44.09227" lon="6.27295">
        <ele>650.1384</ele>
        <time>2011-10-06T07:54:12.700Z</time>
      </trkpt>
      <trkpt lat="44.09216" lon="6.27297">
        <ele>650.1384</ele>
        <time>2011-10-06T07:54:12.700Z</time>
      </trkpt>
      <trkpt lat="44.09207" lon="6.273">
        <ele>650.1384</ele>
        <time>2011-10-06T07:54:12.700Z</time>
      </trkpt>
      <trkpt lat="44.09197" lon="6.27303">
        <ele>650.1384</ele>
        <time>2011-10-06T07:54:12.700Z</time>
      </trkpt>
      <trkpt lat="44.09186" lon="6.27308">
        <ele>650.1384</ele>
        <time>2011-10-06T07:54:12.700Z</time>
      </trkpt>
      <trkpt lat="44.09176" lon="6.27307">
        <ele>650.1384</ele>
        <time>2011-10-06T07:54:12.700Z</time>
      </trkpt>
      <trkpt lat="44.09163" lon="6.27306">
        <ele>648.0048</ele>
        <time>2011-10-06T07:54:12.700Z</time>
      </trkpt>
      <trkpt lat="44.09154" lon="6.27298">
        <ele>648.0048</ele>
        <time>2011-10-06T07:54:12.700Z</time>
      </trkpt>
      <trkpt lat="44.09148" lon="6.27288">
        <ele>648.0048</ele>
        <time>2011-10-06T07:54:12.700Z</time>
      </trkpt>
      <trkpt lat="44.09141" lon="6.27277">
        <ele>648.0048</ele>
        <time>2011-10-06T07:54:12.700Z</time>
      </trkpt>
      <trkpt lat="44.09134" lon="6.27267">
        <ele>648.0048</ele>
        <time>2011-10-06T07:54:12.700Z</time>
      </trkpt>
      <trkpt lat="44.09127" lon="6.27257">
        <ele>648.0048</ele>
        <time>2011-10-06T07:54:12.700Z</time>
      </trkpt>
      <trkpt lat="44.09119" lon="6.27248">
        <ele>648.0048</ele>
        <time>2011-10-06T07:54:12.700Z</time>
      </trkpt>
      <trkpt lat="44.09109" lon="6.27239">
        <ele>648.0048</ele>
        <time>2011-10-06T07:54:12.700Z</time>
      </trkpt>
      <trkpt lat="44.09101" lon="6.27232">
        <ele>648.0048</ele>
        <time>2011-10-06T07:54:12.700Z</time>
      </trkpt>
      <trkpt lat="44.09093" lon="6.27224">
        <ele>648.0048</ele>
        <time>2011-10-06T07:54:12.700Z</time>
      </trkpt>
      <trkpt lat="44.09086" lon="6.2721">
        <ele>648.0048</ele>
        <time>2011-10-06T07:54:12.700Z</time>
      </trkpt>
      <trkpt lat="44.09078" lon="6.272">
        <ele>645.8712</ele>
        <time>2011-10-06T07:54:12.700Z</time>
      </trkpt>
      <trkpt lat="44.09069" lon="6.27193">
        <ele>645.8712</ele>
        <time>2011-10-06T07:54:12.700Z</time>
      </trkpt>
      <trkpt lat="44.09062" lon="6.27184">
        <ele>645.8712</ele>
        <time>2011-10-06T07:54:12.700Z</time>
      </trkpt>
      <trkpt lat="44.09056" lon="6.27171">
        <ele>645.8712</ele>
        <time>2011-10-06T07:54:12.700Z</time>
      </trkpt>
      <trkpt lat="44.09051" lon="6.27161">
        <ele>644.9568</ele>
        <time>2011-10-06T07:54:12.700Z</time>
      </trkpt>
      <trkpt lat="44.09043" lon="6.27162">
        <ele>644.0424</ele>
        <time>2011-10-06T07:54:12.700Z</time>
      </trkpt>
      <trkpt lat="44.09034" lon="6.27172">
        <ele>644.9568</ele>
        <time>2011-10-06T07:54:12.700Z</time>
      </trkpt>
      <trkpt lat="44.09026" lon="6.27184">
        <ele>644.9568</ele>
        <time>2011-10-06T07:54:12.700Z</time>
      </trkpt>
      <trkpt lat="44.0902" lon="6.27199">
        <ele>644.9568</ele>
        <time>2011-10-06T07:54:12.700Z</time>
      </trkpt>
      <trkpt lat="44.09016" lon="6.27212">
        <ele>644.9568</ele>
        <time>2011-10-06T07:54:12.700Z</time>
      </trkpt>
      <trkpt lat="44.09012" lon="6.27224">
        <ele>645.8712</ele>
        <time>2011-10-06T07:54:12.700Z</time>
      </trkpt>
      <trkpt lat="44.0901" lon="6.27236">
        <ele>645.8712</ele>
        <time>2011-10-06T07:54:12.700Z</time>
      </trkpt>
      <trkpt lat="44.09007" lon="6.27249">
        <ele>645.8712</ele>
        <time>2011-10-06T07:54:12.700Z</time>
      </trkpt>
      <trkpt lat="44.09005" lon="6.2726">
        <ele>645.8712</ele>
        <time>2011-10-06T07:54:12.700Z</time>
      </trkpt>
      <trkpt lat="44.09" lon="6.27272">
        <ele>645.8712</ele>
        <time>2011-10-06T07:54:12.700Z</time>
      </trkpt>
      <trkpt lat="44.08995" lon="6.27289">
        <ele>647.0904</ele>
        <time>2011-10-06T07:54:12.700Z</time>
      </trkpt>
      <trkpt lat="44.0899" lon="6.273">
        <ele>647.0904</ele>
        <time>2011-10-06T07:54:12.700Z</time>
      </trkpt>
      <trkpt lat="44.08986" lon="6.27312">
        <ele>647.0904</ele>
        <time>2011-10-06T07:54:12.700Z</time>
      </trkpt>
      <trkpt lat="44.0898" lon="6.27328">
        <ele>647.0904</ele>
        <time>2011-10-06T07:54:12.700Z</time>
      </trkpt>
      <trkpt lat="44.08976" lon="6.27344">
        <ele>647.0904</ele>
        <time>2011-10-06T07:54:12.700Z</time>
      </trkpt>
      <trkpt lat="44.08968" lon="6.27357">
        <ele>648.0048</ele>
        <time>2011-10-06T07:54:12.700Z</time>
      </trkpt>
      <trkpt lat="44.08959" lon="6.27368">
        <ele>648.0048</ele>
        <time>2011-10-06T07:54:12.700Z</time>
      </trkpt>
      <trkpt lat="44.08956" lon="6.2738">
        <ele>648.0048</ele>
        <time>2011-10-06T07:54:12.700Z</time>
      </trkpt>
      <trkpt lat="44.08951" lon="6.27392">
        <ele>648.0048</ele>
        <time>2011-10-06T07:54:12.700Z</time>
      </trkpt>
      <trkpt lat="44.08941" lon="6.27389">
        <ele>648.0048</ele>
        <time>2011-10-06T07:54:12.700Z</time>
      </trkpt>
      <trkpt lat="44.08937" lon="6.27375">
        <ele>648.0048</ele>
        <time>2011-10-06T07:54:12.700Z</time>
      </trkpt>
      <trkpt lat="44.08928" lon="6.27371">
        <ele>648.9192</ele>
        <time>2011-10-06T07:54:12.700Z</time>
      </trkpt>
      <trkpt lat="44.08918" lon="6.27371">
        <ele>648.9192</ele>
        <time>2011-10-06T07:54:12.700Z</time>
      </trkpt>
      <trkpt lat="44.08908" lon="6.27369">
        <ele>655.0152</ele>
        <time>2011-10-06T07:54:12.700Z</time>
      </trkpt>
      <trkpt lat="44.08898" lon="6.27368">
        <ele>655.9296</ele>
        <time>2011-10-06T07:54:12.700Z</time>
      </trkpt>
      <trkpt lat="44.08889" lon="6.27362">
        <ele>657.1488</ele>
        <time>2011-10-06T07:54:12.700Z</time>
      </trkpt>
      <trkpt lat="44.0888" lon="6.27359">
        <ele>658.0632</ele>
        <time>2011-10-06T07:54:12.700Z</time>
      </trkpt>
      <trkpt lat="44.08871" lon="6.27356">
        <ele>658.0632</ele>
        <time>2011-10-06T07:54:12.700Z</time>
      </trkpt>
      <trkpt lat="44.08862" lon="6.27355">
        <ele>658.9776</ele>
        <time>2011-10-06T07:54:12.700Z</time>
      </trkpt>
      <trkpt lat="44.08853" lon="6.27353">
        <ele>659.892</ele>
        <time>2011-10-06T07:54:12.700Z</time>
      </trkpt>
      <trkpt lat="44.08846" lon="6.27363">
        <ele>661.1112</ele>
        <time>2011-10-06T07:54:12.700Z</time>
      </trkpt>
      <trkpt lat="44.08837" lon="6.27364">
        <ele>661.1112</ele>
        <time>2011-10-06T07:54:12.700Z</time>
      </trkpt>
      <trkpt lat="44.08828" lon="6.27366">
        <ele>670.8648</ele>
        <time>2011-10-06T07:54:12.700Z</time>
      </trkpt>
      <trkpt lat="44.08819" lon="6.27367">
        <ele>672.084</ele>
        <time>2011-10-06T07:54:12.700Z</time>
      </trkpt>
      <trkpt lat="44.0881" lon="6.27365">
        <ele>672.084</ele>
        <time>2011-10-06T07:54:12.700Z</time>
      </trkpt>
      <trkpt lat="44.08799" lon="6.27361">
        <ele>672.9984</ele>
        <time>2011-10-06T07:54:12.700Z</time>
      </trkpt>
      <trkpt lat="44.08794" lon="6.27349">
        <ele>672.9984</ele>
        <time>2011-10-06T07:54:12.700Z</time>
      </trkpt>
      <trkpt lat="44.08788" lon="6.2734">
        <ele>673.9128</ele>
        <time>2011-10-06T07:54:12.700Z</time>
      </trkpt>
      <trkpt lat="44.08778" lon="6.27332">
        <ele>672.9984</ele>
        <time>2011-10-06T07:54:12.700Z</time>
      </trkpt>
      <trkpt lat="44.08769" lon="6.27329">
        <ele>675.132</ele>
        <time>2011-10-06T07:54:12.700Z</time>
      </trkpt>
      <trkpt lat="44.0876" lon="6.27321">
        <ele>675.132</ele>
        <time>2011-10-06T07:54:12.700Z</time>
      </trkpt>
      <trkpt lat="44.08752" lon="6.27311">
        <ele>675.132</ele>
        <time>2011-10-06T07:54:12.700Z</time>
      </trkpt>
      <trkpt lat="44.08743" lon="6.27306">
        <ele>680.9232</ele>
        <time>2011-10-06T07:54:12.700Z</time>
      </trkpt>
      <trkpt lat="44.08734" lon="6.27305">
        <ele>680.9232</ele>
        <time>2011-10-06T07:54:12.700Z</time>
      </trkpt>
      <trkpt lat="44.08725" lon="6.27307">
        <ele>680.9232</ele>
        <time>2011-10-06T07:54:12.700Z</time>
      </trkpt>
      <trkpt lat="44.08716" lon="6.27303">
        <ele>682.1424</ele>
        <time>2011-10-06T07:54:12.700Z</time>
      </trkpt>
      <trkpt lat="44.08707" lon="6.27307">
        <ele>682.1424</ele>
        <time>2011-10-06T07:54:12.700Z</time>
      </trkpt>
      <trkpt lat="44.08697" lon="6.27307">
        <ele>682.1424</ele>
        <time>2011-10-06T07:54:12.700Z</time>
      </trkpt>
      <trkpt lat="44.08688" lon="6.27303">
        <ele>683.0568</ele>
        <time>2011-10-06T07:54:12.700Z</time>
      </trkpt>
      <trkpt lat="44.08679" lon="6.27298">
        <ele>683.0568</ele>
        <time>2011-10-06T07:54:12.700Z</time>
      </trkpt>
      <trkpt lat="44.08672" lon="6.27291">
        <ele>683.0568</ele>
        <time>2011-10-06T07:54:12.700Z</time>
      </trkpt>
      <trkpt lat="44.08663" lon="6.27288">
        <ele>684.8856</ele>
        <time>2011-10-06T07:54:12.700Z</time>
      </trkpt>
      <trkpt lat="44.08654" lon="6.27279">
        <ele>684.8856</ele>
        <time>2011-10-06T07:54:12.700Z</time>
      </trkpt>
      <trkpt lat="44.08651" lon="6.27268">
        <ele>684.8856</ele>
        <time>2011-10-06T07:54:12.700Z</time>
      </trkpt>
      <trkpt lat="44.08641" lon="6.27261">
        <ele>684.8856</ele>
        <time>2011-10-06T07:54:12.700Z</time>
      </trkpt>
      <trkpt lat="44.08631" lon="6.27261">
        <ele>684.8856</ele>
        <time>2011-10-06T07:54:12.700Z</time>
      </trkpt>
      <trkpt lat="44.08621" lon="6.27263">
        <ele>683.9712</ele>
        <time>2011-10-06T07:54:12.700Z</time>
      </trkpt>
      <trkpt lat="44.08616" lon="6.27275">
        <ele>683.9712</ele>
        <time>2011-10-06T07:54:12.700Z</time>
      </trkpt>
      <trkpt lat="44.0861" lon="6.27287">
        <ele>684.8856</ele>
        <time>2011-10-06T07:54:12.700Z</time>
      </trkpt>
      <trkpt lat="44.0861" lon="6.27301">
        <ele>684.8856</ele>
        <time>2011-10-06T07:54:12.700Z</time>
      </trkpt>
      <trkpt lat="44.08606" lon="6.27316">
        <ele>686.1048</ele>
        <time>2011-10-06T07:54:12.700Z</time>
      </trkpt>
      <trkpt lat="44.08601" lon="6.27331">
        <ele>687.0192</ele>
        <time>2011-10-06T07:54:12.700Z</time>
      </trkpt>
      <trkpt lat="44.08595" lon="6.27341">
        <ele>690.9816</ele>
        <time>2011-10-06T07:54:12.700Z</time>
      </trkpt>
      <trkpt lat="44.08589" lon="6.27351">
        <ele>690.9816</ele>
        <time>2011-10-06T07:54:12.700Z</time>
      </trkpt>
      <trkpt lat="44.08582" lon="6.27362">
        <ele>693.1152</ele>
        <time>2011-10-06T07:54:12.700Z</time>
      </trkpt>
      <trkpt lat="44.08573" lon="6.2737">
        <ele>694.0296</ele>
        <time>2011-10-06T07:54:12.700Z</time>
      </trkpt>
      <trkpt lat="44.08564" lon="6.27373">
        <ele>694.0296</ele>
        <time>2011-10-06T07:54:12.700Z</time>
      </trkpt>
      <trkpt lat="44.08553" lon="6.27374">
        <ele>694.0296</ele>
        <time>2011-10-06T07:54:12.700Z</time>
      </trkpt>
      <trkpt lat="44.08542" lon="6.27377">
        <ele>694.944</ele>
        <time>2011-10-06T07:54:12.700Z</time>
      </trkpt>
      <trkpt lat="44.08533" lon="6.27383">
        <ele>694.944</ele>
        <time>2011-10-06T07:54:12.700Z</time>
      </trkpt>
      <trkpt lat="44.08524" lon="6.27392">
        <ele>695.8584</ele>
        <time>2011-10-06T07:54:12.700Z</time>
      </trkpt>
      <trkpt lat="44.08516" lon="6.27395">
        <ele>697.0776</ele>
        <time>2011-10-06T07:54:12.700Z</time>
      </trkpt>
      <trkpt lat="44.08506" lon="6.27399">
        <ele>697.0776</ele>
        <time>2011-10-06T07:54:12.700Z</time>
      </trkpt>
      <trkpt lat="44.08493" lon="6.27401">
        <ele>697.0776</ele>
        <time>2011-10-06T07:54:12.700Z</time>
      </trkpt>
      <trkpt lat="44.08483" lon="6.27401">
        <ele>695.8584</ele>
        <time>2011-10-06T07:54:12.700Z</time>
      </trkpt>
      <trkpt lat="44.08475" lon="6.27405">
        <ele>695.8584</ele>
        <time>2011-10-06T07:54:12.700Z</time>
      </trkpt>
      <trkpt lat="44.08466" lon="6.27412">
        <ele>695.8584</ele>
        <time>2011-10-06T07:54:12.700Z</time>
      </trkpt>
      <trkpt lat="44.0846" lon="6.27421">
        <ele>705.0024</ele>
        <time>2011-10-06T07:54:12.700Z</time>
      </trkpt>
      <trkpt lat="44.08452" lon="6.27428">
        <ele>705.0024</ele>
        <time>2011-10-06T07:54:12.700Z</time>
      </trkpt>
      <trkpt lat="44.08443" lon="6.27431">
        <ele>704.088</ele>
        <time>2011-10-06T07:54:12.700Z</time>
      </trkpt>
      <trkpt lat="44.08434" lon="6.27436">
        <ele>704.088</ele>
        <time>2011-10-06T07:54:12.700Z</time>
      </trkpt>
      <trkpt lat="44.08425" lon="6.27439">
        <ele>704.088</ele>
        <time>2011-10-06T07:54:12.700Z</time>
      </trkpt>
      <trkpt lat="44.08415" lon="6.27443">
        <ele>701.9544</ele>
        <time>2011-10-06T07:54:12.700Z</time>
      </trkpt>
      <trkpt lat="44.08408" lon="6.27454">
        <ele>704.088</ele>
        <time>2011-10-06T07:54:12.700Z</time>
      </trkpt>
      <trkpt lat="44.08396" lon="6.27457">
        <ele>704.088</ele>
        <time>2011-10-06T07:54:12.700Z</time>
      </trkpt>
      <trkpt lat="44.08386" lon="6.27452">
        <ele>702.8688</ele>
        <time>2011-10-06T07:54:12.700Z</time>
      </trkpt>
      <trkpt lat="44.08377" lon="6.27445">
        <ele>702.8688</ele>
        <time>2011-10-06T07:54:12.700Z</time>
      </trkpt>
      <trkpt lat="44.08366" lon="6.27439">
        <ele>701.9544</ele>
        <time>2011-10-06T07:54:12.700Z</time>
      </trkpt>
      <trkpt lat="44.08357" lon="6.27436">
        <ele>701.9544</ele>
        <time>2011-10-06T07:54:12.700Z</time>
      </trkpt>
      <trkpt lat="44.08346" lon="6.27448">
        <ele>701.9544</ele>
        <time>2011-10-06T07:54:12.700Z</time>
      </trkpt>
      <trkpt lat="44.08336" lon="6.27465">
        <ele>704.088</ele>
        <time>2011-10-06T07:54:12.700Z</time>
      </trkpt>
      <trkpt lat="44.08328" lon="6.2748">
        <ele>708.0504</ele>
        <time>2011-10-06T07:54:12.700Z</time>
      </trkpt>
      <trkpt lat="44.08319" lon="6.27476">
        <ele>708.0504</ele>
        <time>2011-10-06T07:54:12.700Z</time>
      </trkpt>
      <trkpt lat="44.08315" lon="6.27464">
        <ele>708.0504</ele>
        <time>2011-10-06T07:54:12.700Z</time>
      </trkpt>
      <trkpt lat="44.08306" lon="6.27467">
        <ele>708.9648</ele>
        <time>2011-10-06T07:54:12.700Z</time>
      </trkpt>
      <trkpt lat="44.08298" lon="6.27475">
        <ele>708.9648</ele>
        <time>2011-10-06T07:54:12.700Z</time>
      </trkpt>
      <trkpt lat="44.08291" lon="6.27485">
        <ele>709.8792</ele>
        <time>2011-10-06T07:54:12.700Z</time>
      </trkpt>
      <trkpt lat="44.08281" lon="6.27488">
        <ele>711.0984</ele>
        <time>2011-10-06T07:54:12.700Z</time>
      </trkpt>
      <trkpt lat="44.08274" lon="6.2748">
        <ele>712.0128</ele>
        <time>2011-10-06T07:54:12.700Z</time>
      </trkpt>
      <trkpt lat="44.08265" lon="6.27479">
        <ele>712.9272</ele>
        <time>2011-10-06T07:54:12.700Z</time>
      </trkpt>
      <trkpt lat="44.08255" lon="6.27479">
        <ele>712.9272</ele>
        <time>2011-10-06T07:54:12.700Z</time>
      </trkpt>
      <trkpt lat="44.08248" lon="6.27488">
        <ele>719.9376</ele>
        <time>2011-10-06T07:54:12.700Z</time>
      </trkpt>
      <trkpt lat="44.08241" lon="6.27494">
        <ele>719.9376</ele>
        <time>2011-10-06T07:54:12.700Z</time>
      </trkpt>
      <trkpt lat="44.08234" lon="6.27502">
        <ele>723.9</ele>
        <time>2011-10-06T07:54:12.700Z</time>
      </trkpt>
      <trkpt lat="44.08227" lon="6.27511">
        <ele>726.0336</ele>
        <time>2011-10-06T07:54:12.700Z</time>
      </trkpt>
      <trkpt lat="44.08218" lon="6.27515">
        <ele>726.948</ele>
        <time>2011-10-06T07:54:12.700Z</time>
      </trkpt>
      <trkpt lat="44.08208" lon="6.2752">
        <ele>727.8624</ele>
        <time>2011-10-06T07:54:12.700Z</time>
      </trkpt>
      <trkpt lat="44.08199" lon="6.2752">
        <ele>727.8624</ele>
        <time>2011-10-06T07:54:12.700Z</time>
      </trkpt>
      <trkpt lat="44.08189" lon="6.27522">
        <ele>729.0816</ele>
        <time>2011-10-06T07:54:12.700Z</time>
      </trkpt>
      <trkpt lat="44.08179" lon="6.27532">
        <ele>729.996</ele>
        <time>2011-10-06T07:54:12.700Z</time>
      </trkpt>
      <trkpt lat="44.0817" lon="6.27531">
        <ele>729.996</ele>
        <time>2011-10-06T07:54:12.700Z</time>
      </trkpt>
      <trkpt lat="44.0816" lon="6.27535">
        <ele>737.9208</ele>
        <time>2011-10-06T07:54:12.700Z</time>
      </trkpt>
      <trkpt lat="44.08151" lon="6.27544">
        <ele>739.14</ele>
        <time>2011-10-06T07:54:12.700Z</time>
      </trkpt>
      <trkpt lat="44.08142" lon="6.27555">
        <ele>740.0544</ele>
        <time>2011-10-06T07:54:12.700Z</time>
      </trkpt>
      <trkpt lat="44.08138" lon="6.27566">
        <ele>740.9688</ele>
        <time>2011-10-06T07:54:12.700Z</time>
      </trkpt>
      <trkpt lat="44.0813" lon="6.27575">
        <ele>741.8832</ele>
        <time>2011-10-06T07:54:12.700Z</time>
      </trkpt>
      <trkpt lat="44.0812" lon="6.27568">
        <ele>743.1024</ele>
        <time>2011-10-06T07:54:12.700Z</time>
      </trkpt>
      <trkpt lat="44.08111" lon="6.27564">
        <ele>743.1024</ele>
        <time>2011-10-06T07:54:12.700Z</time>
      </trkpt>
      <trkpt lat="44.08101" lon="6.27565">
        <ele>744.0168</ele>
        <time>2011-10-06T07:54:12.700Z</time>
      </trkpt>
      <trkpt lat="44.08092" lon="6.27565">
        <ele>744.9312</ele>
        <time>2011-10-06T07:54:12.700Z</time>
      </trkpt>
      <trkpt lat="44.08084" lon="6.27561">
        <ele>744.9312</ele>
        <time>2011-10-06T07:54:12.700Z</time>
      </trkpt>
      <trkpt lat="44.08082" lon="6.27549">
        <ele>754.0752</ele>
        <time>2011-10-06T07:54:12.700Z</time>
      </trkpt>
      <trkpt lat="44.08085" lon="6.27537">
        <ele>744.0168</ele>
        <time>2011-10-06T07:54:12.700Z</time>
      </trkpt>
      <trkpt lat="44.0809" lon="6.27526">
        <ele>743.1024</ele>
        <time>2011-10-06T07:54:12.700Z</time>
      </trkpt>
      <trkpt lat="44.08088" lon="6.27514">
        <ele>744.0168</ele>
        <time>2011-10-06T07:54:12.700Z</time>
      </trkpt>
      <trkpt lat="44.08079" lon="6.27512">
        <ele>751.0272</ele>
        <time>2011-10-06T07:54:12.700Z</time>
      </trkpt>
      <trkpt lat="44.0807" lon="6.27513">
        <ele>752.856</ele>
        <time>2011-10-06T07:54:12.700Z</time>
      </trkpt>
      <trkpt lat="44.08061" lon="6.27517">
        <ele>754.0752</ele>
        <time>2011-10-06T07:54:12.700Z</time>
      </trkpt>
      <trkpt lat="44.08063" lon="6.27505">
        <ele>752.856</ele>
        <time>2011-10-06T07:54:12.700Z</time>
      </trkpt>
      <trkpt lat="44.08065" lon="6.27492">
        <ele>754.9896</ele>
        <time>2011-10-06T07:54:12.700Z</time>
      </trkpt>
      <trkpt lat="44.08063" lon="6.2748">
        <ele>757.1232</ele>
        <time>2011-10-06T07:54:12.700Z</time>
      </trkpt>
      <trkpt lat="44.08054" lon="6.27482">
        <ele>758.0376</ele>
        <time>2011-10-06T07:54:12.700Z</time>
      </trkpt>
      <trkpt lat="44.08054" lon="6.27495">
        <ele>758.0376</ele>
        <time>2011-10-06T07:54:12.700Z</time>
      </trkpt>
      <trkpt lat="44.08048" lon="6.27505">
        <ele>755.904</ele>
        <time>2011-10-06T07:54:12.700Z</time>
      </trkpt>
      <trkpt lat="44.0804" lon="6.27509">
        <ele>758.0376</ele>
        <time>2011-10-06T07:54:12.700Z</time>
      </trkpt>
      <trkpt lat="44.08031" lon="6.27515">
        <ele>758.952</ele>
        <time>2011-10-06T07:54:12.700Z</time>
      </trkpt>
      <trkpt lat="44.08021" lon="6.27517">
        <ele>761.0856</ele>
        <time>2011-10-06T07:54:12.700Z</time>
      </trkpt>
      <trkpt lat="44.08011" lon="6.27516">
        <ele>762</ele>
        <time>2011-10-06T07:54:12.700Z</time>
      </trkpt>
      <trkpt lat="44.08" lon="6.27517">
        <ele>762.9144</ele>
        <time>2011-10-06T07:54:12.700Z</time>
      </trkpt>
      <trkpt lat="44.07993" lon="6.27506">
        <ele>766.8768</ele>
        <time>2011-10-06T07:54:12.700Z</time>
      </trkpt>
      <trkpt lat="44.07989" lon="6.2749">
        <ele>768.096</ele>
        <time>2011-10-06T07:54:12.700Z</time>
      </trkpt>
      <trkpt lat="44.07987" lon="6.27475">
        <ele>768.096</ele>
        <time>2011-10-06T07:54:12.700Z</time>
      </trkpt>
      <trkpt lat="44.07983" lon="6.2746">
        <ele>768.096</ele>
        <time>2011-10-06T07:54:12.700Z</time>
      </trkpt>
      <trkpt lat="44.0798" lon="6.27448">
        <ele>768.096</ele>
        <time>2011-10-06T07:54:12.700Z</time>
      </trkpt>
      <trkpt lat="44.07976" lon="6.27436">
        <ele>768.096</ele>
        <time>2011-10-06T07:54:12.700Z</time>
      </trkpt>
      <trkpt lat="44.07973" lon="6.27418">
        <ele>768.096</ele>
        <time>2011-10-06T07:54:12.700Z</time>
      </trkpt>
      <trkpt lat="44.07971" lon="6.27406">
        <ele>765.9624</ele>
        <time>2011-10-06T07:54:12.700Z</time>
      </trkpt>
      <trkpt lat="44.07969" lon="6.27392">
        <ele>765.9624</ele>
        <time>2011-10-06T07:54:12.700Z</time>
      </trkpt>
      <trkpt lat="44.0797" lon="6.27374">
        <ele>765.048</ele>
        <time>2011-10-06T07:54:12.700Z</time>
      </trkpt>
      <trkpt lat="44.07973" lon="6.27356">
        <ele>764.1336</ele>
        <time>2011-10-06T07:54:12.700Z</time>
      </trkpt>
      <trkpt lat="44.07971" lon="6.27336">
        <ele>764.1336</ele>
        <time>2011-10-06T07:54:12.700Z</time>
      </trkpt>
      <trkpt lat="44.07969" lon="6.27322">
        <ele>758.952</ele>
        <time>2011-10-06T07:54:12.700Z</time>
      </trkpt>
      <trkpt lat="44.07968" lon="6.27307">
        <ele>758.0376</ele>
        <time>2011-10-06T07:54:12.700Z</time>
      </trkpt>
      <trkpt lat="44.07957" lon="6.27303">
        <ele>758.0376</ele>
        <time>2011-10-06T07:54:12.700Z</time>
      </trkpt>
      <trkpt lat="44.07945" lon="6.27304">
        <ele>757.1232</ele>
        <time>2011-10-06T07:54:12.700Z</time>
      </trkpt>
      <trkpt lat="44.07933" lon="6.27302">
        <ele>757.1232</ele>
        <time>2011-10-06T07:54:12.700Z</time>
      </trkpt>
      <trkpt lat="44.07923" lon="6.27301">
        <ele>757.1232</ele>
        <time>2011-10-06T07:54:12.700Z</time>
      </trkpt>
      <trkpt lat="44.07914" lon="6.27295">
        <ele>752.856</ele>
        <time>2011-10-06T07:54:12.700Z</time>
      </trkpt>
      <trkpt lat="44.07905" lon="6.27292">
        <ele>751.9416</ele>
        <time>2011-10-06T07:54:12.700Z</time>
      </trkpt>
      <trkpt lat="44.07896" lon="6.27295">
        <ele>751.9416</ele>
        <time>2011-10-06T07:54:12.700Z</time>
      </trkpt>
      <trkpt lat="44.07886" lon="6.27298">
        <ele>751.9416</ele>
        <time>2011-10-06T07:54:12.700Z</time>
      </trkpt>
      <trkpt lat="44.07879" lon="6.27307">
        <ele>751.0272</ele>
        <time>2011-10-06T07:54:12.700Z</time>
      </trkpt>
      <trkpt lat="44.0787" lon="6.27318">
        <ele>751.0272</ele>
        <time>2011-10-06T07:54:12.700Z</time>
      </trkpt>
      <trkpt lat="44.07862" lon="6.27325">
        <ele>750.1128</ele>
        <time>2011-10-06T07:54:12.700Z</time>
      </trkpt>
      <trkpt lat="44.07855" lon="6.27331">
        <ele>750.1128</ele>
        <time>2011-10-06T07:54:12.700Z</time>
      </trkpt>
      <trkpt lat="44.07844" lon="6.27335">
        <ele>750.1128</ele>
        <time>2011-10-06T07:54:12.700Z</time>
      </trkpt>
      <trkpt lat="44.07835" lon="6.27336">
        <ele>747.9792</ele>
        <time>2011-10-06T07:54:12.700Z</time>
      </trkpt>
      <trkpt lat="44.07824" lon="6.27337">
        <ele>746.1504</ele>
        <time>2011-10-06T07:54:12.700Z</time>
      </trkpt>
      <trkpt lat="44.07814" lon="6.27338">
        <ele>744.9312</ele>
        <time>2011-10-06T07:54:12.700Z</time>
      </trkpt>
      <trkpt lat="44.07805" lon="6.27348">
        <ele>744.9312</ele>
        <time>2011-10-06T07:54:12.700Z</time>
      </trkpt>
      <trkpt lat="44.07798" lon="6.27358">
        <ele>744.0168</ele>
        <time>2011-10-06T07:54:12.700Z</time>
      </trkpt>
      <trkpt lat="44.07792" lon="6.2737">
        <ele>744.0168</ele>
        <time>2011-10-06T07:54:12.700Z</time>
      </trkpt>
      <trkpt lat="44.07791" lon="6.27383">
        <ele>744.0168</ele>
        <time>2011-10-06T07:54:12.700Z</time>
      </trkpt>
      <trkpt lat="44.07783" lon="6.27389">
        <ele>744.0168</ele>
        <time>2011-10-06T07:54:12.700Z</time>
      </trkpt>
      <trkpt lat="44.07774" lon="6.27386">
        <ele>743.1024</ele>
        <time>2011-10-06T07:54:12.700Z</time>
      </trkpt>
      <trkpt lat="44.07765" lon="6.27382">
        <ele>743.1024</ele>
        <time>2011-10-06T07:54:12.700Z</time>
      </trkpt>
      <trkpt lat="44.07754" lon="6.27383">
        <ele>741.8832</ele>
        <time>2011-10-06T07:54:12.700Z</time>
      </trkpt>
      <trkpt lat="44.07747" lon="6.27371">
        <ele>736.092</ele>
        <time>2011-10-06T07:54:12.700Z</time>
      </trkpt>
      <trkpt lat="44.07739" lon="6.27362">
        <ele>736.092</ele>
        <time>2011-10-06T07:54:12.700Z</time>
      </trkpt>
      <trkpt lat="44.0773" lon="6.27362">
        <ele>734.8728</ele>
        <time>2011-10-06T07:54:12.700Z</time>
      </trkpt>
      <trkpt lat="44.0772" lon="6.27362">
        <ele>734.8728</ele>
        <time>2011-10-06T07:54:12.700Z</time>
      </trkpt>
      <trkpt lat="44.07714" lon="6.27374">
        <ele>733.9584</ele>
        <time>2011-10-06T07:54:12.700Z</time>
      </trkpt>
      <trkpt lat="44.07706" lon="6.27377">
        <ele>733.9584</ele>
        <time>2011-10-06T07:54:12.700Z</time>
      </trkpt>
      <trkpt lat="44.07695" lon="6.27381">
        <ele>733.044</ele>
        <time>2011-10-06T07:54:12.700Z</time>
      </trkpt>
      <trkpt lat="44.07684" lon="6.27379">
        <ele>733.044</ele>
        <time>2011-10-06T07:54:12.700Z</time>
      </trkpt>
      <trkpt lat="44.07678" lon="6.2737">
        <ele>733.044</ele>
        <time>2011-10-06T07:54:12.700Z</time>
      </trkpt>
      <trkpt lat="44.07669" lon="6.27367">
        <ele>733.044</ele>
        <time>2011-10-06T07:54:12.700Z</time>
      </trkpt>
      <trkpt lat="44.07659" lon="6.27374">
        <ele>726.948</ele>
        <time>2011-10-06T07:54:12.700Z</time>
      </trkpt>
      <trkpt lat="44.07649" lon="6.27374">
        <ele>726.948</ele>
        <time>2011-10-06T07:54:12.700Z</time>
      </trkpt>
      <trkpt lat="44.07642" lon="6.27382">
        <ele>726.0336</ele>
        <time>2011-10-06T07:54:12.700Z</time>
      </trkpt>
      <trkpt lat="44.07631" lon="6.27383">
        <ele>726.0336</ele>
        <time>2011-10-06T07:54:12.700Z</time>
      </trkpt>
      <trkpt lat="44.07622" lon="6.27384">
        <ele>726.0336</ele>
        <time>2011-10-06T07:54:12.700Z</time>
      </trkpt>
      <trkpt lat="44.0761" lon="6.27388">
        <ele>725.1192</ele>
        <time>2011-10-06T07:54:12.700Z</time>
      </trkpt>
      <trkpt lat="44.076" lon="6.27388">
        <ele>725.1192</ele>
        <time>2011-10-06T07:54:12.700Z</time>
      </trkpt>
      <trkpt lat="44.07592" lon="6.27382">
        <ele>725.1192</ele>
        <time>2011-10-06T07:54:12.700Z</time>
      </trkpt>
      <trkpt lat="44.07586" lon="6.27373">
        <ele>725.1192</ele>
        <time>2011-10-06T07:54:12.700Z</time>
      </trkpt>
      <trkpt lat="44.07581" lon="6.27362">
        <ele>727.8624</ele>
        <time>2011-10-06T07:54:12.700Z</time>
      </trkpt>
      <trkpt lat="44.07574" lon="6.27354">
        <ele>727.8624</ele>
        <time>2011-10-06T07:54:12.700Z</time>
      </trkpt>
      <trkpt lat="44.07565" lon="6.27348">
        <ele>727.8624</ele>
        <time>2011-10-06T07:54:12.700Z</time>
      </trkpt>
      <trkpt lat="44.07556" lon="6.27343">
        <ele>729.0816</ele>
        <time>2011-10-06T07:54:12.700Z</time>
      </trkpt>
      <trkpt lat="44.07546" lon="6.27342">
        <ele>730.9104</ele>
        <time>2011-10-06T07:54:12.700Z</time>
      </trkpt>
      <trkpt lat="44.07537" lon="6.27344">
        <ele>732.1296</ele>
        <time>2011-10-06T07:54:12.700Z</time>
      </trkpt>
      <trkpt lat="44.07533" lon="6.27333">
        <ele>729.996</ele>
        <time>2011-10-06T07:54:12.700Z</time>
      </trkpt>
      <trkpt lat="44.07526" lon="6.27323">
        <ele>730.9104</ele>
        <time>2011-10-06T07:54:12.700Z</time>
      </trkpt>
      <trkpt lat="44.07515" lon="6.27313">
        <ele>730.9104</ele>
        <time>2011-10-06T07:54:12.700Z</time>
      </trkpt>
      <trkpt lat="44.0751" lon="6.27301">
        <ele>729.996</ele>
        <time>2011-10-06T07:54:12.700Z</time>
      </trkpt>
      <trkpt lat="44.07502" lon="6.27286">
        <ele>727.8624</ele>
        <time>2011-10-06T07:54:12.700Z</time>
      </trkpt>
      <trkpt lat="44.07492" lon="6.27273">
        <ele>734.8728</ele>
        <time>2011-10-06T07:54:12.700Z</time>
      </trkpt>
      <trkpt lat="44.07485" lon="6.27261">
        <ele>733.9584</ele>
        <time>2011-10-06T07:54:12.700Z</time>
      </trkpt>
      <trkpt lat="44.07494" lon="6.27259">
        <ele>729.996</ele>
        <time>2011-10-06T07:54:12.700Z</time>
      </trkpt>
      <trkpt lat="44.07502" lon="6.27268">
        <ele>725.1192</ele>
        <time>2011-10-06T07:54:12.700Z</time>
      </trkpt>
      <trkpt lat="44.07515" lon="6.27279">
        <ele>726.948</ele>
        <time>2011-10-06T07:54:12.700Z</time>
      </trkpt>
      <trkpt lat="44.07528" lon="6.27289">
        <ele>727.8624</ele>
        <time>2011-10-06T07:54:12.700Z</time>
      </trkpt>
      <trkpt lat="44.07538" lon="6.27298">
        <ele>727.8624</ele>
        <time>2011-10-06T07:54:12.700Z</time>
      </trkpt>
      <trkpt lat="44.07551" lon="6.27309">
        <ele>726.948</ele>
        <time>2011-10-06T07:54:12.700Z</time>
      </trkpt>
      <trkpt lat="44.07564" lon="6.27319">
        <ele>726.0336</ele>
        <time>2011-10-06T07:54:12.700Z</time>
      </trkpt>
      <trkpt lat="44.07596" lon="6.2734">
        <ele>723.9</ele>
        <time>2011-10-06T07:54:12.700Z</time>
      </trkpt>
      <trkpt lat="44.07586" lon="6.27329">
        <ele>723.9</ele>
        <time>2011-10-06T07:54:12.700Z</time>
      </trkpt>
      <trkpt lat="44.07579" lon="6.27316">
        <ele>725.1192</ele>
        <time>2011-10-06T07:54:12.700Z</time>
      </trkpt>
      <trkpt lat="44.07573" lon="6.27304">
        <ele>726.0336</ele>
        <time>2011-10-06T07:54:12.700Z</time>
      </trkpt>
      <trkpt lat="44.07568" lon="6.2729">
        <ele>726.0336</ele>
        <time>2011-10-06T07:54:12.700Z</time>
      </trkpt>
      <trkpt lat="44.07563" lon="6.27277">
        <ele>726.0336</ele>
        <time>2011-10-06T07:54:12.700Z</time>
      </trkpt>
      <trkpt lat="44.07559" lon="6.27262">
        <ele>726.0336</ele>
        <time>2011-10-06T07:54:12.700Z</time>
      </trkpt>
      <trkpt lat="44.07559" lon="6.27249">
        <ele>722.0712</ele>
        <time>2011-10-06T07:54:12.700Z</time>
      </trkpt>
      <trkpt lat="44.07557" lon="6.27233">
        <ele>722.0712</ele>
        <time>2011-10-06T07:54:12.700Z</time>
      </trkpt>
      <trkpt lat="44.07556" lon="6.27216">
        <ele>720.852</ele>
        <time>2011-10-06T07:54:12.700Z</time>
      </trkpt>
      <trkpt lat="44.07554" lon="6.272">
        <ele>719.9376</ele>
        <time>2011-10-06T07:54:12.700Z</time>
      </trkpt>
      <trkpt lat="44.07552" lon="6.27186">
        <ele>719.9376</ele>
        <time>2011-10-06T07:54:12.700Z</time>
      </trkpt>
      <trkpt lat="44.0755" lon="6.27172">
        <ele>719.9376</ele>
        <time>2011-10-06T07:54:12.700Z</time>
      </trkpt>
      <trkpt lat="44.0755" lon="6.27156">
        <ele>712.9272</ele>
        <time>2011-10-06T07:54:12.700Z</time>
      </trkpt>
      <trkpt lat="44.07552" lon="6.27138">
        <ele>712.0128</ele>
        <time>2011-10-06T07:54:12.700Z</time>
      </trkpt>
      <trkpt lat="44.07553" lon="6.27125">
        <ele>711.0984</ele>
        <time>2011-10-06T07:54:12.700Z</time>
      </trkpt>
      <trkpt lat="44.07555" lon="6.27112">
        <ele>709.8792</ele>
        <time>2011-10-06T07:54:12.700Z</time>
      </trkpt>
      <trkpt lat="44.07557" lon="6.271">
        <ele>709.8792</ele>
        <time>2011-10-06T07:54:12.700Z</time>
      </trkpt>
      <trkpt lat="44.0756" lon="6.27086">
        <ele>711.0984</ele>
        <time>2011-10-06T07:54:12.700Z</time>
      </trkpt>
      <trkpt lat="44.07563" lon="6.27074">
        <ele>705.9168</ele>
        <time>2011-10-06T07:54:12.700Z</time>
      </trkpt>
      <trkpt lat="44.07567" lon="6.27062">
        <ele>705.0024</ele>
        <time>2011-10-06T07:54:12.700Z</time>
      </trkpt>
      <trkpt lat="44.07572" lon="6.27052">
        <ele>704.088</ele>
        <time>2011-10-06T07:54:12.700Z</time>
      </trkpt>
      <trkpt lat="44.07575" lon="6.2704">
        <ele>702.8688</ele>
        <time>2011-10-06T07:54:12.700Z</time>
      </trkpt>
      <trkpt lat="44.07567" lon="6.27044">
        <ele>701.9544</ele>
        <time>2011-10-06T07:54:12.700Z</time>
      </trkpt>
      <trkpt lat="44.07561" lon="6.27057">
        <ele>702.8688</ele>
        <time>2011-10-06T07:54:12.700Z</time>
      </trkpt>
      <trkpt lat="44.07552" lon="6.27066">
        <ele>701.9544</ele>
        <time>2011-10-06T07:54:12.700Z</time>
      </trkpt>
      <trkpt lat="44.07546" lon="6.27078">
        <ele>701.04</ele>
        <time>2011-10-06T07:54:12.700Z</time>
      </trkpt>
      <trkpt lat="44.07539" lon="6.27086">
        <ele>705.0024</ele>
        <time>2011-10-06T07:54:12.700Z</time>
      </trkpt>
      <trkpt lat="44.0753" lon="6.27098">
        <ele>702.8688</ele>
        <time>2011-10-06T07:54:12.700Z</time>
      </trkpt>
      <trkpt lat="44.07521" lon="6.27104">
        <ele>701.9544</ele>
        <time>2011-10-06T07:54:12.700Z</time>
      </trkpt>
      <trkpt lat="44.07511" lon="6.27112">
        <ele>701.04</ele>
        <time>2011-10-06T07:54:12.700Z</time>
      </trkpt>
      <trkpt lat="44.075" lon="6.27118">
        <ele>701.04</ele>
        <time>2011-10-06T07:54:12.700Z</time>
      </trkpt>
      <trkpt lat="44.0749" lon="6.27116">
        <ele>694.944</ele>
        <time>2011-10-06T07:54:12.700Z</time>
      </trkpt>
      <trkpt lat="44.07481" lon="6.27114">
        <ele>694.944</ele>
        <time>2011-10-06T07:54:12.700Z</time>
      </trkpt>
      <trkpt lat="44.07479" lon="6.27101">
        <ele>694.0296</ele>
        <time>2011-10-06T07:54:12.700Z</time>
      </trkpt>
      <trkpt lat="44.07476" lon="6.27088">
        <ele>693.1152</ele>
        <time>2011-10-06T07:54:12.700Z</time>
      </trkpt>
      <trkpt lat="44.07471" lon="6.27077">
        <ele>686.1048</ele>
        <time>2011-10-06T07:54:12.700Z</time>
      </trkpt>
      <trkpt lat="44.07463" lon="6.27065">
        <ele>687.0192</ele>
        <time>2011-10-06T07:54:12.700Z</time>
      </trkpt>
      <trkpt lat="44.07455" lon="6.27056">
        <ele>687.0192</ele>
        <time>2011-10-06T07:54:12.700Z</time>
      </trkpt>
      <trkpt lat="44.07445" lon="6.27049">
        <ele>687.0192</ele>
        <time>2011-10-06T07:54:12.700Z</time>
      </trkpt>
      <trkpt lat="44.07437" lon="6.27058">
        <ele>687.0192</ele>
        <time>2011-10-06T07:54:12.700Z</time>
      </trkpt>
      <trkpt lat="44.07429" lon="6.27067">
        <ele>687.0192</ele>
        <time>2011-10-06T07:54:12.700Z</time>
      </trkpt>
      <trkpt lat="44.0742" lon="6.27065">
        <ele>687.9336</ele>
        <time>2011-10-06T07:54:12.700Z</time>
      </trkpt>
      <trkpt lat="44.07412" lon="6.27061">
        <ele>688.848</ele>
        <time>2011-10-06T07:54:12.700Z</time>
      </trkpt>
      <trkpt lat="44.07403" lon="6.27066">
        <ele>688.848</ele>
        <time>2011-10-06T07:54:12.700Z</time>
      </trkpt>
      <trkpt lat="44.07395" lon="6.27074">
        <ele>688.848</ele>
        <time>2011-10-06T07:54:12.700Z</time>
      </trkpt>
      <trkpt lat="44.07387" lon="6.27081">
        <ele>688.848</ele>
        <time>2011-10-06T07:54:12.700Z</time>
      </trkpt>
      <trkpt lat="44.07378" lon="6.27085">
        <ele>697.0776</ele>
        <time>2011-10-06T07:54:12.700Z</time>
      </trkpt>
      <trkpt lat="44.0737" lon="6.27091">
        <ele>697.992</ele>
        <time>2011-10-06T07:54:12.700Z</time>
      </trkpt>
      <trkpt lat="44.07362" lon="6.27096">
        <ele>697.992</ele>
        <time>2011-10-06T07:54:12.700Z</time>
      </trkpt>
      <trkpt lat="44.07353" lon="6.27102">
        <ele>697.992</ele>
        <time>2011-10-06T07:54:12.700Z</time>
      </trkpt>
      <trkpt lat="44.07344" lon="6.27108">
        <ele>697.992</ele>
        <time>2011-10-06T07:54:12.700Z</time>
      </trkpt>
      <trkpt lat="44.07334" lon="6.2711">
        <ele>698.9064</ele>
        <time>2011-10-06T07:54:12.700Z</time>
      </trkpt>
      <trkpt lat="44.07324" lon="6.27113">
        <ele>697.992</ele>
        <time>2011-10-06T07:54:12.700Z</time>
      </trkpt>
      <trkpt lat="44.07313" lon="6.27112">
        <ele>697.992</ele>
        <time>2011-10-06T07:54:12.700Z</time>
      </trkpt>
      <trkpt lat="44.07305" lon="6.27102">
        <ele>695.8584</ele>
        <time>2011-10-06T07:54:12.700Z</time>
      </trkpt>
      <trkpt lat="44.07298" lon="6.27092">
        <ele>694.944</ele>
        <time>2011-10-06T07:54:12.700Z</time>
      </trkpt>
      <trkpt lat="44.07289" lon="6.27084">
        <ele>694.944</ele>
        <time>2011-10-06T07:54:12.700Z</time>
      </trkpt>
      <trkpt lat="44.07279" lon="6.27084">
        <ele>694.0296</ele>
        <time>2011-10-06T07:54:12.700Z</time>
      </trkpt>
      <trkpt lat="44.07269" lon="6.27085">
        <ele>693.1152</ele>
        <time>2011-10-06T07:54:12.700Z</time>
      </trkpt>
      <trkpt lat="44.0726" lon="6.27092">
        <ele>691.896</ele>
        <time>2011-10-06T07:54:12.700Z</time>
      </trkpt>
      <trkpt lat="44.07259" lon="6.27105">
        <ele>694.944</ele>
        <time>2011-10-06T07:54:12.700Z</time>
      </trkpt>
      <trkpt lat="44.0725" lon="6.27109">
        <ele>693.1152</ele>
        <time>2011-10-06T07:54:12.700Z</time>
      </trkpt>
      <trkpt lat="44.07242" lon="6.27117">
        <ele>694.944</ele>
        <time>2011-10-06T07:54:12.700Z</time>
      </trkpt>
      <trkpt lat="44.07233" lon="6.27127">
        <ele>695.8584</ele>
        <time>2011-10-06T07:54:12.700Z</time>
      </trkpt>
      <trkpt lat="44.07225" lon="6.27134">
        <ele>697.0776</ele>
        <time>2011-10-06T07:54:12.700Z</time>
      </trkpt>
      <trkpt lat="44.07217" lon="6.2713">
        <ele>695.8584</ele>
        <time>2011-10-06T07:54:12.700Z</time>
      </trkpt>
      <trkpt lat="44.07224" lon="6.27138">
        <ele>697.0776</ele>
        <time>2011-10-06T07:54:12.700Z</time>
      </trkpt>
      <trkpt lat="44.07217" lon="6.27146">
        <ele>697.0776</ele>
        <time>2011-10-06T07:54:12.700Z</time>
      </trkpt>
      <trkpt lat="44.07214" lon="6.27159">
        <ele>697.992</ele>
        <time>2011-10-06T07:54:12.700Z</time>
      </trkpt>
      <trkpt lat="44.07206" lon="6.27166">
        <ele>697.0776</ele>
        <time>2011-10-06T07:54:12.700Z</time>
      </trkpt>
      <trkpt lat="44.07196" lon="6.27172">
        <ele>708.9648</ele>
        <time>2011-10-06T07:54:12.700Z</time>
      </trkpt>
      <trkpt lat="44.07187" lon="6.27178">
        <ele>707.136</ele>
        <time>2011-10-06T07:54:12.700Z</time>
      </trkpt>
      <trkpt lat="44.07177" lon="6.27179">
        <ele>704.088</ele>
        <time>2011-10-06T07:54:12.700Z</time>
      </trkpt>
    </trkseg>
  </trk>
</gpx>